Index of /

</
[ICO]NameLast ModifiedSize

[TXT]Chapter 26 Cold War Conflicts Quizlet2010-06-01T23:17:00+00:00 25 K 
[TXT]Chapter 26 Cold War Conflicts Crossword Puzzle2010-06-02T10:50:00+00:00 20 K 
[TXT]Chapter 26 The Cold War Begins2010-06-02T22:23:00+00:00 24 K 
[TXT]Chapter 26 The Cold War Test2010-06-03T09:56:00+00:00 25 K 
[TXT]Chapter 26 The Cold War Abroad And At Home2010-06-03T21:29:00+00:00 23 K 
[TXT]Chapter 26 Truman And The Cold War2010-06-04T09:02:00+00:00 21 K 
[TXT]Chapter 26 Cold War Conflicts2010-06-04T20:35:00+00:00 22 K 
[TXT]Chapter 7 Cell Structure And Function Test A Answer Key2010-06-05T08:08:00+00:00 23 K 
[TXT]Chapter 7 Cell Structure And Function Answer Key Vocabulary Review2010-06-05T19:41:00+00:00 19 K 
[TXT]Chapter 7 Cell Structure And Function Section 1 Life Is Cellular Answers2010-06-06T07:14:00+00:00 21 K 
[TXT]Chapter 7 Cell Structure And Function Section Review 3 Answer Key2010-06-06T18:47:00+00:00 19 K 
[TXT]Chapter 7 Cell Structure And Function Section Review 1 Answer Key2010-06-07T06:20:00+00:00 21 K 
[TXT]Chapter 7 Cell Structure And Function Reviewing Key Concepts Answer2010-06-07T17:53:00+00:00 19 K 
[TXT]Chapter32 Mammals Section 32 Answer2010-06-08T05:26:00+00:00 23 K 
[TXT]Class 12Th Chemistry Chapters Index2010-06-08T16:59:00+00:00 17 K 
[TXT]Chapter 4 Electrical Wiring Residential2010-06-09T04:32:00+00:00 25 K 
[TXT]Chapter 13 Psychological Disorders2010-06-09T16:05:00+00:00 21 K 
[TXT]Chapter9 The Analysis2010-06-10T03:38:00+00:00 22 K 
[TXT]Chemistry Chapter 13 Electrons In Atoms2010-06-10T15:11:00+00:00 19 K 
[TXT]Chapter 7 Questions And Answers2010-06-11T02:44:00+00:00 23 K 
[TXT]Chapter 13 Managerial Accounting Answer2010-06-11T14:17:00+00:00 18 K 
[TXT]Chinese Cindrella Chapter Summary2010-06-12T01:50:00+00:00 22 K 
[TXT]Communities And Biomes Chapter Assessment Biology2010-06-12T13:23:00+00:00 17 K 
[TXT]Chapter 3 Ethics In Pharmacy Practice2010-06-13T00:56:00+00:00 25 K 
[TXT]Chapter 10 Practice Test Part 22010-06-13T12:29:00+00:00 17 K 
[TXT]Class 10 English Literature Chapters Mcq2010-06-14T00:02:00+00:00 23 K 
[TXT]Chapter 12 Manifest Destiny2010-06-14T11:35:00+00:00 22 K 
[TXT]Chapter 16 Evolution Of Populations Te2010-06-14T23:08:00+00:00 24 K 
[TXT]Chapter M01 Application For Medical Assistance2010-06-15T10:41:00+00:00 24 K 
[TXT]Chapter 23 Roots Stems And Leaves Se2010-06-15T22:14:00+00:00 20 K 
[TXT]Chapter 17 Main Idea Activities 32010-06-16T09:47:00+00:00 25 K 
[TXT]Chapter Three Strategic Management2010-06-16T21:20:00+00:00 24 K 
[TXT]Chapter 2 Notes2010-06-17T08:53:00+00:00 23 K 
[TXT]Chapter 11 Vibrations And Waves2010-06-17T20:26:00+00:00 24 K 
[TXT]Chapter 5 Lesson 12010-06-18T07:59:00+00:00 23 K 
[TXT]Chapter 10 Review Physical Characteristics Of Gases2010-06-18T19:32:00+00:00 21 K 
[TXT]Chapter 8 Secondary Storage2010-06-19T07:05:00+00:00 19 K 
[TXT]Chapter Questions Skills For Critical Thinking2010-06-19T18:38:00+00:00 19 K 
[TXT]Chapter 3 Fundamentals Of Organization Structure2010-06-20T06:11:00+00:00 19 K 
[TXT]Chapter 9 Momentum Unm2010-06-20T17:44:00+00:00 22 K 
[TXT]Chapter 14 The Behavior Of Gasses Test2010-06-21T05:17:00+00:00 24 K 
[TXT]Cpmt Chapterwise Physics 29 Years Ebooks2010-06-21T16:50:00+00:00 21 K 
[TXT]Chapter 31 Years Of Crisis Test Answers2010-06-22T04:23:00+00:00 18 K 
[TXT]Chapter 12 Independent School District 1962010-06-22T15:56:00+00:00 18 K 
[TXT]Chapter 20 Intermediate Accounting2010-06-23T03:29:00+00:00 19 K 
[TXT]Chapter 1 Introduction Neo2010-06-23T15:02:00+00:00 19 K 
[TXT]Chapter 10 The Federal Bureaucracy Glencoe2010-06-24T02:35:00+00:00 17 K 
[TXT]Chapter 9 Systems Of Equations Unit Test2010-06-24T14:08:00+00:00 24 K 
[TXT]Chapter 26 Vocabulary Review Pearson Education2010-06-25T01:41:00+00:00 24 K 
[TXT]Chapter 1 Introduction To Management And Organizations2010-06-25T13:14:00+00:00 20 K 
[TXT]Chapter I Spogel Com2010-06-26T00:47:00+00:00 21 K 
[TXT]Chapter 2 Power Amplifier Virginia Tech2010-06-26T12:20:00+00:00 17 K 
[TXT]Chapter17 Earth Science Plate Tectonics Assessment Answers2010-06-26T23:53:00+00:00 17 K 
[TXT]Chemistry For Wa 1 Solutions Chapter 82010-06-27T11:26:00+00:00 22 K 
[TXT]Chapter 28 Reproductive System2010-06-27T22:59:00+00:00 25 K 
[TXT]Chapter 01 Research In Business2010-06-28T10:32:00+00:00 17 K 
[TXT]Chapter 3 Multiple Choice Questions2010-06-28T22:05:00+00:00 20 K 
[TXT]Chapters 1 3 Tests Chatt2010-06-29T09:38:00+00:00 22 K 
[TXT]Chapter 11 The Federal Court System Teacherweb2010-06-29T21:11:00+00:00 24 K 
[TXT]Chapter 13 Practice Test2010-06-30T08:44:00+00:00 19 K 
[TXT]Chapter Wise Question For Bitsat2010-06-30T20:17:00+00:00 25 K 
[TXT]Chapter 29 Echinoderms And Invertebrate Chordates2010-07-01T07:50:00+00:00 24 K 
[TXT]Chapter 3 Kinetics Of Particles Chula2010-07-01T19:23:00+00:00 17 K 
[TXT]Chapter 1 History Of Cognitive Psychology2010-07-02T06:56:00+00:00 23 K 
[TXT]Chapter 4 Elasticity Sample Questions Multiple Choice2010-07-02T18:29:00+00:00 22 K 
[TXT]Chapter 14 Properties Of Gases Answers2010-07-03T06:02:00+00:00 23 K 
[TXT]Chemistry Chapter 5 Test Answers2010-07-03T17:35:00+00:00 18 K 
[TXT]Chapter 11 Test2010-07-04T05:08:00+00:00 25 K 
[TXT]Computer Organization And Design Solutions Of Chapter22010-07-04T16:41:00+00:00 17 K 
[TXT]Chapter 6 Courage And Moral Leadership2010-07-05T04:14:00+00:00 20 K 
[TXT]Chapterwise Marks Of 12 Th Board2010-07-05T15:47:00+00:00 21 K 
[TXT]Conceptual Physics Chapter 37 Concept Development Answers2010-07-06T03:20:00+00:00 25 K 
[TXT]Chapter 12 Congress Organizes Analy High School2010-07-06T14:53:00+00:00 25 K 
[TXT]Chapter 4 Of Laudon E Commerece Book2010-07-07T02:26:00+00:00 23 K 
[TXT]Chapter Three Denotation And Connotation Answers2010-07-07T13:59:00+00:00 17 K 
[TXT]Chapter 13 Form G Answers2010-07-08T01:32:00+00:00 19 K 
[TXT]Chapter 12 Investments Lynchburg College Home2010-07-08T13:05:00+00:00 25 K 
[TXT]Chapter 9 Cellular Respiration Graphic Organizer2010-07-09T00:38:00+00:00 18 K 
[TXT]Chapter 10 Straight Lines2010-07-09T12:11:00+00:00 17 K 
[TXT]Chapter 8 Review2010-07-09T23:44:00+00:00 23 K 
[TXT]Chapter 12 Creating Menus2010-07-10T11:17:00+00:00 21 K 
[TXT]Congruence And Similarity 9 Chapter Test B2010-07-10T22:50:00+00:00 22 K 
[TXT]Chapter 6 Anatomy Of Flowering Plants2010-07-11T10:23:00+00:00 23 K 
[TXT]Chapter 3 Stoichiometry Of Formulas And Equations2010-07-11T21:56:00+00:00 21 K 
[TXT]Chapter 13 Test Chemical Reactions Nemsgoldeneagles2010-07-12T09:29:00+00:00 18 K 
[TXT]Chapter Review 5 Pg 1842010-07-12T21:02:00+00:00 23 K 
[TXT]Chapter 11 Fraud Auditing Oregon State University2010-07-13T08:35:00+00:00 22 K 
[TXT]Chapter 5 Seed Plants2010-07-13T20:08:00+00:00 21 K 
[TXT]Chapter 6 Concept Review Metuchen School District2010-07-14T07:41:00+00:00 19 K 
[TXT]Chapter 30 Reteaching Activity A Nation Divided2010-07-14T19:14:00+00:00 21 K 
[TXT]Check Figures Intermediate Accounting Chapter 72010-07-15T06:47:00+00:00 23 K 
[TXT]Chapter 1 Introduction To Forensic Science2010-07-15T18:20:00+00:00 18 K 
[TXT]Chapter 1 Administration2010-07-16T05:53:00+00:00 19 K 
[TXT]Chapter 17 Orgnizational Behavior2010-07-16T17:26:00+00:00 23 K 
[TXT]Chapter 8 Flexible Budgets Standard Costs And2010-07-17T04:59:00+00:00 24 K 
[TXT]Chapter 17 Magnetism And Electromagne2010-07-17T16:32:00+00:00 25 K 
[TXT]Chapter 16 20 Resources Ebooksmagz Com2010-07-18T04:05:00+00:00 21 K 
[TXT]Chapter 9 Answer Algebra Common Core2010-07-18T15:38:00+00:00 17 K 
[TXT]Chapter 14 Acids And Bases2010-07-19T03:11:00+00:00 24 K 
[TXT]Chapter 12 Adjective Clauses2010-07-19T14:44:00+00:00 22 K 
[TXT]Chapter Reinforcement For Word 20102010-07-20T02:17:00+00:00 20 K 
[TXT]Chapter 20 Review Questions2010-07-20T13:50:00+00:00 20 K 
[TXT]Chapter 10 Nuclear Reactions2010-07-21T01:23:00+00:00 21 K 
[TXT]Chapter 3 Review Section 12010-07-21T12:56:00+00:00 20 K 
[TXT]Chapter 1 Textbook Test Banks Solution Manual2010-07-22T00:29:00+00:00 17 K 
[TXT]Chapter 4 Transient Conduction2010-07-22T12:02:00+00:00 21 K 
[TXT]Chapter 3 System Analysis And Design Rutgers2010-07-22T23:35:00+00:00 22 K 
[TXT]Chapter 6 Discovering And Proving Circle Properties2010-07-23T11:08:00+00:00 25 K 
[TXT]Chapter 3 Business Ethics And Social Responsibility2010-07-23T22:41:00+00:00 23 K 
[TXT]Chapter 3 Analysis Of Translation Strategies2010-07-24T10:14:00+00:00 23 K 
[TXT]Chapter 8 Test Form 2C2010-07-24T21:47:00+00:00 23 K 
[TXT]Chapter 16 Air Water And Soil2010-07-25T09:20:00+00:00 18 K 
[TXT]Century 21 South Western Accounting Chapter Tests2010-07-25T20:53:00+00:00 19 K 
[TXT]Chapter 27 Section 42010-07-26T08:26:00+00:00 21 K 
[TXT]Chapter 13 Multiple Choice Questions2010-07-26T19:59:00+00:00 23 K 
[TXT]Chapter2 Section 2 Reinforcement Wave Properties Answers2010-07-27T07:32:00+00:00 21 K 
[TXT]Chapter 15 Investments And Fair Value Accounting2010-07-27T19:05:00+00:00 18 K 
[TXT]Chapter Assessment Examen Del Capitulo 3A2010-07-28T06:38:00+00:00 19 K 
[TXT]Chapter Assessment Marric2010-07-28T18:11:00+00:00 25 K 
[TXT]Chapter 6 Master Budget And Responsibility2010-07-29T05:44:00+00:00 21 K 
[TXT]Chapter 8 Biology Answer Key2010-07-29T17:17:00+00:00 23 K 
[TXT]Chapter 14 Falling Film Evaporation Thermal Engineering2010-07-30T04:50:00+00:00 23 K 
[TXT]Chapter 29 The Great War2010-07-30T16:23:00+00:00 22 K 
[TXT]Current Elecyricity Chapter 12Th2010-07-31T03:56:00+00:00 17 K 
[TXT]Corporate Finance Hillier Chapter Answers2010-07-31T15:29:00+00:00 21 K 
[TXT]Chapter 31 Diffraction And Interference Summary2010-08-01T03:02:00+00:00 20 K 
[TXT]Chapter 1 Test Medical Terminology Pearson2010-08-01T14:35:00+00:00 25 K 
[TXT]Chemistry Mcqs For Class 11 Chapter Wise2010-08-02T02:08:00+00:00 25 K 
[TXT]Chapter 5 Virtical Horizantal2010-08-02T13:41:00+00:00 20 K 
[TXT]Chapter 2 Multiple Choice Questions Mcgraw Hill2010-08-03T01:14:00+00:00 23 K 
[TXT]Chapter 1 Basic Knowledge Of Software System2010-08-03T12:47:00+00:00 22 K 
[TXT]Chapter 6 Sections 1 22010-08-04T00:20:00+00:00 24 K 
[TXT]Chapter 13 Gases An Introduction To Chemistry2010-08-04T11:53:00+00:00 17 K 
[TXT]Chapter 10 Capital Budgeting Cash Flow Principles2010-08-04T23:26:00+00:00 17 K 
[TXT]Circulation Chapter Test Pearson Pg 2202010-08-05T10:59:00+00:00 18 K 
[TXT]Chapter 6 Instructor S Manual2010-08-05T22:32:00+00:00 18 K 
[TXT]Chapter 1 Answers To Questions And Problems2010-08-06T10:05:00+00:00 22 K 
[TXT]Critical Thinking Questions Great Gatsby By Chapters2010-08-06T21:38:00+00:00 24 K 
[TXT]Chapter 10 Conic Sections2010-08-07T09:11:00+00:00 18 K 
[TXT]Chapter 10 Ws 35 38 Handzelgeometry2010-08-07T20:44:00+00:00 19 K 
[TXT]Chapter 5 Test2010-08-08T08:17:00+00:00 22 K 
[TXT]Chapter 4 Pulse Code Modulation2010-08-08T19:50:00+00:00 25 K 
[TXT]Colander Macroeconomics Chapters2010-08-09T07:23:00+00:00 21 K 
[TXT]Chapter 16 Capital Structure Decisions The Basics2010-08-09T18:56:00+00:00 24 K 
[TXT]Chapter 12 Assembly Drawings Universiti Teknologi Malaysia2010-08-10T06:29:00+00:00 21 K 
[TXT]Chapter 1 Drug Definitions Standards And Information2010-08-10T18:02:00+00:00 18 K 
[TXT]Conceptual Physics Chapter 37 38 39 Answers2010-08-11T05:35:00+00:00 19 K 
[TXT]Chapter 3 Enabling Technologies2010-08-11T17:08:00+00:00 22 K 
[TXT]Chapter 1 Omkarmin Com2010-08-12T04:41:00+00:00 20 K 
[TXT]Chapter Vocabulary For The Outsiders With Answers2010-08-12T16:14:00+00:00 19 K 
[TXT]Chapter 16 Digestion And Absorption2010-08-13T03:47:00+00:00 17 K 
[TXT]Chapter 20 Review Electrochemistry2010-08-13T15:20:00+00:00 18 K 
[TXT]Chapter 4 Wiley Solutions Exercises2010-08-14T02:53:00+00:00 25 K 
[TXT]Chapter C9 Partnership Formation And Operation Problems2010-08-14T14:26:00+00:00 23 K 
[TXT]Chapter 13 14 Economics Test2010-08-15T01:59:00+00:00 18 K 
[TXT]Chapter 28 Shared Cultural Traditions2010-08-15T13:32:00+00:00 21 K 
[TXT]Chapter 12 Answers Continued Jones College Prep2010-08-16T01:05:00+00:00 18 K 
[TXT]Complex Analysis Chapter I Ucla2010-08-16T12:38:00+00:00 17 K 
[TXT]Chapter 10 Algebra 2 Page 5562010-08-17T00:11:00+00:00 21 K 
[TXT]Chapter 21 Railroads Nevada Department Of Transportation2010-08-17T11:44:00+00:00 22 K 
[TXT]Chapter 12 Gaseous Chemical Equilibrium2010-08-17T23:17:00+00:00 24 K 
[TXT]Chemistry Matter And Change Chapter 202010-08-18T10:50:00+00:00 17 K 
[TXT]Chapter 2 Accepting Personal Responsibility2010-08-18T22:23:00+00:00 20 K 
[TXT]Chapter 37 Answer Key2010-08-19T09:56:00+00:00 25 K 
[TXT]Cumulative Review Chapters 1 8 Answers Algebra2010-08-19T21:29:00+00:00 18 K 
[TXT]Chapter 1 Measurements Home Phycity Com2010-08-20T09:02:00+00:00 22 K 
[TXT]Chapter 10 Test Form B2010-08-20T20:35:00+00:00 17 K 
[TXT]Chapter 2 Aircraft Structure Faa2010-08-21T08:08:00+00:00 23 K 
[TXT]Chapter 9 Form B2010-08-21T19:41:00+00:00 21 K 
[TXT]Chapter 18 Sec 2 Viruses And Prions2010-08-22T07:14:00+00:00 18 K 
[TXT]Chemical Names And Formulas Chapter Quiz2010-08-22T18:47:00+00:00 17 K 
[TXT]Chapter Design Engineering2010-08-23T06:20:00+00:00 17 K 
[TXT]Chemistry Test Functional Groups Chapter 232010-08-23T17:53:00+00:00 18 K 
[TXT]Chapter 14 Digestion Respiration And Excretion2010-08-24T05:26:00+00:00 21 K 
[TXT]Chapter Assessment Chemical Reactions Answers2010-08-24T16:59:00+00:00 24 K 
[TXT]Chapter Iii Secep2010-08-25T04:32:00+00:00 22 K 
[TXT]Chapter 3 Problem 92010-08-25T16:05:00+00:00 23 K 
[TXT]Chapter 25 Reforming The Industrial World2010-08-26T03:38:00+00:00 18 K 
[TXT]Chapter 40 Review Modern Biology2010-08-26T15:11:00+00:00 19 K 
[TXT]Chapter 12 Test Form 2B2010-08-27T02:44:00+00:00 17 K 
[TXT]Chapter 15 Wordwise Physical Science2010-08-27T14:17:00+00:00 20 K 
[TXT]Chapter Review Answer Key Nuclear Chemistry2010-08-28T01:50:00+00:00 20 K 
[TXT]Chapter 62 762 Aboveground Storage Tank Systems2010-08-28T13:23:00+00:00 18 K 
[TXT]Chapter 7 Tones Chinese With Mike2010-08-29T00:56:00+00:00 20 K 
[TXT]Chapter3 Exercise Solution2010-08-29T12:29:00+00:00 17 K 
[TXT]Chapter 5 Solved Problems Mcmaster University2010-08-30T00:02:00+00:00 19 K 
[TXT]Cbse Computer Science Chapter Wise Questions Answers2010-08-30T11:35:00+00:00 24 K 
[TXT]Chapter 4 Systems Design Process Costing Answer2010-08-30T23:08:00+00:00 18 K 
[TXT]Chemistry Numericals 1 Chapter For Class 92010-08-31T10:41:00+00:00 20 K 
[TXT]Chapter 17 Multiple Choice Questions2010-08-31T22:14:00+00:00 19 K 
[TXT]Chapter 23 Review Solutions2010-09-01T09:47:00+00:00 23 K 
[TXT]Chapter Eleven Properties Of Solutions Cengage2010-09-01T21:20:00+00:00 18 K 
[TXT]Chapter18 Earth Science Volcanoes Answer Key2010-09-02T08:53:00+00:00 20 K 
[TXT]Chapter 3 The Accounting Information System Wiley2010-09-02T20:26:00+00:00 18 K 
[TXT]Class Xi English Hornbill Chapters Summary2010-09-03T07:59:00+00:00 17 K 
[TXT]Chapter 2 Review Measurements And Calculations2010-09-03T19:32:00+00:00 21 K 
[TXT]Cbse 11 Ecnomic Chapter 12010-09-04T07:05:00+00:00 23 K 
[TXT]Cellular Respiration Chapter 7 Review Answer Key2010-09-04T18:38:00+00:00 18 K 
[TXT]Cumulative Review Chapters 1 12 Answers Algebra2010-09-05T06:11:00+00:00 19 K 
[TXT]Chapter 7 Solution Teacherweb2010-09-05T17:44:00+00:00 19 K 
[TXT]Chapter 11 Theft 1 Introduction Unisa2010-09-06T05:17:00+00:00 20 K 
[TXT]Chapter 11 Download2010-09-06T16:50:00+00:00 19 K 
[TXT]Chapter7 Geometry Test Answer Key Page 3932010-09-07T04:23:00+00:00 19 K 
[TXT]Chapter 1 Introduction To International Tax2010-09-07T15:56:00+00:00 21 K 
[TXT]Chapter 15 Answer2010-09-08T03:29:00+00:00 24 K 
[TXT]Chapter Test The Progressive Era Answer2010-09-08T15:02:00+00:00 18 K 
[TXT]Chapter 19 Respiration And Excretion2010-09-09T02:35:00+00:00 17 K 
[TXT]Chapter Test 4A Practice Of Statistics Answers2010-09-09T14:08:00+00:00 21 K 
[TXT]Chapter 7 Answers Continued2010-09-10T01:41:00+00:00 19 K 
[TXT]Chapter V Logos Forums2010-09-10T13:14:00+00:00 19 K 
[TXT]Chapter 7 Long Term Debt Paying Ability2010-09-11T00:47:00+00:00 22 K 
[TXT]Confirming Pages Chapter 1 Managing Human Resources2010-09-11T12:20:00+00:00 23 K 
[TXT]Chapter 20 Nutrition And Metabolism Multiple Choice2010-09-11T23:53:00+00:00 22 K 
[TXT]Chapter 11 Hyperspectral Image Analysis Jensen2010-09-12T11:26:00+00:00 23 K 
[TXT]Chapter 29 Section 1 Quiz2010-09-12T22:59:00+00:00 18 K 
[TXT]Chapter 07 Financial Statements Mccc2010-09-13T10:32:00+00:00 22 K 
[TXT]Chapter 19 Section 1 The Unalienable Rights2010-09-13T22:05:00+00:00 17 K 
[TXT]Chapter 5 Weathering Soil And Mass Movement2010-09-14T09:38:00+00:00 25 K 
[TXT]Chapter 3 Analysis Of Financial Statements2010-09-14T21:11:00+00:00 24 K 
[TXT]Chapter 13 Building A Homebrew Hf Receiver2010-09-15T08:44:00+00:00 21 K 
[TXT]Chapter Worms And Ebookszip Com2010-09-15T20:17:00+00:00 19 K 
[TXT]Chapter 22 The Vietnam War Years Classzone2010-09-16T07:50:00+00:00 21 K 
[TXT]Chapter 8 Test Pg 52 And 532010-09-16T19:23:00+00:00 22 K 
[TXT]Chapter 17Population Vocabulary Review Holt Biology Answers2010-09-17T06:56:00+00:00 23 K 
[TXT]Chapter17 Holt Physics Practice Test2010-09-17T18:29:00+00:00 23 K 
[TXT]Chapter 2 Balance Sheet Mcgraw Hill2010-09-18T06:02:00+00:00 23 K 
[TXT]Chapter 4 8085 Microprocessor Architecture And Memory2010-09-18T17:35:00+00:00 18 K 
[TXT]Chapter Assessment Physics Answers2010-09-19T05:08:00+00:00 20 K 
[TXT]Chapter Test 72010-09-19T16:41:00+00:00 24 K 
[TXT]Chapter Test Form C Holt Algebra 12010-09-20T04:14:00+00:00 21 K 
[TXT]California Science Chapter 9 Magnetism Mcgraw Hill2010-09-20T15:47:00+00:00 22 K 
[TXT]Crosswords For The Outsiders Chapters 42010-09-21T03:20:00+00:00 18 K 
[TXT]Cme Project Algebra Chapter 7 B2010-09-21T14:53:00+00:00 23 K 
[TXT]Chapter One Kfupm2010-09-22T02:26:00+00:00 25 K 
[TXT]Conceptual Integrated Science Chapter 372010-09-22T13:59:00+00:00 22 K 
[TXT]Chapter Standardized Test Answers Geometry2010-09-23T01:32:00+00:00 22 K 
[TXT]Chapter Review Part B Concept Answers2010-09-23T13:05:00+00:00 17 K 
[TXT]Conceptual Physics Study Workbook Answer Key Chapter282010-09-24T00:38:00+00:00 23 K 
[TXT]Commensalism Chapter One2010-09-24T12:11:00+00:00 17 K 
[TXT]Chapter 12 Distributed Web Based Systems2010-09-24T23:44:00+00:00 20 K 
[TXT]Conceptual Physics Chapter 1 Work Answers2010-09-25T11:17:00+00:00 25 K 
[TXT]Chapter 1 Microsoft Office Basics2010-09-25T22:50:00+00:00 23 K 
[TXT]Chapter 22 Enlightenment And Revolution Test2010-09-26T10:23:00+00:00 17 K 
[TXT]Chapter 21 The Urinary System Multiple Choice2010-09-26T21:56:00+00:00 21 K 
[TXT]Chapter 8A Ap Stats Test Answers2010-09-27T09:29:00+00:00 20 K 
[TXT]Chapter 34 2 Animal Behavior Answer Key2010-09-27T21:02:00+00:00 18 K 
[TXT]Chapter One Makerere University2010-09-28T08:35:00+00:00 18 K 
[TXT]Chapter 1 Test Review Renaissance And Reformation2010-09-28T20:08:00+00:00 21 K 
[TXT]Carey Giuliano Chapter162010-09-29T07:41:00+00:00 18 K 
[TXT]Chapter 4 Design Of The Proposed System2010-09-29T19:14:00+00:00 25 K 
[TXT]Chapter 14 Climate2010-09-30T06:47:00+00:00 25 K 
[TXT]Chapter 14 Partnerships Formation And Operation2010-09-30T18:20:00+00:00 21 K 
[TXT]Chapter Summary Jasper Jones2010-10-01T05:53:00+00:00 21 K 
[TXT]Chapter 38 Angiosperm Reproduction And Biotechnology Answers2010-10-01T17:26:00+00:00 22 K 
[TXT]Chemistrymc Com Chapter Assessment Answers 122010-10-02T04:59:00+00:00 19 K 
[TXT]Chapter 15 The Executive Departments2010-10-02T16:32:00+00:00 18 K 
[TXT]Chapter 23 Essential Review Advanced Nail Techniques2010-10-03T04:05:00+00:00 19 K 
[TXT]Chapter 19 Section 2 Bacteria And Viruses2010-10-03T15:38:00+00:00 21 K 
[TXT]Chapter4 Geometry Test 2 Answer Key2010-10-04T03:11:00+00:00 22 K 
[TXT]Chapter 11 Answers2010-10-04T14:44:00+00:00 18 K 
[TXT]Chapter18 Answers In Holt Handbook2010-10-05T02:17:00+00:00 25 K 
[TXT]Chapter 3 International Business Ethics Ashgate2010-10-05T13:50:00+00:00 19 K 
[TXT]Chapter 12 Dna Answer Key2010-10-06T01:23:00+00:00 20 K 
[TXT]Chapter 12 Marriage And Family2010-10-06T12:56:00+00:00 23 K 
[TXT]Chapter 5 Building Data Model Entity Relationships2010-10-07T00:29:00+00:00 18 K 
[TXT]Chapter 8 Transmission 4X42010-10-07T12:02:00+00:00 17 K 
[TXT]Chapter Test Renewable Energy Answer2010-10-07T23:35:00+00:00 19 K 
[TXT]Chapter Review Physical Science2010-10-08T11:08:00+00:00 19 K 
[TXT]Chapter 9 Quiz Algebra 2Answers Prentice Hall2010-10-08T22:41:00+00:00 23 K 
[TXT]Chapter 3 Rolling Of Metals2010-10-09T10:14:00+00:00 20 K 
[TXT]Chapter 14 The Human Genome Practice Test2010-10-09T21:47:00+00:00 22 K 
[TXT]Chapter 18 Assessment Home Chiles Intranet2010-10-10T09:20:00+00:00 22 K 
[TXT]Cambridge End Of Chapter Test 52010-10-10T20:53:00+00:00 17 K 
[TXT]Chapter 7 Cash And Receivables2010-10-11T08:26:00+00:00 23 K 
[TXT]Chapter 1 Introduction To Managerial Economics2010-10-11T19:59:00+00:00 18 K 
[TXT]Chapter 13 Download Skills Worksheet Directed Reading2010-10-12T07:32:00+00:00 21 K 
[TXT]Chapter 4 Tissues Exam Answers2010-10-12T19:05:00+00:00 25 K 
[TXT]Chapter Comprehension Questions The Giver2010-10-13T06:38:00+00:00 20 K 
[TXT]Cbse Class 11 English Hornbill Chapters Name2010-10-13T18:11:00+00:00 25 K 
[TXT]Chapter Marks Weightage Hsc2010-10-14T05:44:00+00:00 18 K 
[TXT]Class 9 Gravitation Chapter2010-10-14T17:17:00+00:00 20 K 
[TXT]Core Teaching Resources Chemistry Answers Chapter 142010-10-15T04:50:00+00:00 25 K 
[TXT]Chapter 7 The Mole And Chemical Composition2010-10-15T16:23:00+00:00 23 K 
[TXT]Chapter 8 Subject2010-10-16T03:56:00+00:00 24 K 
[TXT]Chapter 5 Care Plan2010-10-16T15:29:00+00:00 21 K 
[TXT]Chapter 9 Answers2010-10-17T03:02:00+00:00 25 K 
[TXT]Chapter 1 Design Process Are Forum2010-10-17T14:35:00+00:00 17 K 
[TXT]Chapter Number 8Th2010-10-18T02:08:00+00:00 24 K 
[TXT]Chapter 51 Animal Behavior2010-10-18T13:41:00+00:00 20 K 
[TXT]Ccna Discovery 2 Chapter7 Questions And Answers2010-10-19T01:14:00+00:00 23 K 
[TXT]Chapter One Baby Steps Point Park University2010-10-19T12:47:00+00:00 17 K 
[TXT]Chapter 1 Lesson2010-10-20T00:20:00+00:00 19 K 
[TXT]Chapter 29 Lab Activity Rock Correlation Answers2010-10-20T11:53:00+00:00 25 K 
[TXT]Chapter 8 Laboratory Testing Geotechnique Info2010-10-20T23:26:00+00:00 20 K 
[TXT]Chapter 3 Voltage Control2010-10-21T10:59:00+00:00 25 K 
[TXT]Chapter 44 Osmoregulation And Excretion Biology Junction2010-10-21T22:32:00+00:00 18 K 
[TXT]Chapter One Dialogue Mice And Men2010-10-22T10:05:00+00:00 20 K 
[TXT]Chapter 12 Ebook2010-10-22T21:38:00+00:00 19 K 
[TXT]Chapter 16 Self Quiz Pageout2010-10-23T09:11:00+00:00 21 K 
[TXT]Chapter 10 Project Management With Pert Cpm2010-10-23T20:44:00+00:00 17 K 
[TXT]Chapter Wise Weightage 12 Physics2010-10-24T08:17:00+00:00 22 K 
[TXT]Chapter 5 International Trade2010-10-24T19:50:00+00:00 17 K 
[TXT]Chapter 1 Fundamental Concepts Of Thermodynamics2010-10-25T07:23:00+00:00 23 K 
[TXT]Chapter 12 Sample Test Answers Gielmuller Com2010-10-25T18:56:00+00:00 23 K 
[TXT]Chapter 9 Form A Test Answer Key2010-10-26T06:29:00+00:00 24 K 
[TXT]Chapter Questions For Matilda2010-10-26T18:02:00+00:00 25 K 
[TXT]Chapters 11 15 Resources Glencoe2010-10-27T05:35:00+00:00 18 K 
[TXT]Chemistry Class 11 Chapter One2010-10-27T17:08:00+00:00 23 K 
[TXT]Chapter 1 Characteristics Of The Atmosphere2010-10-28T04:41:00+00:00 19 K 
[TXT]Century 21 Accounting Chapter Test Answers2010-10-28T16:14:00+00:00 18 K 
[TXT]Chapter 5 Conventional Control Surveys Mt Gov2010-10-29T03:47:00+00:00 25 K 
[TXT]Chapter 1 Concepts And Methods In Biology2010-10-29T15:20:00+00:00 22 K 
[TXT]Chapter 1 Introduction To Accounting Additional Exercises2010-10-30T02:53:00+00:00 17 K 
[TXT]Chapter One Interpersonal Divide2010-10-30T14:26:00+00:00 22 K 
[TXT]Chapter Test The New Deal Answer Key2010-10-31T01:59:00+00:00 21 K 
[TXT]Chapter 12 Test Form 1A Tor Benestad2010-10-31T13:32:00+00:00 22 K 
[TXT]Chapter Dog Named Duke Story2010-11-01T01:05:00+00:00 21 K 
[TXT]Chapter 31 Reptiles And Birds Answers2010-11-01T12:38:00+00:00 21 K 
[TXT]Chapter 07 Measurement Joneslabs2010-11-02T00:11:00+00:00 21 K 
[TXT]Current Issues And Enduring Questions Chapter Summary2010-11-02T11:44:00+00:00 25 K 
[TXT]Cold War Conflicts Chapter 26 Answer2010-11-02T23:17:00+00:00 18 K 
[TXT]Chemistry Notes Chapter 8 Chemical Reactions2010-11-03T10:50:00+00:00 21 K 
[TXT]Chapter 6 Quadrilaterals Practice Test2010-11-03T22:23:00+00:00 19 K 
[TXT]Chapter 14Work Power Machines Word Wise2010-11-04T09:56:00+00:00 18 K 
[TXT]Chapter Assessment Journey Across Time2010-11-04T21:29:00+00:00 24 K 
[TXT]Chapter 3 Banking Services Approximately 15 Days2010-11-05T09:02:00+00:00 19 K 
[TXT]Chapter 1 The Issue Social Work Board2010-11-05T20:35:00+00:00 20 K 
[TXT]Chapter4 Page 219 Geometry Answer Keycongruent Triangles2010-11-06T08:08:00+00:00 18 K 
[TXT]Chapter 38 Food And Nutrition Answers2010-11-06T19:41:00+00:00 21 K 
[TXT]Chapter 19 Assessment Home Chiles Intranet2010-11-07T07:14:00+00:00 24 K 
[TXT]Chapter 9 Fair Game Review2010-11-07T18:47:00+00:00 19 K 
[TXT]Chapter 30 Biology2010-11-08T06:20:00+00:00 18 K 
[TXT]Chapter 39 Endocrine And Reproductive Systems2010-11-08T17:53:00+00:00 24 K 
[TXT]Choice Under Uncertainty Chapter 62010-11-09T05:26:00+00:00 25 K 
[TXT]Chapter 37 Assisting In Ophthalmology And Otolaryngology2010-11-09T16:59:00+00:00 24 K 
[TXT]Chapter 9 Customary Measurement2010-11-10T04:32:00+00:00 23 K 
[TXT]Chapter 11 Solution Key2010-11-10T16:05:00+00:00 25 K 
[TXT]Chapter Free Response Test A2010-11-11T03:38:00+00:00 17 K 
[TXT]Chapter 16 Video Jones Bartlett Learning2010-11-11T15:11:00+00:00 21 K 
[TXT]Chapter 12 Stoichiometry2010-11-12T02:44:00+00:00 18 K 
[TXT]Chapter 21 Test Form A Answers2010-11-12T14:17:00+00:00 18 K 
[TXT]Chapter 1 Fundamental Concepts2010-11-13T01:50:00+00:00 20 K 
[TXT]Chapter 6 Test A Pre Algebra2010-11-13T13:23:00+00:00 24 K 
[TXT]Chapter 7 The Nervous System2010-11-14T00:56:00+00:00 19 K 
[TXT]Chapter 3 Design Loads For Residential Buildings2010-11-14T12:29:00+00:00 25 K 
[TXT]Chapter 3 Mensuration Descriptive Geometry And Optics2010-11-15T00:02:00+00:00 19 K 
[TXT]Cuarto Misterioso Worksheet Chapter 132010-11-15T11:35:00+00:00 24 K 
[TXT]Chapter 5 Modal Auxiliaries Elearning System Home2010-11-15T23:08:00+00:00 21 K 
[TXT]Chapter 5 Population2010-11-16T10:41:00+00:00 24 K 
[TXT]Chemical Names And Formulas Chapter Quiz Answers2010-11-16T22:14:00+00:00 19 K 
[TXT]Chapter 11 Review Answers Holt Geometry2010-11-17T09:47:00+00:00 21 K 
[TXT]Chapter Wise Question For Iit Jee Advanced2010-11-17T21:20:00+00:00 17 K 
[TXT]Chapter 15 Chemical Kinetics2010-11-18T08:53:00+00:00 23 K 
[TXT]Chapter 11 Fraunhofer Diffraction Erbion2010-11-18T20:26:00+00:00 23 K 
[TXT]Chapter 18 The Shoulder Complex2010-11-19T07:59:00+00:00 18 K 
[TXT]Chapter 9 Design Constraints And Optimization2010-11-19T19:32:00+00:00 21 K 
[TXT]Chapter 4 Floor Construction2010-11-20T07:05:00+00:00 25 K 
[TXT]Chapter 12 1 Tangent2010-11-20T18:38:00+00:00 22 K 
[TXT]Chapter 6 Phrases Clauses And Sentences2010-11-21T06:11:00+00:00 23 K 
[TXT]Chapter 12 Critical Path Analysis2010-11-21T17:44:00+00:00 20 K 
[TXT]Chapter 13 Assessment Answer Key2010-11-22T05:17:00+00:00 20 K 
[TXT]Chapter 30 Colour Coded Quran Tajweed2010-11-22T16:50:00+00:00 17 K 
[TXT]Chapter 45 Holt Biology Answer Key2010-11-23T04:23:00+00:00 22 K 
[TXT]Chapter 10 The House Of Representatives Learningshark2010-11-23T15:56:00+00:00 18 K 
[TXT]Chapter 13 Genetic Engineering Te2010-11-24T03:29:00+00:00 25 K 
[TXT]Chapter 8 Finished Water Storage2010-11-24T15:02:00+00:00 20 K 
[TXT]Chapter 8 Performance Planes2010-11-25T02:35:00+00:00 25 K 
[TXT]Chapter 9 Answer Key2010-11-25T14:08:00+00:00 24 K 
[TXT]Chapter 12 Molecular Genetics2010-11-26T01:41:00+00:00 20 K 
[TXT]Chapter Video Cases John Wiley Sons2010-11-26T13:14:00+00:00 20 K 
[TXT]Chapter 8 System Design University Of Oklahoma2010-11-27T00:47:00+00:00 17 K 
[TXT]Chapter 12Financial Accounting Solutions Manual Kimmel 7E2010-11-27T12:20:00+00:00 22 K 
[TXT]Conceptual Physics Chapter 12010-11-27T23:53:00+00:00 23 K 
[TXT]Chapter18 Test A Introduction To Ecology Answers2010-11-28T11:26:00+00:00 24 K 
[TXT]Chapter 7 Flywheel Camshaft E Learning Vtu2010-11-28T22:59:00+00:00 24 K 
[TXT]Chapter 26 The Reproductive System Eac Faculty2010-11-29T10:32:00+00:00 23 K 
[TXT]Chapter 42010-11-29T22:05:00+00:00 18 K 
[TXT]Chapter V Medical Examination Indian Railways2010-11-30T09:38:00+00:00 23 K 
[TXT]Chapter Two First Accident Dailydiapers Com2010-11-30T21:11:00+00:00 19 K 
[TXT]Chapter Abhiley Answers2010-12-01T08:44:00+00:00 25 K 
[TXT]Chapter 30 Assessment Home Chiles Intranet2010-12-01T20:17:00+00:00 25 K 
[TXT]Chapter 9 Biotechnology2010-12-02T07:50:00+00:00 23 K 
[TXT]Chapter8 Geometry Test Answer Key Form G2010-12-02T19:23:00+00:00 17 K 
[TXT]Cisco Netacad Chapter Answers V52010-12-03T06:56:00+00:00 23 K 
[TXT]Chapter 2 Knowledge Based Decision Support Systems2010-12-03T18:29:00+00:00 20 K 
[TXT]Chapter 1 Introduction To Chemistry Concise Chem2010-12-04T06:02:00+00:00 19 K 
[TXT]Chapter 7 Practice Problems2010-12-04T17:35:00+00:00 19 K 
[TXT]Chapter 21 Fungi Vocabulary Review2010-12-05T05:08:00+00:00 20 K 
[TXT]Chapter 13 Relevant Costs For Decision Making2010-12-05T16:41:00+00:00 24 K 
[TXT]Chapter 6 Solutions Missouri State University2010-12-06T04:14:00+00:00 25 K 
[TXT]Cumulative Test Holt Geometry Answers Chapter 62010-12-06T15:47:00+00:00 24 K 
[TXT]Chapter 15 Interactions Of Living Things2010-12-07T03:20:00+00:00 18 K 
[TXT]Chapter 01 122010-12-07T14:53:00+00:00 17 K 
[TXT]Chapter 15 The Theory Of Evolution Glencoe2010-12-08T02:26:00+00:00 20 K 
[TXT]Chapter 12 Dna And Rna Te Teacherweb2010-12-08T13:59:00+00:00 20 K 
[TXT]Chapter 10 Moderation Mediation And More Regression2010-12-09T01:32:00+00:00 25 K 
[TXT]Chapter 11Geometry Mcdougal2010-12-09T13:05:00+00:00 24 K 
[TXT]Chapter Blaise Pascal Magazine Lazarus2010-12-10T00:38:00+00:00 19 K 
[TXT]Chapter Practice Tests Pearson Anatomy And Physiology2010-12-10T12:11:00+00:00 24 K 
[TXT]Chapter 2 Creating A Process Flowchart2010-12-10T23:44:00+00:00 19 K 
[TXT]Conceptual Physics Paul Hewitt Chapter 5 Answers2010-12-11T11:17:00+00:00 22 K 
[TXT]Chapter 1 Definition Scope And Importance2010-12-11T22:50:00+00:00 25 K 
[TXT]Chapter 34 Answer Key World Geography2010-12-12T10:23:00+00:00 24 K 
[TXT]Conceptual Physics Study Workbook Chapter 132010-12-12T21:56:00+00:00 20 K 
[TXT]Chapter 6 Load Calculations New Web Site2010-12-13T09:29:00+00:00 24 K 
[TXT]Chapter 8 Test Form 2A2010-12-13T21:02:00+00:00 23 K 
[TXT]Chapter 23 Waves Cpo2010-12-14T08:35:00+00:00 17 K 
[TXT]Chapter 6 Chemical Bonds2010-12-14T20:08:00+00:00 25 K 
[TXT]Cold War Chapter Test Answer Key2010-12-15T07:41:00+00:00 20 K 
[TXT]Chapter 9 Cumulative Test Holt Algebra 22010-12-15T19:14:00+00:00 19 K 
[TXT]Chapter 2 Predicting Soil Structure Interaction Effects2010-12-16T06:47:00+00:00 25 K 
[TXT]Class12 Chapterwise Chemistry Notes2010-12-16T18:20:00+00:00 20 K 
[TXT]Chapter 6B Frappy 20022010-12-17T05:53:00+00:00 17 K 
[TXT]Conservation Of Momentum Chapter 32010-12-17T17:26:00+00:00 25 K 
[TXT]Corporate Finance Quiz Berk Demarzo Solutions Chapter22010-12-18T04:59:00+00:00 17 K 
[TXT]Chapter 1 Workbook Answer Key2010-12-18T16:32:00+00:00 21 K 
[TXT]Chapter3 Cash Flow Analysis2010-12-19T04:05:00+00:00 18 K 
[TXT]Class 12 English Summary Flamingo All Chapters2010-12-19T15:38:00+00:00 19 K 
[TXT]Chapter 6 Concept Review2010-12-20T03:11:00+00:00 24 K 
[TXT]Chapter 2 Project Time Squeeze2010-12-20T14:44:00+00:00 25 K 
[TXT]Cumulative Review Chapters 1 5 Answers Algebra2010-12-21T02:17:00+00:00 19 K 
[TXT]Chapter 01 Overview Of Financial Statement Analysis2010-12-21T13:50:00+00:00 23 K 
[TXT]Cumulative Review Chapters 11 Geometry2010-12-22T01:23:00+00:00 17 K 
[TXT]Chapter 39 Endocrine And Reproductive Systems Test2010-12-22T12:56:00+00:00 19 K 
[TXT]Chapter 7 Nicolas Bourbaki Theory Of Structures2010-12-23T00:29:00+00:00 18 K 
[TXT]Chapter 12 3312010-12-23T12:02:00+00:00 20 K 
[TXT]Chapter7 Review Answers Dave Ramsey2010-12-23T23:35:00+00:00 19 K 
[TXT]Century 21 Southwestern Accounting Chapter 152010-12-24T11:08:00+00:00 25 K 
[TXT]Chapter 11 Answers Catawba County Schools2010-12-24T22:41:00+00:00 22 K 
[TXT]Chapter 2 Forms Of Business Organisation2010-12-25T10:14:00+00:00 18 K 
[TXT]Chapter 31 Diffraction And Interference Exercises Answers2010-12-25T21:47:00+00:00 19 K 
[TXT]Chapter 9 Image Enhancement Processing Spie2010-12-26T09:20:00+00:00 19 K 
[TXT]Chapter 1 Vector Analysis2010-12-26T20:53:00+00:00 18 K 
[TXT]Chemistry Addison Wesley Notes Chapter 162010-12-27T08:26:00+00:00 18 K 
[TXT]Chapter 25 Biology Vertebrate Diversity Diagnostic Test2010-12-27T19:59:00+00:00 22 K 
[TXT]Chemical Quantities Chapter Quiz Answer Key2010-12-28T07:32:00+00:00 25 K 
[TXT]Chapter 13 Work Book2010-12-28T19:05:00+00:00 24 K 
[TXT]Chapter 14 Continued Answer Key2010-12-29T06:38:00+00:00 23 K 
[TXT]Chapter 17 Concept Review2010-12-29T18:11:00+00:00 24 K 
[TXT]Chapter Assessment Reaction Rates Answers2010-12-30T05:44:00+00:00 19 K 
[TXT]Chapter 23 Notes Angelfire2010-12-30T17:17:00+00:00 25 K 
[TXT]Chapter 19 Section 2 Assessment Answers2010-12-31T04:50:00+00:00 24 K 
[TXT]Chapter 9 Agitation And Mixing Michigan Technological2010-12-31T16:23:00+00:00 22 K 
[TXT]Chapter 32 One Foot In The Grave2011-01-01T03:56:00+00:00 17 K 
[TXT]Chapter 16 Answersheet2011-01-01T15:29:00+00:00 23 K 
[TXT]Chapter 13 Advanced Powerpoint Features Review Answers2011-01-02T03:02:00+00:00 22 K 
[TXT]Chapter 9 Test2011-01-02T14:35:00+00:00 21 K 
[TXT]Chapter Forecasting Demand Multiple Choice Questions2011-01-03T02:08:00+00:00 24 K 
[TXT]Chapter 2 Review And Test Preparation Ecosystem2011-01-03T13:41:00+00:00 25 K 
[TXT]Chapter11 Review Gases Answer Key2011-01-04T01:14:00+00:00 20 K 
[TXT]Chapter 22 Oxidation Reduction Reactions Answers2011-01-04T12:47:00+00:00 24 K 
[TXT]Century 21 Chapter 8 Accounting Answer Key2011-01-05T00:20:00+00:00 19 K 
[TXT]Chapter 7 Word Definitions Frazier2011-01-05T11:53:00+00:00 17 K 
[TXT]Conceptual Physical Science Explorations Chapter Review Questions2011-01-05T23:26:00+00:00 24 K 
[TXT]Chapter 18 Assessment Answers Modern American History2011-01-06T10:59:00+00:00 21 K 
[TXT]Chapter 1 What Is Statistics Ksu2011-01-06T22:32:00+00:00 18 K 
[TXT]Chapter Summary Activity Supreme Court Decision Making2011-01-07T10:05:00+00:00 19 K 
[TXT]Chapter 10 Answers To Questions And Problems2011-01-07T21:38:00+00:00 24 K 
[TXT]Chemistry Notes Chapters 1 32011-01-08T09:11:00+00:00 18 K 
[TXT]Concepts For Today 4 Chapter92011-01-08T20:44:00+00:00 25 K 
[TXT]Chapter 6 Triangles2011-01-09T08:17:00+00:00 17 K 
[TXT]Chapter Assessment Answers World History Answchapter 20Ers2011-01-09T19:50:00+00:00 20 K 
[TXT]Chapter 1 Modern Project Management2011-01-10T07:23:00+00:00 18 K 
[TXT]Chapter2 Section 3 Cycling Of Matter Answers2011-01-10T18:56:00+00:00 18 K 
[TXT]Chapter 4 Pdm2011-01-11T06:29:00+00:00 21 K 
[TXT]Chapter 10 12011-01-11T18:02:00+00:00 24 K 
[TXT]Chapter 1 Introduction To Pathophysiology Test Bank2011-01-12T05:35:00+00:00 17 K 
[TXT]Chapter 5 Test Form 2C2011-01-12T17:08:00+00:00 20 K 
[TXT]Chapters 27 Glencoe Health Student Activity2011-01-13T04:41:00+00:00 21 K 
[TXT]Chapter One University Of Ilorin2011-01-13T16:14:00+00:00 25 K 
[TXT]Chapter 11 Quiz 12011-01-14T03:47:00+00:00 22 K 
[TXT]Chapter12 Quiz Algebra 2 Answers2011-01-14T15:20:00+00:00 21 K 
[TXT]Chapter Review Modern Physical Science Answer Key2011-01-15T02:53:00+00:00 23 K 
[TXT]Chapter 10 Photosynthesis Multiple Choice Questions2011-01-15T14:26:00+00:00 18 K 
[TXT]Chapter 2 Quantitative Qualitative And Mixed Research2011-01-16T01:59:00+00:00 21 K 
[TXT]Chapter 8 Form K Test2011-01-16T13:32:00+00:00 21 K 
[TXT]Comparing Invertebrates Chapter Vocabulary Review Answers2011-01-17T01:05:00+00:00 24 K 
[TXT]Chapter Ending Questions Kansas State University2011-01-17T12:38:00+00:00 17 K 
[TXT]Chapter 7 The Cost Of Production2011-01-18T00:11:00+00:00 20 K 
[TXT]Chapter 8 Solutions2011-01-18T11:44:00+00:00 24 K 
[TXT]Chapter 29 World History Section Quiz Answers2011-01-18T23:17:00+00:00 20 K 
[TXT]Chapter 29 Concept Review South High School2011-01-19T10:50:00+00:00 18 K 
[TXT]Chapter 5 Instructor S Manual2011-01-19T22:23:00+00:00 17 K 
[TXT]Chapter Two Second Cycle Education Ministry Of2011-01-20T09:56:00+00:00 21 K 
[TXT]Chapter Quizzes On The Lightning Thief Bing2011-01-20T21:29:00+00:00 17 K 
[TXT]Contemporary Club Management Chapters2011-01-21T09:02:00+00:00 22 K 
[TXT]Chemistry Review Module Chapters 20 Answers2011-01-21T20:35:00+00:00 23 K 
[TXT]Chapter 19 Current And Resistance Test2011-01-22T08:08:00+00:00 19 K 
[TXT]Chapters World History Patterns Of Interaction2011-01-22T19:41:00+00:00 21 K 
[TXT]Chapter 25 Fruits Vegetables And Legumes2011-01-23T07:14:00+00:00 24 K 
[TXT]Chapter 9 Test Form B2011-01-23T18:47:00+00:00 19 K 
[TXT]Chapter 21Chemical Answers2011-01-24T06:20:00+00:00 21 K 
[TXT]Chapter 8 Quality Control And Assurance2011-01-24T17:53:00+00:00 19 K 
[TXT]Contemporary Strategy Analysis Robert Grant Chapter 142011-01-25T05:26:00+00:00 21 K 
[TXT]Chapter 4 Atomic Structure Wordwise Answer Key2011-01-25T16:59:00+00:00 22 K 
[TXT]Chapter 1 Introduction To Management Accounting Cengagebrain2011-01-26T04:32:00+00:00 24 K 
[TXT]Chapter 11 Introduction To Genetics Graphic Organizer2011-01-26T16:05:00+00:00 19 K 
[TXT]Chapter16 Wordwise Answers2011-01-27T03:38:00+00:00 23 K 
[TXT]Chapter 1 An Introduction To Project Management2011-01-27T15:11:00+00:00 18 K 
[TXT]Chapter 4 Fire Fighting Fundamentals Globalsecurity Org2011-01-28T02:44:00+00:00 24 K 
[TXT]Chapter 34 Think And Explain Answers2011-01-28T14:17:00+00:00 22 K 
[TXT]Chapter 36 Muscle System Biology Workbook Answers2011-01-29T01:50:00+00:00 24 K 
[TXT]Chapter Assessment Answers World History 9Th Grade2011-01-29T13:23:00+00:00 19 K 
[TXT]Chapter Test 6 Form A2011-01-30T00:56:00+00:00 20 K 
[TXT]Chapter 9 Vocabulary Practice2011-01-30T12:29:00+00:00 17 K 
[TXT]Chapter7 Test Algebra 1 Answers2011-01-31T00:02:00+00:00 24 K 
[TXT]Chapter 14 Payroll Accounting Taxes And Reports2011-01-31T11:35:00+00:00 24 K 
[TXT]Chapter 2 Conceptual Physics By Hewitt2011-01-31T23:08:00+00:00 25 K 
[TXT]Chapter 2 Solutions2011-02-01T10:41:00+00:00 25 K 
[TXT]Chapter 4 Control Structures Ii2011-02-01T22:14:00+00:00 18 K 
[TXT]Chapter 3 Pinyin The Finals I2011-02-02T09:47:00+00:00 23 K 
[TXT]Chapter32 Mammals Section 32 2 Answer2011-02-02T21:20:00+00:00 19 K 
[TXT]Chapter 17 Section 12011-02-03T08:53:00+00:00 20 K 
[TXT]Chemistry Addison Wesley Notes Chapter 16 Bonding2011-02-03T20:26:00+00:00 23 K 
[TXT]Chapter 4 Construction Drawings Welcome To Massdot2011-02-04T07:59:00+00:00 24 K 
[TXT]Chapter 8 32011-02-04T19:32:00+00:00 20 K 
[TXT]Chapter Six Grow Rooms Greenhouses Onlinepot2011-02-05T07:05:00+00:00 19 K 
[TXT]Chapter 8 Of Engineering Electromagnetics William Hayt2011-02-05T18:38:00+00:00 21 K 
[TXT]Chapter 1 Design Process2011-02-06T06:11:00+00:00 23 K 
[TXT]Chapter 16 Reaction Rates2011-02-06T17:44:00+00:00 23 K 
[TXT]Chapter 1 Accounting In Action Wiley2011-02-07T05:17:00+00:00 20 K 
[TXT]Cumulative Review Chapters 4 Answers Algebra 12011-02-07T16:50:00+00:00 25 K 
[TXT]Chapter 13 Section 52011-02-08T04:23:00+00:00 19 K 
[TXT]Chapter 4 Directed Reading Worksheet Plate Tectonics2011-02-08T15:56:00+00:00 22 K 
[TXT]Chapter 4 Forms Of Energy Answers2011-02-09T03:29:00+00:00 21 K 
[TXT]Chapter One Ispeak Nelson2011-02-09T15:02:00+00:00 24 K 
[TXT]Chapter 14 Workbook Pages2011-02-10T02:35:00+00:00 20 K 
[TXT]Chapter 1 Practice Questions Answers2011-02-10T14:08:00+00:00 23 K 
[TXT]Chapter 5 Answer Key Science With Simonson2011-02-11T01:41:00+00:00 22 K 
[TXT]Chapter 1 Mastery Test A Teacherweb2011-02-11T13:14:00+00:00 22 K 
[TXT]Cellular Respiration Multiple Choice Chapter Test2011-02-12T00:47:00+00:00 22 K 
[TXT]Chapter 23 Test Answers2011-02-12T12:20:00+00:00 19 K 
[TXT]Chapter2 Geometry Test Answer Key2011-02-12T23:53:00+00:00 20 K 
[TXT]Chapter10 Test Algebra 1 Answers Mcdougal2011-02-13T11:26:00+00:00 25 K 
[TXT]Chapter 5 Cumulative Review Geometry Mcdougal2011-02-13T22:59:00+00:00 22 K 
[TXT]Chapter22 Weather Maps2011-02-14T10:32:00+00:00 20 K 
[TXT]Chapter 21 Edoqs2011-02-14T22:05:00+00:00 23 K 
[TXT]Chapter 4 Congruent Triangles Osceola High School2011-02-15T09:38:00+00:00 21 K 
[TXT]Chapter 16 Reteaching Activity The Holocaust2011-02-15T21:11:00+00:00 19 K 
[TXT]Chapter 5 Multiple Choice Questions By Section2011-02-16T08:44:00+00:00 23 K 
[TXT]Conceptual Physics Chapter 34 Review Questions Answers2011-02-16T20:17:00+00:00 23 K 
[TXT]Chapter Review Sound Key2011-02-17T07:50:00+00:00 25 K 
[TXT]Chapter 3 Research Methodology Table Of Contents2011-02-17T19:23:00+00:00 17 K 
[TXT]Chapter 32 Section 3 The Holocaust2011-02-18T06:56:00+00:00 17 K 
[TXT]Chapter 4 Biology Key Assessment2011-02-18T18:29:00+00:00 23 K 
[TXT]Chapter3 Review The Biosphere Answers2011-02-19T06:02:00+00:00 24 K 
[TXT]Chapter 8 Cumulative Test Holt Algebra2011-02-19T17:35:00+00:00 21 K 
[TXT]Chapter 8 Quiz 1 Mathgeek Li2011-02-20T05:08:00+00:00 17 K 
[TXT]Chains Laurie Halse Anderson Chapter Summary2011-02-20T16:41:00+00:00 20 K 
[TXT]Chapter 29 Rna Synthesis And Processing2011-02-21T04:14:00+00:00 19 K 
[TXT]Chapter 2 Transformers Mcgraw Hill2011-02-21T15:47:00+00:00 24 K 
[TXT]Chapter 30 Answer Key Seeking Employment2011-02-22T03:20:00+00:00 23 K 
[TXT]Chapter 01 Strategic Management Testbank Instant Downloads2011-02-22T14:53:00+00:00 19 K 
[TXT]Chemistry Addison Wesley Chapter Review Answers2011-02-23T02:26:00+00:00 17 K 
[TXT]Chapter 14 Sound2011-02-23T13:59:00+00:00 19 K 
[TXT]Chapter 4 Congruent Triangles Clarkwork Com2011-02-24T01:32:00+00:00 23 K 
[TXT]Chapter4 Geometry Test Answer Key2011-02-24T13:05:00+00:00 25 K 
[TXT]Chapter 11 Practice Test2011-02-25T00:38:00+00:00 22 K 
[TXT]Chapters 13 Quiz Answer Advanced Mathematical Concepts2011-02-25T12:11:00+00:00 21 K 
[TXT]Chapter Two Standards Focus Symbolism Animal Farm2011-02-25T23:44:00+00:00 21 K 
[TXT]Chapter 10 Concrete Decks2011-02-26T11:17:00+00:00 18 K 
[TXT]Chapter 35 Nervous System Se2011-02-26T22:50:00+00:00 17 K 
[TXT]Chapter 15 Test Bank Mcgraw Hill2011-02-27T10:23:00+00:00 23 K 
[TXT]Chapter 1 Test Bank2011-02-27T21:56:00+00:00 22 K 
[TXT]Chapter Twelve Forsyth County Georgia2011-02-28T09:29:00+00:00 17 K 
[TXT]Chapter Assessment Answer Key History Alive Chapter202011-02-28T21:02:00+00:00 20 K 
[TXT]Chapter 1 Introduction To Earth Science2011-03-01T08:35:00+00:00 17 K 
[TXT]Chapter 22 Vocal Biology2011-03-01T20:08:00+00:00 24 K 
[TXT]Chapter 2 Flows On The Line2011-03-02T07:41:00+00:00 25 K 
[TXT]Chapter 9 Tanzania2011-03-02T19:14:00+00:00 19 K 
[TXT]Chapter Review Answers Weather2011-03-03T06:47:00+00:00 21 K 
[TXT]Chapter 39 The Stalemated Seventies2011-03-03T18:20:00+00:00 23 K 
[TXT]Chapter 9 Stereochemistry Science Learning Center2011-03-04T05:53:00+00:00 19 K 
[TXT]Carnegie Learning Chapter 5 Assignment Answers2011-03-04T17:26:00+00:00 21 K 
[TXT]Chapter 15 Food And Agriculture Concept Review2011-03-05T04:59:00+00:00 24 K 
[TXT]Chapter 33 Nervous System Csec Academics2011-03-05T16:32:00+00:00 17 K 
[TXT]Chapter 7 Coste Of Production2011-03-06T04:05:00+00:00 19 K 
[TXT]Chapter 7 Review Of Breastfeeding Assessment Tools2011-03-06T15:38:00+00:00 19 K 
[TXT]Chapter Vocabulary Review Answer Sheet2011-03-07T03:11:00+00:00 17 K 
[TXT]Chapter 19 History Of Life Biology2011-03-07T14:44:00+00:00 22 K 
[TXT]Chemistry Test Chapter 10 Chemical Equations2011-03-08T02:17:00+00:00 22 K 
[TXT]Chapter 8 Restaurant Operation And Maintenance2011-03-08T13:50:00+00:00 25 K 
[TXT]Chapter One Studyclue2011-03-09T01:23:00+00:00 19 K 
[TXT]Chapter Six Standard Focus Figurative Language2011-03-09T12:56:00+00:00 24 K 
[TXT]Chapter S 32011-03-10T00:29:00+00:00 25 K 
[TXT]Charlotte Web Chapter Questions And Answers2011-03-10T12:02:00+00:00 22 K 
[TXT]Chapter 12 Adverb Clauses And Phrases2011-03-10T23:35:00+00:00 21 K 
[TXT]Chapters 6 Algebra 2 Cumulative Test Answers2011-03-11T11:08:00+00:00 25 K 
[TXT]Chemistrymc Com Chapter Assessment Answers2011-03-11T22:41:00+00:00 19 K 
[TXT]Cumulative Review Geometry Mcdougal Chapter 52011-03-12T10:14:00+00:00 17 K 
[TXT]Chapter 4 Atomic Structure Wordwise2011-03-12T21:47:00+00:00 21 K 
[TXT]Chapter 13 Principles Of Ecology Review2011-03-13T09:20:00+00:00 21 K 
[TXT]Chapter 1 Introduction To Ethical Hacking2011-03-13T20:53:00+00:00 17 K 
[TXT]Computer Science Illuminated Chapter 16 Answers2011-03-14T08:26:00+00:00 19 K 
[TXT]Chapter 4 Solutions2011-03-14T19:59:00+00:00 17 K 
[TXT]Chapter 01 Modern Supervision Concepts And Skills2011-03-15T07:32:00+00:00 18 K 
[TXT]Chapter No 1 Introduction To Computer2011-03-15T19:05:00+00:00 23 K 
[TXT]Chapter 8 Resource Masters Lewiston School District2011-03-16T06:38:00+00:00 17 K 
[TXT]Chapter 24 Test World War Looms2011-03-16T18:11:00+00:00 25 K 
[TXT]Concept Chapter 34 Mapping Circulation In Humans2011-03-17T05:44:00+00:00 22 K 
[TXT]Chapter 23 Vocab2011-03-17T17:17:00+00:00 20 K 
[TXT]Chapter17 Problem Answers Krugman International Economic2011-03-18T04:50:00+00:00 20 K 
[TXT]Cumulative Review Chapters 1 9 Answers Algebra2011-03-18T16:23:00+00:00 19 K 
[TXT]Chapter 29 Thegreat War Crosswordpuzzle2011-03-19T03:56:00+00:00 23 K 
[TXT]Chapter 2 Section 1 Answers2011-03-19T15:29:00+00:00 24 K 
[TXT]Chemistry Chapter 14 Practice Problems Answers2011-03-20T03:02:00+00:00 17 K 
[TXT]Chapter 10 Cell Growth And Division Wikispaces2011-03-20T14:35:00+00:00 23 K 
[TXT]Chapter 12 Standard Costing Yola2011-03-21T02:08:00+00:00 18 K 
[TXT]Chapter 11 Review Molecular Composition Of Gases2011-03-21T13:41:00+00:00 20 K 
[TXT]Chapter 35 Solution Clrs2011-03-22T01:14:00+00:00 23 K 
[TXT]Chapter13 Section1 Applied Genetics Key2011-03-22T12:47:00+00:00 23 K 
[TXT]Chapter 6 Atomic Structure And Chemical Bonds2011-03-23T00:20:00+00:00 25 K 
[TXT]Chapter 8 Multiview Drawings2011-03-23T11:53:00+00:00 23 K 
[TXT]Corporate Finance Quiz Berk Demarzo Solutions Chapter62011-03-23T23:26:00+00:00 17 K 
[TXT]Class 11Th Notes Chemistry Chapter Wise2011-03-24T10:59:00+00:00 23 K 
[TXT]Chapter 11 Pricing With Market Power2011-03-24T22:32:00+00:00 22 K 
[TXT]Chapter 7 Financial Accounting2011-03-25T10:05:00+00:00 23 K 
[TXT]Chapter 32 Wwii2011-03-25T21:38:00+00:00 19 K 
[TXT]Chapter Test Atom And Periodic Table2011-03-26T09:11:00+00:00 22 K 
[TXT]Chapter 15 Chemical Equilibrium Austin Community College2011-03-26T20:44:00+00:00 25 K 
[TXT]Chapter 8 Answers2011-03-27T08:17:00+00:00 19 K 
[TXT]Chapter 3 Seismic Data Processing2011-03-27T19:50:00+00:00 17 K 
[TXT]Chapter Review American Republic2011-03-28T07:23:00+00:00 20 K 
[TXT]Chapter 6 Humans In The Biosphere2011-03-28T18:56:00+00:00 20 K 
[TXT]Chapter 18 Review Chemical Equilibrium2011-03-29T06:29:00+00:00 19 K 
[TXT]Chapter 10 Section 12011-03-29T18:02:00+00:00 21 K 
[TXT]Chapter 6 Quiz2011-03-30T05:35:00+00:00 21 K 
[TXT]Chapter 17 Financial Statement Analysis2011-03-30T17:08:00+00:00 25 K 
[TXT]Chapter Review Waves2011-03-31T04:41:00+00:00 21 K 
[TXT]Chapter18 Assesmemt Chemical Equilibrium Answers2011-03-31T16:14:00+00:00 20 K 
[TXT]Chapter 38 Directed Reading2011-04-01T03:47:00+00:00 22 K 
[TXT]Chapter 12 Resource Electromagnetic Waves2011-04-01T15:20:00+00:00 25 K 
[TXT]Chapter 6 Basic Sql2011-04-02T02:53:00+00:00 23 K 
[TXT]Chapter 14 The Human Genome Se2011-04-02T14:26:00+00:00 24 K 
[TXT]Chapter 35 Basic Pharmacology Answer Key2011-04-03T01:59:00+00:00 22 K 
[TXT]Chapter Xli Investigation Of Unnatural Deaths2011-04-03T13:32:00+00:00 22 K 
[TXT]Chapter 4 Completing The Accounting Cycle2011-04-04T01:05:00+00:00 25 K 
[TXT]Chapter 6 Solutions2011-04-04T12:38:00+00:00 19 K 
[TXT]Chapter 25 Water Resources Earth Science2011-04-05T00:11:00+00:00 23 K 
[TXT]Chapter Mcgraw Hill Networks2011-04-05T11:44:00+00:00 19 K 
[TXT]Chapter 2 Hardware For Computer Operations2011-04-05T23:17:00+00:00 17 K 
[TXT]Chapter 3 Research Design2011-04-06T10:50:00+00:00 21 K 
[TXT]Chapter 2 Making Healthful Choices2011-04-06T22:23:00+00:00 18 K 
[TXT]Chapter 6 Test 122011-04-07T09:56:00+00:00 23 K 
[TXT]Chapter Nine Standards Focus Theme Answer Key2011-04-07T21:29:00+00:00 21 K 
[TXT]Chapter 13 Section 1 Quiz2011-04-08T09:02:00+00:00 25 K 
[TXT]Chapter 5 End Of Questions2011-04-08T20:35:00+00:00 20 K 
[TXT]Chapter18 Chemistry Workbook Answers2011-04-09T08:08:00+00:00 18 K 
[TXT]Chapter 14 Eukaryotes Protists And Fungi Worksheets2011-04-09T19:41:00+00:00 18 K 
[TXT]Cisco Chapter Exam Answers 2013 Bing2011-04-10T07:14:00+00:00 25 K 
[TXT]Chapter 3 Educators2011-04-10T18:47:00+00:00 18 K 
[TXT]Chapter 17 Investments2011-04-11T06:20:00+00:00 20 K 
[TXT]Chapter 24 Solutions2011-04-11T17:53:00+00:00 17 K 
[TXT]Chapter 13 Answer Key2011-04-12T05:26:00+00:00 21 K 
[TXT]Chapter Assesment Answer Key For Chemistry2011-04-12T16:59:00+00:00 24 K 
[TXT]Chapter Tests Holt Mcdougal Geometry2011-04-13T04:32:00+00:00 19 K 
[TXT]Chemistry Chapter 13 Solutions2011-04-13T16:05:00+00:00 25 K 
[TXT]Chapter 5 Understanding Consumer Buying Behavior2011-04-14T03:38:00+00:00 19 K 
[TXT]Chapter One Mcgraw Hill2011-04-14T15:11:00+00:00 19 K 
[TXT]Chapter 8 Section 5 Skills Practice2011-04-15T02:44:00+00:00 21 K 
[TXT]Chapter Test C The Laws Of Motion2011-04-15T14:17:00+00:00 22 K 
[TXT]Chapters 10 Test Answer Advanced Mathematical Concepts2011-04-16T01:50:00+00:00 24 K 
[TXT]Chapter 45 Hormones And The Endocrine System2011-04-16T13:23:00+00:00 21 K 
[TXT]Chapter 1 Indd New Age International2011-04-17T00:56:00+00:00 20 K 
[TXT]Cpm Core Connections Algebra Answers Chapter 62011-04-17T12:29:00+00:00 23 K 
[TXT]Chapter One Introduction Caritas University2011-04-18T00:02:00+00:00 17 K 
[TXT]Chapter Aggression Appeasement And War2011-04-18T11:35:00+00:00 25 K 
[TXT]Chapter 5 Nutrients At Work Answers2011-04-18T23:08:00+00:00 22 K 
[TXT]Chapter 2 Questions2011-04-19T10:41:00+00:00 20 K 
[TXT]Chapter 1 Solutions2011-04-19T22:14:00+00:00 23 K 
[TXT]Chapter Test Answer Animal Farm2011-04-20T09:47:00+00:00 24 K 
[TXT]Chapter 4 Reinforced Concrete Assakkaf2011-04-20T21:20:00+00:00 20 K 
[TXT]Chapter19 Holt Physics Practice Test2011-04-21T08:53:00+00:00 18 K 
[TXT]Computability Exercises And Solutions Chapter 92011-04-21T20:26:00+00:00 17 K 
[TXT]Celebrating Texas Chapter20 Answer Key2011-04-22T07:59:00+00:00 18 K 
[TXT]Chapter 16 20 Resources2011-04-22T19:32:00+00:00 22 K 
[TXT]Chapter 7 Multiple Choice Questions2011-04-23T07:05:00+00:00 25 K 
[TXT]Chapter A I To Chemistry2011-04-23T18:38:00+00:00 21 K 
[TXT]College Physics Serway Solutions Manual Chapter 22011-04-24T06:11:00+00:00 24 K 
[TXT]Chapter 11 I Nventory Anagement Mcgraw Hill2011-04-24T17:44:00+00:00 17 K 
[TXT]Chapter 7 Intermediate Accounting2011-04-25T05:17:00+00:00 21 K 
[TXT]Chapter 2 Overview And Research Review2011-04-25T16:50:00+00:00 25 K 
[TXT]Chapter 1 Essential Of Television System2011-04-26T04:23:00+00:00 21 K 
[TXT]Chapter8 Genetic Algorithm Implementation Using Matlab2011-04-26T15:56:00+00:00 21 K 
[TXT]Chapter 13 Test Form 2C Answers Geometry2011-04-27T03:29:00+00:00 21 K 
[TXT]Chapter 2 Test Peel District School Board2011-04-27T15:02:00+00:00 19 K 
[TXT]Chapter 26 Arthropods Worksheet2011-04-28T02:35:00+00:00 24 K 
[TXT]Chapter 16 Resource Weather Omkarmin Com2011-04-28T14:08:00+00:00 21 K 
[TXT]Chapter 3 Nouns And Noun Phrases Sdsu2011-04-29T01:41:00+00:00 21 K 
[TXT]Chapter 15 Operations Strategy Nigel Slack2011-04-29T13:14:00+00:00 17 K 
[TXT]Chapter 9 Transformations Clarkwork Com2011-04-30T00:47:00+00:00 17 K 
[TXT]Chapter 2 Computer Hardware Motherboard2011-04-30T12:20:00+00:00 18 K 
[TXT]Chapter 48 Neurons Synapses And Signaling2011-04-30T23:53:00+00:00 25 K 
[TXT]Chapterc42 Criminal Procedure Northern States Act2011-05-01T11:26:00+00:00 21 K 
[TXT]Chapter Six Dha Assessment Dubai Health Authority2011-05-01T22:59:00+00:00 22 K 
[TXT]Cbse Plus 2 English Chapters Flamingo2011-05-02T10:32:00+00:00 23 K 
[TXT]Chapter 2 Assembly Language Programming The Pic182011-05-02T22:05:00+00:00 21 K 
[TXT]Chapter 2 Edoqs2011-05-03T09:38:00+00:00 22 K 
[TXT]Chapter 3 Research Methodology Design2011-05-03T21:11:00+00:00 19 K 
[TXT]Chapter 1 Literature Survey Introduction2011-05-04T08:44:00+00:00 24 K 
[TXT]Chapter4 Ecosystems And Communities Answer Key2011-05-04T20:17:00+00:00 19 K 
[TXT]Conceptual Physics Review Chapters 38 402011-05-05T07:50:00+00:00 18 K 
[TXT]Chapter 16 The Respiratory System2011-05-05T19:23:00+00:00 19 K 
[TXT]Chapter 1 General Information Egimotors2011-05-06T06:56:00+00:00 20 K 
[TXT]Chapter 46 Test Egans2011-05-06T18:29:00+00:00 19 K 
[TXT]Chapter2 Multiple Choice Questions2011-05-07T06:02:00+00:00 20 K 
[TXT]Chapter 6 Network Management Kfupm2011-05-07T17:35:00+00:00 17 K 
[TXT]Chapter 9 Section 2 From Mary Barton2011-05-08T05:08:00+00:00 18 K 
[TXT]Chapter 7 Pythagoreab Theorem Practice 12011-05-08T16:41:00+00:00 25 K 
[TXT]Chapter 4 The College Board2011-05-09T04:14:00+00:00 25 K 
[TXT]Chapter 1 Test Form K2011-05-09T15:47:00+00:00 19 K 
[TXT]Chapter Review Interpreting Graphics2011-05-10T03:20:00+00:00 20 K 
[TXT]Ch 8 Photosynthesis Chapter Review Answer Key2011-05-10T14:53:00+00:00 25 K 
[TXT]Chapter 12 Network Security2011-05-11T02:26:00+00:00 23 K 
[TXT]Chapter 25 Modern Genetics2011-05-11T13:59:00+00:00 25 K 
[TXT]Chapter Concept Review Answers Environmental Science2011-05-12T01:32:00+00:00 20 K 
[TXT]Chapter 31 Keyboard Shortcuts Simplifierlab2011-05-12T13:05:00+00:00 25 K 
[TXT]Chapter 16 Blm Answer Key2011-05-13T00:38:00+00:00 23 K 
[TXT]Chapter 11 Kia Snap On2011-05-13T12:11:00+00:00 25 K 
[TXT]Chapter 8 Solutions Teacherweb2011-05-13T23:44:00+00:00 21 K 
[TXT]Chapter 2 Governing Board And Annual Meeting2011-05-14T11:17:00+00:00 24 K 
[TXT]Chapter 5 Pearson Education Chemistry Answer Key2011-05-14T22:50:00+00:00 25 K 
[TXT]Custoomer Relatioship Management Chapter 32011-05-15T10:23:00+00:00 23 K 
[TXT]Counter Points Chapters 1 172011-05-15T21:56:00+00:00 24 K 
[TXT]Chapter33 Environmental Careers2011-05-16T09:29:00+00:00 20 K 
[TXT]Chapter 3 Financial Institutions Solutions2011-05-16T21:02:00+00:00 20 K 
[TXT]Chapter 13 4 Refraction Optical Phenomenas Answwers2011-05-17T08:35:00+00:00 21 K 
[TXT]Chapter 6 Single Pilot Resource Management2011-05-17T20:08:00+00:00 24 K 
[TXT]Chapter 34 Circulation In Humans Concept Mapping2011-05-18T07:41:00+00:00 25 K 
[TXT]Chemistry Chapters 12 Gases Assessment Answers2011-05-18T19:14:00+00:00 24 K 
[TXT]Chapter 8 Geometry2011-05-19T06:47:00+00:00 23 K 
[TXT]Chapter 23 Answers Earth Science2011-05-19T18:20:00+00:00 18 K 
[TXT]Cisco Netacad Chapter2011-05-20T05:53:00+00:00 17 K 
[TXT]Chapter 3 Information And Decision Making2011-05-20T17:26:00+00:00 17 K 
[TXT]Chapter 12 Test2011-05-21T04:59:00+00:00 22 K 
[TXT]Chapter 1 Learning About Children2011-05-21T16:32:00+00:00 19 K 
[TXT]Chapter18 Section 1 Introduction To Ecology Answers2011-05-22T04:05:00+00:00 20 K 
[TXT]Chapter 14 Controlled Environments Experimental Research2011-05-22T15:38:00+00:00 23 K 
[TXT]Chapter Notes Of 12Th Std2011-05-23T03:11:00+00:00 21 K 
[TXT]Chapter 13 Spectroscopy2011-05-23T14:44:00+00:00 20 K 
[TXT]Chapter V Finance Department2011-05-24T02:17:00+00:00 22 K 
[TXT]Chapter 1 Analytical Reasoning2011-05-24T13:50:00+00:00 23 K 
[TXT]Chapter 1 Introduction Background2011-05-25T01:23:00+00:00 23 K 
[TXT]Chapter 4 Consumer Behaviour2011-05-25T12:56:00+00:00 21 K 
[TXT]Circuit Analysis And Design Chapter 32011-05-26T00:29:00+00:00 20 K 
[TXT]Chapter 1 Networking Fundamentals Bicsi2011-05-26T12:02:00+00:00 22 K 
[TXT]Chapter 7 Reveiw Answers2011-05-26T23:35:00+00:00 25 K 
[TXT]Chapter 9 Learnline2011-05-27T11:08:00+00:00 20 K 
[TXT]Chapter 10 Answer Key Glencoe Geometry2011-05-27T22:41:00+00:00 20 K 
[TXT]Chapter 18 Lifetime Personal Fitness Answer2011-05-28T10:14:00+00:00 24 K 
[TXT]Chapter 17 Mechanical Waves Sound Sec2011-05-28T21:47:00+00:00 25 K 
[TXT]Chapter 9 Io Devices2011-05-29T09:20:00+00:00 18 K 
[TXT]Chapter 42 Urinalysis Answer And2011-05-29T20:53:00+00:00 23 K 
[TXT]Chapter 12 Geometry E College Com2011-05-30T08:26:00+00:00 23 K 
[TXT]Chapter Review Diffusion And Osmosis Answer Key2011-05-30T19:59:00+00:00 25 K 
[TXT]Chapter 14 Worksheets Answer2011-05-31T07:32:00+00:00 18 K 
[TXT]Corporate Finance Berk Demarzo Solution Chapter 62011-05-31T19:05:00+00:00 17 K 
[TXT]Chapter 3 Networking Components And Devices2011-06-01T06:38:00+00:00 21 K 
[TXT]Chapter 10 Haloalkanes And Haloarenes2011-06-01T18:11:00+00:00 25 K 
[TXT]Chapter 50 Fixed Prosthodontics2011-06-02T05:44:00+00:00 25 K 
[TXT]Civilization Of Asia Chapter Quiz Answers2011-06-02T17:17:00+00:00 19 K 
[TXT]Chapter Test Periodic Table Answers2011-06-03T04:50:00+00:00 23 K 
[TXT]Chapter Cash Solution2011-06-03T16:23:00+00:00 18 K 
[TXT]Chapter 22 Key2011-06-04T03:56:00+00:00 19 K 
[TXT]Chapter 19 Acids And Bases2011-06-04T15:29:00+00:00 23 K 
[TXT]Chapter 21 Magnetism Wordwise Answers2011-06-05T03:02:00+00:00 24 K 
[TXT]Chapter 11 Free Response Test A2011-06-05T14:35:00+00:00 21 K 
[TXT]Chapter Assessment Examen Vocabulario Y Gramatica 22011-06-06T02:08:00+00:00 18 K 
[TXT]Chapter 1 The Quest For Fulfillment2011-06-06T13:41:00+00:00 21 K 
[TXT]Chapter 1 The Secret Enters Spotlight2011-06-07T01:14:00+00:00 25 K 
[TXT]Chapter 8 Geometry Form 1 Answer2011-06-07T12:47:00+00:00 21 K 
[TXT]Chapter Three Review Questions Electrical Wiring Residential2011-06-08T00:20:00+00:00 18 K 
[TXT]Chapter 1 The Concept Of Stress Adaptation2011-06-08T11:53:00+00:00 23 K 
[TXT]Chapter 34 Directed Reading Fishes And Amphibians2011-06-08T23:26:00+00:00 19 K 
[TXT]Chapter 13 Section 32011-06-09T10:59:00+00:00 23 K 
[TXT]Chapter 52 1 Male Reproductive System Questions2011-06-09T22:32:00+00:00 18 K 
[TXT]Chapter 42 Care Of Postpartum Women2011-06-10T10:05:00+00:00 25 K 
[TXT]Chapter 1 Methodology And Proximate Analysis2011-06-10T21:38:00+00:00 22 K 
[TXT]Chapter 34 Patterns Of Behavior Answers2011-06-11T09:11:00+00:00 22 K 
[TXT]Chapter 2 Communication Within The Nervous System2011-06-11T20:44:00+00:00 19 K 
[TXT]Chapter 4A Spanish Test2011-06-12T08:17:00+00:00 21 K 
[TXT]Chapter 15 Accounting For Partnerships Mcgraw Hill2011-06-12T19:50:00+00:00 21 K 
[TXT]Chapter 3 Taxation Of International Transactions Solutions2011-06-13T07:23:00+00:00 20 K 
[TXT]Cbse Class 12 English Novel Chapters Summary2011-06-13T18:56:00+00:00 19 K 
[TXT]Chapter 5 The Organization Of Congress Teacherweb2011-06-14T06:29:00+00:00 18 K 
[TXT]Chapter Resource 92011-06-14T18:02:00+00:00 20 K 
[TXT]Chapter 1 Wiring2011-06-15T05:35:00+00:00 20 K 
[TXT]Chapter 3 Risk Assessment Landslide Idaho2011-06-15T17:08:00+00:00 19 K 
[TXT]Chapter 18 Classification Vocabulary Review2011-06-16T04:41:00+00:00 24 K 
[TXT]Chapter 2 Answer Key For 10Th2011-06-16T16:14:00+00:00 20 K 
[TXT]Chapter One Understanding Organizational Behaviour Nptel2011-06-17T03:47:00+00:00 18 K 
[TXT]Chapter 22 The Vietnam War Years2011-06-17T15:20:00+00:00 17 K 
[TXT]Chapter 3 Element Symbols Create A Phrase2011-06-18T02:53:00+00:00 17 K 
[TXT]Chapter 1 Discovering Blender2011-06-18T14:26:00+00:00 20 K 
[TXT]Conceptual Physics Chapter 35 Review Question Answers2011-06-19T01:59:00+00:00 20 K 
[TXT]Class 10 Sst Geography Chapter Wise Notes2011-06-19T13:32:00+00:00 24 K 
[TXT]Chapter 12 Quiz 1 Glencoe Geometry2011-06-20T01:05:00+00:00 18 K 
[TXT]Chapter Periodization 19 Famu2011-06-20T12:38:00+00:00 25 K 
[TXT]Chapter 23 Assessment Answers For The Americans2011-06-21T00:11:00+00:00 17 K 
[TXT]Chapter Test B Theory Of Evolution Answers2011-06-21T11:44:00+00:00 23 K 
[TXT]Chapter 5 Grammar 1 Spanish2011-06-21T23:17:00+00:00 25 K 
[TXT]Chapterwise Weightege List Of Hsc Bord Exam2011-06-22T10:50:00+00:00 21 K 
[TXT]Chemhnhs Chapter Nuclear Chemistry2011-06-22T22:23:00+00:00 24 K 
[TXT]Chapter Test 8 Holt Algebra 12011-06-23T09:56:00+00:00 22 K 
[TXT]Chapter 16 International Portfolio Theory And Diversification2011-06-23T21:29:00+00:00 24 K 
[TXT]Chapter5 Populations Workbook Answer Key Pearson Ed2011-06-24T09:02:00+00:00 22 K 
[TXT]Chapter 9 Review Sheet Cross Word Answers2011-06-24T20:35:00+00:00 23 K 
[TXT]Contemporary Engineering Economics Chapter 112011-06-25T08:08:00+00:00 23 K 
[TXT]Chapter 24 Test Answers2011-06-25T19:41:00+00:00 19 K 
[TXT]Chapter 2 Data Envelopment Analysis Explained2011-06-26T07:14:00+00:00 19 K 
[TXT]Chapter4 Ecosystems And Communities Concept Map Answer2011-06-26T18:47:00+00:00 25 K 
[TXT]Chapter 30 Continued Answer Key2011-06-27T06:20:00+00:00 23 K 
[TXT]Chapter 11 Form G2011-06-27T17:53:00+00:00 24 K 
[TXT]Chapter 9 Finite State Machine Optimization2011-06-28T05:26:00+00:00 20 K 
[TXT]Chapter Test Circulatory And Respiratory System2011-06-28T16:59:00+00:00 17 K 
[TXT]Chapter 11 Review2011-06-29T04:32:00+00:00 17 K 
[TXT]Chapter Three Miami Dade College2011-06-29T16:05:00+00:00 23 K 
[TXT]Chapter Summary Activity 8 The Presidency Key2011-06-30T03:38:00+00:00 20 K 
[TXT]Chapter 17 Section 3 Reinforcement2011-06-30T15:11:00+00:00 19 K 
[TXT]Ccp 2Nd Semester Chapters 1St Year2011-07-01T02:44:00+00:00 22 K 
[TXT]Cpt Law Notes Chapter Wise2011-07-01T14:17:00+00:00 24 K 
[TXT]Chapter 21 The Vietnam War Quiz2011-07-02T01:50:00+00:00 21 K 
[TXT]Chapter 13 Mangerial Accountin 12Th2011-07-02T13:23:00+00:00 22 K 
[TXT]Chapter 15 Financial Risk Management Techniques And2011-07-03T00:56:00+00:00 24 K 
[TXT]Chapter 1 Becoming A Teacher2011-07-03T12:29:00+00:00 25 K 
[TXT]Chapter 5 Test Pearson Schools2011-07-04T00:02:00+00:00 17 K 
[TXT]Chapter 27 Worms And Mollusks Vocabulary Review2011-07-04T11:35:00+00:00 23 K 
[TXT]Chapter 7 Answers Catawba County Schools2011-07-04T23:08:00+00:00 17 K 
[TXT]Chapter 18 Section 1 Answers2011-07-05T10:41:00+00:00 25 K 
[TXT]Chapter 39 Section Review Answers2011-07-05T22:14:00+00:00 23 K 
[TXT]Chapter 15Classzone Medieval And Early Modern Times2011-07-06T09:47:00+00:00 24 K 
[TXT]Chapters Three And Four Comprehension Check2011-07-06T21:20:00+00:00 24 K 
[TXT]Chapter Two Standard Focus Figurative Language2011-07-07T08:53:00+00:00 19 K 
[TXT]Chapter 36 The Nervous System Answers Reinforcement2011-07-07T20:26:00+00:00 23 K 
[TXT]Chapter 4 Ecosystems And Communities Summary2011-07-08T07:59:00+00:00 21 K 
[TXT]Chapter 9 Muscles And Muscle Tissue2011-07-08T19:32:00+00:00 17 K 
[TXT]Chapter 10 Productivity Technology And Aix1 Uottawa2011-07-09T07:05:00+00:00 19 K 
[TXT]Chapter 9 Quiz Answers Holt Geometry2011-07-09T18:38:00+00:00 19 K 
[TXT]Chapter 1 Test True False Multiple Choice2011-07-10T06:11:00+00:00 24 K 
[TXT]Chapter 13 Form 2C Glencoe Algebra 22011-07-10T17:44:00+00:00 21 K 
[TXT]Chapter Vector Mechanics For Engineers Statics2011-07-11T05:17:00+00:00 21 K 
[TXT]Chapter 7 Chemical Formulas And Compounds2011-07-11T16:50:00+00:00 23 K 
[TXT]Chapter 1 Vocabulary And Questions2011-07-12T04:23:00+00:00 19 K 
[TXT]Chapter 4 Operations Management2011-07-12T15:56:00+00:00 20 K 
[TXT]Chapter 14 Chemical Equilibrium2011-07-13T03:29:00+00:00 17 K 
[TXT]Chapter 10 Test Math2011-07-13T15:02:00+00:00 19 K 
[TXT]Chapter 31 Marketing Essentials Review Answer Key2011-07-14T02:35:00+00:00 20 K 
[TXT]Chapter 11 Answers Jfscchem122011-07-14T14:08:00+00:00 24 K 
[TXT]Chapter 15 The Mcclelland Mcber Competency Models2011-07-15T01:41:00+00:00 23 K 
[TXT]Chapter7 Cash Flow Analysis2011-07-15T13:14:00+00:00 23 K 
[TXT]Chapter 12 The Reproductive System2011-07-16T00:47:00+00:00 20 K 
[TXT]Construction Planning Equipment And Methods Chapter2011-07-16T12:20:00+00:00 21 K 
[TXT]Chapter 33 Invertebrates Cvitale Net2011-07-16T23:53:00+00:00 18 K 
[TXT]Conceptual Physics Chapter 272011-07-17T11:26:00+00:00 17 K 
[TXT]Chapter 14 Promotions Changes To Lower Grade2011-07-17T22:59:00+00:00 20 K 
[TXT]Chapter 08 Mcgraw Hill2011-07-18T10:32:00+00:00 18 K 
[TXT]Chapter 9 Business Ethics And Social Responsibility2011-07-18T22:05:00+00:00 18 K 
[TXT]Chapter 11 Rules Of Grammar2011-07-19T09:38:00+00:00 18 K 
[TXT]Chapter 17 Statement Of Cash Flows2011-07-19T21:11:00+00:00 18 K 
[TXT]Control And Coordination Chapter Notes2011-07-20T08:44:00+00:00 17 K 
[TXT]Chapter 4 Section 2 Answers Seedless Plants2011-07-20T20:17:00+00:00 25 K 
[TXT]Chapter 16 Cardiovascular And Respiratory Systems2011-07-21T07:50:00+00:00 17 K 
[TXT]Chapter 4 Research Methodology2011-07-21T19:23:00+00:00 25 K 
[TXT]Chapter 16 Managing Bond Portfolios2011-07-22T06:56:00+00:00 18 K 
[TXT]Chapter 9 Glencoe2011-07-22T18:29:00+00:00 23 K 
[TXT]Chapter Ii Development And Description Of Tools2011-07-23T06:02:00+00:00 21 K 
[TXT]Chapter 6 Express Math 20112011-07-23T17:35:00+00:00 19 K 
[TXT]Comprehensive Problem Chapters 5 Accounting And Managerial2011-07-24T05:08:00+00:00 17 K 
[TXT]Chapter 34 Medication Satety2011-07-24T16:41:00+00:00 23 K 
[TXT]Chapter 25 Plant Responses And Adaptations Se2011-07-25T04:14:00+00:00 17 K 
[TXT]Chapter 28 Applied And Industrial Microbiology2011-07-25T15:47:00+00:00 22 K 
[TXT]Chapter 10 Physical Characteristics Of Gases2011-07-26T03:20:00+00:00 19 K 
[TXT]Chapter 3 Examinstion And Techniques2011-07-26T14:53:00+00:00 24 K 
[TXT]Chapter 01 Strategic Management Creating Competitive2011-07-27T02:26:00+00:00 24 K 
[TXT]Chapter 7 Test Form G Mathgeek Li2011-07-27T13:59:00+00:00 22 K 
[TXT]Chapter 39 Answer Key2011-07-28T01:32:00+00:00 25 K 
[TXT]Conceptual And Physical Science Explorations Chapter 402011-07-28T13:05:00+00:00 18 K 
[TXT]Chapter 8 Testb2011-07-29T00:38:00+00:00 17 K 
[TXT]Chapter 3 Research Design Pbworks2011-07-29T12:11:00+00:00 23 K 
[TXT]Chapter 11 Test Form 12011-07-29T23:44:00+00:00 25 K 
[TXT]Chapter 8 The Pragmatic Paradigm Ethiopia Ed2011-07-30T11:17:00+00:00 23 K 
[TXT]Chapter 2 Overview Of The Financial System2011-07-30T22:50:00+00:00 18 K 
[TXT]Chapter 4 Worksheet2011-07-31T10:23:00+00:00 20 K 
[TXT]Chapter3 The Biosphere Answer Key2011-07-31T21:56:00+00:00 25 K 
[TXT]Chapter 22 Contract Costing2011-08-01T09:29:00+00:00 19 K 
[TXT]Chapter 4 Heat2011-08-01T21:02:00+00:00 24 K 
[TXT]Cisco Netacad Chapter 8 Lab2011-08-02T08:35:00+00:00 17 K 
[TXT]Catcher In The Rye Chapter Answers2011-08-02T20:08:00+00:00 20 K 
[TXT]Chapter 9 Cellular Reproduction2011-08-03T07:41:00+00:00 25 K 
[TXT]Chapter8 Astronomy Answers2011-08-03T19:14:00+00:00 19 K 
[TXT]Chapter 1 Land And Soil Resources Wikispaces2011-08-04T06:47:00+00:00 20 K 
[TXT]Chapter 4 Solution2011-08-04T18:20:00+00:00 24 K 
[TXT]Chapter 7 Operation Management Process Flow Chart2011-08-05T05:53:00+00:00 19 K 
[TXT]Chapter 1 What Is Total Quality Management2011-08-05T17:26:00+00:00 20 K 
[TXT]Chapter 22 Section 6 Volcanoes2011-08-06T04:59:00+00:00 17 K 
[TXT]Chapter 3 Circulation Test Answer Key2011-08-06T16:32:00+00:00 17 K 
[TXT]Chapter 1 Test Form B 22011-08-07T04:05:00+00:00 24 K 
[TXT]Chapter 2 Introduction Andrew Cmu Download2011-08-07T15:38:00+00:00 20 K 
[TXT]Chapter 27 Biology Powerpoint2011-08-08T03:11:00+00:00 17 K 
[TXT]Chapter One What Is Customer Service2011-08-08T14:44:00+00:00 21 K 
[TXT]Chapter And Unit Tests2011-08-09T02:17:00+00:00 20 K 
[TXT]Chapter Wise Question Bank For Cbse Class2011-08-09T13:50:00+00:00 22 K 
[TXT]Chapter 13 Assessment Answer Key Heelan Gischsource2011-08-10T01:23:00+00:00 23 K 
[TXT]Chapter 8 Software Testing2011-08-10T12:56:00+00:00 19 K 
[TXT]Chapter 9 Multiple Choice Questions Chemconnections2011-08-11T00:29:00+00:00 21 K 
[TXT]Chapter 6 Life Processes2011-08-11T12:02:00+00:00 20 K 
[TXT]Chapter 38 Wordwise Answers2011-08-11T23:35:00+00:00 18 K 
[TXT]Chapter Review Electricity Answers2011-08-12T11:08:00+00:00 23 K 
[TXT]Chapter 9 Measurement Procedure Civil Engineering And2011-08-12T22:41:00+00:00 20 K 
[TXT]Chapter Two Standards Focus Symbolism2011-08-13T10:14:00+00:00 25 K 
[TXT]Chapter 9 Muscular System Teacher2011-08-13T21:47:00+00:00 22 K 
[TXT]Chapter 11 Resource Masters Chris Smola2011-08-14T09:20:00+00:00 17 K 
[TXT]Chapter 31 Gas Chromatoghraphy Msq2011-08-14T20:53:00+00:00 18 K 
[TXT]Chapter 8 Budgeting For Planning And Control2011-08-15T08:26:00+00:00 25 K 
[TXT]Chapter 6 History Alive Early English Settlements2011-08-15T19:59:00+00:00 17 K 
[TXT]Chapter10 Test Algebra 1 Answers Mcdougal California2011-08-16T07:32:00+00:00 20 K 
[TXT]Chapter 12 Answers Finneytown2011-08-16T19:05:00+00:00 23 K 
[TXT]Chapter 12 2 Arc And Angle2011-08-17T06:38:00+00:00 17 K 
[TXT]Chapter 9 Resource Masters2011-08-17T18:11:00+00:00 23 K 
[TXT]Chapter 12 The American Labor Force Rasco2011-08-18T05:44:00+00:00 23 K 
[TXT]Chapter 2 The Microprocessor And Its Architecture2011-08-18T17:17:00+00:00 20 K 
[TXT]Chapter 35 Nervous System Graphic Organizer2011-08-19T04:50:00+00:00 18 K 
[TXT]Chapter 7 Networking And Security Kean University2011-08-19T16:23:00+00:00 21 K 
[TXT]Chapter I California State University2011-08-20T03:56:00+00:00 23 K 
[TXT]Chapter Thirty Five Antarctica2011-08-20T15:29:00+00:00 22 K 
[TXT]Chapter 3 Proving Statements In Geometry Jmap2011-08-21T03:02:00+00:00 22 K 
[TXT]Chapter Assessment 332011-08-21T14:35:00+00:00 23 K 
[TXT]Chapter 38 Angiosperm Reproduction And Biotechnology2011-08-22T02:08:00+00:00 20 K 
[TXT]Class 12 Chemistry Notes For Solutions Chapter2011-08-22T13:41:00+00:00 25 K 
[TXT]Crow Country Chapter Summaries2011-08-23T01:14:00+00:00 24 K 
[TXT]Chapter 9 Motivation And Emotion2011-08-23T12:47:00+00:00 25 K 
[TXT]Chapter 2 Solution University Of Rochester2011-08-24T00:20:00+00:00 20 K 
[TXT]Chapter 6 Study Questions Bonding2011-08-24T11:53:00+00:00 21 K 
[TXT]Chapter 9 The Algebraic Eigenvalue Problem2011-08-24T23:26:00+00:00 23 K 
[TXT]Chapter 9 Hyundai Snap On2011-08-25T10:59:00+00:00 22 K 
[TXT]Chapter 7 Project Manager Crime Time2011-08-25T22:32:00+00:00 17 K 
[TXT]Chapter 6 Review Chemical Bonding2011-08-26T10:05:00+00:00 17 K 
[TXT]Chapter 40 Answer Key2011-08-26T21:38:00+00:00 24 K 
[TXT]Chapter Nine Nd2011-08-27T09:11:00+00:00 23 K 
[TXT]Chapter 12 Selling Overview Landing2011-08-27T20:44:00+00:00 21 K 
[TXT]Chapter 3 Current Electricity Pradeep2011-08-28T08:17:00+00:00 24 K 
[TXT]Chasing Vermeer Chapter Summaries2011-08-28T19:50:00+00:00 19 K 
[TXT]Chapter 6 Multiple Choice Questions2011-08-29T07:23:00+00:00 22 K 
[TXT]Chapter 9 Of Journey Across Time2011-08-29T18:56:00+00:00 25 K 
[TXT]Chapter 35 Nervous System Vocabulary Review Answers2011-08-30T06:29:00+00:00 19 K 
[TXT]Chapter 37 Communities And Ecosystems Packet Answers2011-08-30T18:02:00+00:00 22 K 
[TXT]Chapter 5 Solutions Liquidram2011-08-31T05:35:00+00:00 20 K 
[TXT]Chemistry Notes Chapter 12011-08-31T17:08:00+00:00 17 K 
[TXT]Chapter By Summary On Shiloh Season2011-09-01T04:41:00+00:00 23 K 
[TXT]Chapter 11 Glencoe Geoemetry Test Form2011-09-01T16:14:00+00:00 17 K 
[TXT]Chapter 50 Sample Questions Answers Multiple Edoqs2011-09-02T03:47:00+00:00 23 K 
[TXT]Chapter Summary 16 Answers Mcgraw American Government2011-09-02T15:20:00+00:00 17 K 
[TXT]Chapter9 Test Algebra 1 Answers Mcdougal2011-09-03T02:53:00+00:00 19 K 
[TXT]Course 1 Chapter 8 Sixth Grade2011-09-03T14:26:00+00:00 19 K 
[TXT]Chapter 9 Linear Momentum And Collisions2011-09-04T01:59:00+00:00 24 K 
[TXT]Chapter 14 Bonds And Long Term Notes2011-09-04T13:32:00+00:00 24 K 
[TXT]Chapter 4 Relational Database Management System Mysql2011-09-05T01:05:00+00:00 24 K 
[TXT]Chapter 26 Sponges Cnidarians Flatworms And Roundworms2011-09-05T12:38:00+00:00 21 K 
[TXT]Chemistry Matter And Change Chapter Assessments2011-09-06T00:11:00+00:00 19 K 
[TXT]Carnegie Learning Vocabulary Chapter 92011-09-06T11:44:00+00:00 24 K 
[TXT]Chapters 1 5 The Trouble With Lemons2011-09-06T23:17:00+00:00 20 K 
[TXT]Chapter 10 Ppt Mano Kime 2Nd Ed2011-09-07T10:50:00+00:00 19 K 
[TXT]Chemistry The Central Science Chapter Review Questions2011-09-07T22:23:00+00:00 18 K 
[TXT]Chapter 5 Review Questions And Answers2011-09-08T09:56:00+00:00 25 K 
[TXT]Chapter 5 Transient Heat Conduction Analytical Methods2011-09-08T21:29:00+00:00 17 K 
[TXT]Chapters 14 Practice Advanced Mathematical Concepts2011-09-09T09:02:00+00:00 24 K 
[TXT]Chapter 2 Hierarchical Placement With Layout Constraints2011-09-09T20:35:00+00:00 25 K 
[TXT]Chapter 6 Discussion Questions2011-09-10T08:08:00+00:00 17 K 
[TXT]Chapter 8 Muscular System Mastery Test2011-09-10T19:41:00+00:00 22 K 
[TXT]Chapter 4 Answer Key Science With Simonson2011-09-11T07:14:00+00:00 23 K 
[TXT]Chapter Character Animation2011-09-11T18:47:00+00:00 22 K 
[TXT]Chapter Total Quality Management Wiley2011-09-12T06:20:00+00:00 20 K 
[TXT]Chapter 1 Introduction To Nde2011-09-12T17:53:00+00:00 17 K 
[TXT]Chapter Wise Weightage Physics In Junior Inter2011-09-13T05:26:00+00:00 18 K 
[TXT]Chapter 21 Fluid Power Cad Resources2011-09-13T16:59:00+00:00 20 K 
[TXT]Chapter 9 Quiz2011-09-14T04:32:00+00:00 19 K 
[TXT]Chapter 15 Questionnaire Design Cengage Learning2011-09-14T16:05:00+00:00 24 K 
[TXT]Chapter 24 Immune System And Disease Answers2011-09-15T03:38:00+00:00 23 K 
[TXT]Chapter 12 Investments2011-09-15T15:11:00+00:00 20 K 
[TXT]Concept Chapter 34 Mapping Circulation2011-09-16T02:44:00+00:00 22 K 
[TXT]Class 11 Physics Chapters Questions And Answers2011-09-16T14:17:00+00:00 24 K 
[TXT]Computer Organization And Design Solution Chapter32011-09-17T01:50:00+00:00 17 K 
[TXT]Chapter 15 The Respiratory System Teacher2011-09-17T13:23:00+00:00 22 K 
[TXT]Chapter 15 Leading Change2011-09-18T00:56:00+00:00 18 K 
[TXT]Chapter 2 Download2011-09-18T12:29:00+00:00 20 K 
[TXT]Chapter Notes For Prentice Hall Economics2011-09-19T00:02:00+00:00 20 K 
[TXT]Chapter 3 Methods Of Analysis2011-09-19T11:35:00+00:00 25 K 
[TXT]Call Of The Wild Answers Chapter 22011-09-19T23:08:00+00:00 19 K 
[TXT]Chapter 2 Wye Delta Transformations2011-09-20T10:41:00+00:00 25 K 
[TXT]Chapter 4 Arts2011-09-20T22:14:00+00:00 19 K 
[TXT]Chapter 1 Study Questions With Answers2011-09-21T09:47:00+00:00 17 K 
[TXT]Cells And Heredity Answer Key Chapter 42011-09-21T21:20:00+00:00 20 K 
[TXT]Chapter 5 Lesson 9 Temperature Change2011-09-22T08:53:00+00:00 22 K 
[TXT]Chapter Three Caritas University2011-09-22T20:26:00+00:00 19 K 
[TXT]Chapter 4 An Introduction To Chemical Reactions2011-09-23T07:59:00+00:00 19 K 
[TXT]Chapter 8 Test Ccss Math 12011-09-23T19:32:00+00:00 22 K 
[TXT]Chapter 11 Classification Vocabulary Review2011-09-24T07:05:00+00:00 17 K 
[TXT]Chapter 13 Sat Act Test2011-09-24T18:38:00+00:00 19 K 
[TXT]Chapter 17 Reflection And Refraction2011-09-25T06:11:00+00:00 23 K 
[TXT]Chapter 9 Carbon Chemistry Wordwise2011-09-25T17:44:00+00:00 23 K 
[TXT]Chapter One Scholastic2011-09-26T05:17:00+00:00 25 K 
[TXT]Chapter 5 Section 1 Quiz Anwers2011-09-26T16:50:00+00:00 19 K 
[TXT]Chapter19 International Trade Finance2011-09-27T04:23:00+00:00 18 K 
[TXT]Chapter 5 Practice Exam Work And Energy2011-09-27T15:56:00+00:00 25 K 
[TXT]Chapter One Purchasing And Supply Management2011-09-28T03:29:00+00:00 21 K 
[TXT]Chapter 5 32011-09-28T15:02:00+00:00 21 K 
[TXT]Chapter 3 Biochemistry Notes Bulldog Biology2011-09-29T02:35:00+00:00 19 K 
[TXT]Chemistry Chapter Wise2011-09-29T14:08:00+00:00 19 K 
[TXT]Chapter Test The Cell In Action2011-09-30T01:41:00+00:00 19 K 
[TXT]Chapter Vector Mechanics For Engineers 13Dynamics2011-09-30T13:14:00+00:00 22 K 
[TXT]Chapter Ii Review Of Related Literature2011-10-01T00:47:00+00:00 24 K 
[TXT]Chapter 4 Pay Administration Usps Com2011-10-01T12:20:00+00:00 18 K 
[TXT]Chapter 6 Prantice Hall Foundations Geometry Workbook2011-10-01T23:53:00+00:00 23 K 
[TXT]Chapter 1 Pk Sinha2011-10-02T11:26:00+00:00 21 K 
[TXT]Chapter 12 Quiz 1A Answers2011-10-02T22:59:00+00:00 19 K 
[TXT]Chapter Test The American Revolution Answer Key2011-10-03T10:32:00+00:00 17 K 
[TXT]Chapter 1 Understanding Investments2011-10-03T22:05:00+00:00 25 K 
[TXT]Chapter 9 Dataflow Diagrams Edward Yourdon2011-10-04T09:38:00+00:00 19 K 
[TXT]Chapter 19 Acids Bases And Salts2011-10-04T21:11:00+00:00 20 K 
[TXT]Chapter Test 7 Nutrition For Life Answers2011-10-05T08:44:00+00:00 25 K 
[TXT]Chapter 73 Ase Answers2011-10-05T20:17:00+00:00 21 K 
[TXT]Chapters 1 2 Home2011-10-06T07:50:00+00:00 20 K 
[TXT]Chapter 9 Math Link Introduction Mcgraw Hill2011-10-06T19:23:00+00:00 19 K 
[TXT]Chapter 37 Respiration Circulation And Excretion Answers2011-10-07T06:56:00+00:00 17 K 
[TXT]Chapters In Diesel Trade Theory N22011-10-07T18:29:00+00:00 23 K 
[TXT]Chapter 41 Soups Stews And Sauces Answers2011-10-08T06:02:00+00:00 22 K 
[TXT]Cumulative Review Chapters 1 7 Answers Geometry2011-10-08T17:35:00+00:00 22 K 
[TXT]Chapter Review Motion Packet Answers2011-10-09T05:08:00+00:00 23 K 
[TXT]Chapter 2 Solid State Chemistry2011-10-09T16:41:00+00:00 25 K 
[TXT]Chapter Three Research Methodology2011-10-10T04:14:00+00:00 19 K 
[TXT]Chapter 5 Complex Numbers And Quadratic Equations2011-10-10T15:47:00+00:00 20 K 
[TXT]Chapter 01 Environmental Interrelationships2011-10-11T03:20:00+00:00 24 K 
[TXT]Chapter Test Biologygmh Com2011-10-11T14:53:00+00:00 22 K 
[TXT]Chapter 4 Systems Design Process Costing2011-10-12T02:26:00+00:00 21 K 
[TXT]Chapter 4 Physical Properties Of Materials2011-10-12T13:59:00+00:00 24 K 
[TXT]Chapter68 The Rectum Bailey And Love2011-10-13T01:32:00+00:00 17 K 
[TXT]Chapter 23 Section 1 Comparative Economics2011-10-13T13:05:00+00:00 17 K 
[TXT]Chapter 6 Test Form 2C2011-10-14T00:38:00+00:00 18 K 
[TXT]Chapter 11 The Urinary System2011-10-14T12:11:00+00:00 19 K 
[TXT]Chapter 16 Answer Key2011-10-14T23:44:00+00:00 20 K 
[TXT]Chapter 119 Diary Of Zulu Girl2011-10-15T11:17:00+00:00 23 K 
[TXT]Chapter 5 All About Motherboards2011-10-15T22:50:00+00:00 18 K 
[TXT]Chapter 2 Job Order Costing Mcgraw Hill2011-10-16T10:23:00+00:00 21 K 
[TXT]Chapter 12 Monopolistic Competition And Oligopoly2011-10-16T21:56:00+00:00 21 K 
[TXT]Chapter 16 Statement Of Cash Flows2011-10-17T09:29:00+00:00 22 K 
[TXT]Chapter 20 Socioemotional Development In Late Adulthood2011-10-17T21:02:00+00:00 23 K 
[TXT]California Physical Science Answers Chapter 132011-10-18T08:35:00+00:00 21 K 
[TXT]Chemical Equations And Reactions Assessment Chapter Test2011-10-18T20:08:00+00:00 22 K 
[TXT]Chapter 14 The History Of Life2011-10-19T07:41:00+00:00 25 K 
[TXT]Chemistry Concepts And Applications Answers Chapter 122011-10-19T19:14:00+00:00 25 K 
[TXT]Chapter 12 Lecture Notes Carbohydrates Saddleback College2011-10-20T06:47:00+00:00 21 K 
[TXT]Chapter Light Book 2 Science Workbook2011-10-20T18:20:00+00:00 21 K 
[TXT]Chapter Assessments Physics Principles Answers2011-10-21T05:53:00+00:00 19 K 
[TXT]Chapter 28 Arthropods And Echinoderms Se2011-10-21T17:26:00+00:00 24 K 
[TXT]Chapter9 Prospective Analysis Solution2011-10-22T04:59:00+00:00 22 K 
[TXT]Chapter Questions And Answers For Maniac Magee2011-10-22T16:32:00+00:00 17 K 
[TXT]Chemistry Chaptervise Weightage For Hsc Board2011-10-23T04:05:00+00:00 20 K 
[TXT]Chapter 15 The Respiratory System2011-10-23T15:38:00+00:00 19 K 
[TXT]Chapter 22 Mcgraw Hill Ryerson2011-10-24T03:11:00+00:00 23 K 
[TXT]Chapter 10 Muscular System Gross Anatomy2011-10-24T14:44:00+00:00 19 K 
[TXT]Chapter 3 New Exercise Solutions2011-10-25T02:17:00+00:00 22 K 
[TXT]Chapter One Physical World2011-10-25T13:50:00+00:00 18 K 
[TXT]Chapter 55 Sample Questions Answers2011-10-26T01:23:00+00:00 18 K 
[TXT]Chapter 1 52011-10-26T12:56:00+00:00 18 K 
[TXT]Chapter 2 Atoms Ions And Compounds2011-10-27T00:29:00+00:00 23 K 
[TXT]Civilian Personnel Chapter 4302 Total Army Performance2011-10-27T12:02:00+00:00 17 K 
[TXT]Chapter 9 Test 372011-10-27T23:35:00+00:00 19 K 
[TXT]Chapter Inventory Management Multiple Choice Questions2011-10-28T11:08:00+00:00 23 K 
[TXT]Chapter 8 Profitability2011-10-28T22:41:00+00:00 18 K 
[TXT]Chapter Seventeen Electrochemistry Cengage2011-10-29T10:14:00+00:00 22 K 
[TXT]Ccna Discovery 2 Chapter5 Questions And Answers2011-10-29T21:47:00+00:00 17 K 
[TXT]Conceptual Physics Paul Hewitt Chapter 39 Answers2011-10-30T09:20:00+00:00 25 K 
[TXT]Chapter 15 Evoltion Test2011-10-30T20:53:00+00:00 23 K 
[TXT]Chapter Activity Based Costing By Karen Braun2011-10-31T08:26:00+00:00 21 K 
[TXT]Chapter Quadratic Equation Class 10 Ncert2011-10-31T19:59:00+00:00 20 K 
[TXT]Chapter15 Chapter Test Immigrants And Urbanization2011-11-01T07:32:00+00:00 20 K 
[TXT]Chapter 1 Introduction2011-11-01T19:05:00+00:00 19 K 
[TXT]Chapter 32 Plant Nutrition And Transport2011-11-02T06:38:00+00:00 25 K 
[TXT]Chapter 1 My Pentecostal Experience2011-11-02T18:11:00+00:00 25 K 
[TXT]Chapter 28 Handouts From Biology Book2011-11-03T05:44:00+00:00 19 K 
[TXT]Chapter 1 Introduction Mba Notes2011-11-03T17:17:00+00:00 24 K 
[TXT]Chemistry Holt Textbook Chapter 7 Review Answers2011-11-04T04:50:00+00:00 21 K 
[TXT]Chapter 2 Ten Words In Context2011-11-04T16:23:00+00:00 23 K 
[TXT]Chapter 02 Calculus With Analytics Geometry2011-11-05T03:56:00+00:00 18 K 
[TXT]Congruence And Similarity D2 Chapter 12011-11-05T15:29:00+00:00 19 K 
[TXT]Chapter 16 Electric Forces And Fields2011-11-06T03:02:00+00:00 20 K 
[TXT]Chapter 5 Wiley Solutions Exercises2011-11-06T14:35:00+00:00 18 K 
[TXT]Chapter 9 Radnor School District2011-11-07T02:08:00+00:00 23 K 
[TXT]Century 21 Sounth Western Accounting Chapters Test2011-11-07T13:41:00+00:00 22 K 
[TXT]Chapter 14Work Power Machines2011-11-08T01:14:00+00:00 24 K 
[TXT]Chapter Outline Prentice Hall American Government2011-11-08T12:47:00+00:00 25 K 
[TXT]Chapter 3 Fuel Injection Equipment Sagaforumet2011-11-09T00:20:00+00:00 19 K 
[TXT]Chaptersummariesof Boy Talesofchildhood Byroalddahl2011-11-09T11:53:00+00:00 17 K 
[TXT]Chapter Test B Chemical Reactions Answers2011-11-09T23:26:00+00:00 18 K 
[TXT]Chapter 8 Water Tanks Most2011-11-10T10:59:00+00:00 21 K 
[TXT]Chapter Test The Great Depression Begins2011-11-10T22:32:00+00:00 23 K 
[TXT]Chapter 2 Literature Review 1 Algae2011-11-11T10:05:00+00:00 18 K 
[TXT]Chapter 19 Lesson 12011-11-11T21:38:00+00:00 23 K 
[TXT]Chapter 16 Prokaryotes And Viruses2011-11-12T09:11:00+00:00 21 K 
[TXT]Chapter 13 Kinns Book2011-11-12T20:44:00+00:00 20 K 
[TXT]Chapter Assessment Physics Principles And Problems 202011-11-13T08:17:00+00:00 19 K 
[TXT]Chapter 13 Volume Clarkwork Com2011-11-13T19:50:00+00:00 21 K 
[TXT]Chapter Test Form K Algebra 22011-11-14T07:23:00+00:00 19 K 
[TXT]Circular Motion And Gravitation Chapter Test2011-11-14T18:56:00+00:00 17 K 
[TXT]Chapter8 Geometry Vocabulary Test Answer Key2011-11-15T06:29:00+00:00 17 K 
[TXT]Chapter 36 Biology The Muscular System Answers2011-11-15T18:02:00+00:00 22 K 
[TXT]Chapter Assessment Applying Scientific Methods Answer Key2011-11-16T05:35:00+00:00 20 K 
[TXT]Chapter 3 Test2011-11-16T17:08:00+00:00 20 K 
[TXT]Chapter 3 Test Ecology A2011-11-17T04:41:00+00:00 21 K 
[TXT]Chapter 1 Assessment Answer Key Form 2C2011-11-17T16:14:00+00:00 20 K 
[TXT]Conceptual Physics Chapter 32 Hewitt2011-11-18T03:47:00+00:00 22 K 
[TXT]Chapter 9 Mr Kennedy2011-11-18T15:20:00+00:00 19 K 
[TXT]Chapter 38 Section 1 Food And Nutrition2011-11-19T02:53:00+00:00 25 K 
[TXT]Chapter 2 Human Services Corrections2011-11-19T14:26:00+00:00 20 K 
[TXT]Chapter 13 Constitutional Freedoms Teacherweb2011-11-20T01:59:00+00:00 21 K 
[TXT]Class 12 Vistas Chapter The Enemy2011-11-20T13:32:00+00:00 18 K 
[TXT]Chapter 14 Accounting For Principles2011-11-21T01:05:00+00:00 23 K 
[TXT]Chapter 19 Concept Review Worksheet2011-11-21T12:38:00+00:00 22 K 
[TXT]Chapter 1 Amp 2 Management Information Systems2011-11-22T00:11:00+00:00 24 K 
[TXT]Chapter 7 Circular Motion And Gravitation2011-11-22T11:44:00+00:00 20 K 
[TXT]Chapter 19 Vocabulary Glencoe2011-11-22T23:17:00+00:00 21 K 
[TXT]Conceptual Physics Chapter 34 Assessment Answers2011-11-23T10:50:00+00:00 24 K 
[TXT]Chapter Summary On The French Pauvre Anne2011-11-23T22:23:00+00:00 22 K 
[TXT]Chapter 13 Investing Fundamentals University Of Utah2011-11-24T09:56:00+00:00 21 K 
[TXT]Chapter 13 Shipboard Damage Control Training2011-11-24T21:29:00+00:00 25 K 
[TXT]Chapter 19 Wrksht And Key2011-11-25T09:02:00+00:00 17 K 
[TXT]Chapter 10 Quiz Answer Key Pre Algebra2011-11-25T20:35:00+00:00 19 K 
[TXT]Chapter Wise Important Questions In Chemistry2011-11-26T08:08:00+00:00 18 K 
[TXT]Chapter 5 Textbook Answers File2011-11-26T19:41:00+00:00 23 K 
[TXT]Chapter 20 Waves2011-11-27T07:14:00+00:00 23 K 
[TXT]Chapter 1 Introduction Rmc Project Management2011-11-27T18:47:00+00:00 21 K 
[TXT]Conceptual Physical Science Explorations Chapter 312011-11-28T06:20:00+00:00 17 K 
[TXT]Chapter 1 Policy Ethics And Introduction Lexisnexis2011-11-28T17:53:00+00:00 18 K 
[TXT]Calculus 10Th Larson Chapters2011-11-29T05:26:00+00:00 23 K 
[TXT]Chapter 35 Nervous System Vocabulary Review Answer2011-11-29T16:59:00+00:00 17 K 
[TXT]Chapter 11 Operations Management2011-11-30T04:32:00+00:00 19 K 
[TXT]Chapter Test Form A Geometry Answers2011-11-30T16:05:00+00:00 20 K 
[TXT]Chapter 3 The Accounting Information System2011-12-01T03:38:00+00:00 21 K 
[TXT]Chapter 10 Enzyme Kinetics2011-12-01T15:11:00+00:00 22 K 
[TXT]Chapter 7 Solution2011-12-02T02:44:00+00:00 24 K 
[TXT]Chapter 4 Animal Kingdom Pradeep2011-12-02T14:17:00+00:00 25 K 
[TXT]Cimo Chapter 5 Review Answer Key2011-12-03T01:50:00+00:00 18 K 
[TXT]Chapter Test A2011-12-03T13:23:00+00:00 18 K 
[TXT]Chapter 4 Data Modeling2011-12-04T00:56:00+00:00 24 K 
[TXT]Chapter27 The Reproductive System Packet Answer Key2011-12-04T12:29:00+00:00 21 K 
[TXT]Chapter 3 Answers To Questions And Problems2011-12-05T00:02:00+00:00 23 K 
[TXT]Chapter 37 Medication Administration Safety2011-12-05T11:35:00+00:00 17 K 
[TXT]Chapter 31 Assisting With Office Ambulatory Surgery2011-12-05T23:08:00+00:00 19 K 
[TXT]Chapter 12 Time Series Models2011-12-06T10:41:00+00:00 19 K 
[TXT]Chapter 46 Board Of Pharmacy2011-12-06T22:14:00+00:00 25 K 
[TXT]Chapter 5 Mastory Answers College Accounting2011-12-07T09:47:00+00:00 22 K 
[TXT]Ccna1 Chapter1 Questions And Answers2011-12-07T21:20:00+00:00 23 K 
[TXT]Chapter 12 Nervous Tissue Rudman2011-12-08T08:53:00+00:00 23 K 
[TXT]Chapter5 Populations Vocabulary Review2011-12-08T20:26:00+00:00 19 K 
[TXT]Chapter 4 Review2011-12-09T07:59:00+00:00 19 K 
[TXT]Chapter 8 Internal Flow Department Of Mechanical2011-12-09T19:32:00+00:00 23 K 
[TXT]Chapter Test Yhsscience Net2011-12-10T07:05:00+00:00 19 K 
[TXT]Chapters In Economics Of Public Sector Stiglitz2011-12-10T18:38:00+00:00 21 K 
[TXT]Chapter 10 Area Of Polygons2011-12-11T06:11:00+00:00 24 K 
[TXT]Chapter 61 Urdu Doctoral Theses2011-12-11T17:44:00+00:00 17 K 
[TXT]Chapter 7 Review 28Pts2011-12-12T05:17:00+00:00 18 K 
[TXT]Chapter 18 The Special Courts2011-12-12T16:50:00+00:00 19 K 
[TXT]Chapter 3 Operations Management Academic Resources At2011-12-13T04:23:00+00:00 17 K 
[TXT]Conceptual Physics Paul Hewitt Chapter 12 Quiz2011-12-13T15:56:00+00:00 20 K 
[TXT]Chapter 7 Test Geometry Prentice Hall2011-12-14T03:29:00+00:00 25 K 
[TXT]Chapter 30 Fishes And Amphibians Glencoe2011-12-14T15:02:00+00:00 18 K 
[TXT]Chapter 3 Ancient Mesopotamia Geography Of2011-12-15T02:35:00+00:00 22 K 
[TXT]Chapter 17 Assesment Biology2011-12-15T14:08:00+00:00 20 K 
[TXT]Chapter 18 The Respiratory System Multiple Choice2011-12-16T01:41:00+00:00 23 K 
[TXT]Chapter 7 Solution 1 Download2011-12-16T13:14:00+00:00 19 K 
[TXT]Conceptual Physics Chapter 38 Answer2011-12-17T00:47:00+00:00 19 K 
[TXT]Chapter 12 Three Phase Controlled Rectifiers2011-12-17T12:20:00+00:00 22 K 
[TXT]Chapter 11 Geometry Test2011-12-17T23:53:00+00:00 21 K 
[TXT]Chapter 37 Electromagnetic Induction Exercises2011-12-18T11:26:00+00:00 20 K 
[TXT]Chapter 12 Test A2011-12-18T22:59:00+00:00 21 K 
[TXT]Chapter 8 Sound2011-12-19T10:32:00+00:00 25 K 
[TXT]Chapter 41 Apush Packet Answers Part Ii2011-12-19T22:05:00+00:00 17 K 
[TXT]Chapter Sine Wave Oscillators2011-12-20T09:38:00+00:00 21 K 
[TXT]Chapter 1 Aircraft Structures Faa2011-12-20T21:11:00+00:00 19 K 
[TXT]Chapter Test Cooter K12 Mo Us2011-12-21T08:44:00+00:00 20 K 
[TXT]Chapter 13 Fluid Mechanics Solved Examples2011-12-21T20:17:00+00:00 20 K 
[TXT]Chapter V Design Spillway2011-12-22T07:50:00+00:00 24 K 
[TXT]Chapter Test Work With Simple Machines Answers2011-12-22T19:23:00+00:00 18 K 
[TXT]Chapter Assessment Prueba 3B 1 Answer2011-12-23T06:56:00+00:00 18 K 
[TXT]Chemistry Atomic Structure Chapter Review Answers2011-12-23T18:29:00+00:00 18 K 
[TXT]Chemistry Chapter9 Review Answers2011-12-24T06:02:00+00:00 20 K 
[TXT]Chapter 4 Reading Organizer2011-12-24T17:35:00+00:00 24 K 
[TXT]Chapter4 Geometry Test Answer Key Pg 2882011-12-25T05:08:00+00:00 20 K 
[TXT]Chapter 14 Corporations Dividends Retained Earnings Ebooks2011-12-25T16:41:00+00:00 24 K 
[TXT]Chapter 1 Introduction To Supply Chain Management2011-12-26T04:14:00+00:00 22 K 
[TXT]Chapter 10 Infancy And Childhood2011-12-26T15:47:00+00:00 21 K 
[TXT]Chapter 22 Electromagnetic Waves Answers To Questions2011-12-27T03:20:00+00:00 17 K 
[TXT]Chapter 17 Statement Of Cash Flows Ebooks2011-12-27T14:53:00+00:00 24 K 
[TXT]Cima P3 Astranti Chapters 3 And 42011-12-28T02:26:00+00:00 22 K 
[TXT]Chapter 5 Soaps And Detergents Kfupm2011-12-28T13:59:00+00:00 20 K 
[TXT]Chapter 18 The Electromagnetic Spectrum And Light2011-12-29T01:32:00+00:00 24 K 
[TXT]Chapter 1 Accounting The Language Of Business2011-12-29T13:05:00+00:00 23 K 
[TXT]Chapter Six Practical Application2011-12-30T00:38:00+00:00 17 K 
[TXT]Chapter 9 Legal Capacity To Contract2011-12-30T12:11:00+00:00 18 K 
[TXT]Chapter 3 Biological Evolution Classification Answer Key2011-12-30T23:44:00+00:00 21 K 
[TXT]Chapter 21 Man Managerial Accounting2011-12-31T11:17:00+00:00 19 K 
[TXT]Chapter 3 Morphology Supplemental Exercises2011-12-31T22:50:00+00:00 21 K 
[TXT]Chapter 5 Ups Theory2012-01-01T10:23:00+00:00 17 K 
[TXT]Cpt Chapter Wise Notes2012-01-01T21:56:00+00:00 23 K 
[TXT]Chapter 5 Multiple Choice Questions2012-01-02T09:29:00+00:00 24 K 
[TXT]Carnegie Learning Post Test Answers Chapter2012-01-02T21:02:00+00:00 21 K 
[TXT]Chapter 18 Ati Testing2012-01-03T08:35:00+00:00 23 K 
[TXT]Chapter 2 Curriculum Theory Development And2012-01-03T20:08:00+00:00 25 K 
[TXT]Chapter 10 Skill Test2012-01-04T07:41:00+00:00 17 K 
[TXT]Chapter 4 Exponential And Logarithmic Functions2012-01-04T19:14:00+00:00 17 K 
[TXT]Chapter 2 Solutions Pharmaceutical Press2012-01-05T06:47:00+00:00 20 K 
[TXT]Chapter 2 One Dimensional Steady State Conduction2012-01-05T18:20:00+00:00 21 K 
[TXT]Chapter36 The Skeletal System Review Answers2012-01-06T05:53:00+00:00 24 K 
[TXT]Chapter 9 Baye2012-01-06T17:26:00+00:00 21 K 
[TXT]Chapter 15 Characteristics Applications Processing Of2012-01-07T04:59:00+00:00 22 K 
[TXT]Chemistry Section 1 Review Answers Chapter 122012-01-07T16:32:00+00:00 25 K 
[TXT]Chapter 1 Basic Management Principles Iaap Athens2012-01-08T04:05:00+00:00 24 K 
[TXT]Chapter 7 Audit Evidence Questions2012-01-08T15:38:00+00:00 20 K 
[TXT]Chapter 11 Motion Section 3 Acceleration2012-01-09T03:11:00+00:00 20 K 
[TXT]Chapter 3 Consumer Behavior2012-01-09T14:44:00+00:00 23 K 
[TXT]Chapter 10 The Passive Azargrammar Com2012-01-10T02:17:00+00:00 17 K 
[TXT]Chapter 11 Autonomic Nervous System Multiple Choice2012-01-10T13:50:00+00:00 25 K 
[TXT]Chapter 20 Numericals2012-01-11T01:23:00+00:00 23 K 
[TXT]Chapter Assessment Understanding Main Ideas Answers2012-01-11T12:56:00+00:00 25 K 
[TXT]Chapter 2 Chemistry Packet Key Teacherweb2012-01-12T00:29:00+00:00 21 K 
[TXT]Chapter Three Problem Solving2012-01-12T12:02:00+00:00 18 K 
[TXT]Chapter Iii Universiti Teknologi Malaysia2012-01-12T23:35:00+00:00 24 K 
[TXT]Chapter 5 Academic Computing Services2012-01-13T11:08:00+00:00 19 K 
[TXT]Chapter 21 Quantization Of Energy2012-01-13T22:41:00+00:00 18 K 
[TXT]Chapter Twelve Version A2012-01-14T10:14:00+00:00 17 K 
[TXT]Chapter And Unit Tests Psychology2012-01-14T21:47:00+00:00 23 K 
[TXT]Chapter Questions For Zoobreak2012-01-15T09:20:00+00:00 21 K 
[TXT]Chapter 5 Finite Difference Methods York University2012-01-15T20:53:00+00:00 21 K 
[TXT]Chapter Construction Equipment And Methods2012-01-16T08:26:00+00:00 24 K 
[TXT]Ccna Discovery 2 Chapter5 Questions A2012-01-16T19:59:00+00:00 18 K 
[TXT]Chapter 10 Measurement Of Matter2012-01-17T07:32:00+00:00 20 K 
[TXT]Chapter 7 Section 1 The Nominating Process2012-01-17T19:05:00+00:00 20 K 
[TXT]Chapter 21 Resource Chemical Reactions Glencoe2012-01-18T06:38:00+00:00 25 K 
[TXT]Chapter 12 Organizational Change And Development Jeritt2012-01-18T18:11:00+00:00 20 K 
[TXT]Chapter 6 Ati Testing2012-01-19T05:44:00+00:00 20 K 
[TXT]Chapter 1 Resource Masters2012-01-19T17:17:00+00:00 25 K 
[TXT]Cell Processes And Energy Chapter Test Key2012-01-20T04:50:00+00:00 23 K 
[TXT]Chapter 13 Monopolistic Competition And Oligopoly Solutions2012-01-20T16:23:00+00:00 24 K 
[TXT]Chapter 8 Resource Masters Farragut Career Academy2012-01-21T03:56:00+00:00 24 K 
[TXT]Chapter 19 Interference And Diffraction2012-01-21T15:29:00+00:00 18 K 
[TXT]Chapter 5 Process Scheduling2012-01-22T03:02:00+00:00 21 K 
[TXT]Chapter 8 Identity2012-01-22T14:35:00+00:00 24 K 
[TXT]Chapter 26 Cabacitance Solutions Of Selected Problems2012-01-23T02:08:00+00:00 17 K 
[TXT]Chapter 16 Biology Test2012-01-23T13:41:00+00:00 25 K 
[TXT]Cumulative Review Chapters 1 6 Answers Algebra2012-01-24T01:14:00+00:00 19 K 
[TXT]Chapter 2 Solutions Pradeep2012-01-24T12:47:00+00:00 24 K 
[TXT]Chapter 8 Discussion Questions Rutgers2012-01-25T00:20:00+00:00 25 K 
[TXT]Chapter Echinoderms Doocument Com2012-01-25T11:53:00+00:00 18 K 
[TXT]Chapter 15 Answer Key Immigrants And Urbanization2012-01-25T23:26:00+00:00 21 K 
[TXT]Chapter 6 Policies And Policy Types Summary2012-01-26T10:59:00+00:00 24 K 
[TXT]Chapter 22 Plant Diversity Se2012-01-26T22:32:00+00:00 22 K 
[TXT]Chapter 12 Section 22012-01-27T10:05:00+00:00 23 K 
[TXT]Chapter One Introduction To Investing And Valuation2012-01-27T21:38:00+00:00 22 K 
[TXT]Chapter 15 Test Bank Higher Education Learning2012-01-28T09:11:00+00:00 24 K 
[TXT]Chapter 3 World Geography2012-01-28T20:44:00+00:00 24 K 
[TXT]Chapter 5 Solutions Matlab2012-01-29T08:17:00+00:00 23 K 
[TXT]Chapter 6 Production2012-01-29T19:50:00+00:00 22 K 
[TXT]Chapter 17 Waves2012-01-30T07:23:00+00:00 20 K 
[TXT]Chapter 6 Graphics Digital Media And Multimedia2012-01-30T18:56:00+00:00 18 K 
[TXT]Chapter 21 The Global Economy Rasco2012-01-31T06:29:00+00:00 20 K 
[TXT]Chapter 11 Answers Finneytown2012-01-31T18:02:00+00:00 21 K 
[TXT]Chapter V Up2012-02-01T05:35:00+00:00 21 K 
[TXT]Chapter 18 Body Hair Asstr2012-02-01T17:08:00+00:00 23 K 
[TXT]Chapter 35 Basic Pharmacology Answers2012-02-02T04:41:00+00:00 21 K 
[TXT]Chapter 13 Section 2 Volcanic Eruption2012-02-02T16:14:00+00:00 24 K 
[TXT]Corporate Finance Quiz Berk Demarzo Solutions Chapter102012-02-03T03:47:00+00:00 18 K 
[TXT]Chemical Reactions Equations Chapter 1 Welcome To2012-02-03T15:20:00+00:00 21 K 
[TXT]Cbse Xi Biology Chapterwise Mark Distribution 20142012-02-04T02:53:00+00:00 22 K 
[TXT]Chapter 20 Biotechnology2012-02-04T14:26:00+00:00 17 K 
[TXT]Chapter 3 Ratio Analysis2012-02-05T01:59:00+00:00 20 K 
[TXT]Chapter 6 Practice Questions Pageout2012-02-05T13:32:00+00:00 24 K 
[TXT]Chapter 6 Worksheet Jan Rasmussen2012-02-06T01:05:00+00:00 21 K 
[TXT]Chapters 6 10 Resources Glencoe2012-02-06T12:38:00+00:00 18 K 
[TXT]Chapter 6 Answers Catawba County Schools2012-02-07T00:11:00+00:00 24 K 
[TXT]Chapter 1 Solutions Harvard University Download2012-02-07T11:44:00+00:00 20 K 
[TXT]Cost Accounting Solution Chapter 5 By Mitz2012-02-07T23:17:00+00:00 21 K 
[TXT]Chapter 8 Multiple Choice Questions2012-02-08T10:50:00+00:00 22 K 
[TXT]Chapter Wise Biology 12 Mcq Question2012-02-08T22:23:00+00:00 20 K 
[TXT]Chapter 9 Free Falling Answer Key2012-02-09T09:56:00+00:00 22 K 
[TXT]Chapter Answer For Things Fall Apart2012-02-09T21:29:00+00:00 18 K 
[TXT]Chem 121 Chapter 14 Name2012-02-10T09:02:00+00:00 18 K 
[TXT]Chapter 13 Applied Genetics2012-02-10T20:35:00+00:00 19 K 
[TXT]Chapter 2 Linear Waveshaping High Pass Circuits2012-02-11T08:08:00+00:00 24 K 
[TXT]Chapter Assessment Answers Work And Power2012-02-11T19:41:00+00:00 24 K 
[TXT]Chapter 8 Agreement Subject Verb2012-02-12T07:14:00+00:00 18 K 
[TXT]Chapter9 Test Algebra 2 Answers Larson2012-02-12T18:47:00+00:00 23 K 
[TXT]Chapter 10 Workbook Answers2012-02-13T06:20:00+00:00 21 K 
[TXT]Class 9 Sst Chapter2012-02-13T17:53:00+00:00 23 K 
[TXT]Chapter 6 Persuasive Essay Student Journey Press2012-02-14T05:26:00+00:00 17 K 
[TXT]Chapter 8 Inventories Measurement New Learning2012-02-14T16:59:00+00:00 23 K 
[TXT]Chapter 12 Dna And Rna2012-02-15T04:32:00+00:00 18 K 
[TXT]Chapter Seven Review Answers Dave Ramsey2012-02-15T16:05:00+00:00 22 K 
[TXT]Contemporary Economics Chapter Assessment Answers2012-02-16T03:38:00+00:00 19 K 
[TXT]Chapter 19 Real Time Systems Yale University2012-02-16T15:11:00+00:00 24 K 
[TXT]Chapter 15 Asce Penstock2012-02-17T02:44:00+00:00 18 K 
[TXT]Chapter 4 Entity Relationship Er Data Modelling2012-02-17T14:17:00+00:00 17 K 
[TXT]Chapter 36 The Skeletal System Answer Key2012-02-18T01:50:00+00:00 17 K 
[TXT]Chapter 8 3 Biologie2012-02-18T13:23:00+00:00 22 K 
[TXT]Cumulative Practice Chapters 1 3 Answers2012-02-19T00:56:00+00:00 23 K 
[TXT]Chapter 49 Nervous Systems Biology Junction2012-02-19T12:29:00+00:00 17 K 
[TXT]Chapter 9 Patterns Of Inheritance2012-02-20T00:02:00+00:00 25 K 
[TXT]Crane And Matten Business Ethics Chapters2012-02-20T11:35:00+00:00 21 K 
[TXT]Charlie And The Chocolate Factorychapter Questions2012-02-20T23:08:00+00:00 22 K 
[TXT]Chapter 13 Review Solutions2012-02-21T10:41:00+00:00 18 K 
[TXT]Chapter 4 Short Columns Most2012-02-21T22:14:00+00:00 19 K 
[TXT]Chapter 3 Matter Properties And Changes2012-02-22T09:47:00+00:00 25 K 
[TXT]Chapter Review Electroics And Computers Answer Key2012-02-22T21:20:00+00:00 23 K 
[TXT]Chapter 12 Motion Problems2012-02-23T08:53:00+00:00 25 K 
[TXT]Chapter 2 Motion Mcgraw Hill2012-02-23T20:26:00+00:00 19 K 
[TXT]Chapter Quiz Practice Of Statistics Answers2012-02-24T07:59:00+00:00 19 K 
[TXT]Chapter 13 Mollusks Worms Arthropods Echinoderms2012-02-24T19:32:00+00:00 17 K 
[TXT]Chapter 7 Quiz Answer Key2012-02-25T07:05:00+00:00 21 K 
[TXT]Chapter 13 Cumalative Test Algerbra 22012-02-25T18:38:00+00:00 22 K 
[TXT]Chapter 02 Administration Texas Tech University2012-02-26T06:11:00+00:00 25 K 
[TXT]Chapter 1 Our Digital Planet Quegrande Org2012-02-26T17:44:00+00:00 20 K 
[TXT]Chapter 7 Section 4 Quiz2012-02-27T05:17:00+00:00 23 K 
[TXT]Chapter 1 Answer Key Gold Coast Schools2012-02-27T16:50:00+00:00 23 K 
[TXT]Chapter 15 Solution 2142012-02-28T04:23:00+00:00 25 K 
[TXT]Chapter 10 Test C2012-02-28T15:56:00+00:00 21 K 
[TXT]Chapter Database Projects2012-02-29T03:29:00+00:00 23 K 
[TXT]Chapter 1 Quiz Answers2012-02-29T15:02:00+00:00 22 K 
[TXT]Chapter 17 Ecosystems2012-03-01T02:35:00+00:00 22 K 
[TXT]Chemistry Chapter Assessment Answers2012-03-01T14:08:00+00:00 20 K 
[TXT]Chapter Assessment Answer Key2012-03-02T01:41:00+00:00 24 K 
[TXT]Chapter 32 Electrostatics Matching Quiz Mrgonzo2012-03-02T13:14:00+00:00 21 K 
[TXT]Century 21 Southwestern Accounting Chapter 26 Answers2012-03-03T00:47:00+00:00 21 K 
[TXT]Century 21 Accounting Chapter 14 Test B2012-03-03T12:20:00+00:00 25 K 
[TXT]Chapter 3 Review Of Basic Vacuum Calculations2012-03-03T23:53:00+00:00 21 K 
[TXT]Chapter 13 States Of Matter2012-03-04T11:26:00+00:00 18 K 
[TXT]Chapter 6 Problem 22012-03-04T22:59:00+00:00 22 K 
[TXT]Chapter 7 Skeletal System2012-03-05T10:32:00+00:00 22 K 
[TXT]Chapter Vocabulary Review Answers Key2012-03-05T22:05:00+00:00 18 K 
[TXT]Chapter 17 Process Costing Systems2012-03-06T09:38:00+00:00 18 K 
[TXT]Chapter 19 Test Form B2012-03-06T21:11:00+00:00 18 K 
[TXT]Chapter 13 Limits And Derivatives2012-03-07T08:44:00+00:00 20 K 
[TXT]Chapter 43 Answer Key2012-03-07T20:17:00+00:00 20 K 
[TXT]Chapter 1 Mcgraw Hill2012-03-08T07:50:00+00:00 18 K 
[TXT]Chapter 22 Organic Chemistry2012-03-08T19:23:00+00:00 17 K 
[TXT]Chapter 7 Answers Scarsdale Schools2012-03-09T06:56:00+00:00 20 K 
[TXT]Chapter 11 Digital Image Processing Jensen2012-03-09T18:29:00+00:00 21 K 
[TXT]Chapter 20 Reinforcement And Vocabulary2012-03-10T06:02:00+00:00 20 K 
[TXT]Chapter 10 Super Summery Section 12012-03-10T17:35:00+00:00 21 K 
[TXT]Chapter 3 Fluid Statics University Of Iowa2012-03-11T05:08:00+00:00 25 K 
[TXT]Chapter 4 Cost Volume Profit Analysis2012-03-11T16:41:00+00:00 25 K 
[TXT]Chapter 4 Academic Computing Services2012-03-12T04:14:00+00:00 20 K 
[TXT]Chapter Working Capital 10 Acorn Live2012-03-12T15:47:00+00:00 20 K 
[TXT]Chapter 19 Section 1 Protists Answer Key2012-03-13T03:20:00+00:00 22 K 
[TXT]Chapter 09 Plant And Intagible Assets2012-03-13T14:53:00+00:00 18 K 
[TXT]Cbse Class 12 English Chapters Summary2012-03-14T02:26:00+00:00 19 K 
[TXT]Chem 121 Chapter 152012-03-14T13:59:00+00:00 17 K 
[TXT]Chapter 19 Blood Vessels Lecture 42012-03-15T01:32:00+00:00 24 K 
[TXT]Chapter 11 Form C2012-03-15T13:05:00+00:00 25 K 
[TXT]Creating America Chapter 19 Test2012-03-16T00:38:00+00:00 23 K 
[TXT]Chapter 4 Answers For Online Exercises Cengage2012-03-16T12:11:00+00:00 19 K 
[TXT]Chapter 13 Course 1 Science Interactions2012-03-16T23:44:00+00:00 23 K 
[TXT]Chemistrymc Com Chapter Assessment Answers 152012-03-17T11:17:00+00:00 18 K 
[TXT]Chapter 34 Assessment Biology Answers2012-03-17T22:50:00+00:00 23 K 
[TXT]Chapter17 Mechanical Waves And Sound Answers2012-03-18T10:23:00+00:00 23 K 
[TXT]Chapter 21 Physical Properties Of Gases Wikispaces2012-03-18T21:56:00+00:00 22 K 
[TXT]Chapter21 Fungi Answer2012-03-19T09:29:00+00:00 25 K 
[TXT]Chapter 12 Free Response Test B2012-03-19T21:02:00+00:00 20 K 
[TXT]Chapter 6 Fluid Mechanics Palomar2012-03-20T08:35:00+00:00 19 K 
[TXT]Circulation In Humans Chapter 34 Answer Key2012-03-20T20:08:00+00:00 17 K 
[TXT]Chapter I Central Board Of Secondary Education2012-03-21T07:41:00+00:00 21 K 
[TXT]Chapter Completing The Accounting Cycle2012-03-21T19:14:00+00:00 20 K 
[TXT]Chapter 38 Digestive And Excretory Systems Assessment2012-03-22T06:47:00+00:00 20 K 
[TXT]Chapter The Cost Of Capital2012-03-22T18:20:00+00:00 25 K 
[TXT]Chapter 5 Problem Correction2012-03-23T05:53:00+00:00 21 K 
[TXT]Chapter 19 The Second Law Of Thermodynamics2012-03-23T17:26:00+00:00 20 K 
[TXT]Chapter 31 History Roaring Twenties Answers2012-03-24T04:59:00+00:00 20 K 
[TXT]Chapter 20 Aluminum2012-03-24T16:32:00+00:00 25 K 
[TXT]Chapter 7 Consumer Behavior Introduction2012-03-25T04:05:00+00:00 24 K 
[TXT]Cost Accounting Hansen Mowen Chapter 9 Solutions2012-03-25T15:38:00+00:00 24 K 
[TXT]Chapter 20 Biotechnology Biology Junction2012-03-26T03:11:00+00:00 25 K 
[TXT]Chapter 31 Vital Signs Answer Key Bing2012-03-26T14:44:00+00:00 23 K 
[TXT]Conceptual Physics Practice Page Chapter 8 Answers2012-03-27T02:17:00+00:00 19 K 
[TXT]Chemistry Chapter Colligative Properties Quiz Key2012-03-27T13:50:00+00:00 19 K 
[TXT]Chapter 4 Mastery Test B2012-03-28T01:23:00+00:00 19 K 
[TXT]Chapter Nine Lesson Checkpoint2012-03-28T12:56:00+00:00 20 K 
[TXT]Chapter 33 America In Today S World2012-03-29T00:29:00+00:00 22 K 
[TXT]Chapter 6 Constructing And Grading Tests2012-03-29T12:02:00+00:00 20 K 
[TXT]Chapter 5 Geometry Barrington High School2012-03-29T23:35:00+00:00 19 K 
[TXT]Cosmos Complete Solutions Manual Chapter 22012-03-30T11:08:00+00:00 21 K 
[TXT]Chapter 4 Solution Design Binus University2012-03-30T22:41:00+00:00 17 K 
[TXT]Chapter Five Asu Commandos2012-03-31T10:14:00+00:00 21 K 
[TXT]Chapter 6 Testbank Klein2012-03-31T21:47:00+00:00 19 K 
[TXT]Chapter 3 Financial Markets Instruments And Institutions2012-04-01T09:20:00+00:00 18 K 
[TXT]Chapter 3 Network Protocols And Communications2012-04-01T20:53:00+00:00 19 K 
[TXT]Chapter 31 Reptiles And Birds Pearson Answers2012-04-02T08:26:00+00:00 17 K 
[TXT]Chapter 34 Animal Behavior Vocabulary Review Answers2012-04-02T19:59:00+00:00 24 K 
[TXT]Chinese Cinderella Chapter Summary2012-04-03T07:32:00+00:00 18 K 
[TXT]Chapter 6 The Skeletal System Multiple Choice2012-04-03T19:05:00+00:00 20 K 
[TXT]Chapter 26 Energy Resources Pace High School2012-04-04T06:38:00+00:00 17 K 
[TXT]Chapter Solutions Operations Management2012-04-04T18:11:00+00:00 19 K 
[TXT]Chapter 7 Diagnosis And Psychiatry Examination Of2012-04-05T05:44:00+00:00 25 K 
[TXT]Chapter 25 Answer2012-04-05T17:17:00+00:00 21 K 
[TXT]Chapter 8 The Transportation And Assignment Problems2012-04-06T04:50:00+00:00 22 K 
[TXT]Chapter 6 Chemical Bonds Wordwise Answer Key2012-04-06T16:23:00+00:00 25 K 
[TXT]Chapter Test 8 Schoolrack2012-04-07T03:56:00+00:00 17 K 
[TXT]Chapter 25 2 History2012-04-07T15:29:00+00:00 17 K 
[TXT]Chapter Wise Assignments For Iit Jee2012-04-08T03:02:00+00:00 19 K 
[TXT]Chapter 1 2 Management Information Systems2012-04-08T14:35:00+00:00 17 K 
[TXT]Chapter12 Quiz Algebra 1 Answers Mcdougal2012-04-09T02:08:00+00:00 24 K 
[TXT]Chapter 1 Healthy People 2020 Test Bank2012-04-09T13:41:00+00:00 17 K 
[TXT]Chapter Review Electricity Glencoe2012-04-10T01:14:00+00:00 17 K 
[TXT]Class 10 Cbse Ncert Solutions Chapter 42012-04-10T12:47:00+00:00 22 K 
[TXT]Chapter 13 Section 2 Forest Biomes Quiz2012-04-11T00:20:00+00:00 19 K 
[TXT]Chapter 17 Human Resource Management Resources2012-04-11T11:53:00+00:00 19 K 
[TXT]Chapter Assessment Angelfire2012-04-11T23:26:00+00:00 24 K 
[TXT]Chapter 14 The Great Depression Begins2012-04-12T10:59:00+00:00 23 K 
[TXT]Chapter Of Department Account2012-04-12T22:32:00+00:00 25 K 
[TXT]Chapter 22 Hydrocarbons2012-04-13T10:05:00+00:00 19 K 
[TXT]Chapter 2 Ileap Math Grade 72012-04-13T21:38:00+00:00 25 K 
[TXT]Chapter 11 Stoichiometry2012-04-14T09:11:00+00:00 20 K 
[TXT]Chapter 40 Nuclear Fission And Fusion Answers2012-04-14T20:44:00+00:00 20 K 
[TXT]Chapter 2 Brooding And Brooder Pens2012-04-15T08:17:00+00:00 21 K 
[TXT]Chapter 37 Respiration Circulation And Excretion Crossword2012-04-15T19:50:00+00:00 23 K 
[TXT]Chapter Review Holt Chemistry Answer Key2012-04-16T07:23:00+00:00 21 K 
[TXT]Cfin 3 Chapter 92012-04-16T18:56:00+00:00 24 K 
[TXT]Chapter 21 Social Interaction2012-04-17T06:29:00+00:00 23 K 
[TXT]Chapter 1 Introduction To Optimization2012-04-17T18:02:00+00:00 20 K 
[TXT]Chapter 14 Punctuation Choices Examining Marks2012-04-18T05:35:00+00:00 25 K 
[TXT]Chapter 9 Accounting For Receivables Edoqs2012-04-18T17:08:00+00:00 18 K 
[TXT]Chapter 8 Right Triangles And Trigonometry2012-04-19T04:41:00+00:00 21 K 
[TXT]Chapter 14 Noun Clauses Azargrammar Com2012-04-19T16:14:00+00:00 18 K 
[TXT]Chapter 31 Atomic Physics Riverdale High School2012-04-20T03:47:00+00:00 17 K 
[TXT]Chapter 10 Radiation Detection Methods Ksu2012-04-20T15:20:00+00:00 17 K 
[TXT]Chapter 5 Instructor Manual2012-04-21T02:53:00+00:00 24 K 
[TXT]Chapter 2 Research Design Unisa2012-04-21T14:26:00+00:00 25 K 
[TXT]Chapter 13 Section 22012-04-22T01:59:00+00:00 17 K 
[TXT]Chapter 2 The Hypothyroidism Solution2012-04-22T13:32:00+00:00 25 K 
[TXT]Chapter 25 Financial Markets Palgrave Macmillan2012-04-23T01:05:00+00:00 18 K 
[TXT]Chapter 80 Maxilloacial Prosthetic Rehabilitation Of2012-04-23T12:38:00+00:00 17 K 
[TXT]Chapter 1 Introduction To Management Accounting2012-04-24T00:11:00+00:00 24 K 
[TXT]Chapter 32 Mammals Glencoe2012-04-24T11:44:00+00:00 19 K 
[TXT]Chapter 50 Fixed Prosthodontics Short Answer Questions2012-04-24T23:17:00+00:00 17 K 
[TXT]Chapter Of Solas About Fire2012-04-25T10:50:00+00:00 20 K 
[TXT]Chapter 10 Answers Finneytown2012-04-25T22:23:00+00:00 22 K 
[TXT]Chapter 01 Prescriptive Authority And Role Implementation2012-04-26T09:56:00+00:00 20 K 
[TXT]Chapter 18Branden And Tooze2012-04-26T21:29:00+00:00 19 K 
[TXT]Chapter 15 Assessment Answer Key2012-04-27T09:02:00+00:00 19 K 
[TXT]Chapter 18 Page 161 Answer Key2012-04-27T20:35:00+00:00 20 K 
[TXT]Chapter Test B Mollusks And Annelids2012-04-28T08:08:00+00:00 21 K 
[TXT]Chapter 12 Hydraulic And Pneumatic Power Systems2012-04-28T19:41:00+00:00 19 K 
[TXT]Chapter 37 Circulatory And Respiratory System Test2012-04-29T07:14:00+00:00 24 K 
[TXT]Chapter 48 Populations And Communities Answers2012-04-29T18:47:00+00:00 24 K 
[TXT]Chapter 7 Evaluating Information Validity Reliability2012-04-30T06:20:00+00:00 24 K 
[TXT]Chapter Summaries Frindle2012-04-30T17:53:00+00:00 21 K 
[TXT]Chapter 33 Section 1 Conservative Movement Emerges2012-05-01T05:26:00+00:00 20 K 
[TXT]Chapter 38 Digestive And Excretory Answer Key2012-05-01T16:59:00+00:00 22 K 
[TXT]Chapter Four Activity Based Costing And Management2012-05-02T04:32:00+00:00 18 K 
[TXT]Chapter 3 Surface And Intefacial Tension2012-05-02T16:05:00+00:00 24 K 
[TXT]Chapter 12 General Drawing Requirements Colorado State2012-05-03T03:38:00+00:00 22 K 
[TXT]Chapter 5 Nutrients At Work2012-05-03T15:11:00+00:00 20 K 
[TXT]Chapter 26 Solutions2012-05-04T02:44:00+00:00 19 K 
[TXT]Chapter 6 Lesson 72012-05-04T14:17:00+00:00 24 K 
[TXT]Computers Are Your Future Chapter 42012-05-05T01:50:00+00:00 20 K 
[TXT]Circulation Chapter Of 12Th Biology2012-05-05T13:23:00+00:00 20 K 
[TXT]Chapra Canale 6Th Solution Chapter 252012-05-06T00:56:00+00:00 22 K 
[TXT]Chapter2 Acids Bases And Salts2012-05-06T12:29:00+00:00 20 K 
[TXT]Conceptual Physics Chapter 34 Electric Current Test2012-05-07T00:02:00+00:00 20 K 
[TXT]Chapter 1 Design Process Ironwarrior2012-05-07T11:35:00+00:00 22 K 
[TXT]Chapter 20 Chemical Bonds2012-05-07T23:08:00+00:00 22 K 
[TXT]Chapter 10 The Theory Of Evolution Worksheets2012-05-08T10:41:00+00:00 20 K 
[TXT]Chapter 35 Nervous System Te2012-05-08T22:14:00+00:00 20 K 
[TXT]Chapter 14 Internation Trade By Salva2012-05-09T09:47:00+00:00 24 K 
[TXT]Chapter 8 Review Chemical Equations And Reactions2012-05-09T21:20:00+00:00 21 K 
[TXT]Chapter 15 Assessment Answers Physical Science2012-05-10T08:53:00+00:00 24 K 
[TXT]Charlotte Chapter Of Threads Love2012-05-10T20:26:00+00:00 21 K 
[TXT]Chapter 36 Skeletal Muscular And Integumentary Systems2012-05-11T07:59:00+00:00 25 K 
[TXT]Chapter 4 Multiple Choice Questions2012-05-11T19:32:00+00:00 17 K 
[TXT]Chapter10 Test Algebra 2 Answers Mcdougal2012-05-12T07:05:00+00:00 23 K 
[TXT]Chemical Reactions Answers Key Chapter Test2012-05-12T18:38:00+00:00 19 K 
[TXT]Chapter 10 Sterilization And Bioreactor Operation2012-05-13T06:11:00+00:00 22 K 
[TXT]Chapter 13 Principles Of Ecology2012-05-13T17:44:00+00:00 17 K 
[TXT]Chemistry Data Analysis Chapter Assessment Answer Key2012-05-14T05:17:00+00:00 17 K 
[TXT]Chapter 14 Test Form 2B Continue2012-05-14T16:50:00+00:00 20 K 
[TXT]Chapter 8Solutions Acids And Bases Wordwise2012-05-15T04:23:00+00:00 24 K 
[TXT]Chapter One Managers And Management2012-05-15T15:56:00+00:00 21 K 
[TXT]Cbse Class 9Th English Chapters Summary2012-05-16T03:29:00+00:00 24 K 
[TXT]Chapter Review And Assessment Answer Key Stoichiometry2012-05-16T15:02:00+00:00 21 K 
[TXT]Chapter 5 Models For Curriculum Development2012-05-17T02:35:00+00:00 23 K 
[TXT]Chapter 6 Thermochemistry2012-05-17T14:08:00+00:00 23 K 
[TXT]Chapter 8 Knowledge Codification Elias M Awad2012-05-18T01:41:00+00:00 17 K 
[TXT]Chapter 16 Oscillators Hbcc2012-05-18T13:14:00+00:00 17 K 
[TXT]Chapter Test Genetic Mcgraw2012-05-19T00:47:00+00:00 17 K 
[TXT]Chapter 2 Strategic Management Rothaermel2012-05-19T12:20:00+00:00 24 K 
[TXT]Chapter 1 Basic Physics2012-05-19T23:53:00+00:00 21 K 
[TXT]Chapter 4 Teaching The Four Skills Mcael2012-05-20T11:26:00+00:00 20 K 
[TXT]Chapter 38 Ecce Romani Translation2012-05-20T22:59:00+00:00 21 K 
[TXT]Chapter 37 Assessment Reviewing Content Answer Key2012-05-21T10:32:00+00:00 25 K 
[TXT]Chapter 10 Photosynthesis Wuerthapbiology Home2012-05-21T22:05:00+00:00 23 K 
[TXT]Chapter 23 The Reconstruction Era2012-05-22T09:38:00+00:00 17 K 
[TXT]Chapter 10 Molecular Biology Of The Gene2012-05-22T21:11:00+00:00 21 K 
[TXT]Chapter 1 The Atmosphere2012-05-23T08:44:00+00:00 18 K 
[TXT]Chapter Test B The Behavior Of Gases2012-05-23T20:17:00+00:00 21 K 
[TXT]Chapter On Scientific Revolution Tci2012-05-24T07:50:00+00:00 20 K 
[TXT]Chapter 24 Assessment Sound Answers2012-05-24T19:23:00+00:00 23 K 
[TXT]Chapter 11 Excel Grader Project2012-05-25T06:56:00+00:00 19 K 
[TXT]Chapter Two Krugman And Obstfeld Boston Collage2012-05-25T18:29:00+00:00 24 K 
[TXT]Chapter 13 Lesson 2 Activity 47 Answers2012-05-26T06:02:00+00:00 22 K 
[TXT]Chapter 17 Organizing Life S Diversity Glencoe2012-05-26T17:35:00+00:00 19 K 
[TXT]Chapter 7 Skeletal System Gross Anatomy2012-05-27T05:08:00+00:00 22 K 
[TXT]Chemistry Chapter 11 Assessment Answers2012-05-27T16:41:00+00:00 24 K 
[TXT]Chapter 10 Solutions Baf3M Chatt2012-05-28T04:14:00+00:00 25 K 
[TXT]Chapter 18 Cardiovascular System Anatomy2012-05-28T15:47:00+00:00 23 K 
[TXT]Chemical Reactions Chapter Review Answers2012-05-29T03:20:00+00:00 25 K 
[TXT]Chemistry Chapter 3 Equations Worksheet 12012-05-29T14:53:00+00:00 19 K 
[TXT]Chapter 9 Geometry Test2012-05-30T02:26:00+00:00 22 K 
[TXT]Chapter 12 Geometry Tangents Section A Quiz2012-05-30T13:59:00+00:00 21 K 
[TXT]Chapter 11Motion Section 11 3 Acceleration2012-05-31T01:32:00+00:00 18 K 
[TXT]Ccr Biology Chapter 302012-05-31T13:05:00+00:00 17 K 
[TXT]Chapter 15 Energy And Chemical Change2012-06-01T00:38:00+00:00 19 K 
[TXT]Chapter10 Polygons And Area Test Answer Key2012-06-01T12:11:00+00:00 24 K 
[TXT]Chapter 2 Basic Cost Management Concepts2012-06-01T23:44:00+00:00 17 K 
[TXT]Chapter 38 Assessment Answers Biology Workbook2012-06-02T11:17:00+00:00 20 K 
[TXT]Chapter 16 Investments2012-06-02T22:50:00+00:00 24 K 
[TXT]Chapter 1 Handouts From Biology Book2012-06-03T10:23:00+00:00 25 K 
[TXT]Chapter 4 Instructor S Manual2012-06-03T21:56:00+00:00 24 K 
[TXT]Chapter Assessment Nuclear Chemistry2012-06-04T09:29:00+00:00 18 K 
[TXT]Cbse Class 10 Summary Of Each Chapter2012-06-04T21:02:00+00:00 20 K 
[TXT]Chapter 37 Circulatory And Respiratory Systems Se2012-06-05T08:35:00+00:00 24 K 
[TXT]Chapter Test Geometry Answers Mcdougal Littel2012-06-05T20:08:00+00:00 25 K 
[TXT]Chapter 17 Mechanical Waves And Sound Wordwise2012-06-06T07:41:00+00:00 21 K 
[TXT]Chapter 6 Settlement Analyses Ohio Epa Home2012-06-06T19:14:00+00:00 19 K 
[TXT]Carnegie Learning Chapter 7 Pre Test2012-06-07T06:47:00+00:00 17 K 
[TXT]Chapter 12 Section 2 Committee In Congress2012-06-07T18:20:00+00:00 17 K 
[TXT]Chapter 1 Introduction To Php And Mysql2012-06-08T05:53:00+00:00 23 K 
[TXT]Chapter Assessment World War I An Beyond2012-06-08T17:26:00+00:00 23 K 
[TXT]Cpt Economics All Chapter2012-06-09T04:59:00+00:00 19 K 
[TXT]Carnegie Learning Mid Chapter Test Answers2012-06-09T16:32:00+00:00 21 K 
[TXT]Chapter 11 Resource Masters Chrissmola Com2012-06-10T04:05:00+00:00 20 K 
[TXT]Cumulative Review Chapters 9 Answers Algebra 12012-06-10T15:38:00+00:00 22 K 
[TXT]Chapter 12 Identifying Accounting Test2012-06-11T03:11:00+00:00 18 K 
[TXT]Chapter1 Multiple Choice Questions2012-06-11T14:44:00+00:00 19 K 
[TXT]Chapter 1 Biology Exploring Life2012-06-12T02:17:00+00:00 21 K 
[TXT]Conceptual Physics Chapter Test Answers2012-06-12T13:50:00+00:00 24 K 
[TXT]Chapter 4 Practice Test Wikispaces2012-06-13T01:23:00+00:00 18 K 
[TXT]Chapter 15 Biology Answer Key2012-06-13T12:56:00+00:00 24 K 
[TXT]Chapter 12 The Cell Cycle Biology Junction2012-06-14T00:29:00+00:00 20 K 
[TXT]Chapter 2Solutions Harvard University Download2012-06-14T12:02:00+00:00 22 K 
[TXT]Chapter Solutions For Dixit And Skeath2012-06-14T23:35:00+00:00 17 K 
[TXT]Chapter 1 Anatomy And Physiology Midland Isd2012-06-15T11:08:00+00:00 20 K 
[TXT]Chapter Wise Class 12 Chemistry Notes2012-06-15T22:41:00+00:00 24 K 
[TXT]Chapter 5 Solutions Mrjaffe Net2012-06-16T10:14:00+00:00 25 K 
[TXT]Classification Chapter Vocabulary Review2012-06-16T21:47:00+00:00 21 K 
[TXT]Chapter 1 An Introduction To Financial Management2012-06-17T09:20:00+00:00 18 K 
[TXT]Chapter 2 Organizational Purpose And Strucural Design2012-06-17T20:53:00+00:00 23 K 
[TXT]Conceptual Physics Chapter 28 Review2012-06-18T08:26:00+00:00 20 K 
[TXT]Chapter 4 Pe Pipe And Fittings Manufacturing2012-06-18T19:59:00+00:00 17 K 
[TXT]Conceptual Physics 9Th Answers Chapter 192012-06-19T07:32:00+00:00 25 K 
[TXT]Copeland Weston Shastri Chapter 52012-06-19T19:05:00+00:00 24 K 
[TXT]Chapter Test Revolution And Nationalism Answers2012-06-20T06:38:00+00:00 24 K 
[TXT]Chapter Two Review American Government Answer Sheet2012-06-20T18:11:00+00:00 25 K 
[TXT]Chapter 6 Thermal Energy2012-06-21T05:44:00+00:00 20 K 
[TXT]Chapter Number Mcgraw Hill2012-06-21T17:17:00+00:00 18 K 
[TXT]Chapter 36 Skeletal Muscular Integumentary Systems2012-06-22T04:50:00+00:00 17 K 
[TXT]Cbse Class 10 Chapter Life Processes Notes2012-06-22T16:23:00+00:00 20 K 
[TXT]Chapter 5 Recording Capital Asset Transactions2012-06-23T03:56:00+00:00 24 K 
[TXT]Completing The Accounting Cycle Answers Chapter92012-06-23T15:29:00+00:00 24 K 
[TXT]Confessions Of A Sugar Baby Chapters2012-06-24T03:02:00+00:00 22 K 
[TXT]Chapter 3 Performance Tasks Answers2012-06-24T14:35:00+00:00 20 K 
[TXT]Chapters Review Answers Pearson Environmental Science2012-06-25T02:08:00+00:00 18 K 
[TXT]Chapter 10 Curved Mirror Answer Keys2012-06-25T13:41:00+00:00 19 K 
[TXT]Chapter 1 Russell Sage Foundation2012-06-26T01:14:00+00:00 21 K 
[TXT]Chapter 19 2 Viruses2012-06-26T12:47:00+00:00 20 K 
[TXT]Chapter Test B2012-06-27T00:20:00+00:00 24 K 
[TXT]Chapter 1 Bobby Rio2012-06-27T11:53:00+00:00 20 K 
[TXT]Century 21 Accounting Answer Key Chapter 162012-06-27T23:26:00+00:00 22 K 
[TXT]Chapter 33 Entrepreneurial Concepts Answer Key2012-06-28T10:59:00+00:00 22 K 
[TXT]Chapter 7 Holt Environmental Science Test2012-06-28T22:32:00+00:00 23 K 
[TXT]Chapter 9 Deflections Of Beams2012-06-29T10:05:00+00:00 19 K 
[TXT]Chapter 19 Lab Using Index Fossils Answers2012-06-29T21:38:00+00:00 23 K 
[TXT]Chapter 3 Communities And Biomes Glencoe2012-06-30T09:11:00+00:00 18 K 
[TXT]Chapterwise Marking Of Hsc Science Maharashtra2012-06-30T20:44:00+00:00 17 K 
[TXT]Chapter 8 Test Mathgeek Li2012-07-01T08:17:00+00:00 22 K 
[TXT]Chapter 19 Accounting For Income Taxes2012-07-01T19:50:00+00:00 23 K 
[TXT]Chapter 7 Haralambos And Holborn2012-07-02T07:23:00+00:00 19 K 
[TXT]Chapter 7 Cost Of Production2012-07-02T18:56:00+00:00 20 K 
[TXT]Chemistry Review Module Chapters 10 Answers2012-07-03T06:29:00+00:00 18 K 
[TXT]Chapter 3 Solution 1C University Of Alabama2012-07-03T18:02:00+00:00 20 K 
[TXT]Chapter 50 Fixed Prosthodontics Recall Questions2012-07-04T05:35:00+00:00 19 K 
[TXT]Chapter8 Geometry Form G Test Answer Key2012-07-04T17:08:00+00:00 25 K 
[TXT]Chapter 2 Notes Atoms Molecules And Ions2012-07-05T04:41:00+00:00 19 K 
[TXT]Cell Biology Chapter Review Answers2012-07-05T16:14:00+00:00 19 K 
[TXT]Chapter 30 1 Billings West High School2012-07-06T03:47:00+00:00 19 K 
[TXT]Chapter 1 Introduction To Electronic Commerce2012-07-06T15:20:00+00:00 20 K 
[TXT]Chapter 8 Test Ccds Math 12012-07-07T02:53:00+00:00 19 K 
[TXT]Chapter 11 Current Liabilities And Payroll Accounting2012-07-07T14:26:00+00:00 22 K 
[TXT]Cell Cycle And Cellular Reproduction Chapter Review2012-07-08T01:59:00+00:00 18 K 
[TXT]Chapter 6 The Master Budget2012-07-08T13:32:00+00:00 17 K 
[TXT]Chapter 4 Mini Case 2 Mcgraw Hill2012-07-09T01:05:00+00:00 19 K 
[TXT]Chapter 13 State Transition Diagram Edward Yourdon2012-07-09T12:38:00+00:00 22 K 
[TXT]Circuit Analysis And Design Chapter 22012-07-10T00:11:00+00:00 18 K 
[TXT]Chapter 1 Hotel Design2012-07-10T11:44:00+00:00 22 K 
[TXT]Chapters 7 Algebra 2 Cumulative Test Answers2012-07-10T23:17:00+00:00 17 K 
[TXT]Cost Volume Profit Analysis Chapter 72012-07-11T10:50:00+00:00 22 K 
[TXT]Chapter 3 Syllogistic Reasoning Logic In Action2012-07-11T22:23:00+00:00 20 K 
[TXT]Chapter Review 8 Science Geek Us2012-07-12T09:56:00+00:00 21 K 
[TXT]Chapter 5 4 Financial Algebra2012-07-12T21:29:00+00:00 18 K 
[TXT]Chapter Chemistry Answers Part2012-07-13T09:02:00+00:00 17 K 
[TXT]Chapter 10 Forces Wikispaces2012-07-13T20:35:00+00:00 19 K 
[TXT]Chapter 5 Data Link Layer2012-07-14T08:08:00+00:00 20 K 
[TXT]Chemistry Form 5 Chapter 12012-07-14T19:41:00+00:00 24 K 
[TXT]Chapter 2 Foundations Of Individual Behavior2012-07-15T07:14:00+00:00 20 K 
[TXT]Civics Today Chapter 262012-07-15T18:47:00+00:00 21 K 
[TXT]Chapter 10 Study Notes Docx2012-07-16T06:20:00+00:00 20 K 
[TXT]Chapter 20 Oxidation Pearson Prentice Hall2012-07-16T17:53:00+00:00 18 K 
[TXT]Chapter 7 Resource Masters Chris Smola2012-07-17T05:26:00+00:00 24 K 
[TXT]Chapter 7 Test Form 1A2012-07-17T16:59:00+00:00 23 K 
[TXT]Chapter 18 Molecular Genetics Mcgraw Hill Ryerson2012-07-18T04:32:00+00:00 19 K 
[TXT]Chapter I Concordia University2012-07-18T16:05:00+00:00 19 K 
[TXT]Cumulative Review Chapters 10 Answers Algebra2012-07-19T03:38:00+00:00 17 K 
[TXT]Chapter 13 Saratoga High School2012-07-19T15:11:00+00:00 19 K 
[TXT]Chapter Test Form2012-07-20T02:44:00+00:00 21 K 
[TXT]Chapters Nine Eleven Standards Focus Foreshadowing2012-07-20T14:17:00+00:00 19 K 
[TXT]Chapter 29 Echinoderms And Invertebrate Chordates Glencoe2012-07-21T01:50:00+00:00 21 K 
[TXT]Chapter 25 Section 12012-07-21T13:23:00+00:00 24 K 
[TXT]Chapter 10 Test Teacherweb2012-07-22T00:56:00+00:00 21 K 
[TXT]Chapter 15 Mixed Review Mail Colonial2012-07-22T12:29:00+00:00 18 K 
[TXT]Chapter 1 Data Communications And Nm Overview2012-07-23T00:02:00+00:00 17 K 
[TXT]Chapter 2 Creature Quotes2012-07-23T11:35:00+00:00 22 K 
[TXT]Chemistry Chapter 8 Assessment2012-07-23T23:08:00+00:00 21 K 
[TXT]Chapter 24 The Immune System2012-07-24T10:41:00+00:00 22 K 
[TXT]Chapter Test The Industrial Revolution2012-07-24T22:14:00+00:00 24 K 
[TXT]Chapter Ii Aecs Inc2012-07-25T09:47:00+00:00 18 K 
[TXT]Chapter 20 Electricity2012-07-25T21:20:00+00:00 23 K 
[TXT]Chapter 9 Project Proving A Conjecture Answers2012-07-26T08:53:00+00:00 20 K 
[TXT]Concepts Chapter 23 Chemistry2012-07-26T20:26:00+00:00 22 K 
[TXT]Chapter 3 Source2012-07-27T07:59:00+00:00 18 K 
[TXT]Chapter 38 Biology Workbook Answers2012-07-27T19:32:00+00:00 22 K 
[TXT]Chapter 50 Sample Questions Answers Bulldog Biology2012-07-28T07:05:00+00:00 23 K 
[TXT]Chapter 8 Receivables Quia2012-07-28T18:38:00+00:00 20 K 
[TXT]Chapter 2 Static Equilibrium Force And Moment2012-07-29T06:11:00+00:00 25 K 
[TXT]Chapter7 Holt Geometry Test Answers2012-07-29T17:44:00+00:00 21 K 
[TXT]Chapter Answers For Nelson Biology 122012-07-30T05:17:00+00:00 24 K 
[TXT]Chapter 10 0Rganic Chemistry2012-07-30T16:50:00+00:00 21 K 
[TXT]Chapter 10 Chemical Calculations And Equations2012-07-31T04:23:00+00:00 24 K 
[TXT]Chapter 10 4 Inscribed Angle Answer Key2012-07-31T15:56:00+00:00 17 K 
[TXT]Chapter Assessment Answers World History 10Th Grade2012-08-01T03:29:00+00:00 20 K 
[TXT]Chapter 21 Temperature Heat And Expansion2012-08-01T15:02:00+00:00 22 K 
[TXT]Chapter 1 Goods Services And Operations Management2012-08-02T02:35:00+00:00 19 K 
[TXT]Chapter 20 Acid And Bases Answers2012-08-02T14:08:00+00:00 22 K 
[TXT]Chapter 7 Quality Project Review2012-08-03T01:41:00+00:00 22 K 
[TXT]Civics Chapter 21 Worksheet2012-08-03T13:14:00+00:00 21 K 
[TXT]Chapter 1 Social Science And Its Methods2012-08-04T00:47:00+00:00 17 K 
[TXT]Chapter 15 Resource Masters Geometry2012-08-04T12:20:00+00:00 25 K 
[TXT]Chapter 01 Introduction To Operations Management2012-08-04T23:53:00+00:00 17 K 
[TXT]Chapter 5 Compactness Mathematical Sciences Computing2012-08-05T11:26:00+00:00 25 K 
[TXT]Computer Fundamentals By Pk Sinha Chapter 52012-08-05T22:59:00+00:00 21 K 
[TXT]Chapter 2 Minerals2012-08-06T10:32:00+00:00 19 K 
[TXT]Chapter36 Skelatal Mudcular And Integumentary Answer Key2012-08-06T22:05:00+00:00 17 K 
[TXT]Chapter 1 To 132012-08-07T09:38:00+00:00 17 K 
[TXT]Chapter 1 Atoms Cow Town Productions2012-08-07T21:11:00+00:00 24 K 
[TXT]Chapter 16 End Of Chapters Solutions2012-08-08T08:44:00+00:00 23 K 
[TXT]Chapter 9 Answers Finneytown2012-08-08T20:17:00+00:00 24 K 
[TXT]Chapter 6 The Brook Ncert Answers2012-08-09T07:50:00+00:00 17 K 
[TXT]Chemistry Chapter 7 Chemical Quantities2012-08-09T19:23:00+00:00 20 K 
[TXT]Chapter 10 Electrochemistry Mcqs Out Class2012-08-10T06:56:00+00:00 19 K 
[TXT]Chapter 7 Geometry Answers2012-08-10T18:29:00+00:00 22 K 
[TXT]Chapter Assessment Answers For Ecosystems And Communities2012-08-11T06:02:00+00:00 22 K 
[TXT]Chapter 9 Vocabulary Practice Frontires Of Biotechnology2012-08-11T17:35:00+00:00 24 K 
[TXT]Chapter 24 The Digestive System2012-08-12T05:08:00+00:00 19 K 
[TXT]Chapter Section Quiz Answers 122012-08-12T16:41:00+00:00 17 K 
[TXT]Chapter 1 Test Items2012-08-13T04:14:00+00:00 24 K 
[TXT]Chapter 10 Pearson Chemistry Answer Key Test2012-08-13T15:47:00+00:00 24 K 
[TXT]Chapter 36 The Nervous System Glencoe2012-08-14T03:20:00+00:00 25 K 
[TXT]Chapter 26 Things To Know Webs2012-08-14T14:53:00+00:00 19 K 
[TXT]Chapter 1 High Chromium Cast Irons2012-08-15T02:26:00+00:00 23 K 
[TXT]Chapter 39 Nutrition And Transport In Plants2012-08-15T13:59:00+00:00 25 K 
[TXT]Chapter9 Prospective Analysis2012-08-16T01:32:00+00:00 22 K 
[TXT]Chapter Test The Solar System Answer Key2012-08-16T13:05:00+00:00 19 K 
[TXT]Chapter 3 Algorithmic Problem Solving Nus2012-08-17T00:38:00+00:00 19 K 
[TXT]Chapter 6 James Hall2012-08-17T12:11:00+00:00 19 K 
[TXT]Chapter 5 Text Solutions Teacherweb2012-08-17T23:44:00+00:00 25 K 
[TXT]Chapter 21 Atomic Physics2012-08-18T11:17:00+00:00 24 K 
[TXT]Chapter 41 Section 1 Review Answers Biology2012-08-18T22:50:00+00:00 19 K 
[TXT]Chapter 10 Test A2012-08-19T10:23:00+00:00 24 K 
[TXT]Computers Are Your Future Complete 12 Chapter2012-08-19T21:56:00+00:00 25 K 
[TXT]Chapter 1 Property And Conveyancing2012-08-20T09:29:00+00:00 19 K 
[TXT]Connect Mcgraw Hill Nutrition Chapter 3 Answers2012-08-20T21:02:00+00:00 20 K 
[TXT]Chapter 8 Profitability Ebooks2012-08-21T08:35:00+00:00 18 K 
[TXT]Chapter 7 Solutions Accounting Principle Chatt2012-08-21T20:08:00+00:00 19 K 
[TXT]Chapter Board Member Devotions And Assessments2012-08-22T07:41:00+00:00 20 K 
[TXT]Chapter Six Review Answers Dave Ramsey2012-08-22T19:14:00+00:00 17 K 
[TXT]Chapter 9 Greek World2012-08-23T06:47:00+00:00 25 K 
[TXT]Chapter Summaries For The Bass Reeves2012-08-23T18:20:00+00:00 19 K 
[TXT]Chapter 6 Series Parallel Circuits2012-08-24T05:53:00+00:00 17 K 
[TXT]Chapter 14 Production And Operations Management Faculty2012-08-24T17:26:00+00:00 20 K 
[TXT]Chapter Test Form G Geometry2012-08-25T04:59:00+00:00 21 K 
[TXT]Chapter 8 Tests2012-08-25T16:32:00+00:00 23 K 
[TXT]Chapter 6 Foundation Design2012-08-26T04:05:00+00:00 25 K 
[TXT]Chapter 1 Quiz Questions Pbworks2012-08-26T15:38:00+00:00 19 K 
[TXT]Chapter 18 Drugs For Heart2012-08-27T03:11:00+00:00 25 K 
[TXT]Cells Chapter 16 Vocabulary Practice Mcdougal2012-08-27T14:44:00+00:00 17 K 
[TXT]Chapter 10 Practice2012-08-28T02:17:00+00:00 17 K 
[TXT]Chapter 22 The Electric Field2012-08-28T13:50:00+00:00 24 K 
[TXT]Chapter 1 Introduction To Electronic Communications2012-08-29T01:23:00+00:00 25 K 
[TXT]Chapter 10 Review Geometry2012-08-29T12:56:00+00:00 20 K 
[TXT]Chapter 5 Review2012-08-30T00:29:00+00:00 21 K 
[TXT]Chapter 1 Introduction To Accounting Exercises Macmillan2012-08-30T12:02:00+00:00 25 K 
[TXT]Chemistry Chapter Wise Important Questions2012-08-30T23:35:00+00:00 17 K 
[TXT]Chapter Wise Mcq Of Biology Class Xi2012-08-31T11:08:00+00:00 23 K 
[TXT]Chapter 30 Biology Review Prentice Hall2012-08-31T22:41:00+00:00 18 K 
[TXT]Chapter 1 Introduction Chipscity Com2012-09-01T10:14:00+00:00 19 K 
[TXT]Chapter 8 Binomial Theorem2012-09-01T21:47:00+00:00 23 K 
[TXT]Chapter 3 Systems Of Equations And Inequalities2012-09-02T09:20:00+00:00 25 K 
[TXT]Chapter 31 Discussion Questions Wikispaces2012-09-02T20:53:00+00:00 22 K 
[TXT]Chapter Test A Matter In Motion Answers2012-09-03T08:26:00+00:00 21 K 
[TXT]Chapter 11 Leadership Communication Approaches2012-09-03T19:59:00+00:00 24 K 
[TXT]Chapter 9 Vocabulary2012-09-04T07:32:00+00:00 24 K 
[TXT]Chapter 7 Accounting Principles Answer2012-09-04T19:05:00+00:00 24 K 
[TXT]Chapter 1 Introduction To Object Oriented Design2012-09-05T06:38:00+00:00 17 K 
[TXT]Chapter 10 Test Form G2012-09-05T18:11:00+00:00 17 K 
[TXT]Chapter 13 Trigonometric Functions Test Form B2012-09-06T05:44:00+00:00 19 K 
[TXT]Chapter 35 Basic Pharamocology2012-09-06T17:17:00+00:00 17 K 
[TXT]Chapter One Introduction Wits2012-09-07T04:50:00+00:00 25 K 
[TXT]Chapter 27 1 Directed Reading Answer2012-09-07T16:23:00+00:00 22 K 
[TXT]Chapter 10 Anatomy Of The Muscular System2012-09-08T03:56:00+00:00 18 K 
[TXT]Chapter 3 Solution Expha2012-09-08T15:29:00+00:00 19 K 
[TXT]Chapter 8 Answers Jfscchem122012-09-09T03:02:00+00:00 17 K 
[TXT]Chapter 4 Diagnostic Test Cells And Energy2012-09-09T14:35:00+00:00 24 K 
[TXT]Chapter 1 Organizational Behavior Iimts2012-09-10T02:08:00+00:00 19 K 
[TXT]Chapter 6 Basic Function Instruction2012-09-10T13:41:00+00:00 20 K 
[TXT]Chapter 11 Marketing And Distribution Rasco Name2012-09-11T01:14:00+00:00 24 K 
[TXT]Chapter 2 Literature Review Irepository At Perpustakaan2012-09-11T12:47:00+00:00 19 K 
[TXT]Chapter 13 Renaissance And Reformation Test2012-09-12T00:20:00+00:00 21 K 
[TXT]Chapters 16 20 Resources Answer Key Physics2012-09-12T11:53:00+00:00 22 K 
[TXT]Chapter 17 Assessment2012-09-12T23:26:00+00:00 19 K 
[TXT]Chapter 8 Profit Maximization And Competitive Supply2012-09-13T10:59:00+00:00 25 K 
[TXT]Chapter Reinforcement The Outer Planets2012-09-13T22:32:00+00:00 18 K 
[TXT]Chapter 114 E Recruiting Igi Global2012-09-14T10:05:00+00:00 18 K 
[TXT]Chapter 3 Review Section 1 Answers2012-09-14T21:38:00+00:00 17 K 
[TXT]Chapter 14 Assesment2012-09-15T09:11:00+00:00 25 K 
[TXT]Chapter Test Atmosphere And Climate Change2012-09-15T20:44:00+00:00 20 K 
[TXT]Chapter Wise Maths Question For Iit Jee2012-09-16T08:17:00+00:00 19 K 
[TXT]Chapter 1 Test Bank Testbank Instant Downloads2012-09-16T19:50:00+00:00 22 K 
[TXT]Chapter 3 Chemistry1212012-09-17T07:23:00+00:00 20 K 
[TXT]Chapter 9 Hcc Learning Web2012-09-17T18:56:00+00:00 25 K 
[TXT]Chapter 13 Rna And Protein Synthesis2012-09-18T06:29:00+00:00 18 K 
[TXT]Chapter 5 Continuity And Differentiability Pradeep Home2012-09-18T18:02:00+00:00 19 K 
[TXT]Chapter 1 Introduction To Human Anatomy Physiology2012-09-19T05:35:00+00:00 23 K 
[TXT]Chapter 5 1 Answers Stephen Murray2012-09-19T17:08:00+00:00 17 K 
[TXT]Chapter18 Practice Test Holt Environmental Science2012-09-20T04:41:00+00:00 19 K 
[TXT]Chapter One Eddata Homepage2012-09-20T16:14:00+00:00 24 K 
[TXT]Chapter 21 Magnetism Section 2 Electromagnetism2012-09-21T03:47:00+00:00 19 K 
[TXT]Chapter 15 Weather Patterns2012-09-21T15:20:00+00:00 20 K 
[TXT]Chapter 14 Reproductive System2012-09-22T02:53:00+00:00 24 K 
[TXT]Chapter One Meg Cabot2012-09-22T14:26:00+00:00 25 K 
[TXT]Class 9Th Geography Mcq From Climate Chapter2012-09-23T01:59:00+00:00 21 K 
[TXT]Chapter 31 Geography Of Answers2012-09-23T13:32:00+00:00 18 K 
[TXT]Carnegie Learning Chapter152012-09-24T01:05:00+00:00 17 K 
[TXT]Chapter 6 Test Answers Holt Geometry2012-09-24T12:38:00+00:00 20 K 
[TXT]Chapter 31 Vocabulary Review2012-09-25T00:11:00+00:00 20 K 
[TXT]Chapter 15 Diuretic Agents2012-09-25T11:44:00+00:00 21 K 
[TXT]Chapter Writing Business Messages Multiple Choice Questions2012-09-25T23:17:00+00:00 18 K 
[TXT]Chapter 4 Formation Of Compounds Glencoe2012-09-26T10:50:00+00:00 23 K 
[TXT]Chapters 1 5 Resources Glencoe2012-09-26T22:23:00+00:00 25 K 
[TXT]Chapter 2 New Exercise Solutions2012-09-27T09:56:00+00:00 24 K 
[TXT]Chapter 11 Three Dimensional Geometry2012-09-27T21:29:00+00:00 17 K 
[TXT]Chapter 3 Psychometrics Reliability Validity2012-09-28T09:02:00+00:00 25 K 
[TXT]Chapter 1 Stepper Motor Control2012-09-28T20:35:00+00:00 17 K 
[TXT]Chapter 14 Long Term Liabilities Brief Exercise2012-09-29T08:08:00+00:00 18 K 
[TXT]Chemistry Review Module Chapters 14 Answers2012-09-29T19:41:00+00:00 25 K 
[TXT]Chapter 4 Ecosystems And Communities Test A2012-09-30T07:14:00+00:00 25 K 
[TXT]Chapter 12 Test Form B Mixed Formats2012-09-30T18:47:00+00:00 22 K 
[TXT]Chapter By2012-10-01T06:20:00+00:00 19 K 
[TXT]Chapter 11 Thermochemistry Review Answer Key2012-10-01T17:53:00+00:00 21 K 
[TXT]Chapter 5 Architectural Analysis General2012-10-02T05:26:00+00:00 25 K 
[TXT]Chapter 23 Assessment Magruder2012-10-02T16:59:00+00:00 18 K 
[TXT]Chapter Test Reflections Social Studies2012-10-03T04:32:00+00:00 23 K 
[TXT]Chapter 32 Mammals Answer Key2012-10-03T16:05:00+00:00 18 K 
[TXT]Chapter 234 Trade Disputes Repealed Act2012-10-04T03:38:00+00:00 25 K 
[TXT]Chemical Quantities Chapter Test2012-10-04T15:11:00+00:00 23 K 
[TXT]Chemistry Chapter Review Answers Holt Mcdougal Modern2012-10-05T02:44:00+00:00 21 K 
[TXT]Cmos Technology Chapter 2 Tau2012-10-05T14:17:00+00:00 23 K 
[TXT]Cima Cba Co1 Chapter Question2012-10-06T01:50:00+00:00 17 K 
[TXT]Chapter 11 Fiscal Policy Csu B2012-10-06T13:23:00+00:00 24 K 
[TXT]Chapter 1 Ncert Books And Cbse2012-10-07T00:56:00+00:00 21 K 
[TXT]Chapter 4 Volume And Capacity Test2012-10-07T12:29:00+00:00 25 K 
[TXT]Chapters 1 2 3 Welcome To Nmpb2012-10-08T00:02:00+00:00 20 K 
[TXT]Chapter 15 Miller And Levine Test2012-10-08T11:35:00+00:00 22 K 
[TXT]Chapter 8 Railway Board Audit Sai India2012-10-08T23:08:00+00:00 25 K 
[TXT]Cell Processes And Energy Chapter Test Answers2012-10-09T10:41:00+00:00 23 K 
[TXT]Chapter 6Weathering And Soil Formation Answers2012-10-09T22:14:00+00:00 17 K 
[TXT]Cost Accounting Chapters In Calicut University2012-10-10T09:47:00+00:00 20 K 
[TXT]Chapter 32 The Allied Victory Answers2012-10-10T21:20:00+00:00 25 K 
[TXT]Chapter 12 Quiz 12012-10-11T08:53:00+00:00 23 K 
[TXT]Cumulative Test Chapters 4 62012-10-11T20:26:00+00:00 20 K 
[TXT]Chapter Test Form B Holt Algebra2012-10-12T07:59:00+00:00 24 K 
[TXT]Chapter Test Assessment Forces And Motion2012-10-12T19:32:00+00:00 23 K 
[TXT]Chapter 11 The Basics Of Capital Budgeting2012-10-13T07:05:00+00:00 20 K 
[TXT]Chapter 8 Answer Key2012-10-13T18:38:00+00:00 24 K 
[TXT]Chapter 11 Cell Communication Biology Junction2012-10-14T06:11:00+00:00 25 K 
[TXT]Century 21 Accounting Answer Key Chapter2012-10-14T17:44:00+00:00 19 K 
[TXT]Chapter 3 Cell Structure And Function Pearson2012-10-15T05:17:00+00:00 23 K 
[TXT]Chemistry Lecture Chapter 6 Chemical Bonding2012-10-15T16:50:00+00:00 21 K 
[TXT]Chapter 13 14 Pretest Tripod Com2012-10-16T04:23:00+00:00 21 K 
[TXT]Chapter 7 Cloud Architecture And Datacenter Design2012-10-16T15:56:00+00:00 19 K 
[TXT]Chapter27 The Reproductive System Hikman Zoology2012-10-17T03:29:00+00:00 21 K 
[TXT]Chapter 12 The Student Room2012-10-17T15:02:00+00:00 23 K 
[TXT]Chapter 1 Accounting In Action Ebooks2012-10-18T02:35:00+00:00 17 K 
[TXT]Chapter Test Classical Greece2012-10-18T14:08:00+00:00 23 K 
[TXT]Chapter 1 Wiley2012-10-19T01:41:00+00:00 22 K 
[TXT]Chapter 12 Rational Expressions And Equations2012-10-19T13:14:00+00:00 23 K 
[TXT]Circuit Chapter Summaries2012-10-20T00:47:00+00:00 18 K 
[TXT]Chapter 35Human Body Systems Multiple Choice Questions2012-10-20T12:20:00+00:00 19 K 
[TXT]Chapter Capital Structure And Leverage2012-10-20T23:53:00+00:00 23 K 
[TXT]Chapter 5 Populations Te Ebookszip Com2012-10-21T11:26:00+00:00 25 K 
[TXT]Chapter 5 Advanced Sql2012-10-21T22:59:00+00:00 24 K 
[TXT]Chapter 4 Transients Portland State University2012-10-22T10:32:00+00:00 23 K 
[TXT]Chapter 22 Bio Holt Quiz2012-10-22T22:05:00+00:00 20 K 
[TXT]Chapter 1Sports Environment And Society2012-10-23T09:38:00+00:00 20 K 
[TXT]Chapter 2 Exercise Key Home Faculty2012-10-23T21:11:00+00:00 23 K 
[TXT]Chapter5 Populations Workbook Answer Key2012-10-24T08:44:00+00:00 18 K 
[TXT]Chapter 32 Mammals2012-10-24T20:17:00+00:00 21 K 
[TXT]Chapter 14 Acids And Bases Nhvweb Net2012-10-25T07:50:00+00:00 18 K 
[TXT]Chapter 8 The Motivation To Work2012-10-25T19:23:00+00:00 18 K 
[TXT]Chapter 12 Multiple Choice Questions2012-10-26T06:56:00+00:00 18 K 
[TXT]Chapter 13 Resource Management2012-10-26T18:29:00+00:00 21 K 
[TXT]Chapter 01 Auditing And Assurance Services2012-10-27T06:02:00+00:00 25 K 
[TXT]Chapter 3 Electronics Symbols Components And References2012-10-27T17:35:00+00:00 25 K 
[TXT]Chapter 21 Magnetism Wordwise2012-10-28T05:08:00+00:00 24 K 
[TXT]Chapter 1 A Seventh Son Joseph Delaney2012-10-28T16:41:00+00:00 24 K 
[TXT]Chapter Fourteen Design Automation Techniques2012-10-29T04:14:00+00:00 25 K 
[TXT]Chapter Seven Biographical Introduction Portal De Estudios2012-10-29T15:47:00+00:00 18 K 
[TXT]Chapter 1 Groundwork Establishing The Vertical Team2012-10-30T03:20:00+00:00 22 K 
[TXT]Chapter 9 Walt Huber2012-10-30T14:53:00+00:00 21 K 
[TXT]Chapter 11 The Mole2012-10-31T02:26:00+00:00 23 K 
[TXT]Chemistry Holt Chapter 6 Covalent Bonds2012-10-31T13:59:00+00:00 25 K 
[TXT]Cfin 3 Chapter 9 Test Bank2012-11-01T01:32:00+00:00 25 K 
[TXT]Chapter 25 Reviews2012-11-01T13:05:00+00:00 21 K 
[TXT]Chapter 1 Introduction To Computer2012-11-02T00:38:00+00:00 25 K 
[TXT]Chapter 22 Gas Exchange Test2012-11-02T12:11:00+00:00 22 K 
[TXT]Circulation Chapter Std 12Th Biology2012-11-02T23:44:00+00:00 17 K 
[TXT]Chapter 7 Electricity2012-11-03T11:17:00+00:00 22 K 
[TXT]Chapter Summary Outline Template Elementary2012-11-03T22:50:00+00:00 24 K 
[TXT]Chapter 23 Review Physical Sience2012-11-04T10:23:00+00:00 20 K 
[TXT]Chapter 2 Answer Key Science With Simonson2012-11-04T21:56:00+00:00 20 K 
[TXT]Chapter Hara Shiatsu2012-11-05T09:29:00+00:00 23 K 
[TXT]Chapter 2 Psychology2012-11-05T21:02:00+00:00 18 K 
[TXT]Chapter Test B Fundamentals Of Genetics2012-11-06T08:35:00+00:00 18 K 
[TXT]Chapter 7 Pulse Modulation Wayne State University2012-11-06T20:08:00+00:00 18 K 
[TXT]Chapter X Active Infrared Thermography Techniques2012-11-07T07:41:00+00:00 22 K 
[TXT]Chapter 3 Quiz Questions Texas Tech University2012-11-07T19:14:00+00:00 24 K 
[TXT]Chapter Ii Limits And Continuity Qatar University2012-11-08T06:47:00+00:00 19 K 
[TXT]Chapter 1 Introduction And Overview2012-11-08T18:20:00+00:00 17 K 
[TXT]Corey Theory And Practice Chapter 32012-11-09T05:53:00+00:00 25 K 
[TXT]Chapter 2 Answers To Questions And Problems2012-11-09T17:26:00+00:00 21 K 
[TXT]Chapter Summary Activity Presidential Leadership Answers2012-11-10T04:59:00+00:00 19 K 
[TXT]Chapter Vector Mechanics For Engineers 17 Dynamics2012-11-10T16:32:00+00:00 21 K 
[TXT]Chapter 11 Assessment Biology2012-11-11T04:05:00+00:00 21 K 
[TXT]Chapter 13 Financial Statement Analysis Notes2012-11-11T15:38:00+00:00 18 K 
[TXT]Core Teaching Resources Chemistry Answers Chapter 192012-11-12T03:11:00+00:00 20 K 
[TXT]Cumulative Review Chapters 1 8 Answers Geometry2012-11-12T14:44:00+00:00 19 K 
[TXT]Chapter 1 Computerized Provider Order Entry2012-11-13T02:17:00+00:00 18 K 
[TXT]Chapter Three Review Questions Small Gas Engines2012-11-13T13:50:00+00:00 22 K 
[TXT]Calculus Bsc Notes 9Th Chapter2012-11-14T01:23:00+00:00 24 K 
[TXT]Chapters 5 17 Century 21 Accounting Answers2012-11-14T12:56:00+00:00 22 K 
[TXT]Chapter 9 Review Stoichiometry2012-11-15T00:29:00+00:00 19 K 
[TXT]Chemistry Matter And Change Chapter 122012-11-15T12:02:00+00:00 23 K 
[TXT]Chapter 5 Electrical Design Cummins2012-11-15T23:35:00+00:00 22 K 
[TXT]Chapter 7 Microcontroller Implementation Consideration2012-11-16T11:08:00+00:00 23 K 
[TXT]Chapter 20 Antennas And Projects2012-11-16T22:41:00+00:00 23 K 
[TXT]Chapter 11 Answer Key Omkarmin Com2012-11-17T10:14:00+00:00 18 K 
[TXT]Chapter Summary Template2012-11-17T21:47:00+00:00 24 K 
[TXT]Chapter 1 To 162012-11-18T09:20:00+00:00 19 K 
[TXT]Chapter6 Humans In The Biosphere Workbook Key2012-11-18T20:53:00+00:00 25 K 
[TXT]Chapter 40 Human Reproduction Development2012-11-19T08:26:00+00:00 18 K 
[TXT]Chapter 11 Resource Masters2012-11-19T19:59:00+00:00 23 K 
[TXT]Chemical Reactions Chapter Test Answer Key2012-11-20T07:32:00+00:00 23 K 
[TXT]Chapter 16 The Endocrine System And Reproduction2012-11-20T19:05:00+00:00 19 K 
[TXT]Carbon Chemistry Chapter Test A2012-11-21T06:38:00+00:00 24 K 
[TXT]Chapter 21 Accounting For Leases Wiley Home2012-11-21T18:11:00+00:00 25 K 
[TXT]Chapter 13 Chemical Kinetics2012-11-22T05:44:00+00:00 24 K 
[TXT]Chapter Test Mirrors And Lenses Key2012-11-22T17:17:00+00:00 23 K 
[TXT]Chapter Test For Marketing Essentials2012-11-23T04:50:00+00:00 19 K 
[TXT]Chapter 3 Biological Evolution Classification Answers2012-11-23T16:23:00+00:00 24 K 
[TXT]Circuit Francisco Jimenez Chapter Summary2012-11-24T03:56:00+00:00 23 K 
[TXT]Chapter 13 Financial Statement Analysis Lucas College2012-11-24T15:29:00+00:00 23 K 
[TXT]Chapter 25 Section 42012-11-25T03:02:00+00:00 18 K 
[TXT]Chapter 3 The Study2012-11-25T14:35:00+00:00 18 K 
[TXT]Chapter 1 Behavior What Is Organizational2012-11-26T02:08:00+00:00 18 K 
[TXT]Chapter 7 Review Questions And Answers2012-11-26T13:41:00+00:00 19 K 
[TXT]Ccna Discovery 1 Chapter 32012-11-27T01:14:00+00:00 22 K 
[TXT]Chapter 11 Skills Practice2012-11-27T12:47:00+00:00 20 K 
[TXT]Cohen Tannoudji Solutions Chapter2012-11-28T00:20:00+00:00 20 K 
[TXT]Chapter Summaries For Guns General Washington2012-11-28T11:53:00+00:00 18 K 
[TXT]Chapter 1 Orders And Manuals2012-11-28T23:26:00+00:00 19 K 
[TXT]Chapter One Understanding Organizational Behaviour2012-11-29T10:59:00+00:00 17 K 
[TXT]Chapter 10 Asking For And Giving Directions2012-11-29T22:32:00+00:00 20 K 
[TXT]Chapter Assessment Understanding The Main Ideas Part2012-11-30T10:05:00+00:00 17 K 
[TXT]Chapter 33 Animal Behavior Answer Key2012-11-30T21:38:00+00:00 22 K 
[TXT]Conceptual Physics Chapter 7 Test Momentum2012-12-01T09:11:00+00:00 18 K 
[TXT]Chapter 1 Managers Profits And Markets2012-12-01T20:44:00+00:00 23 K 
[TXT]Chapter Wise Multiple Choice2012-12-02T08:17:00+00:00 24 K 
[TXT]Creating America Chapter 17 Test2012-12-02T19:50:00+00:00 25 K 
[TXT]Ccie Chapter 19 Mpls Unicast Vpn2012-12-03T07:23:00+00:00 17 K 
[TXT]Chapter 11 Heredity2012-12-03T18:56:00+00:00 24 K 
[TXT]Chapter 14 Textbook2012-12-04T06:29:00+00:00 18 K 
[TXT]Chapter 38 Reproduction And Development Glencoe2012-12-04T18:02:00+00:00 24 K 
[TXT]Chapter 2 Introduction To Financial Performance2012-12-05T05:35:00+00:00 21 K 
[TXT]Chapter 12 Quiz 1 Resource Book2012-12-05T17:08:00+00:00 20 K 
[TXT]Chapter 25 Optical Instruments Answers To Questions2012-12-06T04:41:00+00:00 22 K 
[TXT]Chapter 9 Business For World2012-12-06T16:14:00+00:00 21 K 
[TXT]Chapter6 Humans In The Biosphere Workbook Answers2012-12-07T03:47:00+00:00 19 K 
[TXT]Chapter 18The Electromagnetic Spectrum And Light Calculating2012-12-07T15:20:00+00:00 20 K 
[TXT]Chapter Test Form B Team Straus2012-12-08T02:53:00+00:00 23 K 
[TXT]Chapter 15 The Pacific2012-12-08T14:26:00+00:00 18 K 
[TXT]Chapter 20 Fungi Glencoe2012-12-09T01:59:00+00:00 17 K 
[TXT]Chapter 22 Gas Exchange2012-12-09T13:32:00+00:00 20 K 
[TXT]Chapter 18 Electronmagnetis Spectrum And Light2012-12-10T01:05:00+00:00 19 K 
[TXT]Chapter From System Analysis And Design Answers2012-12-10T12:38:00+00:00 18 K 
[TXT]Chapter12 Lab Extracting Dna Answer Key2012-12-11T00:11:00+00:00 22 K 
[TXT]Chapter 1 Introduction To Power Semiconductors2012-12-11T11:44:00+00:00 22 K 
[TXT]Chapter 2 Marketing Hospitality And Travel Services2012-12-11T23:17:00+00:00 23 K 
[TXT]Chapter 4 Exam2012-12-12T10:50:00+00:00 17 K 
[TXT]Chapter 33 Invertebrates Lecture Outline Overview Life2012-12-12T22:23:00+00:00 17 K 
[TXT]Chapter 10B Ap Statistics Test2012-12-13T09:56:00+00:00 25 K 
[TXT]Chapter Wise Questions On Cpt Accounts2012-12-13T21:29:00+00:00 19 K 
[TXT]Chapter 25 Introduction To Risk Management2012-12-14T09:02:00+00:00 17 K 
[TXT]Chapter 9 Sequences Series And Probability2012-12-14T20:35:00+00:00 20 K 
[TXT]Chapter 9 Accounting For Receivables2012-12-15T08:08:00+00:00 20 K 
[TXT]Chapter 5 Lab1B Excel Shelly Cashman2012-12-15T19:41:00+00:00 22 K 
[TXT]Chapter 16 Primate Evolution Section Questions2012-12-16T07:14:00+00:00 21 K 
[TXT]Chapter Test C The Cell In Action2012-12-16T18:47:00+00:00 17 K 
[TXT]Core Connections Course 4 Chapter 72012-12-17T06:20:00+00:00 20 K 
[TXT]Chapter 1 Introduction To Modern Network Theory2012-12-17T17:53:00+00:00 21 K 
[TXT]Chapter 13 Analysis Dna Fingerprinting Marric2012-12-18T05:26:00+00:00 18 K 
[TXT]Chapter 15 The Biosphere Vocabulary Review Answer2012-12-18T16:59:00+00:00 18 K 
[TXT]Chapter 03 Planning Joneslabs2012-12-19T04:32:00+00:00 23 K 
[TXT]Cumulative Test Chapter 4 6 Key2012-12-19T16:05:00+00:00 25 K 
[TXT]Chapter 15 Test Answers2012-12-20T03:38:00+00:00 23 K 
[TXT]Chapter 9 Project Human Resource Management2012-12-20T15:11:00+00:00 18 K 
[TXT]Chapter7 Geometry Test Answers2012-12-21T02:44:00+00:00 22 K 
[TXT]Cbse Class 12 English Vistas Chapters Summary2012-12-21T14:17:00+00:00 18 K 
[TXT]Chapter Test Answer Key Human Population2012-12-22T01:50:00+00:00 20 K 
[TXT]Chapter 19 Earth Science2012-12-22T13:23:00+00:00 25 K 
[TXT]Chapter Wise Question Bank For Cbse2012-12-23T00:56:00+00:00 24 K 
[TXT]Conceptual Physics Chapter Assessment Answers2012-12-23T12:29:00+00:00 22 K 
[TXT]Cengage Accounting Chapter Test Answers2012-12-24T00:02:00+00:00 25 K 
[TXT]Chapter Cash Budget Problems And Solutions2012-12-24T11:35:00+00:00 19 K 
[TXT]Chapter Section Quiz Answers Holt Biology2012-12-24T23:08:00+00:00 25 K 
[TXT]Ca Ipcc Chapter Wise Important Questions2012-12-25T10:41:00+00:00 18 K 
[TXT]Chapter Test Answers Geometry Concepts And Skills2012-12-25T22:14:00+00:00 24 K 
[TXT]Chapter Test B Cell Reproduction2012-12-26T09:47:00+00:00 21 K 
[TXT]Chapter Test Form G Prentice Hall2012-12-26T21:20:00+00:00 25 K 
[TXT]Chapter Review Money Answers2012-12-27T08:53:00+00:00 24 K 
[TXT]Common Core Outsider Chapter Questions2012-12-27T20:26:00+00:00 21 K 
[TXT]Chapter 31 Section 1 Postwar Uncertainty Answers2012-12-28T07:59:00+00:00 24 K 
[TXT]Chapter Assessment Prentice Hall Physical Science2012-12-28T19:32:00+00:00 18 K 
[TXT]Cp3 Chapter V Loading2012-12-29T07:05:00+00:00 21 K 
[TXT]Chapter One Review Answers Dave Ramsey2012-12-29T18:38:00+00:00 18 K 
[TXT]Chapter Test Enlightenment And Revolution2012-12-30T06:11:00+00:00 21 K 
[TXT]Ccna Exploration Lab Answers All Chapter2012-12-30T17:44:00+00:00 18 K 
[TXT]Chapter 34 Review World Geography Answers2012-12-31T05:17:00+00:00 23 K 
[TXT]Chapter Test Form B Holt Algebra 12012-12-31T16:50:00+00:00 22 K 
[TXT]Comparing Invertebrates Chapter Vocabulary Review Answer Key2013-01-01T04:23:00+00:00 21 K 
[TXT]Chapter Test Thermal Energy Answers2013-01-01T15:56:00+00:00 19 K 
[TXT]Chapter 37 Respiration Circulation And Excretion2013-01-02T03:29:00+00:00 24 K 
[TXT]Chapter Review Nelson Biology2013-01-02T15:02:00+00:00 23 K 
[TXT]Conceptual Physics Chapter 39 Review Answers2013-01-03T02:35:00+00:00 25 K 
[TXT]Chapter Questions And Answers For Automotive Technology2013-01-03T14:08:00+00:00 23 K 
[TXT]Chapter 38 Digestive Excretory Systems Answers2013-01-04T01:41:00+00:00 20 K 
[TXT]Chapter Review Question Answers Apush American Pageant2013-01-04T13:14:00+00:00 17 K 
[TXT]Crash Jerry Spinelli Summary Chapters2013-01-05T00:47:00+00:00 20 K 
[TXT]Comprehension Check Chapters The Outsiders Answers2013-01-05T12:20:00+00:00 22 K 
[TXT]Chapter Summary Activity Government Answers2013-01-05T23:53:00+00:00 21 K 
[TXT]Chapters 25 And 26 Conceptual Physics Review2013-01-06T11:26:00+00:00 19 K 
[TXT]Chapter Vocabulary Review Biology Evolution2013-01-06T22:59:00+00:00 21 K 
[TXT]Chapter Assessment Earth Space2013-01-07T10:32:00+00:00 17 K 
[TXT]Cellular Respiration Chapter Review Answer Key2013-01-07T22:05:00+00:00 19 K 
[TXT]Chapter Test The First World War Answers2013-01-08T09:38:00+00:00 23 K 
[TXT]Chapter Review Work And Machines Answer Sheet2013-01-08T21:11:00+00:00 25 K 
[TXT]Chapter 34 Animal Behavior Answer Key2013-01-09T08:44:00+00:00 21 K 
[TXT]Chemistry Matter And Change Chapter Answers2013-01-09T20:17:00+00:00 22 K 
[TXT]Chapter Assessment Answers Pearson Environmental Science2013-01-10T07:50:00+00:00 20 K 
[TXT]Chapter Review Energy Physical Science Key2013-01-10T19:23:00+00:00 21 K 
[TXT]Chapter Assessment Form B Geometry2013-01-11T06:56:00+00:00 21 K 
[TXT]Chapter Assessment Acids And Bases Answers2013-01-11T18:29:00+00:00 25 K 
[TXT]Chapter Enlightenment And Revolution Test Answers2013-01-12T06:02:00+00:00 19 K 
[TXT]Chapter Review Answer Key 2013 Icd 102013-01-12T17:35:00+00:00 22 K 
[TXT]Chapter Review Electricity Circuits Answers2013-01-13T05:08:00+00:00 21 K 
[TXT]Civics Government And Action Chapter Three Notes2013-01-13T16:41:00+00:00 21 K 
[TXT]Chapter Review For Work Power And Machines2013-01-14T04:14:00+00:00 18 K 
[TXT]Cbse Social Science Chapter Wise Questions2013-01-14T15:47:00+00:00 22 K 
[TXT]Chapter Test Magnetism Answers2013-01-15T03:20:00+00:00 19 K 
[TXT]Chapter Test Geometry Answers2013-01-15T14:53:00+00:00 24 K 
[TXT]Chapter Review Electricity Physical Science Answers2013-01-16T02:26:00+00:00 18 K 
[TXT]Chapter Mystery Pearson Biology2013-01-16T13:59:00+00:00 21 K 
[TXT]Chapter Test Answers For Earth Science2013-01-17T01:32:00+00:00 22 K 
[TXT]Chapter Summary Of Breaking Through2013-01-17T13:05:00+00:00 24 K 
[TXT]Chapter Cardiovascular System2013-01-18T00:38:00+00:00 20 K 
[TXT]Chemical Quantities Answers Key Chapter Test2013-01-18T12:11:00+00:00 20 K 
[TXT]Chapter Assessment Answers Physical Science2013-01-18T23:44:00+00:00 19 K 
[TXT]Chapter Review And Assess Answers Holt Physics2013-01-19T11:17:00+00:00 21 K 
[TXT]Chapter Assessment Answer United States History2013-01-19T22:50:00+00:00 23 K 
[TXT]Conceptual Physics Chapter Assessment2013-01-20T10:23:00+00:00 24 K 
[TXT]Cbse Science Chapter Wise Questions2013-01-20T21:56:00+00:00 25 K 
[TXT]Chapter Assessment Answers Geometry2013-01-21T09:29:00+00:00 17 K 
[TXT]Chapters Answers To A Lesson Before Dying2013-01-21T21:02:00+00:00 19 K 
[TXT]Chapter Questions For Ungifted By Korman2013-01-22T08:35:00+00:00 25 K 
[TXT]Chapter One Review Questions Electrical Wiring Residential2013-01-22T20:08:00+00:00 20 K 
[TXT]Chemistry Chapter Assessment Applying Scientific Methods Answers2013-01-23T07:41:00+00:00 25 K 
[TXT]Chapter 31 Aggressors Invade Nations2013-01-23T19:14:00+00:00 25 K 
[TXT]Communities And Biomes Chapter Assessment Answers2013-01-24T06:47:00+00:00 25 K 
[TXT]Chapter Electric Current Circuits Physics Test Answers2013-01-24T18:20:00+00:00 22 K 
[TXT]Chapter Questions And Answers For Frankenstein2013-01-25T05:53:00+00:00 20 K 
[TXT]Computer Concepts 2013 Chapter Summaries2013-01-25T17:26:00+00:00 20 K 
[TXT]Chemistry Matter And Change Chapter Test Answers2013-01-26T04:59:00+00:00 17 K 
[TXT]Chapter Summary Activity People And Government Answers2013-01-26T16:32:00+00:00 19 K 
[TXT]Chapter 37 Ancient Rome2013-01-27T04:05:00+00:00 23 K 
[TXT]Chapter Review Acids And Bases Answers2013-01-27T15:38:00+00:00 23 K 
[TXT]Circuit Francisco Jimenez Chapter Summaries2013-01-28T03:11:00+00:00 23 K 
[TXT]Chapter Review Games And Activities Geometry Answer2013-01-28T14:44:00+00:00 18 K 
[TXT]Chapter Wise Class 12 Maths Notes2013-01-29T02:17:00+00:00 24 K 
[TXT]Chapter Assessment Answers World History2013-01-29T13:50:00+00:00 20 K 
[TXT]Cognitive Psychology Goldstein Chapter Quiz2013-01-30T01:23:00+00:00 21 K 
[TXT]Chapter Review Genetic And Dna Answer Key2013-01-30T12:56:00+00:00 23 K 
[TXT]Chapter Questions For Gifted Hands2013-01-31T00:29:00+00:00 21 K 
[TXT]Chemical Formulas And Compounds Chapter Test2013-01-31T12:02:00+00:00 25 K 
[TXT]Cfin 4 End Of Chapter Solutions2013-01-31T23:35:00+00:00 19 K 
[TXT]Chapter Summary For Ugly Robert Hoge2013-02-01T11:08:00+00:00 19 K 
[TXT]Cbse Chapter Wise Economics Questions Bank2013-02-01T22:41:00+00:00 20 K 
[TXT]Chapter Review Graphics Interpreting Graphs Answer Key2013-02-02T10:14:00+00:00 22 K 
[TXT]Chemistry Chapter Solutions 12Th Class2013-02-02T21:47:00+00:00 21 K 
[TXT]Chapter Review Games And Activities Answer Key2013-02-03T09:20:00+00:00 24 K 
[TXT]Chapter Review Radioactivity And Nuclear Reactions Key2013-02-03T20:53:00+00:00 20 K 
[TXT]Chapter 35 Nervous System Vocabulary Review2013-02-04T08:26:00+00:00 19 K 
[TXT]Chemistry Matter And Change Chapter Assessment Answers2013-02-04T19:59:00+00:00 23 K 
[TXT]Chapter 38 Digestive And Nutrition Answers2013-02-05T07:32:00+00:00 20 K 
[TXT]Chapter Test Geometry Resource2013-02-05T19:05:00+00:00 22 K 
[TXT]Chapter Summary Activity Constitutional Freedoms Answers2013-02-06T06:38:00+00:00 23 K 
[TXT]Chapter 35 Section 1 Human Body Systems2013-02-06T18:11:00+00:00 24 K 
[TXT]Conceptual Physics Paul Hewitt Chapter Answers2013-02-07T05:44:00+00:00 22 K 
[TXT]Chinese With Mike Chapter 112013-02-07T17:17:00+00:00 22 K 
[TXT]Celebrating Texas Assessment Answer Key Chapter 302013-02-08T04:50:00+00:00 23 K 
[TXT]Chapter V Answers To The 20092013-02-08T16:23:00+00:00 18 K 
[TXT]Core Teaching Resource Chapter Test2013-02-09T03:56:00+00:00 25 K 
[TXT]Chapter 5 Continued Pearson2013-02-09T15:29:00+00:00 17 K 
[TXT]Chapter 34 Workbook In Pearsons Medical Assisting2013-02-10T03:02:00+00:00 19 K 
[TXT]Chapter 16 Business Communication Answer Key2013-02-10T14:35:00+00:00 19 K 
[TXT]Chapter 10 Pearson Education2013-02-11T02:08:00+00:00 24 K 
[TXT]Computer Concepts 2013 Answers Chapter 62013-02-11T13:41:00+00:00 25 K 
[TXT]Chapter 3 Performance Task 1 Geometry2013-02-12T01:14:00+00:00 25 K 
[TXT]Chapter 7 Gm Operations Snap On2013-02-12T12:47:00+00:00 17 K 
[TXT]Chapter 13 Financial Markets And Institutions Solutions2013-02-13T00:20:00+00:00 24 K 
[TXT]Chapter 16 Assessment 12013-02-13T11:53:00+00:00 19 K 
[TXT]Chapter 16 On Project Rfp2013-02-13T23:26:00+00:00 21 K 
[TXT]Chapter18 Earth Science Volcanism Answers2013-02-14T10:59:00+00:00 21 K 
[TXT]Chapter Assessment Answers Work Power And Machines2013-02-14T22:32:00+00:00 24 K 
[TXT]Chapter By Answer Key2013-02-15T10:05:00+00:00 20 K 
[TXT]Chapter Test C2013-02-15T21:38:00+00:00 24 K 
[TXT]Chapter 7 Holt Chemistry Test Answers2013-02-16T09:11:00+00:00 17 K 
[TXT]Chapter 2 Wiley2013-02-16T20:44:00+00:00 23 K 
[TXT]Chapter 6 Resource Masters Vaqio2013-02-17T08:17:00+00:00 21 K 
[TXT]Century 21 Southwestern Accounting 8E Chapter 82013-02-17T19:50:00+00:00 22 K 
[TXT]Chapter 12 Review Discovering Geometry2013-02-18T07:23:00+00:00 22 K 
[TXT]Chapter 7Test Chemical Formulas And Compounds2013-02-18T18:56:00+00:00 24 K 
[TXT]Chapter 35 And 36 Basic Pharmacology Answers2013-02-19T06:29:00+00:00 25 K 
[TXT]Chapter 30 Hurricane Andrew Earth Science Lab2013-02-19T18:02:00+00:00 20 K 
[TXT]Chapter Test Answers Holt Physical Science Matter2013-02-20T05:35:00+00:00 19 K 
[TXT]Chapter 20 Miscellaneous Items2013-02-20T17:08:00+00:00 21 K 
[TXT]Chapter 7 Shaping Earths Surface Answer Key2013-02-21T04:41:00+00:00 17 K 
[TXT]Chapter 10 Resource Masters Chrissmola Com2013-02-21T16:14:00+00:00 17 K 
[TXT]Chapter Review Holt Physical Science Answer Key2013-02-22T03:47:00+00:00 17 K 
[TXT]Cisco Netacad Chapter Answers2013-02-22T15:20:00+00:00 23 K 
[TXT]Chapter Wise Question For Iit Jee2013-02-23T02:53:00+00:00 23 K 
[TXT]Chapter Test Answers Holt Physical Science2013-02-23T14:26:00+00:00 19 K 
[TXT]Chapter Section Quiz Answers Holt Geometry2013-02-24T01:59:00+00:00 22 K 
[TXT]Chapter Assessment Answers Prentice Hall Earth Science2013-02-24T13:32:00+00:00 24 K 
[TXT]Chapter 39 Endocrine Reproductive Systems Answer Key2013-02-25T01:05:00+00:00 21 K 
[TXT]Chapter Assessment Answers For The American Vision2013-02-25T12:38:00+00:00 25 K 
[TXT]Chapter 11 Body Hyundai2013-02-26T00:11:00+00:00 22 K 
[TXT]Chapter 3 Mysap Hr In The Project Mastering Management By Christian2013-02-26T11:44:00+00:00 21 K 
[TXT]Chapter Pag Audi A62013-02-26T23:17:00+00:00 24 K 
[TXT]Citroen Zx Chapter 32013-02-27T10:50:00+00:00 22 K 
[TXT]Chapter 3 Fuel And Exhaust System2013-02-27T22:23:00+00:00 20 K 
[TXT]Chapter 11Aaeur Of The California Building Code Title 24 Regulations Part 22013-02-28T09:56:00+00:00 18 K 
[TXT]Chapter 2 Of Dreamweaver4 Tutorial2013-02-28T21:29:00+00:00 17 K 
[TXT]Chapter 4 Part A Fuel And Exhaust Systems Solex 32 342013-03-01T09:02:00+00:00 24 K 
[TXT]Citroen Zx Chapter 112013-03-01T20:35:00+00:00 25 K 
[TXT]Chapter 14 Of Army Field Manual 21 20 Physical Fitness Training2013-03-02T08:08:00+00:00 21 K 
[TXT]Caltrans Traffic Manual Chapter 72013-03-02T19:41:00+00:00 23 K 
[TXT]College Accounting Chapters 1 9 Book Download2013-03-03T07:14:00+00:00 17 K 
[TXT]College Accounting Chapters 1 26 Book2013-03-03T18:47:00+00:00 19 K 
[TXT]Comic Book Nation Chapter Summary2013-03-04T06:20:00+00:00 18 K 
[TXT]Chapter 1 Introduction To Accounting And Business2013-03-04T17:53:00+00:00 22 K 
[TXT]Chapter 1 Introduction To Chemistry Worksheet Answers2013-03-05T05:26:00+00:00 24 K 
[TXT]Chapter 1 Introduction Themes In The Study Of Life2013-03-05T16:59:00+00:00 25 K 
[TXT]Chapter 1 Introduction To Organizational Behavior2013-03-06T04:32:00+00:00 22 K 
[TXT]Chapter 1 Introduction To Computers2013-03-06T16:05:00+00:00 18 K 
[TXT]Chapter 1 Introduction To Qualitative Research Methods2013-03-07T03:38:00+00:00 18 K 
[TXT]Chapter 5 Trey Songz2013-03-07T15:11:00+00:00 18 K 
[TXT]Chapter 5 Great Gatsby2013-03-08T02:44:00+00:00 19 K 
[TXT]Chapter 5 Trey Songz Zip2013-03-08T14:17:00+00:00 18 K 
[TXT]Chapter 5 Lord Of The Flies2013-03-09T01:50:00+00:00 19 K 
[TXT]Chapter 5 Army2013-03-09T13:23:00+00:00 17 K 
[TXT]Chapter 5 Aa2013-03-10T00:56:00+00:00 25 K 
[TXT]Chapter 5 Road To Independence2013-03-10T12:29:00+00:00 21 K 
[TXT]Chapter 3 Great Gatsby2013-03-11T00:02:00+00:00 22 K 
[TXT]Chapter 3 Of Mice And Men2013-03-11T11:35:00+00:00 24 K 
[TXT]Chapter 3 Lord Of The Flies2013-03-11T23:08:00+00:00 17 K 
[TXT]Chapter 3 Scarlet Letter2013-03-12T10:41:00+00:00 22 K 
[TXT]Chapter 3 The Biosphere2013-03-12T22:14:00+00:00 20 K 
[TXT]Chapter 3 Genesis2013-03-13T09:47:00+00:00 22 K 
[TXT]Chapter 3 Geometry2013-03-13T21:20:00+00:00 20 K 
[TXT]Chapter 1 Introduction To Eclipse2013-03-14T08:53:00+00:00 17 K 
[TXT]Clarkwork Geometry Chapter 72013-03-14T20:26:00+00:00 25 K 
[TXT]Chapter 7 Human Geography2013-03-15T07:59:00+00:00 22 K 
[TXT]Chapter 7 Geometry Notes2013-03-15T19:32:00+00:00 17 K 
[TXT]Chapter 7 Coordinate Geometry2013-03-16T07:05:00+00:00 23 K 
[TXT]Chapter 7 Geometry Conjectures2013-03-16T18:38:00+00:00 22 K 
[TXT]Chapterhouse Whirlpool Download2013-03-17T06:11:00+00:00 22 K 
[TXT]Cost Accounting Test Bank Chapter 72013-03-17T17:44:00+00:00 20 K 
[TXT]Cost Accounting Test Bank Chapter 42013-03-18T05:17:00+00:00 22 K 
[TXT]Cost Accounting Test Bank Chapter 122013-03-18T16:50:00+00:00 24 K 
[TXT]Cost Accounting Chapter 7 Test Bank2013-03-19T04:23:00+00:00 22 K 
[TXT]Cost Accounting Chapter 6 Test Bank2013-03-19T15:56:00+00:00 19 K 
[TXT]Core Teaching Resources Chapters 19 Answer Key2013-03-20T03:29:00+00:00 23 K 
[TXT]Core Teaching Resources Chapters 192013-03-20T15:02:00+00:00 21 K 
[TXT]Connect Accounting Answers Chapter 22013-03-21T02:35:00+00:00 24 K 
[TXT]Connect Accounting Answers Chapter 112013-03-21T14:08:00+00:00 25 K 
[TXT]Conceptual Physics Paul Hewitt Chapter 62013-03-22T01:41:00+00:00 23 K 
[TXT]Conceptual Physics Chapter 9 Answers2013-03-22T13:14:00+00:00 25 K 
[TXT]Conceptual Physics Chapter 8 Answers2013-03-23T00:47:00+00:00 18 K 
[TXT]Conceptual Physics Chapter 7 Review Answers2013-03-23T12:20:00+00:00 25 K 
[TXT]Conceptual Physics Chapter 7 Momentum Answers2013-03-23T23:53:00+00:00 19 K 
[TXT]Conceptual Physics Chapter 7 Answers2013-03-24T11:26:00+00:00 18 K 
[TXT]Conceptual Physics Chapter 6 Answers2013-03-24T22:59:00+00:00 24 K 
[TXT]Conceptual Physics Chapter 27 Answers2013-03-25T10:32:00+00:00 23 K 
[TXT]Conceptual Physics Chapter 2 Linear Motion Answers2013-03-25T22:05:00+00:00 24 K 
[TXT]Conceptual Physics Chapter 2 Answers2013-03-26T09:38:00+00:00 22 K 
[TXT]Conceptual Physics Answers Chapter 42013-03-26T21:11:00+00:00 24 K 
[TXT]Conceptual Physics Answer Key Chapter 92013-03-27T08:44:00+00:00 20 K 
[TXT]Conceptual Physics Answer Key Chapter 332013-03-27T20:17:00+00:00 17 K 
[TXT]Computer Science Illuminated Chapter14 Answers2013-03-28T07:50:00+00:00 20 K 
[TXT]Chemistry Review Module Chapters 17 20 Answers2013-03-28T19:23:00+00:00 24 K 
[TXT]Chemistry Matter And Change Chapter 9 Answers2013-03-29T06:56:00+00:00 17 K 
[TXT]Chemistry Matter And Change Chapter 6 Answers2013-03-29T18:29:00+00:00 19 K 
[TXT]Chemistry Matter And Change Chapter 3 Answers2013-03-30T06:02:00+00:00 21 K 
[TXT]Chemistry Matter And Change Chapter 18 Answers2013-03-30T17:35:00+00:00 18 K 
[TXT]Chemistry Matter And Change Chapter 14 Answers2013-03-31T05:08:00+00:00 17 K 
[TXT]Chemistry Matter And Change Chapter 13 Answer Key2013-03-31T16:41:00+00:00 17 K 
[TXT]Chemistry Matter And Change Chapter 12 Answers2013-04-01T04:14:00+00:00 23 K 
[TXT]Chemistry Matter And Change Chapter 11 Answers2013-04-01T15:47:00+00:00 21 K 
[TXT]Chemistry Chapter8 Homework2013-04-02T03:20:00+00:00 22 K 
[TXT]Charlie And The Chocolate Factory Chapter Questions2013-04-02T14:53:00+00:00 22 K 
[TXT]Chapters Of Diesel Trade Theory N22013-04-03T02:26:00+00:00 17 K 
[TXT]Chapters 10 Test Answers Geometrypage 6532013-04-03T13:59:00+00:00 25 K 
[TXT]Chapter9 Algebra 1 Review Answers Pg 4852013-04-04T01:32:00+00:00 19 K 
[TXT]Chapter8 Profit Maximization2013-04-04T13:05:00+00:00 21 K 
[TXT]Chapter8 Geometry Test Answer Key Form2013-04-05T00:38:00+00:00 24 K 
[TXT]Chapter8 Geometry Test Answer Key2013-04-05T12:11:00+00:00 18 K 
[TXT]Chapter7 Geometry Test Answer Key2013-04-05T23:44:00+00:00 18 K 
[TXT]Chapter6 Test Algebra 1 Answers Mcdougal2013-04-06T11:17:00+00:00 24 K 
[TXT]Chapter6 Humans In The Biosphere Answer Key2013-04-06T22:50:00+00:00 20 K 
[TXT]Chapter6 Humans In The Biosphere2013-04-07T10:23:00+00:00 17 K 
[TXT]Chapter6 Geometry Test Answer Key2013-04-07T21:56:00+00:00 17 K 
[TXT]Chapter4 Forces And Laws Of Motion2013-04-08T09:29:00+00:00 22 K 
[TXT]Chapter3 Two Dimentional Motion And Vectors2013-04-08T21:02:00+00:00 25 K 
[TXT]Chapter3 Two Dimensional Motion And Vectors2013-04-09T08:35:00+00:00 23 K 
[TXT]Chapter3 The Biosphere Vocabulary Review Answers2013-04-09T20:08:00+00:00 21 K 
[TXT]Chapter19 Earth Science Earthquake Answers2013-04-10T07:41:00+00:00 22 K 
[TXT]Chapter18 Earth Science Volcanoes Answers2013-04-10T19:14:00+00:00 22 K 
[TXT]Chapter15 Workbook Vocabulary Review Answer Key2013-04-11T06:47:00+00:00 25 K 
[TXT]Chapter Review Quiz2013-04-11T18:20:00+00:00 23 K 
[TXT]Chapter 9 Ten Words In Context2013-04-12T05:53:00+00:00 25 K 
[TXT]Chapter 9 Stoichiometry Test Answers2013-04-12T17:26:00+00:00 24 K 
[TXT]Chapter 8 The Digestive System2013-04-13T04:59:00+00:00 23 K 
[TXT]Chapter 8 Ten Words In Context2013-04-13T16:32:00+00:00 18 K 
[TXT]Chapter 8 Biology Test Answer Key2013-04-14T04:05:00+00:00 19 K 
[TXT]Chapter 7 Ten Words In Context2013-04-14T15:38:00+00:00 25 K 
[TXT]Chapter 7 Quiz 1 Geometry2013-04-15T03:11:00+00:00 18 K 
[TXT]Chapter 7 Biology Test Answers2013-04-15T14:44:00+00:00 19 K 
[TXT]Chapter 6 Quiz 1 Geometry Answers2013-04-16T02:17:00+00:00 22 K 
[TXT]Chapter 6 Quiz 1 Geometry2013-04-16T13:50:00+00:00 22 K 
[TXT]Chapter 6 Polynomials And Polynomial Functions Crossword2013-04-17T01:23:00+00:00 25 K 
[TXT]Chapter 6 Polynomials And Polynomial Functions Answers2013-04-17T12:56:00+00:00 19 K 
[TXT]Chapter 6 Fossil Fuels Overview2013-04-18T00:29:00+00:00 23 K 
[TXT]Chapter 5 The Skeletal System Packet Answers2013-04-18T12:02:00+00:00 24 K 
[TXT]Chapter 5 The Skeletal System Packet Answer Key Part 22013-04-18T23:35:00+00:00 21 K 
[TXT]Chapter 5 The Skeletal System Coloring Workbook Answer Key2013-04-19T11:08:00+00:00 18 K 
[TXT]Chapter 5 The Skeletal System Answers2013-04-19T22:41:00+00:00 22 K 
[TXT]Chapter 5 The Skeletal System Answer Key2013-04-20T10:14:00+00:00 22 K 
[TXT]Chapter 5 Ten Words In Context Answers2013-04-20T21:47:00+00:00 20 K 
[TXT]Chapter 5 Section 1 Understanding Supply Worksheet Answers2013-04-21T09:20:00+00:00 21 K 
[TXT]Chapter 5 Section 1 Understanding Supply Answer Key2013-04-21T20:53:00+00:00 17 K 
[TXT]Chapter 5 Section 1 Understanding Supply2013-04-22T08:26:00+00:00 21 K 
[TXT]Chapter 5 Section 1 Quiz Understanding Supply Answers2013-04-22T19:59:00+00:00 21 K 
[TXT]Chapter 5 Populations Worksheet Answers2013-04-23T07:32:00+00:00 22 K 
[TXT]Chapter 5 Populations Vocabulary Review Answer Key2013-04-23T19:05:00+00:00 21 K 
[TXT]Chapter 5 Populations Answer Key Biology2013-04-24T06:38:00+00:00 19 K 
[TXT]Chapter 5 Populations Answer Key2013-04-24T18:11:00+00:00 18 K 
[TXT]Chapter 5 Polynomials And Polynomial Functions Answers2013-04-25T05:44:00+00:00 18 K 
[TXT]Chapter 5 Polynomials And Polynomial Functions2013-04-25T17:17:00+00:00 24 K 
[TXT]Chapter 5 Digestive System2013-04-26T04:50:00+00:00 17 K 
[TXT]Chapter 5 Test Answer Geometry Textbook2013-04-26T16:23:00+00:00 24 K 
[TXT]Chapter 5 3 Human Population Growth Answer Key2013-04-27T03:56:00+00:00 23 K 
[TXT]Chapter 43 The Immune System Answers2013-04-27T15:29:00+00:00 24 K 
[TXT]Chapter 40 1 Infectious Disease2013-04-28T03:02:00+00:00 21 K 
[TXT]Chapter 4 Ten Words In Context Sentence Check 22013-04-28T14:35:00+00:00 25 K 
[TXT]Chapter 4 Ten Words In Context Answers2013-04-29T02:08:00+00:00 17 K 
[TXT]Chapter 4 Ten Words In Context2013-04-29T13:41:00+00:00 21 K 
[TXT]Chapter 4 Part 1 Ten Words In Context2013-04-30T01:14:00+00:00 18 K 
[TXT]Chapter 37 Circulatory And Respiratory Systems Answer Key2013-04-30T12:47:00+00:00 20 K 
[TXT]Chapter 36 Skeletal Muscular And Integumentary Systems Test2013-05-01T00:20:00+00:00 18 K 
[TXT]Chapter 3 Two Dimensional Motion And Vectors Test2013-05-01T11:53:00+00:00 24 K 
[TXT]Chapter 3 Two Dimensional Motion And Vectors Answers2013-05-01T23:26:00+00:00 19 K 
[TXT]Chapter 3 Ten Words In Context Sentence Check 12013-05-02T10:59:00+00:00 20 K 
[TXT]Chapter 3 Ten Words In Context2013-05-02T22:32:00+00:00 21 K 
[TXT]Chapter 3 States Of Matter Wordwise2013-05-03T10:05:00+00:00 18 K 
[TXT]Chapter 3 Sentence Check 22013-05-03T21:38:00+00:00 24 K 
[TXT]Chapter 29 Section 1 Taking On Segregation Quiz2013-05-04T09:11:00+00:00 23 K 
[TXT]Chapter 29 Section 1 Taking On Segregation2013-05-04T20:44:00+00:00 24 K 
[TXT]Chapter 25 Nuclear Chemistry Answer Key2013-05-05T08:17:00+00:00 21 K 
[TXT]Chapter 24 Digestive System2013-05-05T19:50:00+00:00 18 K 
[TXT]Chapter 23 The Evolution Of Populations Answer Key2013-05-06T07:23:00+00:00 19 K 
[TXT]Chapter 23 Digestive System2013-05-06T18:56:00+00:00 21 K 
[TXT]Chapter 22 Descent With Modification Answers2013-05-07T06:29:00+00:00 23 K 
[TXT]Chapter 21 Section 1 Taking On Segregation Answers2013-05-07T18:02:00+00:00 23 K 
[TXT]Chapter 21 Section 1 Taking On Segregation Answer Key2013-05-08T05:35:00+00:00 18 K 
[TXT]Chapter 21 Section 1 Taking On Segregation2013-05-08T17:08:00+00:00 18 K 
[TXT]Chapter 21 Fungi Section Review 1 Answers2013-05-09T04:41:00+00:00 17 K 
[TXT]Chapter 21 Fungi Answer Key2013-05-09T16:14:00+00:00 20 K 
[TXT]Chapter 20 Protists Vocabulary Review Answer Key2013-05-10T03:47:00+00:00 19 K 
[TXT]Chapter 20 Protists Answer Key2013-05-10T15:20:00+00:00 24 K 
[TXT]Chapter 19 Acids Bases And Salts Worksheet Answers2013-05-11T02:53:00+00:00 20 K 
[TXT]Chapter 19 Acids And Bases Answer Key2013-05-11T14:26:00+00:00 18 K 
[TXT]Chapter 18 Regulation Of Gene Expression Outline2013-05-12T01:59:00+00:00 22 K 
[TXT]Chapter 18 Regulation Of Gene Expression Answers2013-05-12T13:32:00+00:00 19 K 
[TXT]Chapter 18 Regulation Of Gene Expression Activities Quiz2013-05-13T01:05:00+00:00 23 K 
[TXT]Chapter 18 Biology Review Answers2013-05-13T12:38:00+00:00 22 K 
[TXT]Chapter 17 Wordwise Answers2013-05-14T00:11:00+00:00 20 K 
[TXT]Chapter 17 Water And Aqueous Systems Answers2013-05-14T11:44:00+00:00 18 K 
[TXT]Chapter 17 Digestive System2013-05-14T23:17:00+00:00 23 K 
[TXT]Chapter 16 Solution 14E Testbank2013-05-15T10:50:00+00:00 23 K 
[TXT]Chapter 15 Water And Aqueous Systems Vocabulary Review2013-05-15T22:23:00+00:00 19 K 
[TXT]Chapter 15 Water And Aqueous Systems Test B2013-05-16T09:56:00+00:00 21 K 
[TXT]Chapter 15 Water And Aqueous Systems Test Answers2013-05-16T21:29:00+00:00 25 K 
[TXT]Chapter 15 Water And Aqueous Systems Section Review Answers2013-05-17T09:02:00+00:00 22 K 
[TXT]Chapter 15 Water And Aqueous Systems Section Review2013-05-17T20:35:00+00:00 17 K 
[TXT]Chapter 15 Water And Aqueous Systems Answer Key2013-05-18T08:08:00+00:00 17 K 
[TXT]Chapter 15 The Digestive System2013-05-18T19:41:00+00:00 20 K 
[TXT]Chapter 14 Wordwise Answers Biology2013-05-19T07:14:00+00:00 23 K 
[TXT]Chapter 14 The Behavior Of Gases Worksheet Answers2013-05-19T18:47:00+00:00 24 K 
[TXT]Chapter 14 The Behavior Of Gases Vocabulary Review Answers2013-05-20T06:20:00+00:00 25 K 
[TXT]Chapter 14 The Behavior Of Gases Test B2013-05-20T17:53:00+00:00 25 K 
[TXT]Chapter 14 The Behavior Of Gases Test A Answers2013-05-21T05:26:00+00:00 18 K 
[TXT]Chapter 14 The Behavior Of Gases Section Review Answer Key2013-05-21T16:59:00+00:00 21 K 
[TXT]Chapter 14 The Behavior Of Gases Practice Problems Answers2013-05-22T04:32:00+00:00 22 K 
[TXT]Chapter 14 The Behavior Of Gases Packet Answers2013-05-22T16:05:00+00:00 24 K 
[TXT]Chapter 14 Digestive System2013-05-23T03:38:00+00:00 22 K 
[TXT]Chapter 14 Chemical Equilibrium Quiz2013-05-23T15:11:00+00:00 24 K 
[TXT]Chapter 14 Algebra 22013-05-24T02:44:00+00:00 25 K 
[TXT]Chapter 13 The Respiratory System Worksheet Answers2013-05-24T14:17:00+00:00 25 K 
[TXT]Chapter 13 The Respiratory System Packet Answers2013-05-25T01:50:00+00:00 18 K 
[TXT]Chapter 13 The Respiratory System Coloring Workbook Answers2013-05-25T13:23:00+00:00 23 K 
[TXT]Chapter 13 The Respiratory System Answers2013-05-26T00:56:00+00:00 20 K 
[TXT]Chapter 13 The Respiratory System Answer Key2013-05-26T12:29:00+00:00 19 K 
[TXT]Chapter 13 The Respiratory System2013-05-27T00:02:00+00:00 20 K 
[TXT]Chapter 13 Ten Words In Context2013-05-27T11:35:00+00:00 22 K 
[TXT]Chapter 13 Respiratory System Test Answers2013-05-27T23:08:00+00:00 25 K 
[TXT]Chapter 13 Respiratory System Packet Answer Key2013-05-28T10:41:00+00:00 25 K 
[TXT]Chapter 13 European Middle Ages Crossword Puzzle2013-05-28T22:14:00+00:00 17 K 
[TXT]Chapter 12 Wordwise Answers2013-05-29T09:47:00+00:00 18 K 
[TXT]Chapter 12 Stoichiometry Test Answers2013-05-29T21:20:00+00:00 23 K 
[TXT]Chapter 12 Economics Test Answers2013-05-30T08:53:00+00:00 23 K 
[TXT]Chapter 12 Dna And Rna Section Review 1 Answer Key2013-05-30T20:26:00+00:00 20 K 
[TXT]Chapter 12 Biology Test Answers2013-05-31T07:59:00+00:00 19 K 
[TXT]Chapter 11 Vocabulary Review Answer Key2013-05-31T19:32:00+00:00 23 K 
[TXT]Chapter 11 Ten Words In Context2013-06-01T07:05:00+00:00 17 K 
[TXT]Chapter 11 Section 2 Complex Patterns Of Inheritance Answers2013-06-01T18:38:00+00:00 19 K 
[TXT]Chapter 11 Review Gases Section 4 Answers2013-06-02T06:11:00+00:00 24 K 
[TXT]Chapter 11 Review Gases Section 3 Short Answer2013-06-02T17:44:00+00:00 20 K 
[TXT]Chapter 11 Review Gases Section 3 Modern Chemistry Answers2013-06-03T05:17:00+00:00 17 K 
[TXT]Chapter 11 Review Gases Section 22013-06-03T16:50:00+00:00 23 K 
[TXT]Chapter 11 Review Gases Section 1 Worksheet Answers2013-06-04T04:23:00+00:00 20 K 
[TXT]Chapter 11 Review Gases Section 1 Answers2013-06-04T15:56:00+00:00 17 K 
[TXT]Chapter 11 Review Gases Section 1 Answer Key2013-06-05T03:29:00+00:00 24 K 
[TXT]Chapter 11 Review Gases Mixed Answers2013-06-05T15:02:00+00:00 24 K 
[TXT]Chapter 11 Review Gases Answer Key2013-06-06T02:35:00+00:00 22 K 
[TXT]Chapter 11 Intelligence Answers2013-06-06T14:08:00+00:00 23 K 
[TXT]Chapter 11 Experiment 17 Precipitation Reactions2013-06-07T01:41:00+00:00 21 K 
[TXT]Chapter 11 Chemical Reactions Vocabulary Review Answer Key2013-06-07T13:14:00+00:00 20 K 
[TXT]Chapter 10 Ten Words In Context Answers2013-06-08T00:47:00+00:00 22 K 
[TXT]Chapter 10 Ten Words In Context2013-06-08T12:20:00+00:00 21 K 
[TXT]Chapter 10 Biology Test Answers2013-06-08T23:53:00+00:00 21 K 
[TXT]Chapter 1 The Science Of Biology Vocabulary Review2013-06-09T11:26:00+00:00 20 K 
[TXT]Chapter 1 The Science Of Biology Quizlet2013-06-09T22:59:00+00:00 24 K 
[TXT]Chapter 1 The Science Of Biology Answers2013-06-10T10:32:00+00:00 24 K 
[TXT]Chapter 1 The Science Of Biology2013-06-10T22:05:00+00:00 23 K 
[TXT]Chapter 1 Ten Words In Context Answers Sentence Check 22013-06-11T09:38:00+00:00 21 K 
[TXT]Chapter 1 Section Government And The State2013-06-11T21:11:00+00:00 24 K 
[TXT]Carnegie Learning Geometry Skills Practice Answers Chapter 62013-06-12T08:44:00+00:00 23 K 
[TXT]Campbell Biology Chapter 16 Quiz2013-06-12T20:17:00+00:00 21 K 
[TXT]Calculus And Vectors 12 Nelson Solution Manual Chapter 82013-06-13T07:50:00+00:00 25 K 
[TXT]Calculus And Vectors 12 Nelson Solution Manual Chapter 32013-06-13T19:23:00+00:00 21 K 
[TXT]Chapter 1 Weber Carburettor Principle2013-06-14T06:56:00+00:00 19 K 
[TXT]Casteel 10G Chapter 12013-06-14T18:29:00+00:00 19 K 
[TXT]Chapter 1Introduction To Edgecam2013-06-15T06:02:00+00:00 23 K 
[TXT]Chapter 7 Luenberg2013-06-15T17:35:00+00:00 25 K 
[TXT]Chapter 6 Figure 1 Downdraft Blast Enclosure2013-06-16T05:08:00+00:00 20 K 
[TXT]Chapter Reverse Osmosis2013-06-16T16:41:00+00:00 17 K 
[TXT]Chapter 27 Of Turton Process And Design2013-06-17T04:14:00+00:00 23 K 
[TXT]Chapter 6 High Speed Machining2013-06-17T15:47:00+00:00 24 K 
[TXT]Chapter 2 Acgih2013-06-18T03:20:00+00:00 18 K 
[TXT]Chapter 4 Electonic Cmmunication System2013-06-18T14:53:00+00:00 20 K 
[TXT]Chapter Of Maruti 800 Engine2013-06-19T02:26:00+00:00 18 K 
[TXT]Chapter 6 Investment Science Luenberger2013-06-19T13:59:00+00:00 18 K 
[TXT]Chapter 7 Of Luenberger2013-06-20T01:32:00+00:00 19 K 
[TXT]Cad Exercise File Chapter2013-06-20T13:05:00+00:00 25 K 
[TXT]Chapter 3 To 14 Qtp Dani Vainstein2013-06-21T00:38:00+00:00 23 K 
[TXT]Chapter 1 Overview Of Conceptual And Synthesis Chemical Processes2013-06-21T12:11:00+00:00 25 K 
[TXT]Configuring Stickiness Ace Chapter 52013-06-21T23:44:00+00:00 20 K 
[TXT]Chapter 20 Wiring Standard Practices2013-06-22T11:17:00+00:00 18 K 
[TXT]Chapter On Navigation System Of Instrument Flying Handbook In Free Download2013-06-22T22:50:00+00:00 21 K 
[TXT]Chapter 2 About The Powerbuilder Tutorial2013-06-23T10:23:00+00:00 25 K 
[TXT]Chapter 42 Potter And Perry2013-06-23T21:56:00+00:00 23 K 
[TXT]Chapter 20 Swpm2013-06-24T09:29:00+00:00 24 K 
[TXT]Chapter1 Introduction To Javacc2013-06-24T21:02:00+00:00 23 K 
[TXT]Chapter 31 A320 Airbus2013-06-25T08:35:00+00:00 22 K 
[TXT]Chapter 1 Introduction To Javacc2013-06-25T20:08:00+00:00 22 K 
[TXT]Chapter 3 For Citroen Zx Haynes2013-06-26T07:41:00+00:00 19 K 
[TXT]Chapter Electrical System 19992013-06-26T19:14:00+00:00 20 K 
[TXT]Chapter Electrical System 1999 Chevrolet2013-06-27T06:47:00+00:00 19 K 
[TXT]Chapter 10 Of Industrial Ventilation A Manual Recommended Practice Free Download2013-06-27T18:20:00+00:00 24 K 
[TXT]Chapter Logarithm Maths 112013-06-28T05:53:00+00:00 19 K 
[TXT]Chapter 34 Section 2 Session Assessment Biology2013-06-28T17:26:00+00:00 23 K 
[TXT]Chapter Review Questions Circulatory System Conditions2013-06-29T04:59:00+00:00 17 K 
[TXT]Crossword Puzzles On Acts Chapter One2013-06-29T16:32:00+00:00 22 K 
[TXT]College Physics A Strategic Approach Chapter Notes2013-06-30T04:05:00+00:00 21 K 
[TXT]Chapter 5 Holt Geometry Quiz2013-06-30T15:38:00+00:00 17 K 
[TXT]Chapter 6 Money In Review Dave Ramsey Answers Files2013-07-01T03:11:00+00:00 25 K 
[TXT]Chapter 6 Money In Review Answers2013-07-01T14:44:00+00:00 22 K 
[TXT]Chapter 14 Section 1 Revolutions In Russia Quiz2013-07-02T02:17:00+00:00 24 K 
[TXT]Chapter 6 Skills Practice Answers Geometry Extra2013-07-02T13:50:00+00:00 23 K 
[TXT]Chapter 6 Money In Review Answer Key2013-07-03T01:23:00+00:00 23 K 
[TXT]Chapter 2 Short Answers Foundation In Personal Finance2013-07-03T12:56:00+00:00 19 K 
[TXT]Chapter 6 Money In Review Answers Dave Ramsey2013-07-04T00:29:00+00:00 25 K 
[TXT]Chapter 16 Thermal Energy And Heat Wordwise2013-07-04T12:02:00+00:00 25 K 
[TXT]Chapter 14 Section 1 Quiz Revolutions In Russia2013-07-04T23:35:00+00:00 21 K 
[TXT]Chapter 6 Money In Review Dave Ramsey Answers2013-07-05T11:08:00+00:00 24 K 
[TXT]Chapters Of Macroeconomics Mcconnell2013-07-05T22:41:00+00:00 22 K 
[TXT]Chapter 11 Section 2 Reteaching Activity Imperialism Case Study Nigeria2013-07-06T10:14:00+00:00 20 K 
[TXT]Class 10 Ncert Text Chapter Trignometry2013-07-06T21:47:00+00:00 19 K 
[TXT]Chapter 6 Credit Bureaus And Collection Practices Money In Review Answers2013-07-07T09:20:00+00:00 24 K 
[TXT]Chapter 6 Money In Review Answer Key Dave Ramsey2013-07-07T20:53:00+00:00 24 K 
[TXT]Chapter 6 Answer Keys Dave Ramsey2013-07-08T08:26:00+00:00 18 K 
[TXT]Chapter 6 Money In Review Dave Ramsey2013-07-08T19:59:00+00:00 22 K 
[TXT]Chapter 4 Money In Review Answers Dave Ramsey Test2013-07-09T07:32:00+00:00 23 K 
[TXT]Chapter 2 Money In Review Answers2013-07-09T19:05:00+00:00 25 K 
[TXT]Chapter 18 Section 1 Origins Of The Cold War Worksheet2013-07-10T06:38:00+00:00 18 K 
[TXT]Chapter 16 Thermal Energy And Heat Wordwise Answers2013-07-10T18:11:00+00:00 19 K 
[TXT]Chapter 38 Egans Test Bank Questions2013-07-11T05:44:00+00:00 19 K 
[TXT]Chapter 9 Money In Review2013-07-11T17:17:00+00:00 21 K 
[TXT]Case Studies Chapter 2 Answers Foundations In Personal Finance2013-07-12T04:50:00+00:00 21 K 
[TXT]Chapter 7 Money In Review Answer Key2013-07-12T16:23:00+00:00 17 K 
[TXT]Chapter 4 B Answers To Foundations In Personal Finance2013-07-13T03:56:00+00:00 24 K 
[TXT]Chapter 15 Darwin S Theory Of Evolution Vocabulary Review Crossword Puzzle Answer Key2013-07-13T15:29:00+00:00 19 K 
[TXT]Chapter 18 Section 2 The Cold War Heats Up Answer Key2013-07-14T03:02:00+00:00 18 K 
[TXT]Chapter 15 Darwin S Theory Of Evolution Crossword Answers2013-07-14T14:35:00+00:00 21 K 
[TXT]Chapter 15 Vocabulary Review Crossword2013-07-15T02:08:00+00:00 24 K 
[TXT]Chapter 18 Section 2 The Cold War Heats Up Answers2013-07-15T13:41:00+00:00 19 K 
[TXT]Chapter 18 Section 3 The Cold War Comes Home Answers2013-07-16T01:14:00+00:00 21 K 
[TXT]Chapter 15 Darwin S Theory Of Evolution Vocabulary Review Crossword Puzzle Answers2013-07-16T12:47:00+00:00 20 K 
[TXT]Chapter 18 Section 1 Origins Of The Cold War Answer Key2013-07-17T00:20:00+00:00 17 K 
[TXT]Chapter 6 Credit Bureaus And Collection Practices Answer Key2013-07-17T11:53:00+00:00 18 K 
[TXT]Chapter 26 Section 1 Origins Of The Cold War Answers2013-07-17T23:26:00+00:00 18 K 
[TXT]Chapter 26 Section 2 The Cold War Heats Up Answer Key2013-07-18T10:59:00+00:00 19 K 
[TXT]Chapter 11 Articulations And Body Movement2013-07-18T22:32:00+00:00 17 K 
[TXT]Chapter 1 Review Answers Dave Ramsey2013-07-19T10:05:00+00:00 17 K 
[TXT]Chapter 26 Section 1 Origins Of The Cold War2013-07-19T21:38:00+00:00 24 K 
[TXT]Chapter 6 Workbook Dave Ramsey2013-07-20T09:11:00+00:00 25 K 
[TXT]Chapter 18 Section 1 Origins Of The Cold War Pgs 602 6082013-07-20T20:44:00+00:00 23 K 
[TXT]Chapter 18 Section 1 Origins Of The Cold War Quiz Answers2013-07-21T08:17:00+00:00 18 K 
[TXT]Chapter 26 Section 2 The Cold War Heats Up Chart2013-07-21T19:50:00+00:00 19 K 
[TXT]Chapter 16 Segregation And Discrimination Answers2013-07-22T07:23:00+00:00 21 K 
[TXT]Chapter 15 Wordwise Energy Answers2013-07-22T18:56:00+00:00 17 K 
[TXT]Chapter 3 Vocabulary Dave Ramsey2013-07-23T06:29:00+00:00 20 K 
[TXT]Chapter 18 Section 1 Origins Of The Cold War Quiz2013-07-23T18:02:00+00:00 18 K 
[TXT]Chapter 15 Darwin S Theory Of Evolution Crossword Puzzle Answer Key2013-07-24T05:35:00+00:00 23 K 
[TXT]Chapter 6 Credit Bureaus And Collection Practices Answers2013-07-24T17:08:00+00:00 20 K 
[TXT]Chapter 6 Dave Ramsey Test Key2013-07-25T04:41:00+00:00 19 K 
[TXT]Chapter 18 Section 1 Origins Of The Cold War Answers2013-07-25T16:14:00+00:00 25 K 
[TXT]Chapter 4 Test C Dave Ramsey2013-07-26T03:47:00+00:00 22 K 
[TXT]Chapter 8 Vocabulary Spanish Crossword Puzzle Answers2013-07-26T15:20:00+00:00 24 K 
[TXT]Chapter 8 Answers Catawba County Schools Geometry2013-07-27T02:53:00+00:00 21 K 
[TXT]Chapter 18 Section 3 The Cold War Comes Home Answer Key2013-07-27T14:26:00+00:00 23 K 
[TXT]Chapter 15 Vocabulary Review Crossword Puzzle Answers2013-07-28T01:59:00+00:00 23 K 
[TXT]Chapter 18 Section 3 The Cold War At Home Answers2013-07-28T13:32:00+00:00 24 K 
[TXT]Chapters To Study In Life Science Grade 11 Term 1 20142013-07-29T01:05:00+00:00 25 K 
[TXT]Chapter 6 Credit Bureaus And Collection Practices Test2013-07-29T12:38:00+00:00 18 K 
[TXT]Chapter 5 Money In Review Test Answer Key Dave Ramsey2013-07-30T00:11:00+00:00 23 K 
[TXT]Chapter 5 Dave Ramsey Money In Review2013-07-30T11:44:00+00:00 18 K 
[TXT]Chapter 18 Section 2 The Cold War Heats Up Timeline Events2013-07-30T23:17:00+00:00 23 K 
[TXT]Chapter 6 Test C Dave Ramsey2013-07-31T10:50:00+00:00 17 K 
[TXT]Chapter 15 Wordwise Energy2013-07-31T22:23:00+00:00 19 K 
[TXT]Chapter 15 Energy Wordwise2013-08-01T09:56:00+00:00 25 K 
[TXT]Chapter 11 Section 2 Reteaching Activity Imperialism Case Study Nigeria Key2013-08-01T21:29:00+00:00 18 K 
[TXT]Chapter 19 2 Reaction And Revolution2013-08-02T09:02:00+00:00 22 K 
[TXT]Chapter 18 Cold War Answer Sheet Quiz2013-08-02T20:35:00+00:00 17 K 
[TXT]Chapter 26 Origins Of The Cold War Answers2013-08-03T08:08:00+00:00 18 K 
[TXT]Chapter 26 Section 1 Origins Of The Cold War Answer Key2013-08-03T19:41:00+00:00 20 K 
[TXT]Chapter 3 Money In Review Answer Key2013-08-04T07:14:00+00:00 25 K 
[TXT]Chapter 3 Money In Review Answer2013-08-04T18:47:00+00:00 25 K 
[TXT]Chapter 5 Money In Review Dave Ramsey Answers2013-08-05T06:20:00+00:00 22 K 
[TXT]Chapter 19 3 Reteaching Activity The War At Home Federal Government Takes Greater Control Of Eonomy2013-08-05T17:53:00+00:00 18 K 
[TXT]Chapter 34 Protection Support And Locomotion Answer Key2013-08-06T05:26:00+00:00 20 K 
[TXT]Chapter 15 Energy Wordwise Answers2013-08-06T16:59:00+00:00 23 K 
[TXT]Chapter 7 Money In Review Foundations Personal Finance Key2013-08-07T04:32:00+00:00 22 K 
[TXT]Cost Accounting Blocher Solution Manual Chapter 142013-08-07T16:05:00+00:00 22 K 
[TXT]Cost Accounting Blocher Solution Manual Chapter2013-08-08T03:38:00+00:00 20 K 
[TXT]Chapter 15 Word Wise2013-08-08T15:11:00+00:00 25 K 
[TXT]Chapter 14 3 Wordwise Answer Key2013-08-09T02:44:00+00:00 24 K 
[TXT]Chapter 14 Wordwise Answer Key2013-08-09T14:17:00+00:00 20 K 
[TXT]Chapter 10 Cell Growth And Division Word Wise Answer Key2013-08-10T01:50:00+00:00 22 K 
[TXT]Chapter 15 How Organisms Evolve Crossword Answers2013-08-10T13:23:00+00:00 23 K 
[TXT]Chapter 6 Money In Review Short Answer Answers2013-08-11T00:56:00+00:00 25 K 
[TXT]Chapter 33 Section 4 The Cold War Divides World Answer2013-08-11T12:29:00+00:00 19 K 
[TXT]Chapter 6 Activity Pro Rata Debts Answers2013-08-12T00:02:00+00:00 21 K 
[TXT]Chapter 18 Section 3 The Cold War At Home Answer Key2013-08-12T11:35:00+00:00 24 K 
[TXT]Chapter 26 Section 3 The Cold War At Home Answer Key2013-08-12T23:08:00+00:00 19 K 
[TXT]Chapter 15 Darwin S Theory Of Evolution Vocabulary Review Crossword Puzzle2013-08-13T10:41:00+00:00 23 K 
[TXT]Chapter 4 Short Answers Dave Ramsey2013-08-13T22:14:00+00:00 21 K 
[TXT]Chapter 6 Foundations In Personal Finance Test C2013-08-14T09:47:00+00:00 20 K 
[TXT]Chapter 18 Section 1 Origins Of The Cold War Worksheet Answers2013-08-14T21:20:00+00:00 20 K 
[TXT]Chapter 33 Section 1 Two Superpowers Face Off Answers2013-08-15T08:53:00+00:00 22 K 
[TXT]Chapter 12 Section Quiz Holt Geometry2013-08-15T20:26:00+00:00 23 K 
[TXT]Chapter 6 Dave Ramsey Answers2013-08-16T07:59:00+00:00 19 K 
[TXT]Chapter 33 Section 1 Two Superpowers Face Off2013-08-16T19:32:00+00:00 23 K 
[TXT]Chapter 18 Section 3 The Cold War At Home2013-08-17T07:05:00+00:00 20 K 
[TXT]Chapter 6 Activity Pro Rata Debts2013-08-17T18:38:00+00:00 19 K 
[TXT]Chapter 9 Relating With Money Review Answers2013-08-18T06:11:00+00:00 25 K 
[TXT]Chapter 6 Test A Foundations In Personal Finance2013-08-18T17:44:00+00:00 23 K 
[TXT]Chapter 17 Section 5 The Cold War Thaws Answers2013-08-19T05:17:00+00:00 19 K 
[TXT]Chapter 15 Wordwis Energyeneranswer Key2013-08-19T16:50:00+00:00 24 K 
[TXT]Chapter 15 Wordwise Answer Key Enery2013-08-20T04:23:00+00:00 20 K 
[TXT]Chapter 6 Credit Bureaus And Collection Practices Blank Answers2013-08-20T15:56:00+00:00 21 K 
[TXT]Chapter 4 Test Mathematical Models And Personal Finances Answers2013-08-21T03:29:00+00:00 19 K 
[TXT]Chapter 18 Section 1 Origins Of The Cold War Cause And Effect2013-08-21T15:02:00+00:00 17 K 
[TXT]Chapter 2 Money In Review Foundations Personal Finance Answers2013-08-22T02:35:00+00:00 18 K 
[TXT]Chapter 11 Resource Masters For Glencoe Pre Algebra 20132013-08-22T14:08:00+00:00 25 K 
[TXT]Chapter 27 Section 3 Popular Culture Answers2013-08-23T01:41:00+00:00 21 K 
[TXT]Chapter 7 Money In Review Answers Dave Ramsey2013-08-23T13:14:00+00:00 18 K 
[TXT]Chapter 6 Money In Review2013-08-24T00:47:00+00:00 23 K 
[TXT]Chapter 6 Money In Review Answers Amazon S32013-08-24T12:20:00+00:00 25 K 
[TXT]Chapter 7 Money In Review Dave Ramsey Answers2013-08-24T23:53:00+00:00 23 K 
[TXT]Chapter 14 3 Human Genome Answer Key2013-08-25T11:26:00+00:00 21 K 
[TXT]Chapter 14 3 The Human Genome Answer Key2013-08-25T22:59:00+00:00 24 K 
[TXT]Cold War Conflicts Chapter 18 Answer Key2013-08-26T10:32:00+00:00 17 K 
[TXT]Chapter 15 Energy Wordwise Answer Key2013-08-26T22:05:00+00:00 25 K 
[TXT]Chapter 18 Section 3 The Cold War Comes Home Answer2013-08-27T09:38:00+00:00 23 K 
[TXT]Chapter 11 The Age Of Imperialism Reteaching2013-08-27T21:11:00+00:00 19 K 
[TXT]Chapter 5 Dave Ramsey Workbook Key2013-08-28T08:44:00+00:00 23 K 
[TXT]Chapter 9 Relating With Money Test Answers2013-08-28T20:17:00+00:00 18 K 
[TXT]Chapter 18 Section 3 The Cold War Comes Home Teacherweb2013-08-29T07:50:00+00:00 23 K 
[TXT]Chapter 12 Stoichiometry Pearson2013-08-29T19:23:00+00:00 17 K 
[TXT]Chapter 4 Answers Foundations In Personal Finance2013-08-30T06:56:00+00:00 23 K 
[TXT]Chapter 9 Relating With Money Answer Key2013-08-30T18:29:00+00:00 20 K 
[TXT]Chapter 27 Section 3 Popular Culture Answer Key2013-08-31T06:02:00+00:00 20 K 
[TXT]Chapter 3 Money Review Dave Ramsey2013-08-31T17:35:00+00:00 21 K 
[TXT]Chapter 6 Test C Foundation On Personal Finance2013-09-01T05:08:00+00:00 23 K 
[TXT]Chapter 18 Section 4 Two Nations Live On The Edge Answer Key2013-09-01T16:41:00+00:00 23 K 
[TXT]Chapter 6 Money In Review Short Answer2013-09-02T04:14:00+00:00 21 K 
[TXT]Chapter 6 Credit Bureaus And Collection Practices Review Answers2013-09-02T15:47:00+00:00 21 K 
[TXT]Chapter 6 Dave Ramsey Workbook Answers2013-09-03T03:20:00+00:00 25 K 
[TXT]Chapter 14 The Human Genome Wordwise2013-09-03T14:53:00+00:00 20 K 
[TXT]Chapter 18 Section 1 Origins Of The Cold War Answers Key2013-09-04T02:26:00+00:00 25 K 
[TXT]Chapter 27 Unit 6 World History Imperialism Case Study Nigeria2013-09-04T13:59:00+00:00 21 K 
[TXT]Chapter 6 Workbook Review Answers Dave Ramsey2013-09-05T01:32:00+00:00 23 K 
[TXT]Chapter 18 Cold War Conflicts Answer Key2013-09-05T13:05:00+00:00 25 K 
[TXT]Chapter 18 Origins Of The Cold War Answers2013-09-06T00:38:00+00:00 22 K 
[TXT]Chapter 15 Evolution Crossword Answers2013-09-06T12:11:00+00:00 22 K 
[TXT]Chapter 12 Stoichiometry Workbook Answers2013-09-06T23:44:00+00:00 21 K 
[TXT]Chapter 14 The Human Genome Section Review 3 Answer Key2013-09-07T11:17:00+00:00 23 K 
[TXT]Chapter 14 The Human Genome Section Review 1 Answer Key2013-09-07T22:50:00+00:00 20 K 
[TXT]Chapter 14 The Human Genome Section Review 1 Key2013-09-08T10:23:00+00:00 20 K 
[TXT]Chapter 15 Wordwise Answer2013-09-08T21:56:00+00:00 20 K 
[TXT]Chapter 33 Section 4 The Cold War Divides World Answers2013-09-09T09:29:00+00:00 24 K 
[TXT]Chapter 12 Stoichiometry Pearson Chemistry2013-09-09T21:02:00+00:00 19 K 
[TXT]Chapter 18 Section 2 Quiz The Cold War Heats Up2013-09-10T08:35:00+00:00 20 K 
[TXT]Chapter 3 Short Answers Foundation In Personal Finance2013-09-10T20:08:00+00:00 24 K 
[TXT]Chapter 4 Making The Minimum Answers2013-09-11T07:41:00+00:00 25 K 
[TXT]Chapter 18 Section 4 Two Nations Live On The Edge Answers2013-09-11T19:14:00+00:00 23 K 
[TXT]Chapter 22 The Great Depression Begins Crossword Puzzle Answers2013-09-12T06:47:00+00:00 22 K 
[TXT]Chapter 18 Section 2 Quiz The Cold War Heats Up Answers2013-09-12T18:20:00+00:00 18 K 
[TXT]Chapter Seven Money In Review2013-09-13T05:53:00+00:00 20 K 
[TXT]Chapter 6 Credit Bureaus And Collection Practices Test B Answers2013-09-13T17:26:00+00:00 22 K 
[TXT]Chapter 12 Human Genetics Wordwise2013-09-14T04:59:00+00:00 24 K 
[TXT]Chapter 18 Section 1 Reteaching Activity Origins Of The Cold War2013-09-14T16:32:00+00:00 23 K 
[TXT]Chapter 18 Section 1 Aggression Appeasement And War Answer2013-09-15T04:05:00+00:00 25 K 
[TXT]Chapter 18 Section 1 Aggression Appeasement And War Answer Key2013-09-15T15:38:00+00:00 20 K 
[TXT]Chapter 17 Section 1 Cold War Superpowers Face Off Answers2013-09-16T03:11:00+00:00 21 K 
[TXT]Chapter 23 The New Deal Crossword Puzzle Answers2013-09-16T14:44:00+00:00 22 K 
[TXT]Chapter Six Money In Review Dave Ramsey Answers2013-09-17T02:17:00+00:00 24 K 
[TXT]Chapter 6 Credit Bureaus And Collection Practices Test Answers2013-09-17T13:50:00+00:00 25 K 
[TXT]Chapter 7 Money In Review Answer Dave Ramsey2013-09-18T01:23:00+00:00 22 K 
[TXT]Chapter 11 Section 2 Quiz Imperialism Case Study Nigeria Answers2013-09-18T12:56:00+00:00 18 K 
[TXT]Chapter 7 Cell Structure And Function Section 3 Boundaries Answer Key2013-09-19T00:29:00+00:00 24 K 
[TXT]Chapter 15 Wordwise2013-09-19T12:02:00+00:00 17 K 
[TXT]Chapter 16 Thermal Energy And Heat Wordwise Answer Key2013-09-19T23:35:00+00:00 25 K 
[TXT]Chapter 15 1 The Puzzle Of Life S Diversity Crossword Worksheet Key2013-09-20T11:08:00+00:00 24 K 
[TXT]Chapter 5 Test C Foundations In Personal Finance2013-09-20T22:41:00+00:00 22 K 
[TXT]Chapter 4 Test B Dave Ramsey2013-09-21T10:14:00+00:00 21 K 
[TXT]Chapter 4 Test Money In Review Dave Ramsey2013-09-21T21:47:00+00:00 20 K 
[TXT]Chapter 13 Vocab Crossword Ap Environmental Science2013-09-22T09:20:00+00:00 20 K 
[TXT]Chapter 14 The Human Genome Answer Key2013-09-22T20:53:00+00:00 24 K 
[TXT]Content Mastery Chapter 12 42013-09-23T08:26:00+00:00 23 K 
[TXT]Chapter 16 Thermal Energy And Heat Answers2013-09-23T19:59:00+00:00 24 K 
[TXT]Chapter 15 Crossword Pizzle New Mexico2013-09-24T07:32:00+00:00 23 K 
[TXT]Chapter 37 The Cold War Begins Packet Answers2013-09-24T19:05:00+00:00 25 K 
[TXT]Chapter 18 Section 1 Quiz Origins If Cold War2013-09-25T06:38:00+00:00 18 K 
[TXT]Chapter 18 Section 3 The Cold War At Home Worksheets2013-09-25T18:11:00+00:00 22 K 
[TXT]Chapter 18 Section 3 The Cold War At Home Diagram Answers2013-09-26T05:44:00+00:00 25 K 
[TXT]Chapter 7 Money In Review Answers2013-09-26T17:17:00+00:00 24 K 
[TXT]Chapter 19 Reteaching Activity Postwar America Answers2013-09-27T04:50:00+00:00 18 K 
[TXT]Chapter 19 The Cold War Daily Quiz 1 Answers2013-09-27T16:23:00+00:00 17 K 
[TXT]Chapter 9 Relating With Money Answers2013-09-28T03:56:00+00:00 18 K 
[TXT]Chapter 13 Vocabulary Environmental Science2013-09-28T15:29:00+00:00 24 K 
[TXT]Chapter 14 The Human Genome Section Review Answer Key2013-09-29T03:02:00+00:00 25 K 
[TXT]Chapter 18 Section 2 Cold War Answer2013-09-29T14:35:00+00:00 25 K 
[TXT]Chapter 31 World War Ii And Its Aftermath2013-09-30T02:08:00+00:00 24 K 
[TXT]Chapter 8 Crossword Answers For Spanish 22013-09-30T13:41:00+00:00 19 K 
[TXT]Chapter 19 Reteaching Activity Postwar America2013-10-01T01:14:00+00:00 20 K 
[TXT]Chapter 19 Reteaching Activity Postwar America Answer Key2013-10-01T12:47:00+00:00 21 K 
[TXT]Chapter 14 The Human Genome Textbook Section Reviews And Answers2013-10-02T00:20:00+00:00 18 K 
[TXT]Chapter 14 The Human Genome Section Review 3 Answers2013-10-02T11:53:00+00:00 20 K 
[TXT]Chapter 14 Work Power And Machines Wordwise Answers2013-10-02T23:26:00+00:00 17 K 
[TXT]Chapter 3 Research Methodology2013-10-03T10:59:00+00:00 20 K 
[TXT]Chapter 2 Answer Key Dave Ramsey2013-10-03T22:32:00+00:00 19 K 
[TXT]Chapter 14 The Human Genome Section 1 2 And 3 Answer Key2013-10-04T10:05:00+00:00 18 K 
[TXT]Chapter 10 Money In Review Answer Key2013-10-04T21:38:00+00:00 19 K 
[TXT]Chapter 10 Money In Review2013-10-05T09:11:00+00:00 18 K 
[TXT]Chapter 10 Money In Review Answers2013-10-05T20:44:00+00:00 24 K 
[TXT]Credit Bureaus And Collection Practices Chapter 62013-10-06T08:17:00+00:00 23 K 
[TXT]Chapter 10 Money In Review Matching2013-10-06T19:50:00+00:00 21 K 
[TXT]Chapter 5 Money In Review Answers2013-10-07T07:23:00+00:00 18 K 
[TXT]Chapter 15 The Cold War Answer Key2013-10-07T18:56:00+00:00 22 K 
[TXT]Chapter 33 Section 1 Cold War Superpowers Face Off Key2013-10-08T06:29:00+00:00 18 K 
[TXT]Catawba Prentice Hall Algebra Chapter 92013-10-08T18:02:00+00:00 25 K 
[TXT]Chapter 18 Worksheet Origins Of The Cold War2013-10-09T05:35:00+00:00 20 K 
[TXT]Chapter 7 Perspectivas Laborales Test2013-10-09T17:08:00+00:00 18 K 
[TXT]Chapter 11 Reteaching Activity Answers The Scramble For Afria2013-10-10T04:41:00+00:00 18 K 
[TXT]Chapter 14 Human Genome Wordwise2013-10-10T16:14:00+00:00 25 K 
[TXT]Chapter 14 Human Genome Answer Key2013-10-11T03:47:00+00:00 18 K 
[TXT]Chapter 15 Vocabulary Review Crossword Puzzle2013-10-11T15:20:00+00:00 17 K 
[TXT]Chapter 18 Origins Of The Cold War Cause And Effect2013-10-12T02:53:00+00:00 18 K 
[TXT]Chapter 14 The Human Genome Test Answer Key2013-10-12T14:26:00+00:00 18 K 
[TXT]Chapter 14 The Human Genome Answers2013-10-13T01:59:00+00:00 19 K 
[TXT]Chapter 14 Work Power And Machines Wordwise2013-10-13T13:32:00+00:00 25 K 
[TXT]Chapter 18 Section 1 Origins Of The Cold War2013-10-14T01:05:00+00:00 18 K 
[TXT]Chapter 26 Section 4 Two Nations Live On The Edge Answers2013-10-14T12:38:00+00:00 18 K 
[TXT]Chapter 5 Money In Review Answers Dave Ramsey2013-10-15T00:11:00+00:00 23 K 
[TXT]Chapter 7 Money In Review Answer2013-10-15T11:44:00+00:00 20 K 
[TXT]Chapter 5 Personal Finance Workbook Key2013-10-15T23:17:00+00:00 22 K 
[TXT]Chapter 24 Section 1 The War Unfolds2013-10-16T10:50:00+00:00 18 K 
[TXT]Chapter Wise Solution Of Chemical Reaction Engg By Octave Levenspiel2013-10-16T22:23:00+00:00 21 K 
[TXT]Chapter 26 Section 4 Reteaching Activity Two Nations Live On The Edge2013-10-17T09:56:00+00:00 17 K 
[TXT]Chapter 18 Section 3 The Cold War Comes Home2013-10-17T21:29:00+00:00 19 K 
[TXT]Chapter6 Answers To Foundations In Personal Finance2013-10-18T09:02:00+00:00 25 K 
[TXT]Chapter 3 Wealth Building Test Answers2013-10-18T20:35:00+00:00 19 K 
[TXT]Chapter 18 Section 4 Two Nations Live On The Edge Worksheet2013-10-19T08:08:00+00:00 20 K 
[TXT]Chapter 18 Section 2 The Cold War Heats Up Power Point2013-10-19T19:41:00+00:00 18 K 
[TXT]Chapter 7 Money In Reviw Answer Key2013-10-20T07:14:00+00:00 20 K 
[TXT]Chapter 14 The Human Genome Pages 346 3482013-10-20T18:47:00+00:00 18 K 
[TXT]Chapter 4 Student Activity Sheet Making The Minimum Answers2013-10-21T06:20:00+00:00 25 K 
[TXT]Chapter 14 The Human Genome Pages 346 348 Answers2013-10-21T17:53:00+00:00 25 K 
[TXT]Chapter 15 Darwin Theory Of Evolution Crossword Puzzle2013-10-22T05:26:00+00:00 20 K 
[TXT]Chapter 12 Money In Review Answer Key2013-10-22T16:59:00+00:00 21 K 
[TXT]Chapter 9 Relating With Money Dave Ramsey2013-10-23T04:32:00+00:00 18 K 
[TXT]Chapter 16 Thermal Energy And Heat Wordwise Answers Key2013-10-23T16:05:00+00:00 19 K 
[TXT]Chapter 14 The Human Genome Biology Laboratory Manual A Answer Key2013-10-24T03:38:00+00:00 25 K 
[TXT]Chapter 26 Section 2 The Cold War Heats Up Answers2013-10-24T15:11:00+00:00 19 K 
[TXT]Chapter 15 Darwin 39 S Theory Of Evolution Vocabulary Review Crossword Answers2013-10-25T02:44:00+00:00 21 K 
[TXT]Chapter 34 Protection Support And Locomotion Answers2013-10-25T14:17:00+00:00 25 K 
[TXT]Chapter 8 Section 4 Two Nations Live On The Edge Answer Key2013-10-26T01:50:00+00:00 21 K 
[TXT]Chapter 18 Sec 3 The Cold War At Home Answer Key2013-10-26T13:23:00+00:00 21 K 
[TXT]Chapter 18 Section 2 The Cold War Heats Up As You Reas This Fill Out Chart By Writing Answers To Questions In Appropriate Boxes2013-10-27T00:56:00+00:00 17 K 
[TXT]Chapter 18 Section 2 The Cold War Heats Up2013-10-27T12:29:00+00:00 22 K 
[TXT]Consumer Awareness Test C Foundations In Personal Finance Chapter 52013-10-28T00:02:00+00:00 23 K 
[TXT]Consumer Awareness Test C Chapter 5 Amazon S32013-10-28T11:35:00+00:00 17 K 
[TXT]Consumer Awareness Test C Foundations In Personal Finance Chapter 5 Amazon S32013-10-28T23:08:00+00:00 24 K 
[TXT]Chapter 4 Student Activity Sheet Making The Minimum2013-10-29T10:41:00+00:00 25 K 
[TXT]Chapter 18 Cold War Conflicts Worksheet Answers2013-10-29T22:14:00+00:00 24 K 
[TXT]Chapter 26 Reteaching Activity Origins Of The Cold War2013-10-30T09:47:00+00:00 18 K 
[TXT]Chapter 9 Money In Review Answers2013-10-30T21:20:00+00:00 22 K 
[TXT]Chapter 19 Unit 5 Popular Culture2013-10-31T08:53:00+00:00 17 K 
[TXT]Chapter 4 Money In Review Answers2013-10-31T20:26:00+00:00 23 K 
[TXT]Chapter 4 Money In Review Answers Dave Ramsey2013-11-01T07:59:00+00:00 22 K 
[TXT]Cardiovascular Fitness Chapter 7 Test Answers2013-11-01T19:32:00+00:00 19 K 
[TXT]Chapter 5 Test A Foundations In Personal Finance2013-11-02T07:05:00+00:00 22 K 
[TXT]Chapter 5 Money In Review2013-11-02T18:38:00+00:00 25 K 
[TXT]Chapter 18 Section 2 The Cold War Heats Up Worksheet Answers2013-11-03T06:11:00+00:00 23 K 
[TXT]Chapter 5 Consumer Awareness Money In Review Answers2013-11-03T17:44:00+00:00 24 K 
[TXT]Chapter 14 The Human Genome Section 1 Heredity Answer Key Pages 344 3462013-11-04T05:17:00+00:00 20 K 
[TXT]Chapter 33 Section 1 Cold War Answers2013-11-04T16:50:00+00:00 24 K 
[TXT]Chapter 26 Section 1 Origins Of The Cold War Reteaching Activity2013-11-05T04:23:00+00:00 23 K 
[TXT]Chapter 6 Credit Bureaus And Collection Practices2013-11-05T15:56:00+00:00 19 K 
[TXT]Chapter 6 Student Activity Sheet Foundations In Personal Finance2013-11-06T03:29:00+00:00 19 K 
[TXT]Chapter 11 Section 2 Imperialism Case Study Nigeria2013-11-06T15:02:00+00:00 19 K 
[TXT]Chapter 27 Section 2 Reteaching Activity Imperialism2013-11-07T02:35:00+00:00 20 K 
[TXT]Chapter 11 Section 2 Reteaching Activity Imperialism Case Study Nigeria Answers2013-11-07T14:08:00+00:00 21 K 
[TXT]Chapter 7 Money In Review Answers Test2013-11-08T01:41:00+00:00 19 K 
[TXT]Chapter 14 The Human Genome Practice Test Answer2013-11-08T13:14:00+00:00 23 K 
[TXT]Chapter 9 Section Quiz Lessons 1 Through 3 Geometry Answers2013-11-09T00:47:00+00:00 25 K 
[TXT]Chapter 7 Money In Review Anser Key2013-11-09T12:20:00+00:00 18 K 
[TXT]Chapter 3 Money In Review Answers Dave Ramsey2013-11-09T23:53:00+00:00 18 K 
[TXT]Chapter 15 Darwin S Theory Of Evolution Crossword Puzzle2013-11-10T11:26:00+00:00 21 K 
[TXT]Chapter 11 Money In Review Answers2013-11-10T22:59:00+00:00 18 K 
[TXT]Chapter 9 Money In Review Vocabulary2013-11-11T10:32:00+00:00 24 K 
[TXT]Chapter 17 Two Superpowers Faceoff Answers2013-11-11T22:05:00+00:00 18 K 
[TXT]Credit Bureaus And Collection Chapter 6 Dave Ramsey2013-11-12T09:38:00+00:00 18 K 
[TXT]Chapter 5 Money In Review Answer Key2013-11-12T21:11:00+00:00 22 K 
[TXT]Chapter 12 Money In Review2013-11-13T08:44:00+00:00 18 K 
[TXT]Chapter 9 Section Quiz Lesson 1 Through 3 Answers2013-11-13T20:17:00+00:00 17 K 
[TXT]Chapter 6 Credit Bureaus And Collection Practices Fill In The Blank Answers2013-11-14T07:50:00+00:00 24 K 
[TXT]Chapter 5 Test Form B Foundations In Personal Finance Dave2013-11-14T19:23:00+00:00 23 K 
[TXT]Chapter 16 Evolution Of Populations Vocabulary Review Biology2013-11-15T06:56:00+00:00 17 K 
[TXT]Chapter 14 1 Human Heredity Answer Key Pages 346 3482013-11-15T18:29:00+00:00 22 K 
[TXT]Chapter 2 Workbook Key For Dave Ramsey2013-11-16T06:02:00+00:00 20 K 
[TXT]Chapter 7 Budgeting 101 Money In Review Answers2013-11-16T17:35:00+00:00 20 K 
[TXT]Chapter 12 Stoichiometry Test B Answer Key2013-11-17T05:08:00+00:00 19 K 
[TXT]Chapter 9 Money In Review Key2013-11-17T16:41:00+00:00 19 K 
[TXT]Chapter 21 Reteaching Activity The Cold War Begins Answers2013-11-18T04:14:00+00:00 17 K 
[TXT]Chapter15 Wordwise2013-11-18T15:47:00+00:00 17 K 
[TXT]Chapter 4 Making The Minimum Student Activity Sheet Dave Ramsey2013-11-19T03:20:00+00:00 23 K 
[TXT]Chapter 4 Making The Minimum Answer Key Dave Ramnsey2013-11-19T14:53:00+00:00 25 K 
[TXT]Chapter 11 Student Activity Sheet Answers2013-11-20T02:26:00+00:00 24 K 
[TXT]Chapter 6 Credit Bureaus And Collection Practices Myth2013-11-20T13:59:00+00:00 25 K 
[TXT]Chapter 2 Properties Of Matter Word Wise Vocabulary Answers2013-11-21T01:32:00+00:00 18 K 
[TXT]Chapter 14 Section 1 Human Heredity Answers From Gene To Molecule2013-11-21T13:05:00+00:00 18 K 
[TXT]Chapter 6 Money In Review Matching Answers2013-11-22T00:38:00+00:00 20 K 
[TXT]Chapter 16 Wordwise Thermal Energy And Heat2013-11-22T12:11:00+00:00 22 K 
[TXT]Chapter 11 Money In Review2013-11-22T23:44:00+00:00 20 K 
[TXT]Chapter 4 Dangers Of Debt Test2013-11-23T11:17:00+00:00 17 K 
[TXT]Chapter 7 Money In Review Foundations Personal Finance2013-11-23T22:50:00+00:00 22 K 
[TXT]Chapter 5 Consumer Awareness Answers Part 12013-11-24T10:23:00+00:00 21 K 
[TXT]Chapter 7 Money In Review Key2013-11-24T21:56:00+00:00 18 K 
[TXT]Chapter 25 Section 4 Foreign Policy After The Cold War2013-11-25T09:29:00+00:00 17 K 
[TXT]Chapter 7 Budgeting 101 Workbook Answers2013-11-25T21:02:00+00:00 23 K 
[TXT]Chapter 14 The Human Genome Making Karyotypes Lab Answer Key2013-11-26T08:35:00+00:00 17 K 
[TXT]Chapter 18 Origins Of The Cold War Answer Key2013-11-26T20:08:00+00:00 19 K 
[TXT]Chapter 4 Making The Minimum Answer Key2013-11-27T07:41:00+00:00 25 K 
[TXT]Chapter 4 Making The Minimum Dave Rammsey2013-11-27T19:14:00+00:00 22 K 
[TXT]Chapter 4 Making The Minimum Answers Dave Rammsey2013-11-28T06:47:00+00:00 20 K 
[TXT]Chapter 3 Money In Review Answers2013-11-28T18:20:00+00:00 25 K 
[TXT]Chapter 18 Section 4 Two Nations Live On The Edge2013-11-29T05:53:00+00:00 21 K 
[TXT]Chapter 15 Wordwise Answers2013-11-29T17:26:00+00:00 18 K 
[TXT]Chapter 2 Money In Review Answer Key Dave Ramsey2013-11-30T04:59:00+00:00 25 K 
[TXT]Chapter 33 Cold War Superpowers Face Off Answer Key2013-11-30T16:32:00+00:00 17 K 
[TXT]Crossword Chapter 13 Science Spectrum 20082013-12-01T04:05:00+00:00 21 K 
[TXT]Chapter 14 The Human Genome Section 1 Traits Answer Key2013-12-01T15:38:00+00:00 19 K 
[TXT]Chapter 7 Test Form C In Personal Finance Foundations2013-12-02T03:11:00+00:00 19 K 
[TXT]Chapter 7 Test Cardiovascular Fitness2013-12-02T14:44:00+00:00 24 K 
[TXT]Chapter 12 Money In Review Answers2013-12-03T02:17:00+00:00 20 K 
[TXT]Chapter 27 Section 2 Patterns Of Change Imperialism2013-12-03T13:50:00+00:00 19 K 
[TXT]Chapter 34 Protection Support And Locomotion Worksheet Answers2013-12-04T01:23:00+00:00 21 K 
[TXT]Chapter 4 Student Activity Sheet Answers2013-12-04T12:56:00+00:00 19 K 
[TXT]Chapter 14 From Gene To Molecule Pages 346 3482013-12-05T00:29:00+00:00 18 K 
[TXT]Chapter 14 3 The Human Genome Project Answer Key2013-12-05T12:02:00+00:00 21 K 
[TXT]Chapter 19 Section 1 Postwar America Answer Key2013-12-05T23:35:00+00:00 21 K 
[TXT]Chapter 25 Section 3 Social Concerns Of The 1980S Answers2013-12-06T11:08:00+00:00 19 K 
[TXT]Consumer Awareness Chapter 6 Answer Dave Ramsey2013-12-06T22:41:00+00:00 24 K 
[TXT]Chapter 27 Section 2 Imperialism Case Study Nigeria2013-12-07T10:14:00+00:00 18 K 
[TXT]Chapter 13 Ap Environmental Science Crossword2013-12-07T21:47:00+00:00 22 K 
[TXT]Chapter 27 Section 2 Colonization And Imperialism Answers2013-12-08T09:20:00+00:00 24 K 
[TXT]Chapter 12 1945 1970 Cold War And Post Changes2013-12-08T20:53:00+00:00 23 K 
[TXT]Chapter 6 Money In Review Answer2013-12-09T08:26:00+00:00 18 K 
[TXT]Chapter 25 Section 3 Social Concerns Of The 1980 S2013-12-09T19:59:00+00:00 17 K 
[TXT]Chapter 25 America And World War Ii Reteaching Activity Answer Key2013-12-10T07:32:00+00:00 24 K 
[TXT]Chapter 14 1 Human Heredity Answers 344 3462013-12-10T19:05:00+00:00 24 K 
[TXT]Chapter 14 The Human Genome Section 1 Heredity Answer Key 344 3462013-12-11T06:38:00+00:00 17 K 
[TXT]Chapter 14 1 Human Heredity Pages 344 3462013-12-11T18:11:00+00:00 17 K 
[TXT]Chapter 7 Money In Review Test2013-12-12T05:44:00+00:00 23 K 
[TXT]Chapter 14 The Human Genome Making Karyotypes2013-12-12T17:17:00+00:00 23 K 
[TXT]Chapter 14 The Human Genome Worksheet Answer Key 346 3482013-12-13T04:50:00+00:00 21 K 
[TXT]Chapter 5 Student Activity Sheet Answers Dave Ramsey2013-12-13T16:23:00+00:00 22 K 
[TXT]Chapter 6 Money In Review Short Answers2013-12-14T03:56:00+00:00 18 K 
[TXT]Chapter 17 Section 1 The Cold War Begins Worksheet Answer Key2013-12-14T15:29:00+00:00 22 K 
[TXT]Chapter 17 The Cold War Begins Worksheet Answer Key2013-12-15T03:02:00+00:00 22 K 
[TXT]Chapter 36 The Cold War Begins Packet Answers2013-12-15T14:35:00+00:00 19 K 
[TXT]Chapter 26 The Cold War Heats Up Section 22013-12-16T02:08:00+00:00 18 K 
[TXT]Chapter 26 Section 4 Two Nations Live On The Edge2013-12-16T13:41:00+00:00 25 K 
[TXT]Chapter 26 Section 3 The Cold War Comes Home Answers2013-12-17T01:14:00+00:00 21 K 
[TXT]Chapter 26 Section 2 The Cold War Heats Up2013-12-17T12:47:00+00:00 25 K 
[TXT]Chapter 1 The Civil War Fte2013-12-18T00:20:00+00:00 20 K 
[TXT]Chapter 14 The Human Genome Making Karyotypes Lab Answers2013-12-18T11:53:00+00:00 24 K 
[TXT]Civil Rights Timeline Activity Chapter 292013-12-18T23:26:00+00:00 21 K 
[TXT]Chapter 15 Freshwater Systems And Resources2013-12-19T10:59:00+00:00 22 K 
[TXT]Chapter 17 Section 1 Two Superpowers Face Off2013-12-19T22:32:00+00:00 17 K 
[TXT]Chapter 15 Darwin S Theory Of Evolution Crossword Answers Not Requiring A Download2013-12-20T10:05:00+00:00 25 K 
[TXT]Chapter 15 Darwin S Theory Of Evolution Crossword Puzzle Answers2013-12-20T21:38:00+00:00 17 K 
[TXT]Chapter 16 Thermal And Heat Wordwise2013-12-21T09:11:00+00:00 19 K 
[TXT]Chapter 16 Wordwise Answers Thermal Energy And Heat2013-12-21T20:44:00+00:00 23 K 
[TXT]Chapter 4 Test Key Dave Ramsey2013-12-22T08:17:00+00:00 18 K 
[TXT]Chapter 3 Test C Dave Ramsey2013-12-22T19:50:00+00:00 25 K 
[TXT]Credit Bureaus And Collection Practices Chapter 6 Answers2013-12-23T07:23:00+00:00 22 K 
[TXT]Chapter 14 Work Power And Machines Wordwise Answer Key2013-12-23T18:56:00+00:00 25 K 
[TXT]Chapter 13 Section 3 Education And Popular Culture2013-12-24T06:29:00+00:00 18 K 
[TXT]Chapter 18 Section 2 Pg 609 615 The Cold War Heats Up Answer Key2013-12-24T18:02:00+00:00 22 K 
[TXT]Chapter 17 Section 2 Communists Take Power In China Answers2013-12-25T05:35:00+00:00 23 K 
[TXT]Chapter 22 The Great Depression Crossword2013-12-25T17:08:00+00:00 25 K 
[TXT]Chapter 16 The Civil War Begins Crossword Puzzle Answers2013-12-26T04:41:00+00:00 23 K 
[TXT]Chapter 25 Section 3 Social Concerns Of The 1980S Answer Key2013-12-26T16:14:00+00:00 24 K 
[TXT]Chapter 11 Date Student Activity Sheet Answers2013-12-27T03:47:00+00:00 23 K 
[TXT]Chapter 6 Credit Bureaus And Collection Practice2013-12-27T15:20:00+00:00 21 K 
[TXT]Chapter 14 From Gene To Molecule Pages 346 348 Answer Key2013-12-28T02:53:00+00:00 19 K 
[TXT]Chapter 15 Wordwise Answer Key2013-12-28T14:26:00+00:00 19 K 
[TXT]Chapter 7 Cardiovascular Fitness Answers2013-12-29T01:59:00+00:00 23 K 
[TXT]Chapter 25 Social Concerns Of The 1980S2013-12-29T13:32:00+00:00 25 K 
[TXT]Consumer Equity Chapter 7 Answers2013-12-30T01:05:00+00:00 25 K 
[TXT]Chapter 14 Packet Answers Postwar America2013-12-30T12:38:00+00:00 17 K 
[TXT]Chapter 15 Section 4 Eisenhowers Cold War Policies Answer Key2013-12-31T00:11:00+00:00 17 K 
[TXT]Chapter 33 Meeting At Potsdam2013-12-31T11:44:00+00:00 25 K 
[TXT]Chapter 12 Stoichiometry Answer Key Pearson2013-12-31T23:17:00+00:00 21 K 
[TXT]Chapter 5 4 Solution A First Course In Mathematical Modeling2014-01-01T10:50:00+00:00 17 K 
[TXT]Chapter 16 Thermal Energy And Heat Section Wordwise2014-01-01T22:23:00+00:00 19 K 
[TXT]Chapter 33 Section 4 The Cold War Divides World2014-01-02T09:56:00+00:00 20 K 
[TXT]Chapter 33 The Conservative Tide Answers Key2014-01-02T21:29:00+00:00 21 K 
[TXT]Chapter 11 Reteaching Activity British Imperialism In India Section 42014-01-03T09:02:00+00:00 24 K 
[TXT]Chapter 15 Energy Word Wise2014-01-03T20:35:00+00:00 20 K 
[TXT]Chapter 19 Section 1 Postwar America Worksheet Answers2014-01-04T08:08:00+00:00 20 K 
[TXT]Chapter 23 The New Deal Crossword Puzzle2014-01-04T19:41:00+00:00 25 K 
[TXT]Chapter 17 Section 2 Communists Take Power In China2014-01-05T07:14:00+00:00 23 K 
[TXT]Chapter 17 Section 2 Communists Take Power In China Worksheet Answers2014-01-05T18:47:00+00:00 18 K 
[TXT]Chapter 18 Section 1 Aggression Appeasement And War Outline2014-01-06T06:20:00+00:00 18 K 
[TXT]Chapter 18 Sec 1 Origins Of The Cold War Work Sheet2014-01-06T17:53:00+00:00 23 K 
[TXT]Chapter 4 Test C Dave Ramsey Outlines2014-01-07T05:26:00+00:00 23 K 
[TXT]Content Mastery Chapter 122014-01-07T16:59:00+00:00 18 K 
[TXT]Chapter 16 Evolution Of Populations Wordwise Answer Key2014-01-08T04:32:00+00:00 24 K 
[TXT]Chapter 7 Dave Ramsey Money In Review Short Answers2014-01-08T16:05:00+00:00 20 K 
[TXT]Chapter 14 The Human Genome Making Karyotypes Answers2014-01-09T03:38:00+00:00 24 K 
[TXT]Chapter 7 Money In Review2014-01-09T15:11:00+00:00 23 K 
[TXT]Chapter 19 The Cold War Daily Quiz 32014-01-10T02:44:00+00:00 18 K 
[TXT]Chapter 33 The Conservative Tide Answers2014-01-10T14:17:00+00:00 23 K 
[TXT]Chapter 7 Budgeting Bath County Schools Answers2014-01-11T01:50:00+00:00 20 K 
[TXT]Chapter 4 Making The Minimum2014-01-11T13:23:00+00:00 23 K 
[TXT]Chapter 27 Section 4 Reteaching Activity British Imperialism In India2014-01-12T00:56:00+00:00 17 K 
[TXT]Chapter 4 Teacher Making The Minimum Dave Ramsey2014-01-12T12:29:00+00:00 23 K 
[TXT]Chapter 8 Money In Review Answers2014-01-13T00:02:00+00:00 20 K 
[TXT]Chapter 7 Budgeting 101 Workbook2014-01-13T11:35:00+00:00 25 K 
[TXT]Chapter 16 Evolution Of Populations Answer Key2014-01-13T23:08:00+00:00 22 K 
[TXT]Chapter 7 Money And Review2014-01-14T10:41:00+00:00 20 K 
[TXT]Chapter 26 Survey Addition Origins Of The Cold War2014-01-14T22:14:00+00:00 17 K 
[TXT]Chapter 16 Thermal Energy And Heat Answers Lincoln Interactive2014-01-15T09:47:00+00:00 21 K 
[TXT]Chapter 33 Section Quiz Two Super Powers Face Off Key2014-01-15T21:20:00+00:00 25 K 
[TXT]Chapter 18 Section 1 The Marshall Plan Answers2014-01-16T08:53:00+00:00 18 K 
[TXT]Chapter 6 Pro Rata Debts2014-01-16T20:26:00+00:00 24 K 
[TXT]Chapter 33 Section 1 Cold War Superpowers Face Off Answers2014-01-17T07:59:00+00:00 19 K 
[TXT]Chapter 33 Section 1 Cold War Super Powers Face Off Answer Sheet2014-01-17T19:32:00+00:00 22 K 
[TXT]Consumer Awareness Chapter 5 Answers2014-01-18T07:05:00+00:00 22 K 
[TXT]Chapter 33 Section 5 The Cold War Thaws Answers2014-01-18T18:38:00+00:00 23 K 
[TXT]Chapter 15 Vocabulary Cross Word Ap Enviromental Science2014-01-19T06:11:00+00:00 17 K 
[TXT]Chapter 11 Motion To Lift Stay Sample2014-01-19T17:44:00+00:00 22 K 
[TXT]Chapter 7 Cardiovascular Fitness Test Answers2014-01-20T05:17:00+00:00 20 K 
[TXT]Chapter 12 Money Review Answers2014-01-20T16:50:00+00:00 19 K 
[TXT]Chapter 6 Adaptive Immunity Elsevier2014-01-21T04:23:00+00:00 24 K 
[TXT]Chapter 7 Acids Bases And Solutions Crossword Puzzle2014-01-21T15:56:00+00:00 17 K 
[TXT]Chapter 7 Test A Foundation In Personal Finance2014-01-22T03:29:00+00:00 25 K 
[TXT]Chapter 7 Test C Foundation In Personal Finance2014-01-22T15:02:00+00:00 25 K 
[TXT]Cardiovascular Fitness Chapter Review Answers2014-01-23T02:35:00+00:00 24 K 
[TXT]Chapters In Kenneth Hagin Ministry Gifts Book2014-01-23T14:08:00+00:00 20 K 
[TXT]Chapter 14 2 Human Chromosomes Pages 349 353 Answer Key2014-01-24T01:41:00+00:00 24 K 
[TXT]Chapter 15 Section 4 Eisenhowers Cold War Policies Answer Sheet2014-01-24T13:14:00+00:00 22 K 
[TXT]Chapter 4 Mathematical Models In Personal Fiances Answer Keys2014-01-25T00:47:00+00:00 21 K 
[TXT]Chapter 33 Section 2 Communists Take Power In China Answers2014-01-25T12:20:00+00:00 21 K 
[TXT]Chapter 18 Sections 2 Reteaching Activity The Cold War Heats Up Key2014-01-25T23:53:00+00:00 17 K 
[TXT]Chapter 16 Thermal Energy And Heat Section 2 Thermodynamics Answer Key2014-01-26T11:26:00+00:00 18 K 
[TXT]Chapter 16 Evolution Of Populations Section 1 Genes And Variation Answers2014-01-26T22:59:00+00:00 21 K 
[TXT]Chapter 7 Cell Structure And Function Section Boundaries Answer Key2014-01-27T10:32:00+00:00 23 K 
[TXT]Chapter 34 Protection Support And Locomotion Answer Key To The Worksheet2014-01-27T22:05:00+00:00 22 K 
[TXT]Chapter 17 Protection Support And Locomotion Worksheet2014-01-28T09:38:00+00:00 21 K 
[TXT]Chapter 26 Cold War Slide2014-01-28T21:11:00+00:00 20 K 
[TXT]Chapter 10 Genes And Chromosomes Karyotypes Lab Answer Key2014-01-29T08:44:00+00:00 25 K 
[TXT]Chapter 27 Section 4 Reteaching Activity British Imperialism In India Answers2014-01-29T20:17:00+00:00 22 K 
[TXT]Chapter 18 Section 1 Answers Origins Of The Cold War2014-01-30T07:50:00+00:00 25 K 
[TXT]Chapter 14 3 Studying The Human Genome Answer Key2014-01-30T19:23:00+00:00 25 K 
[TXT]Chapter 18 Unit 5 Two Nations Live On The Edge2014-01-31T06:56:00+00:00 23 K 
[TXT]Chapter 16 1 Genes And Variation2014-01-31T18:29:00+00:00 23 K 
[TXT]Chapter 33 Section 2 Conservative Policies Under Reagan And Bush Online Book2014-02-01T06:02:00+00:00 19 K 
[TXT]Chapter 26 Section 2 Cold War Conflicts Answers2014-02-01T17:35:00+00:00 19 K 
[TXT]Chapter 12 Forces And Motion Wordwise Answers2014-02-02T05:08:00+00:00 20 K 
[TXT]Chapter 12 Forces And Motion Wordwise2014-02-02T16:41:00+00:00 25 K 
[TXT]Chapter 5 Crossword Physical Science2014-02-03T04:14:00+00:00 20 K 
[TXT]Chapter 33 Section 5 Cold War Thaws Answers2014-02-03T15:47:00+00:00 25 K 
[TXT]Chapter 11 Section 4 Reteaching Activity British Imperialism In India2014-02-04T03:20:00+00:00 20 K 
[TXT]Chapter 17 Retaching Activity Wars In Korea And Vietnam Answers2014-02-04T14:53:00+00:00 22 K 
[TXT]Chapter 22 The Great Depression Begins Crossword Puzzle Answer Key2014-02-05T02:26:00+00:00 24 K 
[TXT]Chapter 17 Section 2 The Communists Take Over China2014-02-05T13:59:00+00:00 21 K 
[TXT]Chapter Twelve Forces And Motion Wordwise2014-02-06T01:32:00+00:00 22 K 
[TXT]Chapter 12 Money In Review Dave Ramsey Answer Key2014-02-06T13:05:00+00:00 23 K 
[TXT]Chapter 33 Two Superpowers Face Off Answer Key2014-02-07T00:38:00+00:00 20 K 
[TXT]Chapter 19 Section 3 Popular Culturalkey2014-02-07T12:11:00+00:00 25 K 
[TXT]Chapter 12 Forces And Motion Wordwise Answer Key2014-02-07T23:44:00+00:00 21 K 
[TXT]Chapter 18 Section 4 Two Nations Live On The Edge Answers Sheet2014-02-08T11:17:00+00:00 17 K 
[TXT]Chapter 7 Workbook Answers Doc Dave Ramsey2014-02-08T22:50:00+00:00 21 K 
[TXT]Chapter 19 Section 3 Popular Culture Answers2014-02-09T10:23:00+00:00 25 K 
[TXT]Chapter 7 Budgeting 101 Teacher2014-02-09T21:56:00+00:00 17 K 
[TXT]Chapter 20 Section 1 Kennedy And The Cold War Terms Names Answers2014-02-10T09:29:00+00:00 22 K 
[TXT]Chapter 18 Section 2 The Cold War At Home Answer Key2014-02-10T21:02:00+00:00 21 K 
[TXT]Chapter 15 Section 2 Energy Conversion Answers2014-02-11T08:35:00+00:00 23 K 
[TXT]Chapter 5 Wordwise Answer Key2014-02-11T20:08:00+00:00 18 K 
[TXT]Chapter 18 Origins Of The Cold War Worksheet2014-02-12T07:41:00+00:00 25 K 
[TXT]Chapter 10 Genes Chromosomes Karyotypes Lab2014-02-12T19:14:00+00:00 18 K 
[TXT]Chapter 11 Section 5 Reteaching Activity Imperialism In Southeast Asia Answers2014-02-13T06:47:00+00:00 18 K 
[TXT]Chapter 10 Lab Karyotype2014-02-13T18:20:00+00:00 21 K 
[TXT]Chapter 32 Theories Of Evolution Vocabulary Review Answer Key2014-02-14T05:53:00+00:00 17 K 
[TXT]Chapter 15 Water And Aqueous Systems Id A2014-02-14T17:26:00+00:00 17 K 
[TXT]Chapter 33 The Cold War Main Idea2014-02-15T04:59:00+00:00 19 K 
[TXT]Chapter Nine Relating With Money In Review2014-02-15T16:32:00+00:00 24 K 
[TXT]Chapter12 Money In Review2014-02-16T04:05:00+00:00 20 K 
[TXT]Chapter 10 Genes And Chromosomes Karyotypes Lab Answers Key2014-02-16T15:38:00+00:00 22 K 
[TXT]Chapter 7 Budgeting 101 Answers2014-02-17T03:11:00+00:00 18 K 
[TXT]Chapter 3 Foundation In Personal Finance Test2014-02-17T14:44:00+00:00 19 K 
[TXT]Chapter 25 Section 1 A Conservative Movement Emerges Answers2014-02-18T02:17:00+00:00 25 K 
[TXT]Chapter 26 Section Quiz Origins Of The Cold War2014-02-18T13:50:00+00:00 18 K 
[TXT]Chapter 16 Evolution Of Populations Section 1 Genes And Variation Answer Key2014-02-19T01:23:00+00:00 23 K 
[TXT]Chapter 19 Section 3 Popul Culture2014-02-19T12:56:00+00:00 22 K 
[TXT]Chapter 20 Section 2 Reteaching Activity The New Frontier Answer Key2014-02-20T00:29:00+00:00 25 K 
[TXT]Chemistry Chapter 12 Review Answers2014-02-20T12:02:00+00:00 18 K 
[TXT]Chapter 13 Section 3 Reteaching Activity A Global Conflict Mcdougal Littell Answers2014-02-20T23:35:00+00:00 19 K 
[TXT]Chapter 12 Wordwise2014-02-21T11:08:00+00:00 22 K 
[TXT]Chapter 11 The Evolution Of Populations Vocabulary Practice2014-02-21T22:41:00+00:00 22 K 
[TXT]Chapter 18 The Americans Cold War At Home2014-02-22T10:14:00+00:00 18 K 
[TXT]Chapter 12 Study Guid For Content Mastery Key2014-02-22T21:47:00+00:00 18 K 
[TXT]Chapter 12 Section 2 Reaction And Revolution2014-02-23T09:20:00+00:00 22 K 
[TXT]Chapter 14 The Great Depression Begins Crossword Puzzle Answer Key2014-02-23T20:53:00+00:00 22 K 
[TXT]Chapter 10 Genes And Chromosomes Karyotypes Answer Key2014-02-24T08:26:00+00:00 17 K 
[TXT]Chapter 26 Section 3 Technology And Modern Life Answers2014-02-24T19:59:00+00:00 22 K 
[TXT]Chapter 26 Section 2 The New Global Economy2014-02-25T07:32:00+00:00 19 K 
[TXT]Chapter 20 Section 1 Kennedy And The Cold War Answers2014-02-25T19:05:00+00:00 22 K 
[TXT]Chapter 14 The Human Genome Section 1 Answer Key2014-02-26T06:38:00+00:00 20 K 
[TXT]Chapter 15 The New Deal Crossword Puzzle2014-02-26T18:11:00+00:00 20 K 
[TXT]Chapter 26 Section 1 Reteaching Activity Origins Of The Cold War2014-02-27T05:44:00+00:00 22 K 
[TXT]Chapter 7 Budgeting 101 Answer Key2014-02-27T17:17:00+00:00 21 K 
[TXT]Chapter 16 Section 2 The Cold War Heats Up2014-02-28T04:50:00+00:00 22 K 
[TXT]Chapter 2 Student Activity Sheet Investment Scavenger Hunt2014-02-28T16:23:00+00:00 18 K 
[TXT]Chapter 3 Test B Dave Ramsey2014-03-01T03:56:00+00:00 22 K 
[TXT]Chapter 19 Section 1 Reteaching Activity Postwar America2014-03-01T15:29:00+00:00 23 K 
[TXT]Chapter 19 Section 1 Postwar America Packet Answers2014-03-02T03:02:00+00:00 20 K 
[TXT]Chapter 17 Section 5 The Cold War Thaws Answer Key2014-03-02T14:35:00+00:00 20 K 
[TXT]Chapter 20 Section 1 Kennedy And The Cold War Answer Key2014-03-03T02:08:00+00:00 17 K 
[TXT]Chapter 14 Section Quiz Revolutions In Russia2014-03-03T13:41:00+00:00 25 K 
[TXT]Chapter 19 Section 3 Popular Culture Answer Key2014-03-04T01:14:00+00:00 22 K 
[TXT]Chapter 10 Cell Growth And Division Answer Key2014-03-04T12:47:00+00:00 20 K 
[TXT]Chapter 9 Money In Review Answer2014-03-05T00:20:00+00:00 24 K 
[TXT]Chapter 26 Technology And Modern Life 1990S2014-03-05T11:53:00+00:00 24 K 
[TXT]Chapter 12 Stoichiometry Answers By Pearson2014-03-05T23:26:00+00:00 17 K 
[TXT]Chapter 17 Section Quiz Communist Take Power In China2014-03-06T10:59:00+00:00 21 K 
[TXT]Chapter 11 The Evolution Of Populations Vocabulary Practice Answers2014-03-06T22:32:00+00:00 23 K 
[TXT]Chapter 24 Section 3 Reteaching Activity The Holocaust Answers2014-03-07T10:05:00+00:00 19 K 
[TXT]Chapter 12 Pearson Physical Science Review Answers2014-03-07T21:38:00+00:00 23 K 
[TXT]Chapter 19 Daily Quiz 22014-03-08T09:11:00+00:00 20 K 
[TXT]Chapter 16 Genes And Variation Answers2014-03-08T20:44:00+00:00 25 K 
[TXT]Chapter 16 Evolution Of Populations Practice Test A Key2014-03-09T08:17:00+00:00 25 K 
[TXT]Chapter 19 Section 3 Popular Culture2014-03-09T19:50:00+00:00 22 K 
[TXT]Chapter 18 Section 1 The Cold War Heats Up2014-03-10T07:23:00+00:00 21 K 
[TXT]Chapter 15 Darwin S Theory Crossword Puzzle2014-03-10T18:56:00+00:00 21 K 
[TXT]Chapter 16 Evolution Of Populations Review Questions2014-03-11T06:29:00+00:00 22 K 
[TXT]Chapter 3 Rocks Section 1 The Rock Cycle Answers2014-03-11T18:02:00+00:00 18 K 
[TXT]Chapter 9 Test Relating With Money Answer Key2014-03-12T05:35:00+00:00 24 K 
[TXT]Chapter 9 Test Relating Money Answer Key2014-03-12T17:08:00+00:00 19 K 
[TXT]Chapter 26 Section 1 Origins Of The Cold War Chart Answer Key2014-03-13T04:41:00+00:00 22 K 
[TXT]Chapter 12 Forces And Motion Wordwise Key2014-03-13T16:14:00+00:00 19 K 
[TXT]Chapter 28 Section 1 Kennedy And The Cold War Answers2014-03-14T03:47:00+00:00 24 K 
[TXT]Chapter 20 Section 2 The New Frontier Answer Key2014-03-14T15:20:00+00:00 18 K 
[TXT]Chapter 25 Nuclear Chemistry Pearson Answer Key2014-03-15T02:53:00+00:00 24 K 
[TXT]Chemistry Chapter 12 Review Answer Key2014-03-15T14:26:00+00:00 25 K 
[TXT]Chapter 26 Section 1 The 1990S And New Millennium Answers2014-03-16T01:59:00+00:00 23 K 
[TXT]Chapter 12 Workbook Pages Chemistry2014-03-16T13:32:00+00:00 21 K 
[TXT]Chapter 25 Us History Reading2014-03-17T01:05:00+00:00 19 K 
[TXT]Chapter 6 Money In Review Worksheet Dave Ramsey Answers2014-03-17T12:38:00+00:00 18 K 
[TXT]Chapter 26 Section 2 The Cold War Heats Up Quiz2014-03-18T00:11:00+00:00 22 K 
[TXT]Chapter 18 Vocabulary Review Environmental Ap2014-03-18T11:44:00+00:00 18 K 
[TXT]Chapter 7 Review Answers Budgeting Bath County Schools2014-03-18T23:17:00+00:00 24 K 
[TXT]Chapter 33 The Cold War Thaws Answers2014-03-19T10:50:00+00:00 25 K 
[TXT]Chapter 18 Section 4 Reteaching Activity Two Nations Live On The Edge2014-03-19T22:23:00+00:00 17 K 
[TXT]Chapter 19 Earth Science Geology The Environment And Universe Answers2014-03-20T09:56:00+00:00 22 K 
[TXT]Chapter 27 Section 5 Reteaching Activity Imperialism In Southeast Asia2014-03-20T21:29:00+00:00 25 K 
[TXT]Chapter 4 Money In Review Case Studies Answers2014-03-21T09:02:00+00:00 21 K 
[TXT]Chapter 7 Money And Review Answers2014-03-21T20:35:00+00:00 20 K 
[TXT]Chapter 18 Crossword Puzzle Answer Key Glencoe World Geography2014-03-22T08:08:00+00:00 19 K 
[TXT]Chapter 18 Section 1 Quiz Origins Of The Cold War2014-03-22T19:41:00+00:00 19 K 
[TXT]Chapter 16 Thermal Energy And Heat Section 1 Matter Answers2014-03-23T07:14:00+00:00 24 K 
[TXT]Content Vocabulary Acids And Bases In Solution Chapter 9 Crossword Answers2014-03-23T18:47:00+00:00 18 K 
[TXT]Chapter 17 Section 3 Wars In Korea And Vietnam Answers2014-03-24T06:20:00+00:00 18 K 
[TXT]Chapter 18 Us History Worksheet Answers2014-03-24T17:53:00+00:00 20 K 
[TXT]Chapter 26 The 1990S And New Millennium Answers2014-03-25T05:26:00+00:00 23 K 
[TXT]Chapter 11 Section 3 Other Expressed Powers Answer Key2014-03-25T16:59:00+00:00 23 K 
[TXT]Chapter 19 Section 1 Jackie Robinson Driven To Break Barriers Answers2014-03-26T04:32:00+00:00 17 K 
[TXT]Chapter 8 Answers Catawba County Schools Algebra 22014-03-26T16:05:00+00:00 24 K 
[TXT]Chapter 16 Wordwise2014-03-27T03:38:00+00:00 21 K 
[TXT]Chapter 10 Section 2 The History Of American Banking Answers2014-03-27T15:11:00+00:00 19 K 
[TXT]Chapter 18 The Cold War Heats Up Section 2 Pg 75 Worksheet Answers2014-03-28T02:44:00+00:00 20 K 
[TXT]Chapter 2 Money In Review Answer Key2014-03-28T14:17:00+00:00 23 K 
[TXT]Chapter 11 Section 2 The Expressed Powers Of Money And Commerce Answer Key2014-03-29T01:50:00+00:00 17 K 
[TXT]Chapter 16 Wordwise Answer Key2014-03-29T13:23:00+00:00 21 K 
[TXT]Chapter 27 Section 2 The Guns Of August Answers2014-03-30T00:56:00+00:00 22 K 
[TXT]Chapter 50 Sensory And Motor Mechanisms Answers2014-03-30T12:29:00+00:00 17 K 
[TXT]Chapter 11 Section 2 The Expressed Powers Of Money And Commerce Worksheet Answers2014-03-31T00:02:00+00:00 19 K 
[TXT]Chapter 26 The New Global Economy2014-03-31T11:35:00+00:00 18 K 
[TXT]Cost Management A Strategic Emphasis Chapter 142014-03-31T23:08:00+00:00 19 K 
[TXT]Chapter 17 Section 1 Quiz Cold War Two Superpowers Face Off2014-04-01T10:41:00+00:00 21 K 
[TXT]Chapter 17 Section 1 Quiz Cold War Two Superpowers Face Off Quizlet2014-04-01T22:14:00+00:00 23 K 
[TXT]Chapter 33 Section 3 Wars In Korea And Vietnam Answers2014-04-02T09:47:00+00:00 21 K 
[TXT]Chapter 1 Curriculum Development Processes2014-04-02T21:20:00+00:00 19 K 
[TXT]Chapter 15 Vocabulary Review Answer Key2014-04-03T08:53:00+00:00 22 K 
[TXT]Chapter 14 1 Human Heredity Workbook Answers2014-04-03T20:26:00+00:00 21 K 
[TXT]Chapter 17 Cold War Superpowers Fave Off Reteachibg Activity Answers2014-04-04T07:59:00+00:00 25 K 
[TXT]Chapter 17 Cold War Superpowers Face Off Reteaching Activity Answers2014-04-04T19:32:00+00:00 22 K 
[TXT]Chapter 18 Section 1 Pagrs 602 6082014-04-05T07:05:00+00:00 17 K 
[TXT]Cost Accounting Blocher Solution Manual Chapter 122014-04-05T18:38:00+00:00 19 K 
[TXT]Chapter 14 The Birth Of Christianity2014-04-06T06:11:00+00:00 24 K 
[TXT]Chapter 14 The Human Genome2014-04-06T17:44:00+00:00 19 K 
[TXT]Chapter 11Section 1 Core Worksheet The Expressed Powers Of Money And Commerce Answers2014-04-07T05:17:00+00:00 18 K 
[TXT]Chapter 11 The Scope Of Congressional Powers Answer Key2014-04-07T16:50:00+00:00 17 K 
[TXT]Chapter 26 Section 3 The Cold War At Home Worksheet2014-04-08T04:23:00+00:00 20 K 
[TXT]Chapter 11 Aggregate Demand Andaggregate Supply End Of Questions2014-04-08T15:56:00+00:00 21 K 
[TXT]Core Worksheet Chapter 11 The Expressed Powers Of Money And Commerce2014-04-09T03:29:00+00:00 23 K 
[TXT]Chapter 16 Evolution Of Populations Reviewing Content2014-04-09T15:02:00+00:00 17 K 
[TXT]Chapter 17 Section 1 Cold War Superpowers Face Off Answers Quizlet2014-04-10T02:35:00+00:00 22 K 
[TXT]Chapter 17 Section 1 Cold War Superpower Face Off Answers2014-04-10T14:08:00+00:00 22 K 
[TXT]Chapter 1 Money In Review Answers2014-04-11T01:41:00+00:00 21 K 
[TXT]Chapter 34 Protection Support And Locomotion Test2014-04-11T13:14:00+00:00 24 K 
[TXT]Chapter 7 Dave Ramsey Answers2014-04-12T00:47:00+00:00 17 K 
[TXT]Chapter 26 Section 3 Technology And Modern Life2014-04-12T12:20:00+00:00 19 K 
[TXT]Chapter 1 Money In Review Short Answers2014-04-12T23:53:00+00:00 25 K 
[TXT]Chapter 30 Section 2 Us Involvement And Escalation Teacher2014-04-13T11:26:00+00:00 22 K 
[TXT]Chapter 25 A Conservative Movement Emerges Answers2014-04-13T22:59:00+00:00 24 K 
[TXT]Chapter 19 Section 1 Reteaching Activity2014-04-14T10:32:00+00:00 25 K 
[TXT]Chapter 15 Darwin S Theory Of Evolution Vocabulary Review Crossword Puzzle Key2014-04-14T22:05:00+00:00 24 K 
[TXT]Chapter 11 Government Powers Of Congress Test2014-04-15T09:38:00+00:00 25 K 
[TXT]Chapter 17 Section 1 Cold War2014-04-15T21:11:00+00:00 19 K 
[TXT]Chapter 13 Lab From Dna To Protein Synthesis Answer Key2014-04-16T08:44:00+00:00 20 K 
[TXT]Chapter 4 Student Activity Sheet Making The Minimum Help2014-04-16T20:17:00+00:00 22 K 
[TXT]Chapter 9 Money In Review Dave Ramsey2014-04-17T07:50:00+00:00 23 K 
[TXT]Chapter 27 Section 1 The Stage Is Set Workbook Answers2014-04-17T19:23:00+00:00 22 K 
[TXT]Chapter 22 Wordwise Answers2014-04-18T06:56:00+00:00 19 K 
[TXT]Chapter 2 Money In Review Dave Ramsey Test Answers2014-04-18T18:29:00+00:00 18 K 
[TXT]Chapter 11 Section 3 Other Expressed Powers2014-04-19T06:02:00+00:00 22 K 
[TXT]Chapter 11 Section 3 Other Expressed Powers Answers2014-04-19T17:35:00+00:00 25 K 
[TXT]Chapter 24 The West Between Wars Key Terms2014-04-20T05:08:00+00:00 18 K 
[TXT]Chapter 11 Section 2 The Other Expressed Powers2014-04-20T16:41:00+00:00 24 K 
[TXT]Chapter 33 Section 5 Reteaching Activity The Cold War Thaws2014-04-21T04:14:00+00:00 23 K 
[TXT]Chapter 11 Section 4 The Implied Powers2014-04-21T15:47:00+00:00 20 K 
[TXT]Chapter 25 Section 3 Social Concerns Of The 1980S Key2014-04-22T03:20:00+00:00 17 K 
[TXT]Chapter 27The Cold War Begins 1945 1952 Answers2014-04-22T14:53:00+00:00 24 K 
[TXT]Chapter 16 Pearson Thermal Energy And Heat Unit Test2014-04-23T02:26:00+00:00 24 K 
[TXT]Chapter Review Crossword Density And Buoyancy2014-04-23T13:59:00+00:00 21 K 
[TXT]Chapter 26 An Age Of Democracy And Progress Crossword Puzzle2014-04-24T01:32:00+00:00 22 K 
[TXT]Chapter 26 An Age Of Democracy And Progress Crossword Puzzle Answers2014-04-24T13:05:00+00:00 24 K 
[TXT]Chapter 14 The Human Genome Pearson2014-04-25T00:38:00+00:00 17 K 
[TXT]Civil Rights Timeline Worksheet Chapter 212014-04-25T12:11:00+00:00 18 K 
[TXT]Chapter 13 Section 3 Farmers And The Populist Movement Answers2014-04-25T23:44:00+00:00 20 K 
[TXT]Chapter 11 Section 3 The Implied Powers Core Worksheet Answers2014-04-26T11:17:00+00:00 25 K 
[TXT]Chapter 6 Money In Review Answer Key Foundations Personal Finance2014-04-26T22:50:00+00:00 18 K 
[TXT]Chapter 19 Section 2 The Cold War At Home2014-04-27T10:23:00+00:00 23 K 
[TXT]Chapter 6 Credit Bureaus2014-04-27T21:56:00+00:00 25 K 
[TXT]Chapter 18 Origins Of The Cold War2014-04-28T09:29:00+00:00 23 K 
[TXT]Chapter 10 Section 2 Economics History Of Banking2014-04-28T21:02:00+00:00 21 K 
[TXT]Chapter 12 Section 3 Newton Third Law Of Motion And Momentum Analyzing2014-04-29T08:35:00+00:00 25 K 
[TXT]Chapter 26 The United States In Today S World Powerpoints2014-04-29T20:08:00+00:00 22 K 
[TXT]Chapter 18 Section 4 Two Nations Live On Edge Answers2014-04-30T07:41:00+00:00 21 K 
[TXT]Chapter 4 Dangers Of Debt Book Page2014-04-30T19:14:00+00:00 18 K 
[TXT]Chapter 4 Student Activity Sheet The Debt Snowball Answers2014-05-01T06:47:00+00:00 25 K 
[TXT]Chapter 6 Crossword Glencoe2014-05-01T18:20:00+00:00 18 K 
[TXT]Chapter 12 Patterns Of Heredity And Human Genetics Answers2014-05-02T05:53:00+00:00 25 K 
[TXT]Chapter 14 3 The Human Genome2014-05-02T17:26:00+00:00 22 K 
[TXT]Chapter 14 3 Human Molecular Genetics2014-05-03T04:59:00+00:00 21 K 
[TXT]Chapter 16 Solubility Curves Practice Problems2014-05-03T16:32:00+00:00 17 K 
[TXT]Chapter 25 Section 2 Reteaching Activity Conservative Policies Under Reagan And Bush2014-05-04T04:05:00+00:00 18 K 
[TXT]Chapter 20 Section 1 Kennedy And The Cold War Worksheet Answers2014-05-04T15:38:00+00:00 20 K 
[TXT]Chapter Test The Theory Of Evolution Answer Key2014-05-05T03:11:00+00:00 19 K 
[TXT]Chapter 16 Evolution Of Populations Worksheet Answers2014-05-05T14:44:00+00:00 17 K 
[TXT]Chapter 16 Evolution Of Populations Key2014-05-06T02:17:00+00:00 18 K 
[TXT]Chapter 16 1 Evolution Of Populations Section2014-05-06T13:50:00+00:00 23 K 
[TXT]Chapter 16 Thermal Energy And Heat Crossword2014-05-07T01:23:00+00:00 17 K 
[TXT]Chapter 11 Powers Of Congress Worksheet Answers2014-05-07T12:56:00+00:00 25 K 
[TXT]Chapter 19 Section 3 The War At Home Answers2014-05-08T00:29:00+00:00 21 K 
[TXT]Chapter 17 Section 1 Cold War Superpowers Face Off Worksheet Answers2014-05-08T12:02:00+00:00 21 K 
[TXT]Chapter 11 Monry In Revirw Key2014-05-08T23:35:00+00:00 21 K 
[TXT]Chapter 16 1 Genes And Variation Answer Key2014-05-09T11:08:00+00:00 20 K 
[TXT]Chapter 11 Section 4 British Imperialism In India Answers2014-05-09T22:41:00+00:00 22 K 
[TXT]Chemistry Chapter 12 Mixed Review Answers2014-05-10T10:14:00+00:00 23 K 
[TXT]Chapter 22 Section 2 Us Involvement And Escalation Answeers2014-05-10T21:47:00+00:00 24 K 
[TXT]Crossword Chapter 12 Environmental Science2014-05-11T09:20:00+00:00 22 K 
[TXT]Chapter 27 Section 2 Imperialism Case Study Nigeria Workshit2014-05-11T20:53:00+00:00 24 K 
[TXT]Chapter 7 Money Inreview2014-05-12T08:26:00+00:00 21 K 
[TXT]Chapter 7 Money In Review Workbook Answers2014-05-12T19:59:00+00:00 22 K 
[TXT]Chapter 10 Cell Growth And Division Test Answer Key2014-05-13T07:32:00+00:00 22 K 
[TXT]Chapter 18 The Cold War Heats Up2014-05-13T19:05:00+00:00 17 K 
[TXT]Chapter 13 Section 3 A Global Conflict Reteaching Activity Answers2014-05-14T06:38:00+00:00 21 K 
[TXT]Chapter Test Thermal Energy Answers 162014-05-14T18:11:00+00:00 18 K 
[TXT]Chapter 11 Section 1 The Scope Of Congressional Powers Worksheet Answers2014-05-15T05:44:00+00:00 22 K 
[TXT]Chapter 11 Section 1 The Scope Of Congressional Powers Worksheet2014-05-15T17:17:00+00:00 23 K 
[TXT]Chapter 19 Section 2 The American Dream In Fifties Answer Key2014-05-16T04:50:00+00:00 18 K 
[TXT]Chapter 14 2 Human Chromosomes Answer Key2014-05-16T16:23:00+00:00 24 K 
[TXT]Chapter 5 The Two Party System In American History Section 3 Reading And Review2014-05-17T03:56:00+00:00 22 K 
[TXT]Chapter 14 The Human Genome Making Karyotypes Answer Key2014-05-17T15:29:00+00:00 23 K 
[TXT]Chapter 25 Section 4 Foreign Policy After The Cold War Worksheet Answers2014-05-18T03:02:00+00:00 19 K 
[TXT]Chapter 31 1 The Neuron Worksheet Answer2014-05-18T14:35:00+00:00 23 K 
[TXT]Chapter 20 Section 2 The New Frontier Answers2014-05-19T02:08:00+00:00 24 K 
[TXT]Chapter 19 Section 3 Computers Holt Quiz2014-05-19T13:41:00+00:00 22 K 
[TXT]Chapter 14 Human Genetics Crossword2014-05-20T01:14:00+00:00 25 K 
[TXT]Chapter 29 Section 4 Prentice Hall2014-05-20T12:47:00+00:00 25 K 
[TXT]Chapter 12 Physics Test Sound2014-05-21T00:20:00+00:00 24 K 
[TXT]Chapter 29 Section 4 Textbook Pearson Prentice Hall2014-05-21T11:53:00+00:00 23 K 
[TXT]Chapter 26 Section 4 The Changing Face Of America2014-05-21T23:26:00+00:00 25 K 
[TXT]Chapter 11 Section 1 Reteaching Activity The Civil War Begins Answers2014-05-22T10:59:00+00:00 23 K 
[TXT]Chapter Two Test Cell Processes And Energy2014-05-22T22:32:00+00:00 19 K 
[TXT]Chapter 15 Darwin S Theory Of Evolution Test2014-05-23T10:05:00+00:00 21 K 
[TXT]Chapter 18 Section 1 The Marshall Plan2014-05-23T21:38:00+00:00 19 K 
[TXT]Chapter 10 Money And Banking Section 2 The History Of American Quiz2014-05-24T09:11:00+00:00 22 K 
[TXT]Chapter 12 Wordwise Answers Forces And Motion2014-05-24T20:44:00+00:00 18 K 
[TXT]Chapter 18 Section 1 Aggression Appeasement And War2014-05-25T08:17:00+00:00 25 K 
[TXT]Chapter 18 Section 1 Aggression Appeasement And War Notes2014-05-25T19:50:00+00:00 21 K 
[TXT]Chapter 11 Section 4 The Non Legislative Powers2014-05-26T07:23:00+00:00 23 K 
[TXT]Chapter 10 Money And Banking Section 2 The History Of American2014-05-26T18:56:00+00:00 24 K 
[TXT]Chapter 11 The Scope Of Congressional Powers As You Read Answers2014-05-27T06:29:00+00:00 17 K 
[TXT]Chapter 22 Section 2 Us Involvement2014-05-27T18:02:00+00:00 20 K 
[TXT]Chapter 36 Cold War Packet2014-05-28T05:35:00+00:00 21 K 
[TXT]Chemistry Chapter 12 Stoichiometry Worksheet Answers2014-05-28T17:08:00+00:00 18 K 
[TXT]Chapter 11 Test Expressed Powers2014-05-29T04:41:00+00:00 24 K 
[TXT]Cch Federal Taxation Comprehensive Solutions Chapter 82014-05-29T16:14:00+00:00 22 K 
[TXT]Chapter 16 Thermal Energy And Heat2014-05-30T03:47:00+00:00 23 K 
[TXT]Chapter 25 Section 2 Conservative Policies Under Reagan And Bush Answers2014-05-30T15:20:00+00:00 21 K 
[TXT]Chapter 37 Circulatory And Respiratory Systems Section 1 Answer Key2014-05-31T02:53:00+00:00 24 K 
[TXT]Chapter 33 Section 2 Communists Triumph In China Answers2014-05-31T14:26:00+00:00 21 K 
[TXT]Chapter 14 The Human Genome Answer Key Pages 341 3482014-06-01T01:59:00+00:00 18 K 
[TXT]Chapter 14 The Human Genome Answer Key Pages 344 346 Pg 1592014-06-01T13:32:00+00:00 21 K 
[TXT]Chapter 26 The Age Of Democracy And Progress Crossword2014-06-02T01:05:00+00:00 24 K 
[TXT]Chapter Nine Money In Review2014-06-02T12:38:00+00:00 24 K 
[TXT]Chapter 20 Review Crossword Science Answers2014-06-03T00:11:00+00:00 20 K 
[TXT]Chapter 33 The Cold War Thaws2014-06-03T11:44:00+00:00 20 K 
[TXT]Chapter 19 Section 2 The American Dream In Fifties Answers2014-06-03T23:17:00+00:00 24 K 
[TXT]Chapter 33 Two Superpowers Face Off Answers2014-06-04T10:50:00+00:00 19 K 
[TXT]Chapter 15 Evolution Crossword2014-06-04T22:23:00+00:00 18 K 
[TXT]Chapter 18 Section 3The Cold War At Home The Hollywood Ten2014-06-05T09:56:00+00:00 22 K 
[TXT]Chapter 8 Money In Review Answer Key2014-06-05T21:29:00+00:00 19 K 
[TXT]Chapter 16 Thermal Energy And Matter Answers2014-06-06T09:02:00+00:00 25 K 
[TXT]Chapter Vocabulary Review 19 Crossword Puzzle Biology2014-06-06T20:35:00+00:00 24 K 
[TXT]Chapter 33 Section 1 2 Cold War Superpowers Face Off2014-06-07T08:08:00+00:00 23 K 
[TXT]Chapter 18 Section 1 Cold War Worksheet2014-06-07T19:41:00+00:00 19 K 
[TXT]Chapter 28 Section 3 Answers Kennedy And The Cold War2014-06-08T07:14:00+00:00 21 K 
[TXT]Cengage Payroll Accounting Chapter 5 20142014-06-08T18:47:00+00:00 24 K 
[TXT]Chapter 23 Section 3 Reteaching Culture2014-06-09T06:20:00+00:00 19 K 
[TXT]Chapter 16 Evolution Of Populations Vocabulary Review2014-06-09T17:53:00+00:00 25 K 
[TXT]Chapter 18 The American Dream In Fifties Test2014-06-10T05:26:00+00:00 22 K 
[TXT]Chapter 4 Personal Finance Answer Sheet2014-06-10T16:59:00+00:00 18 K 
[TXT]Chapter 12 Stoichiometry Test A Answers2014-06-11T04:32:00+00:00 17 K 
[TXT]Chapter 15 Darwin S Theory Of Evolution Crossword Puzzle Vocabulary Review Key2014-06-11T16:05:00+00:00 25 K 
[TXT]Chapter 27 Section 1 The Scramble For Africa Write Tje Letter Of Your Answer In Blank2014-06-12T03:38:00+00:00 22 K 
[TXT]Chapter 16 Darwins Theory Of Evolution Crossword Answers2014-06-12T15:11:00+00:00 18 K 
[TXT]Chapter 11 Powers Of Congress Key2014-06-13T02:44:00+00:00 24 K 
[TXT]Chapter 17 Two Superpowers Face Off2014-06-13T14:17:00+00:00 19 K 
[TXT]Chapter 49 Nervous System2014-06-14T01:50:00+00:00 24 K 
[TXT]Chapter 36 Thsudap2014-06-14T13:23:00+00:00 20 K 
[TXT]Chapter 13 Review Articulations And Body Movements2014-06-15T00:56:00+00:00 17 K 
[TXT]Chapter 16 1 Genes And Variations2014-06-15T12:29:00+00:00 20 K 
[TXT]Chapter 49 Nervous System Docstoc2014-06-16T00:02:00+00:00 21 K 
[TXT]Chapter 49 Nervous System Answer2014-06-16T11:35:00+00:00 22 K 
[TXT]Chapter 13 Review Articulations And Body Movements Diagrams2014-06-16T23:08:00+00:00 18 K 
[TXT]Chemistry Chapter 12 Review Pearsons2014-06-17T10:41:00+00:00 20 K 
[TXT]Chapter 11 Section 3 Other Expressed Powers Worksheet2014-06-17T22:14:00+00:00 17 K 
[TXT]Chapter 11 Section 2 The Other Expressed Powers Answers2014-06-18T09:47:00+00:00 22 K 
[TXT]Chapter 11 Section 2 Reading Comprehension The Other Expressed Powers Answers2014-06-18T21:20:00+00:00 18 K 
[TXT]Chapter 16 Darwins Theory Of Evolution Crossword2014-06-19T08:53:00+00:00 19 K 
[TXT]Chapter 9 Test A Foundations Of Personal Finance2014-06-19T20:26:00+00:00 24 K 
[TXT]Chapter 28 New Frontier Answers2014-06-20T07:59:00+00:00 23 K 
[TXT]Chapter 14 Section 1 Human Heredity Answer2014-06-20T19:32:00+00:00 22 K 
[TXT]Chapter 4 Money And Review Answers2014-06-21T07:05:00+00:00 24 K 
[TXT]Chapter 11 Us Government Book Work2014-06-21T18:38:00+00:00 22 K 
[TXT]Chapter 6 Test C Foundations In Personal Finance2014-06-22T06:11:00+00:00 19 K 
[TXT]Chapter 6 Test A Dave Ramsey2014-06-22T17:44:00+00:00 17 K 
[TXT]Chapter 15 Darwin S Theory Of Evolution Vocabulary Adaptive Answer Key2014-06-23T05:17:00+00:00 17 K 
[TXT]Chapter 14 The Human Genome Word Search Key2014-06-23T16:50:00+00:00 18 K 
[TXT]Chapter 6 Review Answer Key For Dave2014-06-24T04:23:00+00:00 19 K 
[TXT]Chapter 26 Section 1 Origins Of The Cold War Quiz Answer Key2014-06-24T15:56:00+00:00 17 K 
[TXT]Chapter 8 Resource Newton S Laws Of Motion Answer Key2014-06-25T03:29:00+00:00 23 K 
[TXT]Chapter 14 1 The Human Genome Answer Key2014-06-25T15:02:00+00:00 21 K 
[TXT]Chapter 25 The Conservative Tide2014-06-26T02:35:00+00:00 17 K 
[TXT]Chapter 1 Money In Review Dave Ramsey Answers2014-06-26T14:08:00+00:00 23 K 
[TXT]Chapter 11 Section 3 Quiz Answers2014-06-27T01:41:00+00:00 17 K 
[TXT]Chapter 49 Nervous System Answers2014-06-27T13:14:00+00:00 18 K 
[TXT]Chapter 15 Darwin S Theory Of Evolution Vocabulary Review Answers2014-06-28T00:47:00+00:00 21 K 
[TXT]Chapter 16 Evolution Of Populations Test Answer Key2014-06-28T12:20:00+00:00 19 K 
[TXT]Chapter 14 3 Human Molecular Genetics Worksheet2014-06-28T23:53:00+00:00 17 K 
[TXT]Chapter 14 Wordwise Answers2014-06-29T11:26:00+00:00 24 K 
[TXT]Chapter 12 Dna And Rna Vocabulary Review Answer Key2014-06-29T22:59:00+00:00 19 K 
[TXT]Chapter 17 Section 1 Two Superpowers Face Off Answer2014-06-30T10:32:00+00:00 20 K 
[TXT]Chapter 31 Galaxies And The Universe Answers2014-06-30T22:05:00+00:00 19 K 
[TXT]Chapter 22 Moving Toward Conflict Answers2014-07-01T09:38:00+00:00 24 K 
[TXT]Chapter 24 Section Review Answers2014-07-01T21:11:00+00:00 22 K 
[TXT]Chemistry Chapter 12 Reviewing Content Answers2014-07-02T08:44:00+00:00 22 K 
[TXT]Chapter 8 Resource Newton S Laws Of Motion Answers2014-07-02T20:17:00+00:00 25 K 
[TXT]Chapter 16 1 Genes Variation Pages 393 3962014-07-03T07:50:00+00:00 18 K 
[TXT]Chapter 14 The Human Genome Making Karyotypes Lab2014-07-03T19:23:00+00:00 24 K 
[TXT]Chapter 26 The New Global Economy What Was Good News2014-07-04T06:56:00+00:00 19 K 
[TXT]Chapter 11 The Great Depression Crossword2014-07-04T18:29:00+00:00 25 K 
[TXT]Chapter 17 Section 1 Pages 475 480 Two Superpowers Face Off2014-07-05T06:02:00+00:00 22 K 
[TXT]Chapter 26 Section 1 The 1990S In New Millennium2014-07-05T17:35:00+00:00 24 K 
[TXT]Chapter 13 Skill Practice Hold Mcdougal2014-07-06T05:08:00+00:00 23 K 
[TXT]Chapter 14 Section 1 Quiz Federal Taxes2014-07-06T16:41:00+00:00 19 K 
[TXT]Chapter 6 Personal Finance Answers2014-07-07T04:14:00+00:00 17 K 
[TXT]Chapter 16 The Civil War Crossword Puzzle2014-07-07T15:47:00+00:00 24 K 
[TXT]Chapter 16 The Civil War Begins Crossword Puzzle2014-07-08T03:20:00+00:00 20 K 
[TXT]Chapter 15 Darwin S Theory Of Evolution Vocabulary Review Crossword Answer Key2014-07-08T14:53:00+00:00 19 K 
[TXT]Chapter 31 Section 1 Quiz Answers Aggression Appeasement And War2014-07-09T02:26:00+00:00 18 K 
[TXT]Chapter 10 The Cold War Heats Up Presidential Recording From Cuban Missile Crisis2014-07-09T13:59:00+00:00 20 K 
[TXT]Chapter 11 Motion Wordwise Complete The Sentences By Using One Of Scrambled Vocabulary Words Below2014-07-10T01:32:00+00:00 25 K 
[TXT]Chapter 16 Evolution Crossword2014-07-10T13:05:00+00:00 22 K 
[TXT]Chapter 11 Section 1 Core Worksheet The Expressed Powers Of Money And Commerce 32014-07-11T00:38:00+00:00 21 K 
[TXT]Chapter 33 Section 2 The Cold War Heats Up2014-07-11T12:11:00+00:00 22 K 
[TXT]Chapter 5 Consumer Awareness Answers2014-07-11T23:44:00+00:00 22 K 
[TXT]Chapter 33 Section 2 Two Superpowers Face Off2014-07-12T11:17:00+00:00 23 K 
[TXT]Chapter 5 Money In Review Short Answer Answers2014-07-12T22:50:00+00:00 17 K 
[TXT]Chapter 14 Section 1 What Are Taxes Answers2014-07-13T10:23:00+00:00 24 K 
[TXT]Chapter 5 Money In Review Dave Ramsey Case Studies Answers2014-07-13T21:56:00+00:00 23 K 
[TXT]Chapter 4 Section 1 Federalism Worksheet Answers2014-07-14T09:29:00+00:00 25 K 
[TXT]Chapter 26 Section 1 Quiz Origins Of The Cold War2014-07-14T21:02:00+00:00 18 K 
[TXT]Chapter 11 Other Expressed Powers2014-07-15T08:35:00+00:00 18 K 
[TXT]Chapter 30 Section 1 The Cold War Unfolds Answers2014-07-15T20:08:00+00:00 18 K 
[TXT]Chapter 14 The Human Genome Pages 341 348 Answers2014-07-16T07:41:00+00:00 17 K 
[TXT]Chapter 12 Test Form 1 Continued Answers2014-07-16T19:14:00+00:00 23 K 
[TXT]Chapter 14 The Human Genome Pages 341 348 Answer Key No Download2014-07-17T06:47:00+00:00 24 K 
[TXT]Chapter 15 Chromosomal Answer Key2014-07-17T18:20:00+00:00 25 K 
[TXT]Chapter 8 Spanish Crossword2014-07-18T05:53:00+00:00 25 K 
[TXT]Chapter 12 Chemistry Matter And Change Answers2014-07-18T17:26:00+00:00 23 K 
[TXT]Chapter 17 Building Vocabulary European Renaissance And Reformation Answers2014-07-19T04:59:00+00:00 18 K 
[TXT]Chapter 25 Social Concerns In The 1980S Answers2014-07-19T16:32:00+00:00 25 K 
[TXT]Chapter 16 1 Genes And Variation Worksheet Answers2014-07-20T04:05:00+00:00 20 K 
[TXT]Chapter 16 Thermal Energy And Heat Math Practice Page 4772014-07-20T15:38:00+00:00 25 K 
[TXT]Chapter 7 Money In Review Worksheet Ansers Dave Ramsey2014-07-21T03:11:00+00:00 22 K 
[TXT]Chapter 30 Section 2 U S Involvement And Escalation2014-07-21T14:44:00+00:00 22 K 
[TXT]Chapter 30 Section 2 U S Involvement And Escalation Answers2014-07-22T02:17:00+00:00 17 K 
[TXT]Chapter 28 Section 1 Kennedy And The Cold War2014-07-22T13:50:00+00:00 21 K 
[TXT]Chapter 16 Evolution Of Populations Wordwise Answers2014-07-23T01:23:00+00:00 25 K 
[TXT]Chapter 28 Section 1 Kennedy And The Cold War Answer Key2014-07-23T12:56:00+00:00 19 K 
[TXT]Chapter 16 1 Evolution Of Populations Answers2014-07-24T00:29:00+00:00 22 K 
[TXT]Chapter 33 Section 2 Communists Take Power In China 128 Unit 8 Answer Key2014-07-24T12:02:00+00:00 20 K 
[TXT]Chapter 13 Protein And Dna Lab Answers2014-07-24T23:35:00+00:00 19 K 
[TXT]Chapter 14 3 Human Molecular Genetics Workbook Answers2014-07-25T11:08:00+00:00 19 K 
[TXT]Chapter 15 Vocabulary Review Crossword Puzzle Answers Biology2014-07-25T22:41:00+00:00 24 K 
[TXT]Chapter 7 Dave Ramsey Short Answer2014-07-26T10:14:00+00:00 25 K 
[TXT]Chapter 27 Section 2 Colonization And Imperialism2014-07-26T21:47:00+00:00 24 K 
[TXT]Chapter 17 The New Frontier And Great Society2014-07-27T09:20:00+00:00 22 K 
[TXT]Chapter 33 Section 1 Reteaching Activity Cold War Answers2014-07-27T20:53:00+00:00 17 K 
[TXT]Chapter 12 Dna And Rna Answer Key2014-07-28T08:26:00+00:00 23 K 
[TXT]Chapter 18 4 Color Answers2014-07-28T19:59:00+00:00 19 K 
[TXT]Chemistry Chapter 12 Solution Manual Stoichiometry2014-07-29T07:32:00+00:00 25 K 
[TXT]Chapter 6 Personal Finance Workbook Answers2014-07-29T19:05:00+00:00 25 K 
[TXT]Chapter 33 Section 1 World History Two Superpower Face Off2014-07-30T06:38:00+00:00 21 K 
[TXT]Chapter 17 Cold War Superpowers Face Off2014-07-30T18:11:00+00:00 18 K 
[TXT]Chapter 17 Section 1 Cold War Superpowers Face Off Worksheet2014-07-31T05:44:00+00:00 17 K 
[TXT]Chapter 12 Inheritance Patterns And Human Genetics Test Answers2014-07-31T17:17:00+00:00 19 K 
[TXT]Chapter 19 Section 2 The Cold War Heats Up2014-08-01T04:50:00+00:00 17 K 
[TXT]Chapter 11 Money In Review Matching2014-08-01T16:23:00+00:00 25 K 
[TXT]Chapter 15 Darwin Theory Of Evolution Vocabulary Review Crossword Puzzle Answer Key2014-08-02T03:56:00+00:00 18 K 
[TXT]Chapter 14 The Human Genome Continued2014-08-02T15:29:00+00:00 23 K 
[TXT]Chapter 14 Human Genome From Gene To Molecule Pages 346 3482014-08-03T03:02:00+00:00 18 K 
[TXT]Chapter 26 Section 1 Reteaching Activity The 1990S And New Millennium Answers2014-08-03T14:35:00+00:00 17 K 
[TXT]Chapter 4 Dangers Of Debt Money In Review2014-08-04T02:08:00+00:00 17 K 
[TXT]Chapter 31 Section 1 Aggression Appeasement And War Answer Key2014-08-04T13:41:00+00:00 18 K 
[TXT]Chapter 12 Stoichiometry Worksheet2014-08-05T01:14:00+00:00 23 K 
[TXT]Chapter Four Student Activity Sheet The Debt Snowball2014-08-05T12:47:00+00:00 23 K 
[TXT]Chapter 6 Student Activity Sheet Avoiding Online Fraud Answers Research2014-08-06T00:20:00+00:00 19 K 
[TXT]Chapter 26 Section 1 Origins Of The Cold War Worksheet Answers2014-08-06T11:53:00+00:00 19 K 
[TXT]Chapter 12 Dna And Rna Answer Key Vocabulary Review2014-08-06T23:26:00+00:00 22 K 
[TXT]Chapter 7 Review Foundations In Personal Finance2014-08-07T10:59:00+00:00 22 K 
[TXT]Chapter 16 Evolution Of Populations Wordwise2014-08-07T22:32:00+00:00 24 K 
[TXT]Chapter 21 Section 2 Quiz The Triumphs Of A Crusade Answers2014-08-08T10:05:00+00:00 25 K 
[TXT]Chapter 8 Section Quiz Holt Geometry2014-08-08T21:38:00+00:00 24 K 
[TXT]Chapter 33 Section 5 The Cold War Thaws Reteaching Activity2014-08-09T09:11:00+00:00 18 K 
[TXT]Chapter 33 Section 5 The Cold War Thaws Reteaching Activity Answers2014-08-09T20:44:00+00:00 24 K 
[TXT]Chapter 17 Cold War Thaws Homework Work Sheet2014-08-10T08:17:00+00:00 23 K 
[TXT]Chapter 12 Extra Practice Geometry2014-08-10T19:50:00+00:00 25 K 
[TXT]Chapter 33 Cold War Page 9922014-08-11T07:23:00+00:00 20 K 
[TXT]Chapter 17 The Cold War Begins2014-08-11T18:56:00+00:00 23 K 
[TXT]Chapter 17 Section 3 The Cold War Begins2014-08-12T06:29:00+00:00 23 K 
[TXT]Credit Bureaus And Collection Practices Chapter 6 Dave Ramsey Packet Answer Key2014-08-12T18:02:00+00:00 23 K 
[TXT]Chapter 19 Postwar America Answers2014-08-13T05:35:00+00:00 23 K 
[TXT]Chapter 33 The Conservative Tide Crossword Puzzle Answers2014-08-13T17:08:00+00:00 22 K 
[TXT]Chapter 18 Cold War Conflicts Answer Key Test2014-08-14T04:41:00+00:00 18 K 
[TXT]Chapter 25 Foreign Policy After The Cold War History Answers Mcdougal Littell2014-08-14T16:14:00+00:00 24 K 
[TXT]Chapter 11 3 Geometry2014-08-15T03:47:00+00:00 22 K 
[TXT]Chapter 11 Section 1 The Scope Of Congressional Powers Answers2014-08-15T15:20:00+00:00 21 K 
[TXT]Chapter 11 Section 3 Quiz Other Expressed Powers2014-08-16T02:53:00+00:00 24 K 
[TXT]Chapter 4 Student Activity Sheet Making The Minimum Answers Com2014-08-16T14:26:00+00:00 22 K 
[TXT]Chapter 17 Communists Take Power In China Answers2014-08-17T01:59:00+00:00 23 K 
[TXT]Chapter 15 Darwin 39 S Theory Of Evolution Section Review 12014-08-17T13:32:00+00:00 22 K 
[TXT]Chapter 26 An Age Of Democracy And Progress Crossword2014-08-18T01:05:00+00:00 24 K 
[TXT]Chapter 33 Section 4 The Cold War Divides World Worksheet Answers2014-08-18T12:38:00+00:00 24 K 
[TXT]Chapter 8 Test B Personal Finance2014-08-19T00:11:00+00:00 22 K 
[TXT]Chapter 4 Dave Ramsey2014-08-19T11:44:00+00:00 25 K 
[TXT]Chapter 7 Student Activity Sheet Budget Answers2014-08-19T23:17:00+00:00 22 K 
[TXT]Chapter 37 The Eisenhower Era Packet Answers2014-08-20T10:50:00+00:00 20 K 
[TXT]Chapter 9 Dave Ramsey Answers2014-08-20T22:23:00+00:00 19 K 
[TXT]Chapter 18 Section 4 Two Nations Live On The Edge Key2014-08-21T09:56:00+00:00 24 K 
[TXT]Chapter 11 Money In Review Worksheet2014-08-21T21:29:00+00:00 25 K 
[TXT]Chapter 12 1 Stoichiometry Answer Key Pearson Workbook2014-08-22T09:02:00+00:00 24 K 
[TXT]Core Worksheet Chapter 11 Section 32014-08-22T20:35:00+00:00 23 K 
[TXT]Chapter 7 Money In Review Matching Answer Key2014-08-23T08:08:00+00:00 25 K 
[TXT]Chapter 33 Section 1 Reteaching Activity Cold War Superpowers Face Off2014-08-23T19:41:00+00:00 23 K 
[TXT]Chapter 30 Section 1 The Western Democracies Answers2014-08-24T07:14:00+00:00 24 K 
[TXT]Chapter 14 3 Human Molecular Genetics Pages 355 360 Answer Key2014-08-24T18:47:00+00:00 23 K 
[TXT]Chapter 6 Dave Ramsey Test2014-08-25T06:20:00+00:00 21 K 
[TXT]Chapter 4 Test A Dave Ramsey2014-08-25T17:53:00+00:00 24 K 
[TXT]Chapter 34 Section 2 The New Global Economy Answers2014-08-26T05:26:00+00:00 18 K 
[TXT]Chapter 34 Section 4 The Changing Face Of America2014-08-26T16:59:00+00:00 19 K 
[TXT]Chapter 34 Section 3 Technology And Modern Life2014-08-27T04:32:00+00:00 21 K 
[TXT]Chapter 17 Postwar Confidence And Anxiety Crossword2014-08-27T16:05:00+00:00 24 K 
[TXT]Chapter 18 The Cold War At Home Workbook Answers2014-08-28T03:38:00+00:00 25 K 
[TXT]Chapter 4 Personal Finance Debt Snowball2014-08-28T15:11:00+00:00 18 K 
[TXT]Chapter 12 Stoichiometry Answer2014-08-29T02:44:00+00:00 17 K 
[TXT]Chapter 21 Section Quiz The Triumphs Of A Crusade Answers2014-08-29T14:17:00+00:00 23 K 
[TXT]Chapter 22 Section 1 Quiz Moving Toward Conflict Answers2014-08-30T01:50:00+00:00 24 K 
[TXT]Chapter 6 Medieval Europe Crossword Puzzle Answers The Early Middle Ages2014-08-30T13:23:00+00:00 22 K 
[TXT]Chapter 3 The Biosphere Wordwise2014-08-31T00:56:00+00:00 22 K 
[TXT]Chapter 12 1 Stoichiometry Worksheet Answers2014-08-31T12:29:00+00:00 21 K 
[TXT]Chapter 11 Glencoe Geometry Common Core Test2014-09-01T00:02:00+00:00 19 K 
[TXT]Chapter 11 Money In Review Dave Ramsey2014-09-01T11:35:00+00:00 18 K 
[TXT]Chapter 27 Section 5 Imperialism In Southeast Asia2014-09-01T23:08:00+00:00 19 K 
[TXT]Chapter 12 Workbook Answers Chemistry2014-09-02T10:41:00+00:00 17 K 
[TXT]Chapter 14 Section 1 Human Heredity Answers2014-09-02T22:14:00+00:00 24 K 
[TXT]Chapter 14 1 Pages 344 3462014-09-03T09:47:00+00:00 19 K 
[TXT]Chapter 22 Section 3 A Nation Divided Answers2014-09-03T21:20:00+00:00 22 K 
[TXT]Chapter 9 Skills Practice Answers Extra2014-09-04T08:53:00+00:00 18 K 
[TXT]Chapter 15 Darwin S Theory Of Evolution Crossword Answer Key2014-09-04T20:26:00+00:00 22 K 
[TXT]Chapter 18 19 20 Ap Environmental Test2014-09-05T07:59:00+00:00 21 K 
[TXT]Chapters Of Sslc 2014 152014-09-05T19:32:00+00:00 18 K 
[TXT]Chapter 5 Dave Ramsey Packet2014-09-06T07:05:00+00:00 20 K 
[TXT]Chapter 24 Divided World2014-09-06T18:38:00+00:00 18 K 
[TXT]Chapter 14 The Human Genome Section 1 Heredity Answers2014-09-07T06:11:00+00:00 18 K 
[TXT]Chapter 27 Section 2 The Guns Of August Key2014-09-07T17:44:00+00:00 17 K 
[TXT]Cause And Effect Chapter 24 British Imperialism In India2014-09-08T05:17:00+00:00 25 K 
[TXT]Chapter 26 Section 4 Reteaching Activity Two Nations Living On The Edge2014-09-08T16:50:00+00:00 24 K 
[TXT]Chapter 4 Money In Review Answers Case Studies2014-09-09T04:23:00+00:00 22 K 
[TXT]Chapter 5 Darwin S Theory Of Evolution Crossword Puzzle Answer Key2014-09-09T15:56:00+00:00 24 K 
[TXT]Chapter 21 Section 2 Reteaching Activity Triumph Of A Crusade Answers2014-09-10T03:29:00+00:00 17 K 
[TXT]Chapter 23 The New Frontier And Great Society Section 1 Answers2014-09-10T15:02:00+00:00 24 K 
[TXT]Chapter 27 Section 2 The Guns Of August2014-09-11T02:35:00+00:00 19 K 
[TXT]Chapter 26 Section Quiz 12014-09-11T14:08:00+00:00 24 K 
[TXT]Chapter 33 Section 1 Reteaching2014-09-12T01:41:00+00:00 23 K 
[TXT]Chapter 26 Section 3 Reteaching Activity The Cold War At Home2014-09-12T13:14:00+00:00 21 K 
[TXT]Chapter 18 Section 2 The Cold War Heats Up Answer Key For Worksheet2014-09-13T00:47:00+00:00 25 K 
[TXT]Chapter 26 3 Daily Quiz Cold War Key2014-09-13T12:20:00+00:00 21 K 
[TXT]Chapter 7 Student Activity Worksheet Consumer Equity2014-09-13T23:53:00+00:00 19 K 
[TXT]Chapter 15 Energy Wordwise Answers Sheet2014-09-14T11:26:00+00:00 21 K 
[TXT]Chapter 14 Human Genome Biology Lab Answer Key2014-09-14T22:59:00+00:00 17 K 
[TXT]Chapter 27 Section 1 Postwar America Worksheet With Answers2014-09-15T10:32:00+00:00 24 K 
[TXT]Case Studies Chapter 2 Money In Review Answers2014-09-15T22:05:00+00:00 23 K 
[TXT]Chapter 25 Section Quiz Social Concerns In The 1980S2014-09-16T09:38:00+00:00 19 K 
[TXT]Chapter 13 Lesson 1 The Origins Of Cold War2014-09-16T21:11:00+00:00 17 K 
[TXT]Chapter 13 Section 2 Notetaking The Western Democrates Stumble2014-09-17T08:44:00+00:00 24 K 
[TXT]Chapter 11 Section Quiz Lesson 1 Through 3 Answers2014-09-17T20:17:00+00:00 18 K 
[TXT]Chapter 17 Section 1 The Cold War Begins Answers2014-09-18T07:50:00+00:00 20 K 
[TXT]Chapter 33 Guiding Reading Two Superpowers Face Off World History Answers2014-09-18T19:23:00+00:00 20 K 
[TXT]Chapter 14 Section 1 The Properties Of Gases Answers2014-09-19T06:56:00+00:00 20 K 
[TXT]Chapter 15 Darwin S Theory Of Evolution Vocabulary Review Crossword Answer2014-09-19T18:29:00+00:00 25 K 
[TXT]Chapter 12 Molecular Genetics Section 3 Worksheet2014-09-20T06:02:00+00:00 24 K 
[TXT]Chapter 26 Section 4 Quiz Two Nations Live On The Edge Answers2014-09-20T17:35:00+00:00 21 K 
[TXT]Chapter 26 Section 4 Quiz Two Nations Live On The Edge Answears2014-09-21T05:08:00+00:00 20 K 
[TXT]Chapter 38 2 The Process Of Digestion Key2014-09-21T16:41:00+00:00 17 K 
[TXT]Chapter 8 Spanish Crossword Puzzle2014-09-22T04:14:00+00:00 22 K 
[TXT]Chapter 11 Section Quiz Lesson 1 Through 32014-09-22T15:47:00+00:00 21 K 
[TXT]Chapters Of Atomic Physics 2Nd Puc2014-09-23T03:20:00+00:00 17 K 
[TXT]Chapter 4 Dangers Of Debt Answer Key2014-09-23T14:53:00+00:00 21 K 
[TXT]Chapter 36 The Cold War Begins 1945 1952 Answers2014-09-24T02:26:00+00:00 17 K 
[TXT]Chapter 36 The Cold War Begins Answer Key2014-09-24T13:59:00+00:00 24 K 
[TXT]Chapter 12 Molecular Genetics Worksheet Answers2014-09-25T01:32:00+00:00 21 K 
[TXT]Chapter 34 3 The Reproductive System Answer Key2014-09-25T13:05:00+00:00 24 K 
[TXT]Chapter 26 Cold War Conflicts Test2014-09-26T00:38:00+00:00 17 K 
[TXT]Chemistry Matter And Change Chapter 15 Crossword2014-09-26T12:11:00+00:00 20 K 
[TXT]Chapter 9 Section 1 Radioactivity Worksheet Answers2014-09-26T23:44:00+00:00 21 K 
[TXT]Chapter 33 Section 2 Communists Triumph In China2014-09-27T11:17:00+00:00 22 K 
[TXT]Chapter 12 Word Wise2014-09-27T22:50:00+00:00 19 K 
[TXT]Chapter 11 Powers Of Congress Teacherweb2014-09-28T10:23:00+00:00 17 K 
[TXT]Chapter 15 Darwin S Theory Of Evolution Worksheet Answer Key2014-09-28T21:56:00+00:00 25 K 
[TXT]Chapter 4 Money In Review Test Dave Ramsey Answers2014-09-29T09:29:00+00:00 24 K 
[TXT]Chapter 16 Evolution Of Populations Section Review 1 Answer2014-09-29T21:02:00+00:00 18 K 
[TXT]Chapter 14 The Human Genome 3422014-09-30T08:35:00+00:00 23 K 
[TXT]Chapter 19 Section 2 The American Dream In Fifties2014-09-30T20:08:00+00:00 21 K 
[TXT]Chapter 33 Section 2 The Western European Democracies2014-10-01T07:41:00+00:00 20 K 
[TXT]Chapter 11 Student Activity Sheet2014-10-01T19:14:00+00:00 24 K 
[TXT]Chapter 27 Section 2 The Guns Of August Answer Key2014-10-02T06:47:00+00:00 19 K 
[TXT]Chapter 15 Section 2 Energy Conversion And Conservation2014-10-02T18:20:00+00:00 22 K 
[TXT]Chapter 6 Money In Review Answers Foundations Personal Finance2014-10-03T05:53:00+00:00 19 K 
[TXT]Chapter 26 Section 3 Quiz Technology And Modern Life2014-10-03T17:26:00+00:00 23 K 
[TXT]Chapter 13 A Global Conflict Answers2014-10-04T04:59:00+00:00 25 K 
[TXT]Chapter 21 Section 2 The Triumphs Of A Crusade2014-10-04T16:32:00+00:00 18 K 
[TXT]Chapter 16 1 Evolution Of Population2014-10-05T04:05:00+00:00 22 K 
[TXT]Chapter 13 Money And The Banking System Reteaching Activity2014-10-05T15:38:00+00:00 20 K 
[TXT]Chapter 26 American History Section 3 Page 8762014-10-06T03:11:00+00:00 22 K 
[TXT]Chapter 6 Dave Ramsey Packet2014-10-06T14:44:00+00:00 23 K 
[TXT]Chapter 12 Stoichiometry Answers2014-10-07T02:17:00+00:00 17 K 
[TXT]Chapter 18 Quiz The Cold War Answer Key2014-10-07T13:50:00+00:00 17 K 
[TXT]Chapter 16 1 Genes And Variation Answer Pages 3932014-10-08T01:23:00+00:00 23 K 
[TXT]Chapter 21 Section 2 Quiz The Triumphs Of A Crusade2014-10-08T12:56:00+00:00 22 K 
[TXT]Chapter 15 Darwin S Theory Of Evolution Vocabulary Review Crossword Answers2014-10-09T00:29:00+00:00 17 K 
[TXT]Chapter 14 3 Human Genome Section Review2014-10-09T12:02:00+00:00 21 K 
[TXT]Chapter 3 Rocks And Their Origins Answers2014-10-09T23:35:00+00:00 17 K 
[TXT]Chapter 16 Thermal Energy And Heat Key2014-10-10T11:08:00+00:00 24 K 
[TXT]Chapter 7 13 Answer Key Money And You Mathematics Finance2014-10-10T22:41:00+00:00 22 K 
[TXT]Chapter 7 Money And You Mathematics Finance2014-10-11T10:14:00+00:00 21 K 
[TXT]Chapter 26 Section 3 The Cold War At Home Answers2014-10-11T21:47:00+00:00 20 K 
[TXT]Chapter 14 The Human Genome Lab Answer Key2014-10-12T09:20:00+00:00 18 K 
[TXT]Chapter 27 4 Reading Answers2014-10-12T20:53:00+00:00 24 K 
[TXT]Chapter 16 Evolution Of Populations Answers2014-10-13T08:26:00+00:00 20 K 
[TXT]Chapter 27 4 Biology Reading Answers2014-10-13T19:59:00+00:00 17 K 
[TXT]Chapter 13 North And South Pdd2014-10-14T07:32:00+00:00 22 K 
[TXT]Chapter 14 Rasising Equity And Debt Globally Solution2014-10-14T19:05:00+00:00 22 K 
[TXT]Cengage Test Chapter 132014-10-15T06:38:00+00:00 24 K 
[TXT]Chapter 15 To Energy Conversion And Concert2014-10-15T18:11:00+00:00 17 K 
[TXT]Chapter 17 Section 2 Communists Take Power In China Workbook Answers2014-10-16T05:44:00+00:00 17 K 
[TXT]Chapter 25 The Conservative Tide Answers2014-10-16T17:17:00+00:00 22 K 
[TXT]Chemistry Chapter 12 Review Liquids And Solids Answers2014-10-17T04:50:00+00:00 20 K 
[TXT]Chapter 9 Section Quiz Lesson 4 Through 62014-10-17T16:23:00+00:00 22 K 
[TXT]Chapter 18 Test Version 1 Cold War2014-10-18T03:56:00+00:00 24 K 
[TXT]Chapter 1 2 Money In Review Answers2014-10-18T15:29:00+00:00 18 K 
[TXT]Chapter 8 Amswers Prentice Hall Algebra 2 Catawba2014-10-19T03:02:00+00:00 21 K 
[TXT]Chapter 14 The Great Depression Begins Crossword Answer2014-10-19T14:35:00+00:00 17 K 
[TXT]Chapter 18 Section 1 Geography Application The Marshall Plan Answers2014-10-20T02:08:00+00:00 24 K 
[TXT]Chapter 10 Europe In The Middle Ages 1000 15002014-10-20T13:41:00+00:00 25 K 
[TXT]Chapter 3 Student Activity Sheet Dave Ramsey2014-10-21T01:14:00+00:00 22 K 
[TXT]Chapter 24 Physiology Of The Respiratory System Answer Key2014-10-21T12:47:00+00:00 21 K 
[TXT]Chapter 14 Lesson 5World War Ii And Its Aftermath2014-10-22T00:20:00+00:00 17 K 
[TXT]Chapter 14 Section 4 State And Local Taxes Spending Answers2014-10-22T11:53:00+00:00 22 K 
[TXT]Chapter 6 Money And Review2014-10-22T23:26:00+00:00 18 K 
[TXT]Chapter 25 The Conservative Tide Crossword2014-10-23T10:59:00+00:00 22 K 
[TXT]Chapter 25 Section 1 A Conservative Movement Emerges Answer Key2014-10-23T22:32:00+00:00 23 K 
[TXT]Chapter 27 Section 1 Reteaching Activity Postwar America Answers2014-10-24T10:05:00+00:00 23 K 
[TXT]Chapter 28 Section 3 The Great Society Answers2014-10-24T21:38:00+00:00 23 K 
[TXT]Chapter 27 Section 1 The Scramble For Africa Answers2014-10-25T09:11:00+00:00 21 K 
[TXT]Chapter 14 Human Heredity Workbook Answers2014-10-25T20:44:00+00:00 19 K 
[TXT]Chapter 26 The 1990S And New Millennium2014-10-26T08:17:00+00:00 18 K 
[TXT]Chapter 27 Section 2 American Dream Fifties2014-10-26T19:50:00+00:00 25 K 
[TXT]Chapter 8 Test Money In Review2014-10-27T07:23:00+00:00 21 K 
[TXT]Chapter 10 Test Answers Dave Ramsey2014-10-27T18:56:00+00:00 25 K 
[TXT]Chapter 16 Section 1 Genes And Variation Answer Key2014-10-28T06:29:00+00:00 20 K 
[TXT]Chapter 16 Evolution Of Populations Answer2014-10-28T18:02:00+00:00 22 K 
[TXT]Chapter 29 Section 3 Reteaching Activity A Global Conflict Answers2014-10-29T05:35:00+00:00 21 K 
[TXT]Chapter 17 Section 1 Two Superpowers Face Off Answers2014-10-29T17:08:00+00:00 25 K 
[TXT]Chapter 2 Money And Review Answers Yves Ramsey2014-10-30T04:41:00+00:00 21 K 
[TXT]Chapter 15 Acids And Bases Crossword Puzzle2014-10-30T16:14:00+00:00 22 K 
[TXT]Chapter 34 Section 3 Technology And Modern Life Answers2014-10-31T03:47:00+00:00 25 K 
[TXT]Chapter 33 Sec 1 Cold War Superpowers Face Off Answer2014-10-31T15:20:00+00:00 17 K 
[TXT]Chapter 26 Section 1 Reteaching Activity The 1990S And New Millennium2014-11-01T02:53:00+00:00 25 K 
[TXT]Chapter 26 The Cold War At Home Answers2014-11-01T14:26:00+00:00 22 K 
[TXT]Chapter 18 Section 1 Origins Of The Cold War Worksheet Answer Key2014-11-02T01:59:00+00:00 25 K 
[TXT]Chapter 7 Dave Ramsey Book Answers2014-11-02T13:32:00+00:00 18 K 
[TXT]Chapter 26 4 Powerpoint Us History2014-11-03T01:05:00+00:00 17 K 
[TXT]Chapter 18 Section 4 Two Nations Live On The Edge Test2014-11-03T12:38:00+00:00 17 K 
[TXT]Chapter 26 Section 1 The 1990S And New Millennium2014-11-04T00:11:00+00:00 25 K 
[TXT]Chapter 11 Student Activity Sheet Conparing Rates2014-11-04T11:44:00+00:00 17 K 
[TXT]Chapter 14 The Properties Of Gases Answers2014-11-04T23:17:00+00:00 22 K 
[TXT]Chapter 20 Section 1 Reteaching Activity Kennedy And The Cold War Answers2014-11-05T10:50:00+00:00 20 K 
[TXT]Chapter 6 Dave Ramsey Test Answers Credit And Bureaus Collections2014-11-05T22:23:00+00:00 17 K 
[TXT]Chapter 11 1945 1960 Test Answers2014-11-06T09:56:00+00:00 19 K 
[TXT]Chapter 16 Evolution Of Populations Vocabulary Review Answers2014-11-06T21:29:00+00:00 22 K 
[TXT]Chapter 15 Digestive System Crossword2014-11-07T09:02:00+00:00 22 K 
[TXT]Chapter 6 Ramsey Packet Answers2014-11-07T20:35:00+00:00 25 K 
[TXT]Chapter 7 Budgeting 101 Short Answer Key2014-11-08T08:08:00+00:00 19 K 
[TXT]Chapter 20 Magruders Civil Liberties Protecting Individual Rights2014-11-08T19:41:00+00:00 19 K 
[TXT]Chapter 4 Student Activity Sheet2014-11-09T07:14:00+00:00 21 K 
[TXT]Chapter 9 Section 1 Radioactivity Worksheet2014-11-09T18:47:00+00:00 22 K 
[TXT]Chapter 13 Section 3 Reteaching Activity A Global Conflict Answers2014-11-10T06:20:00+00:00 20 K 
[TXT]Chapter 13 Section 3 Reteaching Activity A Global Conflict2014-11-10T17:53:00+00:00 21 K 
[TXT]Chapter 14 1 The Properties Of Gases Answers2014-11-11T05:26:00+00:00 18 K 
[TXT]Chapter 21 Section 2 The Triumphs Of A Crusade Answers2014-11-11T16:59:00+00:00 20 K 
[TXT]Chapter 16 Evolution Of Populations Crossword Puzzle2014-11-12T04:32:00+00:00 24 K 
[TXT]Chapter 21 Section 2 Quiz The Triumphs Of A Crusade Quizlet2014-11-12T16:05:00+00:00 23 K 
[TXT]Chapter 13 Lab From Dna To Protein Synthesis2014-11-13T03:38:00+00:00 24 K 
[TXT]Chapter 11 Section 1 The Age Of Imperialism Answers2014-11-13T15:11:00+00:00 23 K 
[TXT]Chapter 17 Section 5 The Cold War2014-11-14T02:44:00+00:00 18 K 
[TXT]Chapter 11 Section 5 Imperialism In Southeast Asia Worksheet Answers2014-11-14T14:17:00+00:00 20 K 
[TXT]Chapter 17 Evolution Of Populations Test Answer Key2014-11-15T01:50:00+00:00 23 K 
[TXT]Chapter 22 Section 2 Us Involvement And Escalation Answer Key2014-11-15T13:23:00+00:00 19 K 
[TXT]Chapter 16 Civil War Begins Question And Answer2014-11-16T00:56:00+00:00 20 K 
[TXT]Chapter 14 Section 1 Human Heredity2014-11-16T12:29:00+00:00 19 K 
[TXT]Chapter 1 Quiz Form G Algebra 22014-11-17T00:02:00+00:00 19 K 
[TXT]Chapter 11 Complex Inheritance And Human Heredity Workbook2014-11-17T11:35:00+00:00 21 K 
[TXT]Chapter 29 Section 1 Summary From Appeasement To War Answers2014-11-17T23:08:00+00:00 20 K 
[TXT]Chapter 19 The Postwar Boom After You Read Work Sheet2014-11-18T10:41:00+00:00 19 K 
[TXT]Chapter 22 3 A Nation Divided Answers2014-11-18T22:14:00+00:00 20 K 
[TXT]Chapter 28 Cold War Test Answers2014-11-19T09:47:00+00:00 20 K 
[TXT]Chapter 6 Teacherweb Accounting For Merchandising Businesses2014-11-19T21:20:00+00:00 24 K 
[TXT]Crossword Puzzles For Spanish 2 Chapter 82014-11-20T08:53:00+00:00 24 K 
[TXT]Chapter 14 Wordwise2014-11-20T20:26:00+00:00 20 K 
[TXT]Chapter 33 Section 3 Wars In Korea And Vietnam Answer Key2014-11-21T07:59:00+00:00 18 K 
[TXT]Chapter 17 Sec 1 Cold War Superpowers Face Off Quizlet2014-11-21T19:32:00+00:00 20 K 
[TXT]Chapter11 Section Quiz 11 1 32014-11-22T07:05:00+00:00 17 K 
[TXT]Chapter 33 Section 2 Communists Take Power In China Questions 1 92014-11-22T18:38:00+00:00 18 K 
[TXT]Chapter 17 Section 1 Cold War Superpowers Face Off Answer Key2014-11-23T06:11:00+00:00 23 K 
[TXT]Chemistry Chapter 11 Study Gud Stoichiometry2014-11-23T17:44:00+00:00 20 K 
[TXT]Chapter 22 Section 1 Reteaching Activity Moving Toward Conflict Answers2014-11-24T05:17:00+00:00 22 K 
[TXT]Chapter 14 Human Heredity Pages 342 3432014-11-24T16:50:00+00:00 19 K 
[TXT]Chapter 15 Darwin S Theory Of Evolution Vocabulary Review2014-11-25T04:23:00+00:00 23 K 
[TXT]Chapter 9 Relating With Money The Flow Of In A Family Represents2014-11-25T15:56:00+00:00 17 K 
[TXT]Chapter 16 Genes And Variation Answer Key2014-11-26T03:29:00+00:00 20 K 
[TXT]Chapter 26 The United States In Today S World Answers2014-11-26T15:02:00+00:00 18 K 
[TXT]Cells And Heredity Chapter 1 Test2014-11-27T02:35:00+00:00 25 K 
[TXT]Chapter 25 Nutrition Metabolism And Temperature Answers2014-11-27T14:08:00+00:00 18 K 
[TXT]Chapter 7 Budgeting 1012014-11-28T01:41:00+00:00 25 K 
[TXT]Chapter 16 Thermal Energy And Heat Word Wise2014-11-28T13:14:00+00:00 23 K 
[TXT]Chapter 10 Genes And Chromosomes Karyotypes Lab Answers2014-11-29T00:47:00+00:00 20 K 
[TXT]Chapter 23 New Deal Crossword Puzzle Answer2014-11-29T12:20:00+00:00 20 K 
[TXT]Chapter 13 Lab From Dna To Protein Synthesis Answer2014-11-29T23:53:00+00:00 21 K 
[TXT]Chapter 18 Section 3 Communism Spreads In East Asia2014-11-30T11:26:00+00:00 23 K 
[TXT]Chapter 25 The Conservative Tide Crossword Puzzle Answers2014-11-30T22:59:00+00:00 24 K 
[TXT]Chapter 11 The Expressed Powers Of Commerce Answers2014-12-01T10:32:00+00:00 23 K 
[TXT]Chapter 17 Section 1 Two Superpowers Face Off Meeting At Potsdam2014-12-01T22:05:00+00:00 25 K 
[TXT]Chapter 14 The Human Genome Continued Answer2014-12-02T09:38:00+00:00 19 K 
[TXT]Chapter 4 Money In Review2014-12-02T21:11:00+00:00 18 K 
[TXT]Chapter 14 Human Genome Pages 341 Through 360 Answer Key2014-12-03T08:44:00+00:00 18 K 
[TXT]Chapter 11 Section 3 War At Home Answers2014-12-03T20:17:00+00:00 23 K 
[TXT]Chapter 34 Section 4 The Changing Face Of America Answers2014-12-04T07:50:00+00:00 21 K 
[TXT]Chapter 26 Section 3 The Cold War At Home Gr2014-12-04T19:23:00+00:00 17 K 
[TXT]Chapter 17 The Cold War Review Answer Key2014-12-05T06:56:00+00:00 21 K 
[TXT]Chapter 14 1 Human Heredity2014-12-05T18:29:00+00:00 25 K 
[TXT]Chapter 16 Civil War Begins Crossword Puzzle2014-12-06T06:02:00+00:00 19 K 
[TXT]Chapter 6 Personal Finance Test2014-12-06T17:35:00+00:00 25 K 
[TXT]Cch Federal Taxation Comprehensive Problem Chapter 14 Solutions2014-12-07T05:08:00+00:00 17 K 
[TXT]Chemistry Chapter 12 Review2014-12-07T16:41:00+00:00 20 K 
[TXT]Chapter 8 Money In Review2014-12-08T04:14:00+00:00 22 K 
[TXT]Chapter 12 Reviewing Key Concepts2014-12-08T15:47:00+00:00 20 K 
[TXT]Chapter 16 2 Evolution As Genetic Change Answer Key2014-12-09T03:20:00+00:00 17 K 
[TXT]Chapter 20 Sec 2 The New Frontier2014-12-09T14:53:00+00:00 24 K 
[TXT]Chapter 7 Activity Dave Ramsey2014-12-10T02:26:00+00:00 18 K 
[TXT]Chapter 31 Section 2 A Worldwide Depression Reteaching Activity Key2014-12-10T13:59:00+00:00 17 K 
[TXT]Chapter 7 Test Key Dave Ramsay2014-12-11T01:32:00+00:00 19 K 
[TXT]Chapter 2 Investment Scavenger Hunt Student Activity Sheet2014-12-11T13:05:00+00:00 19 K 
[TXT]Chapter 25 Section 4 Foreign Policy After The Cold War Answers2014-12-12T00:38:00+00:00 17 K 
[TXT]Chapter 7 Foundations In Personal Finance Money Review Answers2014-12-12T12:11:00+00:00 20 K 
[TXT]Chapter 5 Money In Review Dave Ramsey2014-12-12T23:44:00+00:00 19 K 
[TXT]Chapter 27 Section 2 The Guns Ofaugust2014-12-13T11:17:00+00:00 23 K 
[TXT]Chapter 17 Section 2 Communists Take Power In China Notes2014-12-13T22:50:00+00:00 24 K 
[TXT]Chapter 30 Section 2 Reteaching Activity U S Involvement And Escalation2014-12-14T10:23:00+00:00 23 K 
[TXT]Chapter 11 Section 1 The Expressed Powers Of Money And Commerce 3 Worksheet Answers2014-12-14T21:56:00+00:00 18 K 
[TXT]Chapter 5 Money And Review2014-12-15T09:29:00+00:00 21 K 
[TXT]Chapter 25 Section 2 Conservative Policies Under Reagan And Bush2014-12-15T21:02:00+00:00 21 K 
[TXT]Chapter 33 Section 2 World History Communists Triumph In China2014-12-16T08:35:00+00:00 25 K 
[TXT]Circuits And Circuit Elements Chapter 182014-12-16T20:08:00+00:00 20 K 
[TXT]Chapter 16 Section 1 Genes And Variation Page 3932014-12-17T07:41:00+00:00 24 K 
[TXT]Chapter 16 Section 1 Taxes Answer Key2014-12-17T19:14:00+00:00 17 K 
[TXT]Chapter 19 Section The American Dream In Fifties Answer2014-12-18T06:47:00+00:00 22 K 
[TXT]Chapter 16 Section 2 Evolution As Genetic Change2014-12-18T18:20:00+00:00 21 K 
[TXT]Chapter 3 Review Questions Penndot Driver And Vehicle Services2014-12-19T05:53:00+00:00 22 K 
[TXT]Chapter 4 Dave Ramsey Test2014-12-19T17:26:00+00:00 22 K 
[TXT]Chapter 11 Section 1 The Scope Of Congressional Powers2014-12-20T04:59:00+00:00 17 K 
[TXT]Chapter 19 Section 3 The War At Home2014-12-20T16:32:00+00:00 22 K 
[TXT]Chapter 30 Section 3 A Nation Divided Answers2014-12-21T04:05:00+00:00 24 K 
[TXT]Chapter 30 Section 3 A Nation Divided Answer Key2014-12-21T15:38:00+00:00 25 K 
[TXT]Chapter 16 Evolution Of Populations 1 Genes And Variation2014-12-22T03:11:00+00:00 22 K 
[TXT]Chapter 22 Section 3 A Nation Divided Answer Key2014-12-22T14:44:00+00:00 19 K 
[TXT]Chapter 25 Section 4 Guieded Reading Forgien Policy After The Cold War2014-12-23T02:17:00+00:00 22 K 
[TXT]Chapter Outline Summary For Each Of The Mcconnell And Brue Economics2014-12-23T13:50:00+00:00 17 K 
[TXT]Chapter 25 Section 1 A Conservative Movement Emerges2014-12-24T01:23:00+00:00 19 K 
[TXT]Chapter 13 Lab From Dna To Protein Synthesis Answers2014-12-24T12:56:00+00:00 21 K 
[TXT]Chapter 26 Section 2 Us History Answer2014-12-25T00:29:00+00:00 18 K 
[TXT]Chapter 17 Section 5 Reteaching Activity The Cold War Thaws Flash Cards Answers2014-12-25T12:02:00+00:00 20 K 
[TXT]Chapter 33 Into The 21St Century American History2014-12-25T23:35:00+00:00 23 K 
[TXT]Chapter 32 Section 3 The Holocaust Answer Key2014-12-26T11:08:00+00:00 20 K 
[TXT]Chapter 22 The Vietnam War Years Crossword Puzzle Answers2014-12-26T22:41:00+00:00 20 K 
[TXT]Creating America Chapter 16 Vocabulary2014-12-27T10:14:00+00:00 18 K 
[TXT]Chapter 12 Lab Molecular Models2014-12-27T21:47:00+00:00 23 K 
[TXT]Chapter 25 Industrial Revolution Essay2014-12-28T09:20:00+00:00 18 K 
[TXT]Chapter 19 Section 5 China Reform And Reaction2014-12-28T20:53:00+00:00 25 K 
[TXT]Chapter 8 Money Dave Ramsey2014-12-29T08:26:00+00:00 20 K 
[TXT]Cold War Superpowers Face Off Chapter 33 Section 1 Work Sheet Answers2014-12-29T19:59:00+00:00 19 K 
[TXT]Chapter 11 Section 1 The Expressed Powers Of Money And Commerce 3 Answers2014-12-30T07:32:00+00:00 21 K 
[TXT]Chapter 18 Section 4 Reteaching Activity Conflicts In The Middle East Answer Key2014-12-30T19:05:00+00:00 24 K 
[TXT]Chapter 16 Evolution Of Populations Genes And Variation2014-12-31T06:38:00+00:00 19 K 
[TXT]Chapter 12 Wordwise Forces And Motion2014-12-31T18:11:00+00:00 24 K 
[TXT]Chapter 20 Section 2 Reteaching Activity The New Frontier Answers2015-01-01T05:44:00+00:00 22 K 
[TXT]Chapter 22 Review Nuclear Chemistry Section 2 Answers Modern2015-01-01T17:17:00+00:00 19 K 
[TXT]Chapter 33 Two Superpowers Face Off2015-01-02T04:50:00+00:00 20 K 
[TXT]Chapter 7 Acids Bases And Solutions Crossword Answers2015-01-02T16:23:00+00:00 18 K 
[TXT]Chapter 32 World War 2 Crossword Puzzle Answers2015-01-03T03:56:00+00:00 25 K 
[TXT]Chapter 26 Section 3 The Cold War At Home2015-01-03T15:29:00+00:00 17 K 
[TXT]Chapter 16 Evolution Of Populations Test B Answers2015-01-04T03:02:00+00:00 19 K 
[TXT]Chapter 30Section3 Communism Spreads In East Asia2015-01-04T14:35:00+00:00 21 K 
[TXT]Cengagenow Exam 4 Chapters 15 16 172015-01-05T02:08:00+00:00 25 K 
[TXT]Chapter 11 Mid Quiz Lessons 1 Through 32015-01-05T13:41:00+00:00 18 K 
[TXT]Chapter 19 Section 1 Postwar America2015-01-06T01:14:00+00:00 18 K 
[TXT]Chapter 12 8 Proportions In A Right Triangle Answers2015-01-06T12:47:00+00:00 18 K 
[TXT]Chapter 2 Money In Review Dave Ramsey Answers2015-01-07T00:20:00+00:00 24 K 
[TXT]Chapter 29 Section 2 The Triumphs Of A Crusade2015-01-07T11:53:00+00:00 18 K 
[TXT]Chapter 11 Student Activity Sheet Health Plan Overview2015-01-07T23:26:00+00:00 20 K 
[TXT]Chapter 18 Cold War Conflicts Test Answer Key2015-01-08T10:59:00+00:00 19 K 
[TXT]Chapter 15 Darwin S Theory Evolution Crossword Puzzle Answers2015-01-08T22:32:00+00:00 20 K 
[TXT]Chapter 11 Review Answers Money In Dave Ramsey2015-01-09T10:05:00+00:00 24 K 
[TXT]Chapter 11 Section 1 The Scope Of Congressional Powers Answer Key2015-01-09T21:38:00+00:00 17 K 
[TXT]Chapter 9 C Answer Dave Ramsey2015-01-10T09:11:00+00:00 24 K 
[TXT]Chapter 18 World War Ii Section 1 Aggression Appeasement And Question Answers2015-01-10T20:44:00+00:00 18 K 
[TXT]Chapter 14 Word Wise Key2015-01-11T08:17:00+00:00 19 K 
[TXT]Chapter 26 Section 4 Two Nations Live On The Edge Answer Key2015-01-11T19:50:00+00:00 21 K 
[TXT]Chapter 15 Darwin Vocabulary Review2015-01-12T07:23:00+00:00 19 K 
[TXT]Chapter 19 Popular Culture Answers2015-01-12T18:56:00+00:00 18 K 
[TXT]Chapter 33 Section 1 Meeting At Potsdam Germany2015-01-13T06:29:00+00:00 24 K 
[TXT]Chapter Review Thermal Energy Crossword Puzzle2015-01-13T18:02:00+00:00 22 K 
[TXT]Chapter 33 Restructuring The Post War World Crossword Puzzles Answer2015-01-14T05:35:00+00:00 23 K 
[TXT]Chapter 15 Darwin S Theory Of Evolution Vocabulary2015-01-14T17:08:00+00:00 23 K 
[TXT]Chapter 9 Surface Area Plane Geometry Quiz 1 3 Answers2015-01-15T04:41:00+00:00 24 K 
[TXT]Chapter 17 Reformation Vocabuly2015-01-15T16:14:00+00:00 21 K 
[TXT]Chapter 17 Cold War Warm Kitchensworksheet2015-01-16T03:47:00+00:00 20 K 
[TXT]Chapter 22 Section 1 Moving Toward Conflict Answers2015-01-16T15:20:00+00:00 18 K 
[TXT]Chapter 18 World War 2 Section 1 Aggression Appeasement And2015-01-17T02:53:00+00:00 25 K 
[TXT]Chapter 17 Section 4 The Cold War Divides World2015-01-17T14:26:00+00:00 21 K 
[TXT]Chapter 19 Section 5 China Reform And Reaction Answers2015-01-18T01:59:00+00:00 17 K 
[TXT]Chapter 16 Evolution Of Populations Test2015-01-18T13:32:00+00:00 17 K 
[TXT]Chapter 12 Review Solutions Answer Key2015-01-19T01:05:00+00:00 23 K 
[TXT]Chapter 15 Darwin S Theory Of Evolution Vocabulary Crossword2015-01-19T12:38:00+00:00 22 K 
[TXT]Chapter 12 Stoichiometry Test B Answers2015-01-20T00:11:00+00:00 25 K 
[TXT]Chapter 27 Section 1 Reteaching Activity Postwar America2015-01-20T11:44:00+00:00 25 K 
[TXT]Crossword Puzzle Earth Science Chapter 202015-01-20T23:17:00+00:00 24 K 
[TXT]Chapter 24 Section 1 A Conservative Movement Emerges Answers2015-01-21T10:50:00+00:00 18 K 
[TXT]Chapter 12 4 Universal Forces2015-01-21T22:23:00+00:00 24 K 
[TXT]Chapter 10 Section 2 The History Of American Banking Quiz B2015-01-22T09:56:00+00:00 17 K 
[TXT]Chapter 33 Comservative Tide Worksheet2015-01-22T21:29:00+00:00 22 K 
[TXT]Chapter 5 Consumer Awareness Dave Ramsey2015-01-23T09:02:00+00:00 17 K 
[TXT]Chapter 33 Section 1 A Conservative Movement Emerges2015-01-23T20:35:00+00:00 20 K 
[TXT]Chapter 4 Test A Dave Ramsey Answers2015-01-24T08:08:00+00:00 20 K 
[TXT]Chapter 15 Darwin S Theory Of Evolution Vocabulary Review Answers Page 1882015-01-24T19:41:00+00:00 18 K 
[TXT]Chapter 33 Section 1 Two Superpowers Face Off Answers Restructuring The Postwar World 3212015-01-25T07:14:00+00:00 18 K 
[TXT]Chapter 1 Test Algebra 2 Mathnmind2015-01-25T18:47:00+00:00 21 K 
[TXT]Chapter 33 Section 1 A Conservative Movement Emerges Notes2015-01-26T06:20:00+00:00 20 K 
[TXT]Chapter 15 Water And Aqueous Systems 3 Heterogeneous2015-01-26T17:53:00+00:00 22 K 
[TXT]Chapter 5 Polity By Craig Carr2015-01-27T05:26:00+00:00 24 K 
[TXT]Chapter 17 Section 1 Cold War Two Superpowers Face Off Answers2015-01-27T16:59:00+00:00 22 K 
[TXT]Chapter 30 The Cold War Unfolds Section One Worksheet2015-01-28T04:32:00+00:00 21 K 
[TXT]Chapter 25 Section 4 Key Termsquzlet The Cold War2015-01-28T16:05:00+00:00 20 K 
[TXT]Chapter 22 Section 1 Reteaching Activity Moving Toward Conflict2015-01-29T03:38:00+00:00 19 K 
[TXT]Cost Accounting Mcgraw Hill Chapter 17 Solutions2015-01-29T15:11:00+00:00 19 K 
[TXT]Chapter 12 Dave Ramsey Test Answer Key2015-01-30T02:44:00+00:00 19 K 
[TXT]Chapter 10 Review The Theory Of Evolution2015-01-30T14:17:00+00:00 24 K 
[TXT]Chapter 16 1 Genes And Variation Answers2015-01-31T01:50:00+00:00 22 K 
[TXT]Chapter 14 Taxes And Government Spending Answers2015-01-31T13:23:00+00:00 20 K 
[TXT]Chhoti Si Bhul Chapter 22015-02-01T00:56:00+00:00 23 K 
[TXT]Chapter 25 Section 1 A Conservative Movement Emerges Book2015-02-01T12:29:00+00:00 18 K 
[TXT]Chapter 11 Section 1 Reteaching Activity The Scramble For Africa Answers2015-02-02T00:02:00+00:00 21 K 
[TXT]Chapter 22 Section 2 U S Involvement And Escalation Answer Key2015-02-02T11:35:00+00:00 24 K 
[TXT]Chapter 11 Money In Review Dave Ramsey Answers2015-02-02T23:08:00+00:00 25 K 
[TXT]Chapter 37 The Eisenhower Era 1952 1960 Review Packet Answers2015-02-03T10:41:00+00:00 18 K 
[TXT]Chapter 33 Section War In Korea And Vietnam Answer Key2015-02-03T22:14:00+00:00 24 K 
[TXT]Chapter 20 Oxidation Reduction Reactions Answers Pearson Lesson Check2015-02-04T09:47:00+00:00 25 K 
[TXT]Chapter 35 Struggles For Democracy Crossword Review Answers2015-02-04T21:20:00+00:00 17 K 
[TXT]Cold War Superpowers Face Off Chapter 33 Answer Key2015-02-05T08:53:00+00:00 25 K 
[TXT]Chapter 25 Section 3 Social Concerns Of The 1980S2015-02-05T20:26:00+00:00 23 K 
[TXT]Chapter 33 Social Concerns In The 1980S2015-02-06T07:59:00+00:00 17 K 
[TXT]Chapter 7 Consumer Equity Answers2015-02-06T19:32:00+00:00 22 K 
[TXT]Chapter 12 Circles Pearson Test Answers2015-02-07T07:05:00+00:00 24 K 
[TXT]Chapter8 Crossword Buen Viaje2015-02-07T18:38:00+00:00 20 K 
[TXT]Chapter 7 Acids Bases And Solutions Cross Word Puzzle2015-02-08T06:11:00+00:00 25 K 
[TXT]Chapter 10 Pre Algebra Glencoe Teacher Resources2015-02-08T17:44:00+00:00 25 K 
[TXT]Chapter 21 The Triumphs Of A Crusade Answers2015-02-09T05:17:00+00:00 22 K 
[TXT]Chapter 12 1 Forces And Motion2015-02-09T16:50:00+00:00 21 K 
[TXT]Chapter 17 Section 1 Cold War Superpowers Face Off2015-02-10T04:23:00+00:00 19 K 
[TXT]Chapter 7 Answers Form G Catawa Schools2015-02-10T15:56:00+00:00 19 K 
[TXT]Chapter 14 The Human Genome 32015-02-11T03:29:00+00:00 19 K 
[TXT]Chapter 13 Section 2 The Western Democracies Stumble2015-02-11T15:02:00+00:00 25 K 
[TXT]Chapter 6 Chemical Bonding Section 2 Covalent Answer Key2015-02-12T02:35:00+00:00 24 K 
[TXT]Chapter 33 Section 2 Communists Take Power In China2015-02-12T14:08:00+00:00 23 K 
[TXT]Chapter 22 Section 2 Reteaching Activity Us Involvement In Escalation2015-02-13T01:41:00+00:00 18 K 
[TXT]Chapter 16 Evolution Of Populations Worksheet Vocab Review Answers2015-02-13T13:14:00+00:00 17 K 
[TXT]Chapter 16 Section 3 Segregation And Discrimination Answers2015-02-14T00:47:00+00:00 25 K 
[TXT]Chapter 22 Moving Toward Conflict2015-02-14T12:20:00+00:00 17 K 
[TXT]Chapter 7 Money In Review Case Studies2015-02-14T23:53:00+00:00 23 K 
[TXT]Chapter 6 Student Activity Sheet Avoiding Online Fraud2015-02-15T11:26:00+00:00 19 K 
[TXT]Chapter 29 Section 2 The Triumphs Of A Crusade Answers2015-02-15T22:59:00+00:00 24 K 
[TXT]Chemistry Chapter 12 Test B Stoichiometry2015-02-16T10:32:00+00:00 24 K 
[TXT]Chapter 11 Section 1 The Scramble For Africa Reteaching Activity Answer2015-02-16T22:05:00+00:00 24 K 
[TXT]Chapter 20 Section 2 Global Economic Development2015-02-17T09:38:00+00:00 22 K 
[TXT]Chapter 27 Section 4 British Imperialism In India2015-02-17T21:11:00+00:00 24 K 
[TXT]Chapter 12 Forces Wordwise2015-02-18T08:44:00+00:00 25 K 
[TXT]Chapter 7 Foundations Personal Finance Workbook Review Answers2015-02-18T20:17:00+00:00 20 K 
[TXT]Chapter 33 Section 1 Reteaching Activity A Conservative Movement Emerges2015-02-19T07:50:00+00:00 23 K 
[TXT]Chapter 37 Respiratory System Physiology2015-02-19T19:23:00+00:00 25 K 
[TXT]Chapter 34 3 The Reproductive System Answers2015-02-20T06:56:00+00:00 20 K 
[TXT]Chapter 11 Section 1 The Scramble Of Africa Reteaching Activity2015-02-20T18:29:00+00:00 20 K 
[TXT]Chapter 22 U S Involvement And Escalation2015-02-21T06:02:00+00:00 17 K 
[TXT]Chapter 14 Questions Human Genome2015-02-21T17:35:00+00:00 25 K 
[TXT]Chapter 33 Section 3 Social Concerns In The 1980S2015-02-22T05:08:00+00:00 19 K 
[TXT]Chapter 11 Section 1 Reteaching Activity The Scramble For Africa2015-02-22T16:41:00+00:00 21 K 
[TXT]Chapter 17 5 Reteaching Activity The Cold War Thaws Answer Key2015-02-23T04:14:00+00:00 24 K 
[TXT]Cp Physics Web Review Chapter14 Light2015-02-23T15:47:00+00:00 18 K 
[TXT]Chapter 28 America In The 1950 S2015-02-24T03:20:00+00:00 17 K 
[TXT]Chapter 16 Section 1 Genes And Variation Pages 393 3962015-02-24T14:53:00+00:00 19 K 
[TXT]Chapter 15 Evolution Crossword Puzzle2015-02-25T02:26:00+00:00 21 K 
[TXT]Chapter 17 Section 1 Cold War Superpowers Face Off Reteaching Activity Answers2015-02-25T13:59:00+00:00 20 K 
[TXT]Chapter 18 Origins Of The Cold War American Us History2015-02-26T01:32:00+00:00 22 K 
[TXT]Chapter 11 Section 5 Quiz The Non Legislative Powers2015-02-26T13:05:00+00:00 21 K 
[TXT]Chapter 25 Reagan And Bush Crossword2015-02-27T00:38:00+00:00 18 K 
[TXT]Chapter 25 Section Quiz Answers A Conservative Movement Emerges2015-02-27T12:11:00+00:00 19 K 
[TXT]Chapter 23 Section 3 Reteaching Activity Culture And Counterculture2015-02-27T23:44:00+00:00 23 K 
[TXT]Chapter 22 Review Nuclear Chemistry2015-02-28T11:17:00+00:00 19 K 
[TXT]Chemistry Matter And Change Chapter 12 Stoichiometry Textbook2015-02-28T22:50:00+00:00 18 K 
[TXT]Chapter 18 Finneytown Physics2015-03-01T10:23:00+00:00 23 K 
[TXT]Cold War Superpowers Face Off Chapter 33 Section 1 Answers2015-03-01T21:56:00+00:00 25 K 
[TXT]Chapter 27 Sectio 4 British Imperialism In India2015-03-02T09:29:00+00:00 21 K 
[TXT]Chapter 28 Section 3 The Great Society Notes2015-03-02T21:02:00+00:00 21 K 
[TXT]Chapter 23 The Respiratory System Worksheet Answers2015-03-03T08:35:00+00:00 23 K 
[TXT]Chapter 17 Cold War Warm Kitchens2015-03-03T20:08:00+00:00 20 K 
[TXT]Chapter 16 2Evolution As Genetic Change2015-03-04T07:41:00+00:00 17 K 
[TXT]Chapter 5 Section 2 The Two Party System Teachers Web2015-03-04T19:14:00+00:00 21 K 
[TXT]Chapter 22 Plant Diversity Vocabulary Review Answer Key2015-03-05T06:47:00+00:00 19 K 
[TXT]Chapter 15 Section 2 Energy Conversion And Conservation Answer Key2015-03-05T18:20:00+00:00 21 K 
[TXT]Chapter 11 Money In Review Short Answers2015-03-06T05:53:00+00:00 19 K 
[TXT]Chapter 29 Section 2 Reteaching Activity The Triumphs Of A Crusade2015-03-06T17:26:00+00:00 19 K 
[TXT]Chapter 14 Making Karyotypes Answer Key2015-03-07T04:59:00+00:00 24 K 
[TXT]Chapter 17 Restructuring The Postwar World Review Answers2015-03-07T16:32:00+00:00 23 K 
[TXT]Chapter 30 Section Quiz Answers U S Involvement And Escalation Mcdougal Littell2015-03-08T04:05:00+00:00 20 K 
[TXT]Chapter 26 4 The Changing Face Of America2015-03-08T15:38:00+00:00 23 K 
[TXT]Chapter 26 Section 2 The New Global Economy Textbook Pg8692015-03-09T03:11:00+00:00 25 K 
[TXT]Chapter 37 Circulatory And Respiratory Systems Vocabulary Review Completion2015-03-09T14:44:00+00:00 24 K 
[TXT]Chapter 5 Test A Answer Key Dave Ramsey2015-03-10T02:17:00+00:00 22 K 
[TXT]Chapter 25 Martini2015-03-10T13:50:00+00:00 18 K 
[TXT]Chapter 12 Honors Geometry Practice Test2015-03-11T01:23:00+00:00 25 K 
[TXT]Chapter 22 Oxidation Reduction Reactions Answer Key Pearson Education2015-03-11T12:56:00+00:00 25 K 
[TXT]Chapter 23 Section 1 Latinos And Native Americans Seek2015-03-12T00:29:00+00:00 22 K 
[TXT]Chapter 12 Money Review Dave2015-03-12T12:02:00+00:00 19 K 
[TXT]Chapter 14 Economic Instability Crossword2015-03-12T23:35:00+00:00 21 K 
[TXT]Chapter 25 Section 4 Reteaching Activity Foreign Policy After The Cold War2015-03-13T11:08:00+00:00 18 K 
[TXT]Chapter 11 Section 4 The Implied Powers Answer Key2015-03-13T22:41:00+00:00 21 K 
[TXT]Cold War Superpowers Face Off Chapter 33 Section 12015-03-14T10:14:00+00:00 23 K 
[TXT]Chapter 30 Section Quiz Revolutions In Russia Answers2015-03-14T21:47:00+00:00 24 K 
[TXT]Chapter 33 Section 5 Reteach Activity The Cold War Thaws2015-03-15T09:20:00+00:00 23 K 
[TXT]Chapter 12 Chemistry Review Answers Honors2015-03-15T20:53:00+00:00 25 K 
[TXT]Chapter 30 Section 1 Moving Toward Conflict Answers2015-03-16T08:26:00+00:00 21 K 
[TXT]Chapter 9 Relating With Money2015-03-16T19:59:00+00:00 22 K 
[TXT]Chapter 22 Section 2 Reteaching Activity U S Involvement And Escalation History2015-03-17T07:32:00+00:00 21 K 
[TXT]Chapter 8 Section 2 The Cold War Heats Up2015-03-17T19:05:00+00:00 25 K 
[TXT]Chapter 15 The Cold War Crossword Puzzle Answer2015-03-18T06:38:00+00:00 20 K 
[TXT]Chapter 22 The Vietnam War Notes2015-03-18T18:11:00+00:00 24 K 
[TXT]Chapter 11 Section 2 The Expressed Powers Of Money And Commerce Answers2015-03-19T05:44:00+00:00 17 K 
[TXT]Chapter 13 Section 1 Reteaching Activity Marching Toward War2015-03-19T17:17:00+00:00 25 K 
[TXT]Chapter 18 Section 4 Quiz Conflict In The Middle East2015-03-20T04:50:00+00:00 18 K 
[TXT]Chapter 17 Section 4 Answers Cold War History2015-03-20T16:23:00+00:00 21 K 
[TXT]Chapter 16 Evolution Of Populations Section Review 22015-03-21T03:56:00+00:00 18 K 
[TXT]Chapter 16 Evolution Of Popluation Answer Key2015-03-21T15:29:00+00:00 21 K 
[TXT]Chapter 16 1 Genes And Variations Answers2015-03-22T03:02:00+00:00 20 K 
[TXT]Could War Around The World Chapter 33 Section 42015-03-22T14:35:00+00:00 25 K